Wetterdaten: Mittwoch, 18.04.2018
Datum Zeit Temp. A. Pool Temp. Feuchte A. Luftdruck Regen Wind Richtung Richtung Sonnenschein ET UV Solar Taupunkt Windchill Windben Empfang
18.04.2018 00:00 11,8 C 11,7 C 85 % 1027,8 hPa 0,0 l/m 3,8 km/h (1 Bft) SW 227 0 min 0,000 mm 0,0 UV-I 0 W/m 9,4 C 11,8 C 4,8 km/h (1 Bft) 95,65 %
18.04.2018 00:02 11,6 C 11,7 C 85 % 1027,9 hPa 0,0 l/m 3,8 km/h (1 Bft) SW 227 0 min 0,000 mm 0,0 UV-I 0 W/m 9,2 C 11,6 C 4,8 km/h (1 Bft) 97,50 %
18.04.2018 00:03 11,4 C 11,7 C 85 % 1027,9 hPa 0,0 l/m 3,2 km/h (1 Bft) SW 227 0 min 0,000 mm 0,0 UV-I 0 W/m 9,0 C 11,4 C 3,2 km/h (1 Bft) 100,00 %
18.04.2018 00:04 11,4 C 11,7 C 86 % 1028,0 hPa 0,0 l/m 2,7 km/h (1 Bft) SW 227 0 min 0,000 mm 0,0 UV-I 0 W/m 9,1 C 11,4 C 3,2 km/h (1 Bft) 95,65 %
18.04.2018 00:05 11,4 C 11,7 C 86 % 1028,0 hPa 0,0 l/m 1,8 km/h (1 Bft) SW 227 0 min 0,000 mm 0,0 UV-I 0 W/m 9,1 C 11,4 C 3,2 km/h (1 Bft) 100,00 %
18.04.2018 00:06 11,4 C 11,7 C 86 % 1028,0 hPa 0,0 l/m 1,6 km/h (1 Bft) SW 227 0 min 0,000 mm 0,0 UV-I 0 W/m 9,1 C 11,4 C 1,6 km/h (1 Bft) 91,30 %
18.04.2018 00:07 11,6 C 11,7 C 86 % 1028,0 hPa 0,0 l/m 1,2 km/h (1 Bft) SW 227 0 min 0,000 mm 0,0 UV-I 0 W/m 9,3 C 11,6 C 3,2 km/h (1 Bft) 95,83 %
18.04.2018 00:08 11,6 C 11,7 C 86 % 1028,0 hPa 0,0 l/m 1,6 km/h (1 Bft) SW 227 0 min 0,000 mm 0,0 UV-I 0 W/m 9,3 C 11,6 C 1,6 km/h (1 Bft) 100,00 %
18.04.2018 00:09 11,7 C 11,7 C 86 % 1028,0 hPa 0,0 l/m 0,6 km/h (0 Bft) SW 227 0 min 0,000 mm 0,0 UV-I 0 W/m 9,4 C 11,7 C 1,6 km/h (1 Bft) 95,83 %
18.04.2018 00:10 11,9 C 11,7 C 85 % 1028,0 hPa 0,0 l/m 0,0 km/h (0 Bft) SW 227 0 min 0,000 mm 0,0 UV-I 0 W/m 9,5 C 11,9 C 0,0 km/h (0 Bft) 100,00 %
18.04.2018 00:11 12,1 C 11,7 C 85 % 1028,0 hPa 0,0 l/m 0,0 km/h (0 Bft) SW 227 0 min 0,000 mm 0,0 UV-I 0 W/m 9,7 C 12,1 C 0,0 km/h (0 Bft) 95,83 %
18.04.2018 00:12 12,1 C 11,7 C 84 % 1028,0 hPa 0,0 l/m 0,0 km/h (0 Bft) SW 227 0 min 0,000 mm 0,0 UV-I 0 W/m 9,5 C 12,1 C 0,0 km/h (0 Bft) 100,00 %
18.04.2018 00:13 12,1 C 11,7 C 84 % 1028,0 hPa 0,0 l/m 0,3 km/h (0 Bft) SW 227 0 min 0,000 mm 0,0 UV-I 0 W/m 9,5 C 12,1 C 1,6 km/h (1 Bft) 96,15 %
18.04.2018 00:14 12,1 C 11,7 C 84 % 1028,0 hPa 0,0 l/m 2,5 km/h (1 Bft) SW 227 0 min 0,000 mm 0,0 UV-I 0 W/m 9,5 C 12,1 C 3,2 km/h (1 Bft) 100,00 %
18.04.2018 00:15 12,2 C 11,7 C 84 % 1028,1 hPa 0,0 l/m 3,4 km/h (1 Bft) SW 227 0 min 0,000 mm 0,0 UV-I 0 W/m 9,6 C 12,2 C 4,8 km/h (1 Bft) 95,65 %
18.04.2018 00:16 12,1 C 11,7 C 84 % 1028,1 hPa 0,0 l/m 3,6 km/h (1 Bft) SW 227 0 min 0,000 mm 0,0 UV-I 0 W/m 9,5 C 12,1 C 4,8 km/h (1 Bft) 100,00 %
18.04.2018 00:17 11,9 C 11,7 C 83 % 1028,1 hPa 0,0 l/m 3,0 km/h (1 Bft) SW 227 0 min 0,000 mm 0,0 UV-I 0 W/m 9,1 C 11,9 C 3,2 km/h (1 Bft) 96,15 %
18.04.2018 00:18 11,7 C 11,7 C 83 % 1028,1 hPa 0,0 l/m 3,2 km/h (1 Bft) SW 227 0 min 0,000 mm 0,0 UV-I 0 W/m 8,9 C 11,7 C 3,2 km/h (1 Bft) 100,00 %
18.04.2018 00:19 11,3 C 11,7 C 84 % 1028,1 hPa 0,0 l/m 3,2 km/h (1 Bft) SW 227 0 min 0,000 mm 0,0 UV-I 0 W/m 8,7 C 11,3 C 4,8 km/h (1 Bft) 100,00 %
18.04.2018 00:20 11,2 C 11,7 C 85 % 1028,1 hPa 0,0 l/m 3,8 km/h (1 Bft) SW 227 0 min 0,000 mm 0,0 UV-I 0 W/m 8,8 C 11,2 C 4,8 km/h (1 Bft) 100,00 %
18.04.2018 00:21 11,1 C 11,7 C 86 % 1028,1 hPa 0,0 l/m 4,3 km/h (1 Bft) SW 227 0 min 0,000 mm 0,0 UV-I 0 W/m 8,8 C 11,1 C 4,8 km/h (1 Bft) 100,00 %
18.04.2018 00:22 11,1 C 11,7 C 87 % 1028,1 hPa 0,0 l/m 4,4 km/h (1 Bft) SW 227 0 min 0,000 mm 0,0 UV-I 0 W/m 9,0 C 11,1 C 4,8 km/h (1 Bft) 100,00 %
18.04.2018 00:23 11,1 C 11,7 C 87 % 1028,1 hPa 0,0 l/m 4,5 km/h (1 Bft) SW 227 0 min 0,000 mm 0,0 UV-I 0 W/m 9,0 C 11,1 C 4,8 km/h (1 Bft) 100,00 %
18.04.2018 00:24 11,1 C 11,7 C 87 % 1028,1 hPa 0,0 l/m 4,9 km/h (1 Bft) SW 227 0 min 0,000 mm 0,0 UV-I 0 W/m 9,0 C 11,1 C 6,4 km/h (2 Bft) 100,00 %
18.04.2018 00:25 11,3 C 11,7 C 87 % 1028,1 hPa 0,0 l/m 4,7 km/h (1 Bft) SW 227 0 min 0,000 mm 0,0 UV-I 0 W/m 9,2 C 11,3 C 6,4 km/h (2 Bft) 95,65 %
18.04.2018 00:26 11,2 C 11,7 C 86 % 1028,1 hPa 0,0 l/m 4,5 km/h (1 Bft) SW 227 0 min 0,000 mm 0,0 UV-I 0 W/m 8,9 C 11,2 C 6,4 km/h (2 Bft) 100,00 %
18.04.2018 00:27 11,1 C 11,7 C 85 % 1028,1 hPa 0,0 l/m 3,4 km/h (1 Bft) SW 227 0 min 0,000 mm 0,0 UV-I 0 W/m 8,7 C 11,1 C 4,8 km/h (1 Bft) 95,65 %
18.04.2018 00:28 10,9 C 11,7 C 86 % 1028,1 hPa 0,0 l/m 3,1 km/h (1 Bft) SW 227 0 min 0,000 mm 0,0 UV-I 0 W/m 8,7 C 10,9 C 4,8 km/h (1 Bft) 100,00 %
18.04.2018 00:29 11,1 C 11,7 C 87 % 1028,1 hPa 0,0 l/m 4,0 km/h (1 Bft) SW 227 0 min 0,000 mm 0,0 UV-I 0 W/m 9,0 C 11,1 C 4,8 km/h (1 Bft) 100,00 %
18.04.2018 00:30 11,2 C 11,7 C 88 % 1028,1 hPa 0,0 l/m 4,0 km/h (1 Bft) SW 227 0 min 0,000 mm 0,0 UV-I 0 W/m 9,3 C 11,2 C 4,8 km/h (1 Bft) 100,00 %
18.04.2018 00:31 11,3 C 11,7 C 87 % 1028,1 hPa 0,0 l/m 4,2 km/h (1 Bft) SW 227 0 min 0,000 mm 0,0 UV-I 0 W/m 9,2 C 11,3 C 4,8 km/h (1 Bft) 100,00 %
18.04.2018 00:32 11,4 C 11,7 C 87 % 1028,1 hPa 0,0 l/m 3,2 km/h (1 Bft) SW 227 0 min 0,000 mm 0,0 UV-I 0 W/m 9,3 C 11,4 C 3,2 km/h (1 Bft) 100,00 %
18.04.2018 00:33 11,3 C 11,7 C 86 % 1028,1 hPa 0,0 l/m 3,7 km/h (1 Bft) SW 227 0 min 0,000 mm 0,0 UV-I 0 W/m 9,0 C 11,3 C 4,8 km/h (1 Bft) 95,65 %
18.04.2018 00:34 11,1 C 11,7 C 85 % 1028,1 hPa 0,0 l/m 3,1 km/h (1 Bft) SW 227 0 min 0,000 mm 0,0 UV-I 0 W/m 8,7 C 11,1 C 3,2 km/h (1 Bft) 100,00 %
18.04.2018 00:35 10,9 C 11,7 C 86 % 1028,2 hPa 0,0 l/m 2,1 km/h (1 Bft) SW 227 0 min 0,000 mm 0,0 UV-I 0 W/m 8,7 C 10,9 C 3,2 km/h (1 Bft) 100,00 %
18.04.2018 00:36 10,7 C 11,7 C 86 % 1028,2 hPa 0,0 l/m 1,9 km/h (1 Bft) SW 227 0 min 0,000 mm 0,0 UV-I 0 W/m 8,5 C 10,7 C 3,2 km/h (1 Bft) 100,00 %
18.04.2018 00:37 10,7 C 11,7 C 88 % 1028,2 hPa 0,0 l/m 3,2 km/h (1 Bft) SW 227 0 min 0,000 mm 0,0 UV-I 0 W/m 8,8 C 10,7 C 3,2 km/h (1 Bft) 100,00 %
18.04.2018 00:38 10,7 C 11,7 C 88 % 1028,2 hPa 0,0 l/m 2,7 km/h (1 Bft) SW 227 0 min 0,000 mm 0,0 UV-I 0 W/m 8,8 C 10,7 C 3,2 km/h (1 Bft) 100,00 %
18.04.2018 00:39 10,7 C 11,7 C 89 % 1028,2 hPa 0,0 l/m 2,1 km/h (1 Bft) SW 227 0 min 0,000 mm 0,0 UV-I 0 W/m 9,0 C 10,7 C 3,2 km/h (1 Bft) 100,00 %
18.04.2018 00:40 10,8 C 11,7 C 88 % 1028,2 hPa 0,0 l/m 1,1 km/h (1 Bft) SW 227 0 min 0,000 mm 0,0 UV-I 0 W/m 8,9 C 10,8 C 1,6 km/h (1 Bft) 100,00 %
18.04.2018 00:41 11,0 C 11,7 C 88 % 1028,2 hPa 0,0 l/m 0,2 km/h (0 Bft) SW 227 0 min 0,000 mm 0,0 UV-I 0 W/m 9,1 C 11,0 C 1,6 km/h (1 Bft) 100,00 %
18.04.2018 00:42 11,2 C 11,7 C 88 % 1028,2 hPa 0,0 l/m 0,0 km/h (0 Bft) SW 227 0 min 0,000 mm 0,0 UV-I 0 W/m 9,3 C 11,2 C 0,0 km/h (0 Bft) 100,00 %
18.04.2018 00:43 11,2 C 11,7 C 87 % 1028,2 hPa 0,0 l/m 0,0 km/h (0 Bft) SW 227 0 min 0,000 mm 0,0 UV-I 0 W/m 9,1 C 11,2 C 0,0 km/h (0 Bft) 100,00 %
18.04.2018 00:44 11,2 C 11,7 C 86 % 1028,3 hPa 0,0 l/m 0,0 km/h (0 Bft) SW 227 0 min 0,000 mm 0,0 UV-I 0 W/m 8,9 C 11,2 C 0,0 km/h (0 Bft) 100,00 %
18.04.2018 00:45 11,0 C 11,7 C 86 % 1028,3 hPa 0,0 l/m 0,0 km/h (0 Bft) SW 227 0 min 0,000 mm 0,0 UV-I 0 W/m 8,7 C 11,0 C 0,0 km/h (0 Bft) 100,00 %
18.04.2018 00:46 11,0 C 11,7 C 87 % 1028,2 hPa 0,0 l/m 0,0 km/h (0 Bft) SW 227 0 min 0,000 mm 0,0 UV-I 0 W/m 8,9 C 11,0 C 0,0 km/h (0 Bft) 100,00 %
18.04.2018 00:47 11,0 C 11,7 C 87 % 1028,2 hPa 0,0 l/m 0,9 km/h (0 Bft) SW 227 0 min 0,000 mm 0,0 UV-I 0 W/m 8,9 C 11,0 C 1,6 km/h (1 Bft) 100,00 %
18.04.2018 00:48 11,0 C 11,7 C 87 % 1028,2 hPa 0,0 l/m 2,0 km/h (1 Bft) SW 227 0 min 0,000 mm 0,0 UV-I 0 W/m 8,9 C 11,0 C 3,2 km/h (1 Bft) 100,00 %
18.04.2018 00:49 10,9 C 11,7 C 87 % 1028,2 hPa 0,0 l/m 2,3 km/h (1 Bft) SW 227 0 min 0,000 mm 0,0 UV-I 0 W/m 8,8 C 10,9 C 3,2 km/h (1 Bft) 100,00 %
18.04.2018 00:50 10,9 C 11,7 C 87 % 1028,2 hPa 0,0 l/m 2,3 km/h (1 Bft) SW 227 0 min 0,000 mm 0,0 UV-I 0 W/m 8,8 C 10,9 C 3,2 km/h (1 Bft) 100,00 %
18.04.2018 00:51 10,9 C 11,7 C 87 % 1028,2 hPa 0,0 l/m 2,2 km/h (1 Bft) SW 227 0 min 0,000 mm 0,0 UV-I 0 W/m 8,8 C 10,9 C 3,2 km/h (1 Bft) 100,00 %
18.04.2018 00:52 10,8 C 11,7 C 87 % 1028,3 hPa 0,0 l/m 2,9 km/h (1 Bft) SW 227 0 min 0,000 mm 0,0 UV-I 0 W/m 8,7 C 10,8 C 3,2 km/h (1 Bft) 100,00 %
18.04.2018 00:53 10,6 C 11,7 C 87 % 1028,3 hPa 0,0 l/m 2,4 km/h (1 Bft) SW 227 0 min 0,000 mm 0,0 UV-I 0 W/m 8,5 C 10,6 C 3,2 km/h (1 Bft) 100,00 %
18.04.2018 00:54 10,4 C 11,7 C 88 % 1028,3 hPa 0,0 l/m 1,5 km/h (1 Bft) SW 227 0 min 0,000 mm 0,0 UV-I 0 W/m 8,5 C 10,4 C 3,2 km/h (1 Bft) 100,00 %
18.04.2018 00:55 10,3 C 11,7 C 88 % 1028,3 hPa 0,0 l/m 2,0 km/h (1 Bft) SW 227 0 min 0,000 mm 0,0 UV-I 0 W/m 8,4 C 10,3 C 3,2 km/h (1 Bft) 100,00 %
18.04.2018 00:56 10,3 C 11,7 C 89 % 1028,3 hPa 0,0 l/m 2,0 km/h (1 Bft) SW 227 0 min 0,000 mm 0,0 UV-I 0 W/m 8,6 C 10,3 C 3,2 km/h (1 Bft) 96,15 %
18.04.2018 00:57 10,4 C 11,7 C 89 % 1028,3 hPa 0,0 l/m 1,4 km/h (1 Bft) SW 227 0 min 0,000 mm 0,0 UV-I 0 W/m 8,7 C 10,4 C 3,2 km/h (1 Bft) 91,67 %
18.04.2018 00:58 10,4 C 11,7 C 89 % 1028,3 hPa 0,0 l/m 2,2 km/h (1 Bft) SW 227 0 min 0,000 mm 0,0 UV-I 0 W/m 8,7 C 10,4 C 3,2 km/h (1 Bft) 96,30 %
18.04.2018 00:59 10,4 C 11,7 C 89 % 1028,4 hPa 0,0 l/m 2,6 km/h (1 Bft) SW 227 0 min 0,000 mm 0,0 UV-I 0 W/m 8,7 C 10,4 C 3,2 km/h (1 Bft) 100,00 %
18.04.2018 01:00 10,4 C 11,7 C 89 % 1028,4 hPa 0,0 l/m 2,9 km/h (1 Bft) SW 227 0 min 0,000 mm 0,0 UV-I 0 W/m 8,7 C 10,4 C 3,2 km/h (1 Bft) 95,83 %
18.04.2018 01:01 10,4 C 11,7 C 89 % 1028,4 hPa 0,0 l/m 2,1 km/h (1 Bft) SW 227 0 min 0,000 mm 0,0 UV-I 0 W/m 8,7 C 10,4 C 3,2 km/h (1 Bft) 95,83 %
18.04.2018 01:02 10,4 C 11,7 C 89 % 1028,4 hPa 0,0 l/m 1,0 km/h (0 Bft) SW 227 0 min 0,000 mm 0,0 UV-I 0 W/m 8,7 C 10,4 C 1,6 km/h (1 Bft) 95,83 %
18.04.2018 01:03 10,4 C 11,7 C 88 % 1028,4 hPa 0,0 l/m 2,3 km/h (1 Bft) SW 227 0 min 0,000 mm 0,0 UV-I 0 W/m 8,5 C 10,4 C 3,2 km/h (1 Bft) 96,15 %
18.04.2018 01:04 10,4 C 11,7 C 88 % 1028,4 hPa 0,0 l/m 2,6 km/h (1 Bft) SW 227 0 min 0,000 mm 0,0 UV-I 0 W/m 8,5 C 10,4 C 3,2 km/h (1 Bft) 95,83 %
18.04.2018 01:05 10,3 C 11,7 C 88 % 1028,5 hPa 0,0 l/m 0,1 km/h (0 Bft) SW 227 0 min 0,000 mm 0,0 UV-I 0 W/m 8,4 C 10,3 C 1,6 km/h (1 Bft) 96,15 %
18.04.2018 01:06 10,2 C 11,7 C 88 % 1028,5 hPa 0,0 l/m 0,0 km/h (0 Bft) SW 227 0 min 0,000 mm 0,0 UV-I 0 W/m 8,3 C 10,2 C 0,0 km/h (0 Bft) 100,00 %
18.04.2018 01:07 10,2 C 11,7 C 89 % 1028,5 hPa 0,0 l/m 0,1 km/h (0 Bft) SW 227 0 min 0,000 mm 0,0 UV-I 0 W/m 8,5 C 10,2 C 1,6 km/h (1 Bft) 95,65 %
18.04.2018 01:08 10,3 C 11,7 C 90 % 1028,5 hPa 0,0 l/m 0,8 km/h (0 Bft) SW 227 0 min 0,000 mm 0,0 UV-I 0 W/m 8,7 C 10,3 C 1,6 km/h (1 Bft) 100,00 %
18.04.2018 01:09 10,3 C 11,7 C 90 % 1028,5 hPa 0,0 l/m 0,5 km/h (0 Bft) SW 227 0 min 0,000 mm 0,0 UV-I 0 W/m 8,7 C 10,3 C 1,6 km/h (1 Bft) 98,56 %
18.04.2018 01:10 10,4 C 11,7 C 89 % 1028,5 hPa 0,0 l/m 0,0 km/h (0 Bft) SW 227 0 min 0,000 mm 0,0 UV-I 0 W/m 8,7 C 10,4 C 0,0 km/h (0 Bft) 97,37 %
18.04.2018 01:11 10,4 C 11,7 C 89 % 1028,5 hPa 0,0 l/m 0,0 km/h (0 Bft) SW 227 0 min 0,000 mm 0,0 UV-I 0 W/m 8,7 C 10,4 C 0,0 km/h (0 Bft) 95,83 %
18.04.2018 01:12 10,4 C 11,7 C 88 % 1028,5 hPa 0,0 l/m 0,0 km/h (0 Bft) SW 227 0 min 0,000 mm 0,0 UV-I 0 W/m 8,5 C 10,4 C 0,0 km/h (0 Bft) 91,67 %
18.04.2018 01:13 10,4 C 11,7 C 89 % 1028,5 hPa 0,0 l/m 0,0 km/h (0 Bft) SW 227 0 min 0,000 mm 0,0 UV-I 0 W/m 8,7 C 10,4 C 0,0 km/h (0 Bft) 91,67 %
18.04.2018 01:14 10,4 C 11,7 C 89 % 1028,6 hPa 0,0 l/m 0,0 km/h (0 Bft) SW 227 0 min 0,000 mm 0,0 UV-I 0 W/m 8,7 C 10,4 C 0,0 km/h (0 Bft) 95,65 %
18.04.2018 01:15 10,4 C 11,7 C 89 % 1028,6 hPa 0,0 l/m 0,0 km/h (0 Bft) SW 227 0 min 0,000 mm 0,0 UV-I 0 W/m 8,7 C 10,4 C 0,0 km/h (0 Bft) 95,83 %
18.04.2018 01:16 10,4 C 11,7 C 89 % 1028,6 hPa 0,0 l/m 0,0 km/h (0 Bft) SW 227 0 min 0,000 mm 0,0 UV-I 0 W/m 8,7 C 10,4 C 0,0 km/h (0 Bft) 100,00 %
18.04.2018 01:17 10,5 C 11,7 C 89 % 1028,6 hPa 0,0 l/m 0,0 km/h (0 Bft) SW 227 0 min 0,000 mm 0,0 UV-I 0 W/m 8,8 C 10,5 C 0,0 km/h (0 Bft) 95,83 %
18.04.2018 01:18 10,4 C 11,7 C 88 % 1028,6 hPa 0,0 l/m 0,2 km/h (0 Bft) SW 227 0 min 0,000 mm 0,0 UV-I 0 W/m 8,5 C 10,4 C 1,6 km/h (1 Bft) 95,65 %
18.04.2018 01:19 10,3 C 11,7 C 89 % 1028,6 hPa 0,0 l/m 0,3 km/h (0 Bft) SW 227 0 min 0,000 mm 0,0 UV-I 0 W/m 8,6 C 10,3 C 1,6 km/h (1 Bft) 100,00 %
18.04.2018 01:20 10,3 C 11,7 C 89 % 1028,6 hPa 0,0 l/m 0,0 km/h (0 Bft) SW 227 0 min 0,000 mm 0,0 UV-I 0 W/m 8,6 C 10,3 C 0,0 km/h (0 Bft) 95,65 %
18.04.2018 01:21 10,2 C 11,7 C 88 % 1028,6 hPa 0,0 l/m 0,0 km/h (0 Bft) SW 227 0 min 0,000 mm 0,0 UV-I 0 W/m 8,3 C 10,2 C 0,0 km/h (0 Bft) 100,00 %
18.04.2018 01:22 10,2 C 11,7 C 89 % 1028,6 hPa 0,0 l/m 1,5 km/h (1 Bft) SW 227 0 min 0,000 mm 0,0 UV-I 0 W/m 8,5 C 10,2 C 3,2 km/h (1 Bft) 91,30 %
18.04.2018 01:23 10,1 C 11,7 C 89 % 1028,6 hPa 0,0 l/m 0,6 km/h (0 Bft) SW 227 0 min 0,000 mm 0,0 UV-I 0 W/m 8,4 C 10,1 C 1,6 km/h (1 Bft) 100,00 %
18.04.2018 01:24 10,1 C 11,7 C 90 % 1028,6 hPa 0,0 l/m 0,1 km/h (0 Bft) SW 227 0 min 0,000 mm 0,0 UV-I 0 W/m 8,5 C 10,1 C 1,6 km/h (1 Bft) 91,30 %
18.04.2018 01:25 10,2 C 11,7 C 90 % 1028,7 hPa 0,0 l/m 1,3 km/h (1 Bft) SW 227 0 min 0,000 mm 0,0 UV-I 0 W/m 8,6 C 10,2 C 3,2 km/h (1 Bft) 100,00 %
18.04.2018 01:26 10,3 C 11,7 C 90 % 1028,6 hPa 0,0 l/m 1,5 km/h (1 Bft) SW 227 0 min 0,000 mm 0,0 UV-I 0 W/m 8,7 C 10,3 C 3,2 km/h (1 Bft) 91,30 %
18.04.2018 01:27 10,4 C 11,7 C 89 % 1028,6 hPa 0,0 l/m 0,8 km/h (0 Bft) SW 227 0 min 0,000 mm 0,0 UV-I 0 W/m 8,7 C 10,4 C 3,2 km/h (1 Bft) 100,00 %
18.04.2018 01:28 10,5 C 11,7 C 89 % 1028,6 hPa 0,0 l/m 0,0 km/h (0 Bft) SW 227 0 min 0,000 mm 0,0 UV-I 0 W/m 8,8 C 10,5 C 0,0 km/h (0 Bft) 96,15 %
18.04.2018 01:29 10,5 C 11,7 C 88 % 1028,7 hPa 0,0 l/m 0,0 km/h (0 Bft) SW 227 0 min 0,000 mm 0,0 UV-I 0 W/m 8,6 C 10,5 C 0,0 km/h (0 Bft) 95,83 %
18.04.2018 01:30 10,4 C 11,7 C 88 % 1028,7 hPa 0,0 l/m 0,0 km/h (0 Bft) SW 227 0 min 0,000 mm 0,0 UV-I 0 W/m 8,5 C 10,4 C 0,0 km/h (0 Bft) 95,65 %
18.04.2018 01:31 10,4 C 11,7 C 88 % 1028,7 hPa 0,0 l/m 0,0 km/h (0 Bft) SW 227 0 min 0,000 mm 0,0 UV-I 0 W/m 8,5 C 10,4 C 0,0 km/h (0 Bft) 95,83 %
18.04.2018 01:32 10,2 C 11,7 C 88 % 1028,7 hPa 0,0 l/m 0,3 km/h (0 Bft) SW 227 0 min 0,000 mm 0,0 UV-I 0 W/m 8,3 C 10,2 C 1,6 km/h (1 Bft) 95,65 %
18.04.2018 01:33 10,0 C 11,7 C 88 % 1028,7 hPa 0,0 l/m 0,0 km/h (0 Bft) SW 227 0 min 0,000 mm 0,0 UV-I 0 W/m 8,1 C 10,0 C 0,0 km/h (0 Bft) 95,83 %
18.04.2018 01:34 9,9 C 11,7 C 89 % 1028,7 hPa 0,0 l/m 0,0 km/h (0 Bft) SW 227 0 min 0,000 mm 0,0 UV-I 0 W/m 8,2 C 9,9 C 0,0 km/h (0 Bft) 100,00 %
18.04.2018 01:35 9,9 C 11,7 C 89 % 1028,6 hPa 0,0 l/m 0,0 km/h (0 Bft) SW 227 0 min 0,000 mm 0,0 UV-I 0 W/m 8,2 C 9,9 C 0,0 km/h (0 Bft) 95,65 %
18.04.2018 01:36 9,8 C 11,7 C 89 % 1028,7 hPa 0,0 l/m 0,2 km/h (0 Bft) SW 227 0 min 0,000 mm 0,0 UV-I 0 W/m 8,1 C 9,8 C 1,6 km/h (1 Bft) 100,00 %
18.04.2018 01:37 9,7 C 11,7 C 89 % 1028,7 hPa 0,0 l/m 0,8 km/h (0 Bft) SW 227 0 min 0,000 mm 0,0 UV-I 0 W/m 8,0 C 9,7 C 1,6 km/h (1 Bft) 95,65 %
18.04.2018 01:38 9,7 C 11,7 C 90 % 1028,7 hPa 0,0 l/m 0,0 km/h (0 Bft) SW 227 0 min 0,000 mm 0,0 UV-I 0 W/m 8,1 C 9,7 C 0,0 km/h (0 Bft) 95,83 %
18.04.2018 01:39 9,8 C 11,7 C 90 % 1028,7 hPa 0,0 l/m 0,0 km/h (0 Bft) SW 227 0 min 0,000 mm 0,0 UV-I 0 W/m 8,2 C 9,8 C 0,0 km/h (0 Bft) 100,00 %
18.04.2018 01:40 9,8 C 11,7 C 91 % 1028,7 hPa 0,0 l/m 0,0 km/h (0 Bft) SW 227 0 min 0,000 mm 0,0 UV-I 0 W/m 8,4 C 9,8 C 0,0 km/h (0 Bft) 100,00 %
18.04.2018 01:41 9,8 C 11,7 C 90 % 1028,7 hPa 0,0 l/m 0,0 km/h (0 Bft) SW 227 0 min 0,000 mm 0,0 UV-I 0 W/m 8,2 C 9,8 C 0,0 km/h (0 Bft) 95,65 %
18.04.2018 01:42 9,8 C 11,7 C 91 % 1028,7 hPa 0,0 l/m 0,0 km/h (0 Bft) SW 227 0 min 0,000 mm 0,0 UV-I 0 W/m 8,4 C 9,8 C 0,0 km/h (0 Bft) 95,83 %
18.04.2018 01:43 9,8 C 11,7 C 90 % 1028,7 hPa 0,0 l/m 0,0 km/h (0 Bft) SW 227 0 min 0,000 mm 0,0 UV-I 0 W/m 8,2 C 9,8 C 0,0 km/h (0 Bft) 100,00 %
18.04.2018 01:44 9,9 C 11,7 C 90 % 1028,7 hPa 0,0 l/m 0,0 km/h (0 Bft) SW 227 0 min 0,000 mm 0,0 UV-I 0 W/m 8,3 C 9,9 C 0,0 km/h (0 Bft) 95,83 %
18.04.2018 01:45 9,9 C 11,7 C 90 % 1028,7 hPa 0,0 l/m 0,0 km/h (0 Bft) SW 227 0 min 0,000 mm 0,0 UV-I 0 W/m 8,3 C 9,9 C 0,0 km/h (0 Bft) 100,00 %
18.04.2018 01:46 9,9 C 11,7 C 90 % 1028,7 hPa 0,0 l/m 0,0 km/h (0 Bft) SW 227 0 min 0,000 mm 0,0 UV-I 0 W/m 8,3 C 9,9 C 0,0 km/h (0 Bft) 95,83 %
18.04.2018 01:47 9,9 C 11,7 C 90 % 1028,7 hPa 0,0 l/m 0,0 km/h (0 Bft) SW 227 0 min 0,000 mm 0,0 UV-I 0 W/m 8,3 C 9,9 C 0,0 km/h (0 Bft) 100,00 %
18.04.2018 01:48 10,0 C 11,7 C 90 % 1028,7 hPa 0,0 l/m 0,0 km/h (0 Bft) SW 227 0 min 0,000 mm 0,0 UV-I 0 W/m 8,4 C 10,0 C 0,0 km/h (0 Bft) 95,65 %
18.04.2018 01:49 10,0 C 11,7 C 90 % 1028,8 hPa 0,0 l/m 1,3 km/h (1 Bft) SW 227 0 min 0,000 mm 0,0 UV-I 0 W/m 8,4 C 10,0 C 3,2 km/h (1 Bft) 100,00 %
18.04.2018 01:50 10,0 C 11,7 C 90 % 1028,8 hPa 0,0 l/m 2,5 km/h (1 Bft) SW 227 0 min 0,000 mm 0,0 UV-I 0 W/m 8,4 C 10,0 C 3,2 km/h (1 Bft) 95,65 %
18.04.2018 01:51 10,0 C 11,7 C 90 % 1028,8 hPa 0,0 l/m 3,0 km/h (1 Bft) SW 227 0 min 0,000 mm 0,0 UV-I 0 W/m 8,4 C 10,0 C 3,2 km/h (1 Bft) 95,83 %
18.04.2018 01:52 9,9 C 11,7 C 90 % 1028,8 hPa 0,0 l/m 2,6 km/h (1 Bft) SW 227 0 min 0,000 mm 0,0 UV-I 0 W/m 8,3 C 9,9 C 3,2 km/h (1 Bft) 95,65 %
18.04.2018 01:53 9,9 C 11,7 C 90 % 1028,8 hPa 0,0 l/m 3,2 km/h (1 Bft) SW 227 0 min 0,000 mm 0,0 UV-I 0 W/m 8,3 C 9,9 C 3,2 km/h (1 Bft) 100,00 %
18.04.2018 01:54 9,9 C 11,7 C 90 % 1028,8 hPa 0,0 l/m 3,8 km/h (1 Bft) SW 227 0 min 0,000 mm 0,0 UV-I 0 W/m 8,3 C 9,9 C 4,8 km/h (1 Bft) 100,00 %
18.04.2018 01:55 9,8 C 11,7 C 89 % 1028,8 hPa 0,0 l/m 3,7 km/h (1 Bft) SW 227 0 min 0,000 mm 0,0 UV-I 0 W/m 8,1 C 9,8 C 4,8 km/h (1 Bft) 95,83 %
18.04.2018 01:56 9,7 C 11,7 C 89 % 1028,8 hPa 0,0 l/m 2,7 km/h (1 Bft) SW 227 0 min 0,000 mm 0,0 UV-I 0 W/m 8,0 C 9,7 C 3,2 km/h (1 Bft) 96,15 %
18.04.2018 01:57 9,6 C 11,7 C 89 % 1028,8 hPa 0,0 l/m 3,2 km/h (1 Bft) SW 227 0 min 0,000 mm 0,0 UV-I 0 W/m 7,9 C 9,6 C 4,8 km/h (1 Bft) 95,83 %
18.04.2018 01:58 9,5 C 11,7 C 90 % 1028,8 hPa 0,0 l/m 3,4 km/h (1 Bft) SW 227 0 min 0,000 mm 0,0 UV-I 0 W/m 7,9 C 9,5 C 4,8 km/h (1 Bft) 100,00 %
18.04.2018 01:59 9,6 C 11,7 C 91 % 1028,8 hPa 0,0 l/m 2,5 km/h (1 Bft) SW 227 0 min 0,000 mm 0,0 UV-I 0 W/m 8,2 C 9,6 C 3,2 km/h (1 Bft) 100,00 %
18.04.2018 02:00 9,7 C 11,7 C 91 % 1028,8 hPa 0,0 l/m 2,7 km/h (1 Bft) SW 227 0 min 0,000 mm 0,0 UV-I 0 W/m 8,3 C 9,7 C 3,2 km/h (1 Bft) 88,46 %
18.04.2018 02:01 9,8 C 11,7 C 91 % 1028,8 hPa 0,0 l/m 3,1 km/h (1 Bft) SW 227 0 min 0,000 mm 0,0 UV-I 0 W/m 8,4 C 9,8 C 3,2 km/h (1 Bft) 100,00 %
18.04.2018 02:02 9,8 C 11,7 C 91 % 1028,8 hPa 0,0 l/m 3,2 km/h (1 Bft) SW 227 0 min 0,000 mm 0,0 UV-I 0 W/m 8,4 C 9,8 C 4,8 km/h (1 Bft) 95,65 %
18.04.2018 02:03 9,8 C 11,7 C 90 % 1028,9 hPa 0,0 l/m 2,2 km/h (1 Bft) SW 227 0 min 0,000 mm 0,0 UV-I 0 W/m 8,2 C 9,8 C 3,2 km/h (1 Bft) 100,00 %
18.04.2018 02:04 9,6 C 11,7 C 89 % 1028,8 hPa 0,0 l/m 2,9 km/h (1 Bft) SW 227 0 min 0,000 mm 0,0 UV-I 0 W/m 7,9 C 9,6 C 3,2 km/h (1 Bft) 91,30 %
18.04.2018 02:05 9,4 C 11,7 C 90 % 1028,8 hPa 0,0 l/m 2,7 km/h (1 Bft) SW 227 0 min 0,000 mm 0,0 UV-I 0 W/m 7,8 C 9,4 C 3,2 km/h (1 Bft) 100,00 %
18.04.2018 02:06 9,2 C 11,7 C 90 % 1028,8 hPa 0,0 l/m 2,2 km/h (1 Bft) SW 227 0 min 0,000 mm 0,0 UV-I 0 W/m 7,6 C 9,2 C 3,2 km/h (1 Bft) 95,83 %
18.04.2018 02:07 9,1 C 11,7 C 90 % 1028,8 hPa 0,0 l/m 2,1 km/h (1 Bft) SW 227 0 min 0,000 mm 0,0 UV-I 0 W/m 7,5 C 9,1 C 3,2 km/h (1 Bft) 100,00 %
18.04.2018 02:08 9,1 C 11,7 C 91 % 1028,8 hPa 0,0 l/m 2,6 km/h (1 Bft) SW 227 0 min 0,000 mm 0,0 UV-I 0 W/m 7,7 C 9,1 C 3,2 km/h (1 Bft) 95,83 %
18.04.2018 02:09 9,1 C 11,7 C 91 % 1028,8 hPa 0,0 l/m 2,8 km/h (1 Bft) S-SW 209 0 min 0,000 mm 0,0 UV-I 0 W/m 7,7 C 9,1 C 4,8 km/h (1 Bft) 95,65 %
18.04.2018 02:10 9,2 C 11,7 C 92 % 1028,8 hPa 0,0 l/m 2,3 km/h (1 Bft) S-SW 207 0 min 0,000 mm 0,0 UV-I 0 W/m 8,0 C 9,2 C 3,2 km/h (1 Bft) 95,83 %
18.04.2018 02:11 9,2 C 11,7 C 91 % 1028,8 hPa 0,0 l/m 2,6 km/h (1 Bft) S-SW 207 0 min 0,000 mm 0,0 UV-I 0 W/m 7,8 C 9,2 C 3,2 km/h (1 Bft) 95,65 %
18.04.2018 02:12 9,2 C 11,7 C 92 % 1028,8 hPa 0,0 l/m 2,2 km/h (1 Bft) S-SW 207 0 min 0,000 mm 0,0 UV-I 0 W/m 8,0 C 9,2 C 3,2 km/h (1 Bft) 100,00 %
18.04.2018 02:13 9,3 C 11,7 C 92 % 1028,8 hPa 0,0 l/m 2,1 km/h (1 Bft) S-SW 207 0 min 0,000 mm 0,0 UV-I 0 W/m 8,1 C 9,3 C 3,2 km/h (1 Bft) 95,65 %
18.04.2018 02:14 9,3 C 11,7 C 92 % 1028,8 hPa 0,0 l/m 1,8 km/h (1 Bft) S-SW 207 0 min 0,000 mm 0,0 UV-I 0 W/m 8,1 C 9,3 C 3,2 km/h (1 Bft) 100,00 %
18.04.2018 02:15 9,4 C 11,7 C 92 % 1028,8 hPa 0,0 l/m 1,7 km/h (1 Bft) S-SW 207 0 min 0,000 mm 0,0 UV-I 0 W/m 8,2 C 9,4 C 3,2 km/h (1 Bft) 95,65 %
18.04.2018 02:16 9,6 C 11,7 C 92 % 1028,8 hPa 0,0 l/m 0,5 km/h (0 Bft) S-SW 207 0 min 0,000 mm 0,0 UV-I 0 W/m 8,4 C 9,6 C 1,6 km/h (1 Bft) 100,00 %
18.04.2018 02:17 9,5 C 11,7 C 91 % 1028,9 hPa 0,0 l/m 0,0 km/h (0 Bft) S-SW 207 0 min 0,000 mm 0,0 UV-I 0 W/m 8,1 C 9,5 C 0,0 km/h (0 Bft) 95,83 %
18.04.2018 02:18 9,5 C 11,7 C 91 % 1028,8 hPa 0,0 l/m 0,0 km/h (0 Bft) S-SW 207 0 min 0,000 mm 0,0 UV-I 0 W/m 8,1 C 9,5 C 0,0 km/h (0 Bft) 95,83 %
18.04.2018 02:19 9,5 C 11,7 C 91 % 1028,9 hPa 0,0 l/m 0,0 km/h (0 Bft) S-SW 207 0 min 0,000 mm 0,0 UV-I 0 W/m 8,1 C 9,5 C 0,0 km/h (0 Bft) 95,65 %
18.04.2018 02:20 9,5 C 11,7 C 91 % 1028,9 hPa 0,0 l/m 0,5 km/h (0 Bft) S-SW 207 0 min 0,000 mm 0,0 UV-I 0 W/m 8,1 C 9,5 C 3,2 km/h (1 Bft) 91,67 %
18.04.2018 02:21 9,5 C 11,7 C 91 % 1028,9 hPa 0,0 l/m 2,6 km/h (1 Bft) S-SW 207 0 min 0,000 mm 0,0 UV-I 0 W/m 8,1 C 9,5 C 3,2 km/h (1 Bft) 92,86 %
18.04.2018 02:22 9,6 C 11,7 C 91 % 1028,8 hPa 0,0 l/m 2,1 km/h (1 Bft) S-SW 207 0 min 0,000 mm 0,0 UV-I 0 W/m 8,2 C 9,6 C 3,2 km/h (1 Bft) 96,30 %
18.04.2018 02:23 9,5 C 11,7 C 90 % 1028,8 hPa 0,0 l/m 2,2 km/h (1 Bft) S-SW 207 0 min 0,000 mm 0,0 UV-I 0 W/m 7,9 C 9,5 C 3,2 km/h (1 Bft) 100,00 %
18.04.2018 02:24 9,5 C 11,7 C 90 % 1028,9 hPa 0,0 l/m 2,3 km/h (1 Bft) S-SW 207 0 min 0,000 mm 0,0 UV-I 0 W/m 7,9 C 9,5 C 3,2 km/h (1 Bft) 95,83 %
18.04.2018 02:25 9,4 C 11,7 C 90 % 1028,9 hPa 0,0 l/m 2,9 km/h (1 Bft) S-SW 207 0 min 0,000 mm 0,0 UV-I 0 W/m 7,8 C 9,4 C 3,2 km/h (1 Bft) 91,30 %
18.04.2018 02:26 9,4 C 11,7 C 90 % 1028,9 hPa 0,0 l/m 3,1 km/h (1 Bft) S-SW 207 0 min 0,000 mm 0,0 UV-I 0 W/m 7,8 C 9,4 C 3,2 km/h (1 Bft) 95,83 %
18.04.2018 02:27 9,3 C 11,7 C 90 % 1028,9 hPa 0,0 l/m 3,0 km/h (1 Bft) S-SW 207 0 min 0,000 mm 0,0 UV-I 0 W/m 7,7 C 9,3 C 3,2 km/h (1 Bft) 95,83 %
18.04.2018 02:28 9,2 C 11,7 C 90 % 1028,9 hPa 0,0 l/m 2,7 km/h (1 Bft) S-SW 207 0 min 0,000 mm 0,0 UV-I 0 W/m 7,6 C 9,2 C 3,2 km/h (1 Bft) 95,65 %
18.04.2018 02:29 9,2 C 11,7 C 90 % 1028,9 hPa 0,0 l/m 3,0 km/h (1 Bft) S-SW 207 0 min 0,000 mm 0,0 UV-I 0 W/m 7,6 C 9,2 C 3,2 km/h (1 Bft) 95,83 %
18.04.2018 02:30 9,1 C 11,7 C 90 % 1028,9 hPa 0,0 l/m 3,1 km/h (1 Bft) S-SW 207 0 min 0,000 mm 0,0 UV-I 0 W/m 7,5 C 9,1 C 3,2 km/h (1 Bft) 95,65 %
18.04.2018 02:31 9,1 C 11,7 C 91 % 1028,9 hPa 0,0 l/m 2,3 km/h (1 Bft) S-SW 207 0 min 0,000 mm 0,0 UV-I 0 W/m 7,7 C 9,1 C 3,2 km/h (1 Bft) 95,83 %
18.04.2018 02:32 9,1 C 11,7 C 91 % 1029,0 hPa 0,0 l/m 2,3 km/h (1 Bft) S-SW 207 0 min 0,000 mm 0,0 UV-I 0 W/m 7,7 C 9,1 C 3,2 km/h (1 Bft) 95,65 %
18.04.2018 02:33 9,1 C 11,7 C 91 % 1028,9 hPa 0,0 l/m 3,0 km/h (1 Bft) S-SW 207 0 min 0,000 mm 0,0 UV-I 0 W/m 7,7 C 9,1 C 3,2 km/h (1 Bft) 97,14 %
18.04.2018 02:34 9,1 C 11,7 C 91 % 1028,9 hPa 0,0 l/m 2,6 km/h (1 Bft) S-SW 207 0 min 0,000 mm 0,0 UV-I 0 W/m 7,7 C 9,1 C 3,2 km/h (1 Bft) 100,00 %
18.04.2018 02:35 9,1 C 11,7 C 91 % 1029,0 hPa 0,0 l/m 2,7 km/h (1 Bft) S-SW 207 0 min 0,000 mm 0,0 UV-I 0 W/m 7,7 C 9,1 C 3,2 km/h (1 Bft) 95,83 %
18.04.2018 02:36 9,1 C 11,7 C 91 % 1028,9 hPa 0,0 l/m 3,2 km/h (1 Bft) S-SW 207 0 min 0,000 mm 0,0 UV-I 0 W/m 7,7 C 9,1 C 4,8 km/h (1 Bft) 95,65 %
18.04.2018 02:37 9,1 C 11,7 C 91 % 1028,9 hPa 0,0 l/m 3,6 km/h (1 Bft) S-SW 206 0 min 0,000 mm 0,0 UV-I 0 W/m 7,7 C 9,1 C 4,8 km/h (1 Bft) 100,00 %
18.04.2018 02:38 9,2 C 11,7 C 91 % 1029,0 hPa 0,0 l/m 3,4 km/h (1 Bft) S-SW 206 0 min 0,000 mm 0,0 UV-I 0 W/m 7,8 C 9,2 C 4,8 km/h (1 Bft) 88,46 %
18.04.2018 02:39 9,2 C 11,7 C 91 % 1028,9 hPa 0,0 l/m 3,2 km/h (1 Bft) S-SW 206 0 min 0,000 mm 0,0 UV-I 0 W/m 7,8 C 9,2 C 4,8 km/h (1 Bft) 100,00 %
18.04.2018 02:40 9,1 C 11,7 C 91 % 1028,9 hPa 0,0 l/m 3,0 km/h (1 Bft) S-SW 206 0 min 0,000 mm 0,0 UV-I 0 W/m 7,7 C 9,1 C 4,8 km/h (1 Bft) 91,30 %
18.04.2018 02:41 9,2 C 11,7 C 91 % 1029,0 hPa 0,0 l/m 3,2 km/h (1 Bft) S-SW 206 0 min 0,000 mm 0,0 UV-I 0 W/m 7,8 C 9,2 C 4,8 km/h (1 Bft) 100,00 %
18.04.2018 02:42 9,3 C 11,7 C 92 % 1029,0 hPa 0,0 l/m 2,8 km/h (1 Bft) S-SW 206 0 min 0,000 mm 0,0 UV-I 0 W/m 8,1 C 9,3 C 3,2 km/h (1 Bft) 91,30 %
18.04.2018 02:43 9,4 C 11,7 C 92 % 1029,0 hPa 0,0 l/m 2,4 km/h (1 Bft) S-SW 206 0 min 0,000 mm 0,0 UV-I 0 W/m 8,2 C 9,4 C 3,2 km/h (1 Bft) 96,00 %
18.04.2018 02:44 9,6 C 11,7 C 92 % 1029,0 hPa 0,0 l/m 1,6 km/h (1 Bft) S-SW 206 0 min 0,000 mm 0,0 UV-I 0 W/m 8,4 C 9,6 C 3,2 km/h (1 Bft) 95,65 %
18.04.2018 02:45 9,6 C 11,7 C 91 % 1029,0 hPa 0,0 l/m 0,3 km/h (0 Bft) S-SW 206 0 min 0,000 mm 0,0 UV-I 0 W/m 8,2 C 9,6 C 1,6 km/h (1 Bft) 91,67 %
18.04.2018 02:46 9,6 C 11,7 C 91 % 1029,0 hPa 0,0 l/m 0,7 km/h (0 Bft) S-SW 206 0 min 0,000 mm 0,0 UV-I 0 W/m 8,2 C 9,6 C 1,6 km/h (1 Bft) 100,00 %
18.04.2018 02:47 9,6 C 11,7 C 90 % 1029,0 hPa 0,0 l/m 0,9 km/h (0 Bft) S-SW 206 0 min 0,000 mm 0,0 UV-I 0 W/m 8,0 C 9,6 C 1,6 km/h (1 Bft) 100,00 %
18.04.2018 02:48 9,6 C 11,7 C 90 % 1029,0 hPa 0,0 l/m 1,2 km/h (1 Bft) S-SW 206 0 min 0,000 mm 0,0 UV-I 0 W/m 8,0 C 9,6 C 1,6 km/h (1 Bft) 100,00 %
18.04.2018 02:49 9,7 C 11,7 C 90 % 1029,0 hPa 0,0 l/m 1,5 km/h (1 Bft) S-SW 206 0 min 0,000 mm 0,0 UV-I 0 W/m 8,1 C 9,7 C 1,6 km/h (1 Bft) 100,00 %
18.04.2018 02:50 9,7 C 11,7 C 91 % 1029,0 hPa 0,0 l/m 1,6 km/h (1 Bft) S-SW 206 0 min 0,000 mm 0,0 UV-I 0 W/m 8,3 C 9,7 C 1,6 km/h (1 Bft) 100,00 %
18.04.2018 02:51 9,7 C 11,7 C 90 % 1029,0 hPa 0,0 l/m 1,3 km/h (1 Bft) S-SW 206 0 min 0,000 mm 0,0 UV-I 0 W/m 8,1 C 9,7 C 1,6 km/h (1 Bft) 100,00 %
18.04.2018 02:52 9,7 C 11,7 C 89 % 1029,0 hPa 0,0 l/m 0,8 km/h (0 Bft) S-SW 206 0 min 0,000 mm 0,0 UV-I 0 W/m 8,0 C 9,7 C 1,6 km/h (1 Bft) 100,00 %
18.04.2018 02:53 9,7 C 11,7 C 89 % 1029,0 hPa 0,0 l/m 1,5 km/h (1 Bft) S-SW 206 0 min 0,000 mm 0,0 UV-I 0 W/m 8,0 C 9,7 C 1,6 km/h (1 Bft) 100,00 %
18.04.2018 02:54 9,6 C 11,7 C 89 % 1029,0 hPa 0,0 l/m 1,1 km/h (1 Bft) S-SW 206 0 min 0,000 mm 0,0 UV-I 0 W/m 7,9 C 9,6 C 1,6 km/h (1 Bft) 100,00 %
18.04.2018 02:55 9,6 C 11,7 C 89 % 1029,0 hPa 0,0 l/m 1,4 km/h (1 Bft) S-SW 206 0 min 0,000 mm 0,0 UV-I 0 W/m 7,9 C 9,6 C 1,6 km/h (1 Bft) 100,00 %
18.04.2018 02:56 9,6 C 11,7 C 89 % 1029,0 hPa 0,0 l/m 1,5 km/h (1 Bft) S-SW 206 0 min 0,000 mm 0,0 UV-I 0 W/m 7,9 C 9,6 C 1,6 km/h (1 Bft) 100,00 %
18.04.2018 02:57 9,4 C 11,7 C 89 % 1029,0 hPa 0,0 l/m 1,2 km/h (1 Bft) S-SW 206 0 min 0,000 mm 0,0 UV-I 0 W/m 7,7 C 9,4 C 1,6 km/h (1 Bft) 100,00 %
18.04.2018 02:58 9,4 C 11,7 C 89 % 1029,0 hPa 0,0 l/m 0,6 km/h (0 Bft) S-SW 206 0 min 0,000 mm 0,0 UV-I 0 W/m 7,7 C 9,4 C 1,6 km/h (1 Bft) 100,00 %
18.04.2018 02:59 9,3 C 11,7 C 89 % 1029,0 hPa 0,0 l/m 0,0 km/h (0 Bft) S-SW 206 0 min 0,000 mm 0,0 UV-I 0 W/m 7,6 C 9,3 C 0,0 km/h (0 Bft) 100,00 %
18.04.2018 03:00 9,3 C 11,7 C 89 % 1029,0 hPa 0,0 l/m 0,0 km/h (0 Bft) S-SW 206 0 min 0,000 mm 0,0 UV-I 0 W/m 7,6 C 9,3 C 0,0 km/h (0 Bft) 100,00 %
18.04.2018 03:01 9,3 C 11,7 C 90 % 1029,0 hPa 0,0 l/m 0,0 km/h (0 Bft) S-SW 206 0 min 0,000 mm 0,0 UV-I 0 W/m 7,7 C 9,3 C 0,0 km/h (0 Bft) 100,00 %
18.04.2018 03:02 9,5 C 11,7 C 90 % 1029,0 hPa 0,0 l/m 1,6 km/h (1 Bft) S-SW 206 0 min 0,000 mm 0,0 UV-I 0 W/m 7,9 C 9,5 C 3,2 km/h (1 Bft) 100,00 %
18.04.2018 03:03 9,4 C 11,7 C 89 % 1029,0 hPa 0,0 l/m 1,7 km/h (1 Bft) S-SW 206 0 min 0,000 mm 0,0 UV-I 0 W/m 7,7 C 9,4 C 3,2 km/h (1 Bft) 100,00 %
18.04.2018 03:04 9,4 C 11,7 C 89 % 1029,1 hPa 0,0 l/m 1,6 km/h (1 Bft) S-SW 206 0 min 0,000 mm 0,0 UV-I 0 W/m 7,7 C 9,4 C 1,6 km/h (1 Bft) 100,00 %
18.04.2018 03:05 9,5 C 11,7 C 89 % 1029,1 hPa 0,0 l/m 1,7 km/h (1 Bft) S-SW 206 0 min 0,000 mm 0,0 UV-I 0 W/m 7,8 C 9,5 C 3,2 km/h (1 Bft) 100,00 %
18.04.2018 03:06 9,6 C 11,7 C 90 % 1029,1 hPa 0,0 l/m 1,8 km/h (1 Bft) S-SW 206 0 min 0,000 mm 0,0 UV-I 0 W/m 8,0 C 9,6 C 3,2 km/h (1 Bft) 100,00 %
18.04.2018 03:07 9,7 C 11,7 C 89 % 1029,1 hPa 0,0 l/m 1,6 km/h (1 Bft) S-SW 206 0 min 0,000 mm 0,0 UV-I 0 W/m 8,0 C 9,7 C 3,2 km/h (1 Bft) 100,00 %
18.04.2018 03:08 9,7 C 11,7 C 89 % 1029,1 hPa 0,0 l/m 1,5 km/h (1 Bft) S-SW 206 0 min 0,000 mm 0,0 UV-I 0 W/m 8,0 C 9,7 C 1,6 km/h (1 Bft) 100,00 %
18.04.2018 03:09 9,7 C 11,7 C 88 % 1029,0 hPa 0,0 l/m 1,4 km/h (1 Bft) S-SW 206 0 min 0,000 mm 0,0 UV-I 0 W/m 7,8 C 9,7 C 1,6 km/h (1 Bft) 100,00 %
18.04.2018 03:10 9,6 C 11,7 C 88 % 1029,0 hPa 0,0 l/m 1,6 km/h (1 Bft) S-SW 206 0 min 0,000 mm 0,0 UV-I 0 W/m 7,7 C 9,6 C 1,6 km/h (1 Bft) 100,00 %
18.04.2018 03:11 9,6 C 11,7 C 88 % 1029,1 hPa 0,0 l/m 1,3 km/h (1 Bft) S-SW 206 0 min 0,000 mm 0,0 UV-I 0 W/m 7,7 C 9,6 C 1,6 km/h (1 Bft) 100,00 %
18.04.2018 03:12 9,5 C 11,7 C 88 % 1029,0 hPa 0,0 l/m 1,3 km/h (1 Bft) S-SW 206 0 min 0,000 mm 0,0 UV-I 0 W/m 7,6 C 9,5 C 1,6 km/h (1 Bft) 100,00 %
18.04.2018 03:13 9,5 C 11,7 C 88 % 1029,0 hPa 0,0 l/m 1,3 km/h (1 Bft) S-SW 206 0 min 0,000 mm 0,0 UV-I 0 W/m 7,6 C 9,5 C 1,6 km/h (1 Bft) 100,00 %
18.04.2018 03:14 9,4 C 11,7 C 89 % 1029,0 hPa 0,0 l/m 1,0 km/h (0 Bft) S-SW 206 0 min 0,000 mm 0,0 UV-I 0 W/m 7,7 C 9,4 C 1,6 km/h (1 Bft) 100,00 %
18.04.2018 03:15 9,4 C 11,7 C 89 % 1029,0 hPa 0,0 l/m 0,8 km/h (0 Bft) S-SW 206 0 min 0,000 mm 0,0 UV-I 0 W/m 7,7 C 9,4 C 1,6 km/h (1 Bft) 100,00 %
18.04.2018 03:16 9,5 C 11,7 C 89 % 1029,0 hPa 0,0 l/m 1,1 km/h (1 Bft) S-SW 206 0 min 0,000 mm 0,0 UV-I 0 W/m 7,8 C 9,5 C 1,6 km/h (1 Bft) 95,65 %
18.04.2018 03:17 9,5 C 11,7 C 89 % 1029,0 hPa 0,0 l/m 1,2 km/h (1 Bft) S-SW 206 0 min 0,000 mm 0,0 UV-I 0 W/m 7,8 C 9,5 C 1,6 km/h (1 Bft) 100,00 %
18.04.2018 03:18 9,6 C 11,7 C 89 % 1029,0 hPa 0,0 l/m 1,4 km/h (1 Bft) S-SW 206 0 min 0,000 mm 0,0 UV-I 0 W/m 7,9 C 9,6 C 3,2 km/h (1 Bft) 100,00 %
18.04.2018 03:19 9,6 C 11,7 C 88 % 1029,0 hPa 0,0 l/m 1,7 km/h (1 Bft) S-SW 206 0 min 0,000 mm 0,0 UV-I 0 W/m 7,7 C 9,6 C 3,2 km/h (1 Bft) 100,00 %
18.04.2018 03:20 9,6 C 11,7 C 88 % 1029,0 hPa 0,0 l/m 1,5 km/h (1 Bft) S-SW 206 0 min 0,000 mm 0,0 UV-I 0 W/m 7,7 C 9,6 C 3,2 km/h (1 Bft) 100,00 %
18.04.2018 03:21 9,6 C 11,7 C 88 % 1029,1 hPa 0,0 l/m 0,3 km/h (0 Bft) S-SW 206 0 min 0,000 mm 0,0 UV-I 0 W/m 7,7 C 9,6 C 1,6 km/h (1 Bft) 95,83 %
18.04.2018 03:22 9,5 C 11,7 C 88 % 1029,1 hPa 0,0 l/m 0,0 km/h (0 Bft) S-SW 206 0 min 0,000 mm 0,0 UV-I 0 W/m 7,6 C 9,5 C 0,0 km/h (0 Bft) 100,00 %
18.04.2018 03:23 9,3 C 11,7 C 88 % 1029,1 hPa 0,0 l/m 0,0 km/h (0 Bft) S-SW 206 0 min 0,000 mm 0,0 UV-I 0 W/m 7,4 C 9,3 C 0,0 km/h (0 Bft) 100,00 %
18.04.2018 03:24 9,2 C 11,7 C 88 % 1029,1 hPa 0,0 l/m 0,0 km/h (0 Bft) S-SW 206 0 min 0,000 mm 0,0 UV-I 0 W/m 7,3 C 9,2 C 0,0 km/h (0 Bft) 100,00 %
18.04.2018 03:25 9,1 C 11,7 C 88 % 1029,1 hPa 0,0 l/m 0,0 km/h (0 Bft) S-SW 206 0 min 0,000 mm 0,0 UV-I 0 W/m 7,2 C 9,1 C 0,0 km/h (0 Bft) 100,00 %
18.04.2018 03:26 9,0 C 11,7 C 89 % 1029,1 hPa 0,0 l/m 0,0 km/h (0 Bft) S-SW 206 0 min 0,000 mm 0,0 UV-I 0 W/m 7,3 C 9,0 C 0,0 km/h (0 Bft) 100,00 %
18.04.2018 03:27 8,9 C 11,7 C 89 % 1029,1 hPa 0,0 l/m 0,0 km/h (0 Bft) S-SW 206 0 min 0,000 mm 0,0 UV-I 0 W/m 7,2 C 8,9 C 0,0 km/h (0 Bft) 100,00 %
18.04.2018 03:28 8,8 C 11,7 C 90 % 1029,1 hPa 0,0 l/m 0,0 km/h (0 Bft) S-SW 206 0 min 0,000 mm 0,0 UV-I 0 W/m 7,3 C 8,8 C 0,0 km/h (0 Bft) 100,00 %
18.04.2018 03:29 8,8 C 11,7 C 90 % 1029,1 hPa 0,0 l/m 0,0 km/h (0 Bft) S-SW 206 0 min 0,000 mm 0,0 UV-I 0 W/m 7,3 C 8,8 C 0,0 km/h (0 Bft) 95,65 %
18.04.2018 03:30 8,8 C 11,7 C 90 % 1029,1 hPa 0,0 l/m 0,0 km/h (0 Bft) S-SW 206 0 min 0,000 mm 0,0 UV-I 0 W/m 7,3 C 8,8 C 0,0 km/h (0 Bft) 100,00 %
18.04.2018 03:31 8,8 C 11,7 C 90 % 1029,1 hPa 0,0 l/m 1,3 km/h (1 Bft) S-SW 206 0 min 0,000 mm 0,0 UV-I 0 W/m 7,3 C 8,8 C 3,2 km/h (1 Bft) 100,00 %
18.04.2018 03:32 8,8 C 11,7 C 91 % 1029,1 hPa 0,0 l/m 2,2 km/h (1 Bft) S-SW 206 0 min 0,000 mm 0,0 UV-I 0 W/m 7,4 C 8,8 C 3,2 km/h (1 Bft) 100,00 %
18.04.2018 03:33 8,8 C 11,7 C 91 % 1029,1 hPa 0,0 l/m 3,0 km/h (1 Bft) S-SW 206 0 min 0,000 mm 0,0 UV-I 0 W/m 7,4 C 8,8 C 3,2 km/h (1 Bft) 100,00 %
18.04.2018 03:34 8,8 C 11,7 C 91 % 1029,1 hPa 0,0 l/m 3,2 km/h (1 Bft) S-SW 206 0 min 0,000 mm 0,0 UV-I 0 W/m 7,4 C 8,8 C 3,2 km/h (1 Bft) 100,00 %
18.04.2018 03:35 8,8 C 11,7 C 91 % 1029,1 hPa 0,0 l/m 3,9 km/h (1 Bft) S-SW 206 0 min 0,000 mm 0,0 UV-I 0 W/m 7,4 C 8,8 C 4,8 km/h (1 Bft) 100,00 %
18.04.2018 03:36 8,8 C 11,7 C 91 % 1029,1 hPa 0,0 l/m 3,8 km/h (1 Bft) S-SW 206 0 min 0,000 mm 0,0 UV-I 0 W/m 7,4 C 8,8 C 4,8 km/h (1 Bft) 100,00 %
18.04.2018 03:37 8,8 C 11,7 C 91 % 1029,1 hPa 0,0 l/m 3,9 km/h (1 Bft) S-SW 206 0 min 0,000 mm 0,0 UV-I 0 W/m 7,4 C 8,8 C 4,8 km/h (1 Bft) 100,00 %
18.04.2018 03:38 8,8 C 11,7 C 91 % 1029,2 hPa 0,0 l/m 3,5 km/h (1 Bft) S-SW 206 0 min 0,000 mm 0,0 UV-I 0 W/m 7,4 C 8,8 C 4,8 km/h (1 Bft) 95,83 %
18.04.2018 03:39 8,8 C 11,7 C 91 % 1029,1 hPa 0,0 l/m 4,1 km/h (1 Bft) S-SW 206 0 min 0,000 mm 0,0 UV-I 0 W/m 7,4 C 8,8 C 4,8 km/h (1 Bft) 100,00 %
18.04.2018 03:40 8,8 C 11,7 C 92 % 1029,1 hPa 0,0 l/m 4,8 km/h (1 Bft) S-SW 206 0 min 0,000 mm 0,0 UV-I 0 W/m 7,6 C 8,8 C 6,4 km/h (2 Bft) 100,00 %
18.04.2018 03:41 8,8 C 11,7 C 92 % 1029,1 hPa 0,0 l/m 4,9 km/h (1 Bft) S-SW 206 0 min 0,000 mm 0,0 UV-I 0 W/m 7,6 C 8,8 C 6,4 km/h (2 Bft) 100,00 %
18.04.2018 03:42 8,9 C 11,7 C 92 % 1029,1 hPa 0,0 l/m 5,2 km/h (1 Bft) S-SW 206 0 min 0,000 mm 0,0 UV-I 0 W/m 7,7 C 8,9 C 6,4 km/h (2 Bft) 100,00 %
18.04.2018 03:43 8,9 C 11,7 C 92 % 1029,1 hPa 0,0 l/m 5,3 km/h (1 Bft) S-SW 206 0 min 0,000 mm 0,0 UV-I 0 W/m 7,7 C 8,9 C 6,4 km/h (2 Bft) 100,00 %
18.04.2018 03:44 8,9 C 11,7 C 92 % 1029,1 hPa 0,0 l/m 5,2 km/h (1 Bft) S-SW 206 0 min 0,000 mm 0,0 UV-I 0 W/m 7,7 C 8,9 C 6,4 km/h (2 Bft) 100,00 %
18.04.2018 03:45 8,8 C 11,7 C 91 % 1029,1 hPa 0,0 l/m 5,0 km/h (1 Bft) S-SW 206 0 min 0,000 mm 0,0 UV-I 0 W/m 7,4 C 8,8 C 6,4 km/h (2 Bft) 100,00 %
18.04.2018 03:46 8,8 C 11,7 C 91 % 1029,1 hPa 0,0 l/m 4,9 km/h (1 Bft) S-SW 206 0 min 0,000 mm 0,0 UV-I 0 W/m 7,4 C 8,8 C 6,4 km/h (2 Bft) 100,00 %
18.04.2018 03:47 8,8 C 11,7 C 92 % 1029,1 hPa 0,0 l/m 5,4 km/h (1 Bft) S-SW 206 0 min 0,000 mm 0,0 UV-I 0 W/m 7,6 C 8,8 C 6,4 km/h (2 Bft) 100,00 %
18.04.2018 03:48 8,8 C 11,7 C 92 % 1029,2 hPa 0,0 l/m 4,9 km/h (1 Bft) S-SW 206 0 min 0,000 mm 0,0 UV-I 0 W/m 7,6 C 8,8 C 6,4 km/h (2 Bft) 100,00 %
18.04.2018 03:49 8,7 C 11,7 C 91 % 1029,2 hPa 0,0 l/m 4,3 km/h (1 Bft) S-SW 206 0 min 0,000 mm 0,0 UV-I 0 W/m 7,3 C 8,7 C 4,8 km/h (1 Bft) 100,00 %
18.04.2018 03:50 8,6 C 11,7 C 91 % 1029,1 hPa 0,0 l/m 4,3 km/h (1 Bft) S-SW 206 0 min 0,000 mm 0,0 UV-I 0 W/m 7,2 C 8,6 C 4,8 km/h (1 Bft) 100,00 %
18.04.2018 03:51 8,4 C 11,7 C 91 % 1029,2 hPa 0,0 l/m 4,0 km/h (1 Bft) S-SW 206 0 min 0,000 mm 0,0 UV-I 0 W/m 7,0 C 8,4 C 4,8 km/h (1 Bft) 100,00 %
18.04.2018 03:52 8,3 C 11,7 C 91 % 1029,2 hPa 0,0 l/m 4,0 km/h (1 Bft) S-SW 206 0 min 0,000 mm 0,0 UV-I 0 W/m 6,9 C 8,3 C 4,8 km/h (1 Bft) 95,65 %
18.04.2018 03:53 8,3 C 11,7 C 92 % 1029,2 hPa 0,0 l/m 4,4 km/h (1 Bft) S-SW 206 0 min 0,000 mm 0,0 UV-I 0 W/m 7,1 C 8,3 C 4,8 km/h (1 Bft) 100,00 %
18.04.2018 03:54 8,2 C 11,7 C 92 % 1029,2 hPa 0,0 l/m 4,5 km/h (1 Bft) S-SW 206 0 min 0,000 mm 0,0 UV-I 0 W/m 7,0 C 8,2 C 4,8 km/h (1 Bft) 100,00 %
18.04.2018 03:55 8,2 C 11,7 C 92 % 1029,2 hPa 0,0 l/m 4,3 km/h (1 Bft) S-SW 206 0 min 0,000 mm 0,0 UV-I 0 W/m 7,0 C 8,2 C 4,8 km/h (1 Bft) 100,00 %
18.04.2018 03:56 8,1 C 11,7 C 92 % 1029,2 hPa 0,0 l/m 4,3 km/h (1 Bft) S-SW 206 0 min 0,000 mm 0,0 UV-I 0 W/m 6,9 C 8,1 C 4,8 km/h (1 Bft) 96,15 %
18.04.2018 03:57 8,1 C 11,7 C 92 % 1029,2 hPa 0,0 l/m 3,6 km/h (1 Bft) S-SW 206 0 min 0,000 mm 0,0 UV-I 0 W/m 6,9 C 8,1 C 4,8 km/h (1 Bft) 100,00 %
18.04.2018 03:58 7,9 C 11,7 C 92 % 1029,2 hPa 0,0 l/m 3,6 km/h (1 Bft) S-SW 206 0 min 0,000 mm 0,0 UV-I 0 W/m 6,7 C 7,9 C 4,8 km/h (1 Bft) 100,00 %
18.04.2018 03:59 7,9 C 11,7 C 92 % 1029,2 hPa 0,0 l/m 3,2 km/h (1 Bft) S-SW 206 0 min 0,000 mm 0,0 UV-I 0 W/m 6,7 C 7,9 C 3,2 km/h (1 Bft) 100,00 %
18.04.2018 04:00 7,9 C 11,7 C 92 % 1029,2 hPa 0,0 l/m 3,2 km/h (1 Bft) S-SW 206 0 min 0,000 mm 0,0 UV-I 0 W/m 6,7 C 7,9 C 3,2 km/h (1 Bft) 100,00 %
18.04.2018 04:02 7,9 C 11,7 C 93 % 1029,2 hPa 0,0 l/m 2,6 km/h (1 Bft) S-SW 206 0 min 0,000 mm 0,0 UV-I 0 W/m 6,8 C 7,9 C 3,2 km/h (1 Bft) 100,00 %
18.04.2018 04:03 8,0 C 11,7 C 93 % 1029,2 hPa 0,0 l/m 2,8 km/h (1 Bft) S-SW 206 0 min 0,000 mm 0,0 UV-I 0 W/m 6,9 C 8,0 C 3,2 km/h (1 Bft) 100,00 %
18.04.2018 04:04 8,1 C 11,7 C 93 % 1029,2 hPa 0,0 l/m 2,7 km/h (1 Bft) S-SW 206 0 min 0,000 mm 0,0 UV-I 0 W/m 7,0 C 8,1 C 3,2 km/h (1 Bft) 100,00 %
18.04.2018 04:05 8,1 C 11,7 C 93 % 1029,1 hPa 0,0 l/m 2,4 km/h (1 Bft) S-SW 206 0 min 0,000 mm 0,0 UV-I 0 W/m 7,0 C 8,1 C 3,2 km/h (1 Bft) 100,00 %
18.04.2018 04:06 8,2 C 11,7 C 93 % 1029,2 hPa 0,0 l/m 2,9 km/h (1 Bft) S-SW 206 0 min 0,000 mm 0,0 UV-I 0 W/m 7,1 C 8,2 C 3,2 km/h (1 Bft) 100,00 %
18.04.2018 04:07 8,2 C 11,7 C 92 % 1029,2 hPa 0,0 l/m 0,1 km/h (0 Bft) S-SW 206 0 min 0,000 mm 0,0 UV-I 0 W/m 7,0 C 8,2 C 1,6 km/h (1 Bft) 100,00 %
18.04.2018 04:08 8,2 C 11,7 C 92 % 1029,2 hPa 0,0 l/m 0,0 km/h (0 Bft) S-SW 206 0 min 0,000 mm 0,0 UV-I 0 W/m 7,0 C 8,2 C 0,0 km/h (0 Bft) 100,00 %
18.04.2018 04:09 8,2 C 11,7 C 92 % 1029,2 hPa 0,0 l/m 0,0 km/h (0 Bft) S-SW 206 0 min 0,000 mm 0,0 UV-I 0 W/m 7,0 C 8,2 C 0,0 km/h (0 Bft) 100,00 %
18.04.2018 04:10 8,2 C 11,7 C 92 % 1029,2 hPa 0,0 l/m 0,0 km/h (0 Bft) S-SW 206 0 min 0,000 mm 0,0 UV-I 0 W/m 7,0 C 8,2 C 0,0 km/h (0 Bft) 100,00 %
18.04.2018 04:11 8,2 C 11,7 C 92 % 1029,3 hPa 0,0 l/m 0,0 km/h (0 Bft) S-SW 206 0 min 0,000 mm 0,0 UV-I 0 W/m 7,0 C 8,2 C 0,0 km/h (0 Bft) 100,00 %
18.04.2018 04:12 8,2 C 11,7 C 92 % 1029,3 hPa 0,0 l/m 2,8 km/h (1 Bft) S-SW 206 0 min 0,000 mm 0,0 UV-I 0 W/m 7,0 C 8,2 C 3,2 km/h (1 Bft) 100,00 %
18.04.2018 04:13 8,3 C 11,7 C 92 % 1029,3 hPa 0,0 l/m 3,1 km/h (1 Bft) S-SW 206 0 min 0,000 mm 0,0 UV-I 0 W/m 7,1 C 8,3 C 3,2 km/h (1 Bft) 100,00 %
18.04.2018 04:14 8,2 C 11,7 C 92 % 1029,3 hPa 0,0 l/m 2,7 km/h (1 Bft) S-SW 206 0 min 0,000 mm 0,0 UV-I 0 W/m 7,0 C 8,2 C 4,8 km/h (1 Bft) 100,00 %
18.04.2018 04:15 8,2 C 11,7 C 91 % 1029,3 hPa 0,0 l/m 3,8 km/h (1 Bft) S-SW 206 0 min 0,000 mm 0,0 UV-I 0 W/m 6,8 C 8,2 C 4,8 km/h (1 Bft) 100,00 %
18.04.2018 04:16 8,0 C 11,7 C 91 % 1029,3 hPa 0,0 l/m 3,5 km/h (1 Bft) S-SW 206 0 min 0,000 mm 0,0 UV-I 0 W/m 6,6 C 8,0 C 4,8 km/h (1 Bft) 100,00 %
18.04.2018 04:17 7,9 C 11,7 C 91 % 1029,3 hPa 0,0 l/m 3,8 km/h (1 Bft) S-SW 206 0 min 0,000 mm 0,0 UV-I 0 W/m 6,5 C 7,9 C 4,8 km/h (1 Bft) 95,65 %
18.04.2018 04:18 7,8 C 11,7 C 91 % 1029,3 hPa 0,0 l/m 3,8 km/h (1 Bft) S-SW 206 0 min 0,000 mm 0,0 UV-I 0 W/m 6,4 C 7,8 C 4,8 km/h (1 Bft) 100,00 %
18.04.2018 04:19 7,7 C 11,7 C 91 % 1029,3 hPa 0,0 l/m 3,6 km/h (1 Bft) S-SW 206 0 min 0,000 mm 0,0 UV-I 0 W/m 6,3 C 7,7 C 4,8 km/h (1 Bft) 95,65 %
18.04.2018 04:20 7,6 C 11,7 C 92 % 1029,4 hPa 0,0 l/m 3,6 km/h (1 Bft) S-SW 206 0 min 0,000 mm 0,0 UV-I 0 W/m 6,4 C 7,6 C 4,8 km/h (1 Bft) 100,00 %
18.04.2018 04:21 7,6 C 11,7 C 92 % 1029,4 hPa 0,0 l/m 3,5 km/h (1 Bft) S-SW 206 0 min 0,000 mm 0,0 UV-I 0 W/m 6,4 C 7,6 C 4,8 km/h (1 Bft) 100,00 %
18.04.2018 04:22 7,7 C 11,7 C 93 % 1029,4 hPa 0,0 l/m 3,4 km/h (1 Bft) S-SW 206 0 min 0,000 mm 0,0 UV-I 0 W/m 6,6 C 7,7 C 4,8 km/h (1 Bft) 95,83 %
18.04.2018 04:23 7,7 C 11,7 C 93 % 1029,4 hPa 0,0 l/m 2,4 km/h (1 Bft) S-SW 206 0 min 0,000 mm 0,0 UV-I 0 W/m 6,6 C 7,7 C 3,2 km/h (1 Bft) 100,00 %
18.04.2018 04:24 7,8 C 11,7 C 93 % 1029,4 hPa 0,0 l/m 2,8 km/h (1 Bft) S-SW 206 0 min 0,000 mm 0,0 UV-I 0 W/m 6,7 C 7,8 C 3,2 km/h (1 Bft) 95,65 %
18.04.2018 04:25 8,0 C 11,7 C 94 % 1029,4 hPa 0,0 l/m 2,3 km/h (1 Bft) S-SW 206 0 min 0,000 mm 0,0 UV-I 0 W/m 7,1 C 8,0 C 3,2 km/h (1 Bft) 100,00 %
18.04.2018 04:26 8,0 C 11,7 C 93 % 1029,4 hPa 0,0 l/m 1,3 km/h (1 Bft) S-SW 206 0 min 0,000 mm 0,0 UV-I 0 W/m 6,9 C 8,0 C 3,2 km/h (1 Bft) 91,30 %
18.04.2018 04:27 8,1 C 11,7 C 92 % 1029,4 hPa 0,0 l/m 1,1 km/h (1 Bft) S-SW 206 0 min 0,000 mm 0,0 UV-I 0 W/m 6,9 C 8,1 C 1,6 km/h (1 Bft) 100,00 %
18.04.2018 04:28 8,2 C 11,7 C 93 % 1029,4 hPa 0,0 l/m 1,5 km/h (1 Bft) S-SW 206 0 min 0,000 mm 0,0 UV-I 0 W/m 7,1 C 8,2 C 1,6 km/h (1 Bft) 100,00 %
18.04.2018 04:29 8,3 C 11,7 C 93 % 1029,4 hPa 0,0 l/m 1,6 km/h (1 Bft) S-SW 206 0 min 0,000 mm 0,0 UV-I 0 W/m 7,2 C 8,3 C 1,6 km/h (1 Bft) 100,00 %
18.04.2018 04:30 8,3 C 11,7 C 93 % 1029,4 hPa 0,0 l/m 1,2 km/h (1 Bft) S-SW 206 0 min 0,000 mm 0,0 UV-I 0 W/m 7,2 C 8,3 C 1,6 km/h (1 Bft) 86,96 %
18.04.2018 04:31 8,3 C 11,7 C 92 % 1029,4 hPa 0,0 l/m 2,0 km/h (1 Bft) S-SW 206 0 min 0,000 mm 0,0 UV-I 0 W/m 7,1 C 8,3 C 3,2 km/h (1 Bft) 100,00 %
18.04.2018 04:32 8,2 C 11,7 C 91 % 1029,4 hPa 0,0 l/m 2,0 km/h (1 Bft) S-SW 206 0 min 0,000 mm 0,0 UV-I 0 W/m 6,8 C 8,2 C 3,2 km/h (1 Bft) 92,31 %
18.04.2018 04:33 8,1 C 11,7 C 91 % 1029,4 hPa 0,0 l/m 2,3 km/h (1 Bft) S-SW 206 0 min 0,000 mm 0,0 UV-I 0 W/m 6,7 C 8,1 C 3,2 km/h (1 Bft) 100,00 %
18.04.2018 04:34 8,1 C 11,7 C 92 % 1029,5 hPa 0,0 l/m 2,5 km/h (1 Bft) S-SW 206 0 min 0,000 mm 0,0 UV-I 0 W/m 6,9 C 8,1 C 3,2 km/h (1 Bft) 95,65 %
18.04.2018 04:35 8,1 C 11,7 C 92 % 1029,5 hPa 0,0 l/m 2,5 km/h (1 Bft) S-SW 206 0 min 0,000 mm 0,0 UV-I 0 W/m 6,9 C 8,1 C 3,2 km/h (1 Bft) 100,00 %
18.04.2018 04:36 8,1 C 11,7 C 92 % 1029,5 hPa 0,0 l/m 2,6 km/h (1 Bft) S-SW 206 0 min 0,000 mm 0,0 UV-I 0 W/m 6,9 C 8,1 C 3,2 km/h (1 Bft) 95,65 %
18.04.2018 04:37 8,0 C 11,7 C 92 % 1029,5 hPa 0,0 l/m 2,5 km/h (1 Bft) S-SW 206 0 min 0,000 mm 0,0 UV-I 0 W/m 6,8 C 8,0 C 3,2 km/h (1 Bft) 95,83 %
18.04.2018 04:38 8,1 C 11,7 C 92 % 1029,5 hPa 0,0 l/m 2,9 km/h (1 Bft) S-SW 206 0 min 0,000 mm 0,0 UV-I 0 W/m 6,9 C 8,1 C 3,2 km/h (1 Bft) 91,30 %
18.04.2018 04:39 8,0 C 11,7 C 92 % 1029,6 hPa 0,0 l/m 2,4 km/h (1 Bft) S-SW 206 0 min 0,000 mm 0,0 UV-I 0 W/m 6,8 C 8,0 C 3,2 km/h (1 Bft) 95,83 %
18.04.2018 04:40 7,9 C 11,7 C 92 % 1029,5 hPa 0,0 l/m 2,5 km/h (1 Bft) S-SW 206 0 min 0,000 mm 0,0 UV-I 0 W/m 6,7 C 7,9 C 3,2 km/h (1 Bft) 95,65 %
18.04.2018 04:41 7,9 C 11,7 C 92 % 1029,5 hPa 0,0 l/m 3,1 km/h (1 Bft) S-SW 206 0 min 0,000 mm 0,0 UV-I 0 W/m 6,7 C 7,9 C 3,2 km/h (1 Bft) 96,30 %
18.04.2018 04:42 7,8 C 11,7 C 91 % 1029,5 hPa 0,0 l/m 3,3 km/h (1 Bft) S-SW 206 0 min 0,000 mm 0,0 UV-I 0 W/m 6,4 C 7,8 C 4,8 km/h (1 Bft) 95,65 %
18.04.2018 04:43 7,8 C 11,7 C 92 % 1029,5 hPa 0,0 l/m 3,6 km/h (1 Bft) S-SW 206 0 min 0,000 mm 0,0 UV-I 0 W/m 6,6 C 7,8 C 4,8 km/h (1 Bft) 91,67 %
18.04.2018 04:44 7,8 C 11,7 C 92 % 1029,5 hPa 0,0 l/m 3,8 km/h (1 Bft) S-SW 206 0 min 0,000 mm 0,0 UV-I 0 W/m 6,6 C 7,8 C 4,8 km/h (1 Bft) 96,15 %
18.04.2018 04:45 7,8 C 11,7 C 92 % 1029,5 hPa 0,0 l/m 4,2 km/h (1 Bft) S-SW 206 0 min 0,000 mm 0,0 UV-I 0 W/m 6,6 C 7,8 C 4,8 km/h (1 Bft) 91,30 %
18.04.2018 04:46 7,7 C 11,7 C 92 % 1029,5 hPa 0,0 l/m 4,5 km/h (1 Bft) S-SW 206 0 min 0,000 mm 0,0 UV-I 0 W/m 6,5 C 7,7 C 4,8 km/h (1 Bft) 95,83 %
18.04.2018 04:47 7,6 C 11,7 C 92 % 1029,5 hPa 0,0 l/m 4,4 km/h (1 Bft) S-SW 206 0 min 0,000 mm 0,0 UV-I 0 W/m 6,4 C 7,6 C 4,8 km/h (1 Bft) 91,30 %
18.04.2018 04:48 7,6 C 11,7 C 92 % 1029,5 hPa 0,0 l/m 4,5 km/h (1 Bft) S-SW 206 0 min 0,000 mm 0,0 UV-I 0 W/m 6,4 C 7,6 C 4,8 km/h (1 Bft) 100,00 %
18.04.2018 04:49 7,5 C 11,7 C 92 % 1029,5 hPa 0,0 l/m 4,6 km/h (1 Bft) S-SW 206 0 min 0,000 mm 0,0 UV-I 0 W/m 6,3 C 7,5 C 4,8 km/h (1 Bft) 91,30 %
18.04.2018 04:50 7,5 C 11,7 C 92 % 1029,5 hPa 0,0 l/m 4,4 km/h (1 Bft) S-SW 206 0 min 0,000 mm 0,0 UV-I 0 W/m 6,3 C 7,5 C 4,8 km/h (1 Bft) 95,83 %
18.04.2018 04:51 7,5 C 11,7 C 92 % 1029,5 hPa 0,0 l/m 4,4 km/h (1 Bft) S-SW 206 0 min 0,000 mm 0,0 UV-I 0 W/m 6,3 C 7,5 C 4,8 km/h (1 Bft) 91,30 %
18.04.2018 04:52 7,5 C 11,7 C 92 % 1029,5 hPa 0,0 l/m 4,5 km/h (1 Bft) S-SW 206 0 min 0,000 mm 0,0 UV-I 0 W/m 6,3 C 7,5 C 4,8 km/h (1 Bft) 95,83 %
18.04.2018 04:53 7,6 C 11,7 C 93 % 1029,5 hPa 0,0 l/m 4,6 km/h (1 Bft) S-SW 206 0 min 0,000 mm 0,0 UV-I 0 W/m 6,5 C 7,6 C 4,8 km/h (1 Bft) 95,65 %
18.04.2018 04:54 7,6 C 11,7 C 93 % 1029,5 hPa 0,0 l/m 4,5 km/h (1 Bft) S-SW 206 0 min 0,000 mm 0,0 UV-I 0 W/m 6,5 C 7,6 C 4,8 km/h (1 Bft) 95,83 %
18.04.2018 04:55 7,7 C 11,7 C 93 % 1029,5 hPa 0,0 l/m 4,6 km/h (1 Bft) S-SW 206 0 min 0,000 mm 0,0 UV-I 0 W/m 6,6 C 7,7 C 4,8 km/h (1 Bft) 95,65 %
18.04.2018 04:56 7,8 C 11,7 C 94 % 1029,5 hPa 0,0 l/m 5,3 km/h (1 Bft) S-SW 206 0 min 0,000 mm 0,0 UV-I 0 W/m 6,9 C 7,8 C 6,4 km/h (2 Bft) 91,67 %
18.04.2018 04:57 7,9 C 11,7 C 93 % 1029,5 hPa 0,0 l/m 4,8 km/h (1 Bft) S-SW 206 0 min 0,000 mm 0,0 UV-I 0 W/m 6,8 C 7,9 C 6,4 km/h (2 Bft) 100,00 %
18.04.2018 04:58 7,9 C 11,7 C 93 % 1029,5 hPa 0,0 l/m 5,7 km/h (1 Bft) S-SW 206 0 min 0,000 mm 0,0 UV-I 0 W/m 6,8 C 7,9 C 6,4 km/h (2 Bft) 91,67 %
18.04.2018 04:59 7,9 C 11,7 C 93 % 1029,5 hPa 0,0 l/m 5,1 km/h (1 Bft) S-SW 206 0 min 0,000 mm 0,0 UV-I 0 W/m 6,8 C 7,9 C 6,4 km/h (2 Bft) 95,83 %
18.04.2018 05:00 7,7 C 11,7 C 92 % 1029,5 hPa 0,0 l/m 4,6 km/h (1 Bft) S-SW 206 0 min 0,000 mm 0,0 UV-I 0 W/m 6,5 C 7,7 C 4,8 km/h (1 Bft) 86,96 %
18.04.2018 05:01 7,7 C 11,7 C 92 % 1029,5 hPa 0,0 l/m 4,9 km/h (1 Bft) S-SW 206 0 min 0,000 mm 0,0 UV-I 0 W/m 6,5 C 7,7 C 6,4 km/h (2 Bft) 100,00 %
18.04.2018 05:02 7,7 C 11,7 C 93 % 1029,5 hPa 0,0 l/m 4,7 km/h (1 Bft) S-SW 206 0 min 0,000 mm 0,0 UV-I 0 W/m 6,6 C 7,7 C 6,4 km/h (2 Bft) 91,30 %
18.04.2018 05:03 7,5 C 11,7 C 92 % 1029,5 hPa 0,0 l/m 4,6 km/h (1 Bft) S-SW 206 0 min 0,000 mm 0,0 UV-I 0 W/m 6,3 C 7,5 C 4,8 km/h (1 Bft) 95,83 %
18.04.2018 05:04 7,4 C 11,7 C 92 % 1029,5 hPa 0,0 l/m 4,4 km/h (1 Bft) S-SW 206 0 min 0,000 mm 0,0 UV-I 0 W/m 6,2 C 7,4 C 4,8 km/h (1 Bft) 100,00 %
18.04.2018 05:05 7,4 C 11,7 C 93 % 1029,5 hPa 0,0 l/m 3,6 km/h (1 Bft) S-SW 206 0 min 0,000 mm 0,0 UV-I 0 W/m 6,3 C 7,4 C 4,8 km/h (1 Bft) 91,67 %
18.04.2018 05:06 7,5 C 11,7 C 93 % 1029,5 hPa 0,0 l/m 3,5 km/h (1 Bft) S-SW 206 0 min 0,000 mm 0,0 UV-I 0 W/m 6,4 C 7,5 C 4,8 km/h (1 Bft) 100,00 %
18.04.2018 05:07 7,4 C 11,7 C 93 % 1029,5 hPa 0,0 l/m 3,8 km/h (1 Bft) S-SW 206 0 min 0,000 mm 0,0 UV-I 0 W/m 6,3 C 7,4 C 4,8 km/h (1 Bft) 91,67 %
18.04.2018 05:08 7,4 C 11,7 C 93 % 1029,5 hPa 0,0 l/m 3,3 km/h (1 Bft) S-SW 206 0 min 0,000 mm 0,0 UV-I 0 W/m 6,3 C 7,4 C 4,8 km/h (1 Bft) 100,00 %
18.04.2018 05:09 7,3 C 11,7 C 93 % 1029,5 hPa 0,0 l/m 3,3 km/h (1 Bft) S-SW 206 0 min 0,000 mm 0,0 UV-I 0 W/m 6,2 C 7,3 C 4,8 km/h (1 Bft) 92,31 %
18.04.2018 05:10 7,3 C 11,7 C 93 % 1029,5 hPa 0,0 l/m 3,0 km/h (1 Bft) S-SW 206 0 min 0,000 mm 0,0 UV-I 0 W/m 6,2 C 7,3 C 3,2 km/h (1 Bft) 95,65 %
18.04.2018 05:11 7,3 C 11,7 C 93 % 1029,5 hPa 0,0 l/m 3,3 km/h (1 Bft) S-SW 206 0 min 0,000 mm 0,0 UV-I 0 W/m 6,2 C 7,3 C 4,8 km/h (1 Bft) 95,83 %
18.04.2018 05:12 7,3 C 11,7 C 93 % 1029,5 hPa 0,0 l/m 3,3 km/h (1 Bft) S-SW 206 0 min 0,000 mm 0,0 UV-I 0 W/m 6,2 C 7,3 C 4,8 km/h (1 Bft) 91,30 %
18.04.2018 05:13 7,4 C 11,7 C 94 % 1029,5 hPa 0,0 l/m 3,8 km/h (1 Bft) S-SW 206 0 min 0,000 mm 0,0 UV-I 0 W/m 6,5 C 7,4 C 4,8 km/h (1 Bft) 100,00 %
18.04.2018 05:14 7,4 C 11,7 C 93 % 1029,5 hPa 0,0 l/m 3,6 km/h (1 Bft) S-SW 206 0 min 0,000 mm 0,0 UV-I 0 W/m 6,3 C 7,4 C 4,8 km/h (1 Bft) 91,30 %
18.04.2018 05:15 7,4 C 11,7 C 93 % 1029,5 hPa 0,0 l/m 3,4 km/h (1 Bft) S-SW 206 0 min 0,000 mm 0,0 UV-I 0 W/m 6,3 C 7,4 C 4,8 km/h (1 Bft) 100,00 %
18.04.2018 05:16 7,4 C 11,7 C 93 % 1029,5 hPa 0,0 l/m 3,8 km/h (1 Bft) S-SW 206 0 min 0,000 mm 0,0 UV-I 0 W/m 6,3 C 7,4 C 4,8 km/h (1 Bft) 91,30 %
18.04.2018 05:17 7,4 C 11,7 C 93 % 1029,6 hPa 0,0 l/m 3,8 km/h (1 Bft) S-SW 206 0 min 0,000 mm 0,0 UV-I 0 W/m 6,3 C 7,4 C 4,8 km/h (1 Bft) 95,83 %
18.04.2018 05:18 7,4 C 11,7 C 93 % 1029,5 hPa 0,0 l/m 3,3 km/h (1 Bft) S-SW 206 0 min 0,000 mm 0,0 UV-I 0 W/m 6,3 C 7,4 C 4,8 km/h (1 Bft) 95,65 %
18.04.2018 05:19 7,4 C 11,7 C 93 % 1029,5 hPa 0,0 l/m 1,2 km/h (1 Bft) S-SW 206 0 min 0,000 mm 0,0 UV-I 0 W/m 6,3 C 7,4 C 3,2 km/h (1 Bft) 95,83 %
18.04.2018 05:20 7,4 C 11,7 C 93 % 1029,6 hPa 0,0 l/m 1,5 km/h (1 Bft) S-SW 206 0 min 0,000 mm 0,0 UV-I 0 W/m 6,3 C 7,4 C 3,2 km/h (1 Bft) 95,65 %
18.04.2018 05:21 7,4 C 11,7 C 93 % 1029,6 hPa 0,0 l/m 1,7 km/h (1 Bft) S-SW 206 0 min 0,000 mm 0,0 UV-I 0 W/m 6,3 C 7,4 C 3,2 km/h (1 Bft) 100,00 %
18.04.2018 05:22 7,4 C 11,7 C 93 % 1029,5 hPa 0,0 l/m 2,3 km/h (1 Bft) S-SW 206 0 min 0,000 mm 0,0 UV-I 0 W/m 6,3 C 7,4 C 3,2 km/h (1 Bft) 95,83 %
18.04.2018 05:23 7,4 C 11,7 C 92 % 1029,5 hPa 0,0 l/m 2,6 km/h (1 Bft) S-SW 206 0 min 0,000 mm 0,0 UV-I 0 W/m 6,2 C 7,4 C 3,2 km/h (1 Bft) 100,00 %
18.04.2018 05:24 7,4 C 11,7 C 93 % 1029,5 hPa 0,0 l/m 1,3 km/h (1 Bft) S-SW 206 0 min 0,000 mm 0,0 UV-I 0 W/m 6,3 C 7,4 C 3,2 km/h (1 Bft) 95,83 %
18.04.2018 05:25 7,4 C 11,7 C 93 % 1029,6 hPa 0,0 l/m 1,5 km/h (1 Bft) S-SW 206 0 min 0,000 mm 0,0 UV-I 0 W/m 6,3 C 7,4 C 3,2 km/h (1 Bft) 100,00 %
18.04.2018 05:26 7,3 C 11,7 C 92 % 1029,5 hPa 0,0 l/m 1,7 km/h (1 Bft) S-SW 206 0 min 0,000 mm 0,0 UV-I 0 W/m 6,1 C 7,3 C 3,2 km/h (1 Bft) 95,83 %
18.04.2018 05:27 7,2 C 11,7 C 92 % 1029,5 hPa 0,0 l/m 2,6 km/h (1 Bft) S-SW 206 0 min 0,000 mm 0,0 UV-I 0 W/m 6,0 C 7,2 C 3,2 km/h (1 Bft) 95,65 %
18.04.2018 05:28 7,1 C 11,7 C 92 % 1029,6 hPa 0,0 l/m 2,7 km/h (1 Bft) S-SW 206 0 min 0,000 mm 0,0 UV-I 0 W/m 5,9 C 7,1 C 3,2 km/h (1 Bft) 100,00 %
18.04.2018 05:29 6,9 C 11,7 C 93 % 1029,6 hPa 0,0 l/m 2,0 km/h (1 Bft) S-SW 206 0 min 0,000 mm 0,0 UV-I 0 W/m 5,8 C 6,9 C 3,2 km/h (1 Bft) 96,15 %
18.04.2018 05:30 7,0 C 11,7 C 93 % 1029,6 hPa 0,0 l/m 2,0 km/h (1 Bft) S-SW 206 0 min 0,000 mm 0,0 UV-I 0 W/m 5,9 C 7,0 C 3,2 km/h (1 Bft) 100,00 %
18.04.2018 05:31 7,0 C 11,7 C 93 % 1029,6 hPa 0,0 l/m 1,2 km/h (1 Bft) S-SW 206 0 min 0,000 mm 0,0 UV-I 0 W/m 5,9 C 7,0 C 1,6 km/h (1 Bft) 95,65 %
18.04.2018 05:32 7,0 C 11,7 C 94 % 1029,6 hPa 0,0 l/m 0,9 km/h (0 Bft) S-SW 206 0 min 0,000 mm 0,0 UV-I 0 W/m 6,1 C 7,0 C 1,6 km/h (1 Bft) 100,00 %
18.04.2018 05:33 7,1 C 11,7 C 94 % 1029,7 hPa 0,0 l/m 0,3 km/h (0 Bft) S-SW 206 0 min 0,000 mm 0,0 UV-I 0 W/m 6,2 C 7,1 C 1,6 km/h (1 Bft) 91,30 %
18.04.2018 05:34 7,1 C 11,7 C 94 % 1029,7 hPa 0,0 l/m 0,0 km/h (0 Bft) S-SW 206 0 min 0,000 mm 0,0 UV-I 0 W/m 6,2 C 7,1 C 0,0 km/h (0 Bft) 100,00 %
18.04.2018 05:35 7,2 C 11,7 C 94 % 1029,7 hPa 0,0 l/m 0,0 km/h (0 Bft) S-SW 206 0 min 0,000 mm 0,0 UV-I 0 W/m 6,3 C 7,2 C 0,0 km/h (0 Bft) 91,30 %
18.04.2018 05:36 7,2 C 11,7 C 94 % 1029,7 hPa 0,0 l/m 0,0 km/h (0 Bft) S-SW 206 0 min 0,000 mm 0,0 UV-I 0 W/m 6,3 C 7,2 C 0,0 km/h (0 Bft) 91,67 %
18.04.2018 05:37 7,3 C 11,7 C 94 % 1029,7 hPa 0,0 l/m 1,1 km/h (1 Bft) S-SW 206 0 min 0,000 mm 0,0 UV-I 0 W/m 6,4 C 7,3 C 3,2 km/h (1 Bft) 95,65 %
18.04.2018 05:38 7,3 C 11,7 C 94 % 1029,6 hPa 0,0 l/m 2,5 km/h (1 Bft) S-SW 206 0 min 0,000 mm 0,0 UV-I 0 W/m 6,4 C 7,3 C 3,2 km/h (1 Bft) 95,83 %
18.04.2018 05:39 7,4 C 11,7 C 94 % 1029,6 hPa 0,0 l/m 2,3 km/h (1 Bft) S-SW 206 0 min 0,000 mm 0,0 UV-I 0 W/m 6,5 C 7,4 C 3,2 km/h (1 Bft) 100,00 %
18.04.2018 05:40 7,5 C 11,7 C 94 % 1029,7 hPa 0,0 l/m 3,5 km/h (1 Bft) S-SW 206 0 min 0,000 mm 0,0 UV-I 0 W/m 6,6 C 7,5 C 4,8 km/h (1 Bft) 90,91 %
18.04.2018 05:41 7,5 C 11,7 C 94 % 1029,6 hPa 0,0 l/m 3,4 km/h (1 Bft) S-SW 206 0 min 0,000 mm 0,0 UV-I 0 W/m 6,6 C 7,5 C 4,8 km/h (1 Bft) 97,44 %
18.04.2018 05:42 7,4 C 11,7 C 93 % 1029,7 hPa 0,0 l/m 3,2 km/h (1 Bft) S-SW 206 0 min 0,000 mm 0,0 UV-I 0 W/m 6,3 C 7,4 C 4,8 km/h (1 Bft) 100,00 %
18.04.2018 05:43 7,4 C 11,7 C 93 % 1029,7 hPa 0,0 l/m 3,4 km/h (1 Bft) S-SW 206 0 min 0,000 mm 0,0 UV-I 0 W/m 6,3 C 7,4 C 4,8 km/h (1 Bft) 100,00 %
18.04.2018 05:44 7,3 C 11,7 C 93 % 1029,7 hPa 0,0 l/m 2,8 km/h (1 Bft) S-SW 206 0 min 0,000 mm 0,0 UV-I 0 W/m 6,2 C 7,3 C 3,2 km/h (1 Bft) 100,00 %
18.04.2018 05:45 7,2 C 11,7 C 93 % 1029,8 hPa 0,0 l/m 3,0 km/h (1 Bft) S-SW 206 0 min 0,000 mm 0,0 UV-I 0 W/m 6,1 C 7,2 C 3,2 km/h (1 Bft) 100,00 %
18.04.2018 05:46 7,2 C 11,7 C 93 % 1029,8 hPa 0,0 l/m 2,1 km/h (1 Bft) S-SW 206 0 min 0,000 mm 0,0 UV-I 0 W/m 6,1 C 7,2 C 3,2 km/h (1 Bft) 91,30 %
18.04.2018 05:47 7,1 C 11,7 C 93 % 1029,8 hPa 0,0 l/m 2,0 km/h (1 Bft) S-SW 206 0 min 0,000 mm 0,0 UV-I 0 W/m 6,0 C 7,1 C 3,2 km/h (1 Bft) 100,00 %
18.04.2018 05:48 7,2 C 11,7 C 94 % 1029,8 hPa 0,0 l/m 2,7 km/h (1 Bft) S-SW 206 0 min 0,000 mm 0,0 UV-I 0 W/m 6,3 C 7,2 C 3,2 km/h (1 Bft) 100,00 %
18.04.2018 05:49 7,2 C 11,7 C 94 % 1029,8 hPa 0,0 l/m 2,8 km/h (1 Bft) S-SW 206 0 min 0,000 mm 0,0 UV-I 0 W/m 6,3 C 7,2 C 3,2 km/h (1 Bft) 100,00 %
18.04.2018 05:50 7,2 C 11,7 C 94 % 1029,8 hPa 0,0 l/m 2,9 km/h (1 Bft) S-SW 206 0 min 0,000 mm 0,0 UV-I 0 W/m 6,3 C 7,2 C 3,2 km/h (1 Bft) 100,00 %
18.04.2018 05:51 7,2 C 11,7 C 94 % 1029,8 hPa 0,0 l/m 3,6 km/h (1 Bft) S-SW 206 0 min 0,000 mm 0,0 UV-I 0 W/m 6,3 C 7,2 C 4,8 km/h (1 Bft) 100,00 %
18.04.2018 05:52 7,2 C 11,7 C 94 % 1029,8 hPa 0,0 l/m 3,7 km/h (1 Bft) S-SW 206 0 min 0,000 mm 0,0 UV-I 0 W/m 6,3 C 7,2 C 4,8 km/h (1 Bft) 100,00 %
18.04.2018 05:53 7,2 C 11,7 C 94 % 1029,8 hPa 0,0 l/m 4,1 km/h (1 Bft) S-SW 206 0 min 0,000 mm 0,0 UV-I 0 W/m 6,3 C 7,2 C 4,8 km/h (1 Bft) 100,00 %
18.04.2018 05:54 7,1 C 11,7 C 94 % 1029,8 hPa 0,0 l/m 2,9 km/h (1 Bft) S-SW 206 0 min 0,000 mm 0,0 UV-I 0 W/m 6,2 C 7,1 C 4,8 km/h (1 Bft) 100,00 %
18.04.2018 05:55 7,0 C 11,7 C 94 % 1029,8 hPa 0,0 l/m 3,0 km/h (1 Bft) S-SW 206 0 min 0,000 mm 0,0 UV-I 0 W/m 6,1 C 7,0 C 4,8 km/h (1 Bft) 100,00 %
18.04.2018 05:56 7,0 C 11,7 C 94 % 1029,9 hPa 0,0 l/m 4,0 km/h (1 Bft) S-SW 206 0 min 0,000 mm 0,0 UV-I 5 W/m 6,1 C 7,0 C 4,8 km/h (1 Bft) 100,00 %
18.04.2018 05:57 7,0 C 11,7 C 94 % 1029,9 hPa 0,0 l/m 3,5 km/h (1 Bft) S-SW 206 0 min 0,000 mm 0,0 UV-I 5 W/m 6,1 C 7,0 C 4,8 km/h (1 Bft) 100,00 %
18.04.2018 05:58 6,9 C 11,7 C 94 % 1029,9 hPa 0,0 l/m 2,7 km/h (1 Bft) S-SW 206 0 min 0,000 mm 0,0 UV-I 5 W/m 6,0 C 6,9 C 3,2 km/h (1 Bft) 100,00 %
18.04.2018 05:59 6,8 C 11,7 C 93 % 1029,9 hPa 0,0 l/m 3,9 km/h (1 Bft) S-SW 206 0 min 0,000 mm 0,0 UV-I 5 W/m 5,7 C 6,8 C 4,8 km/h (1 Bft) 100,00 %
18.04.2018 06:00 6,7 C 11,7 C 93 % 1029,9 hPa 0,0 l/m 5,0 km/h (1 Bft) S-SW 206 0 min 0,000 mm 0,0 UV-I 5 W/m 5,6 C 6,7 C 6,4 km/h (2 Bft) 100,00 %
18.04.2018 06:01 6,6 C 11,7 C 93 % 1029,9 hPa 0,0 l/m 4,6 km/h (1 Bft) S-SW 206 0 min 0,000 mm 0,0 UV-I 5 W/m 5,6 C 6,6 C 4,8 km/h (1 Bft) 95,65 %
18.04.2018 06:02 6,6 C 11,7 C 94 % 1029,9 hPa 0,0 l/m 4,8 km/h (1 Bft) S-SW 206 0 min 0,000 mm 0,0 UV-I 5 W/m 5,7 C 6,6 C 6,4 km/h (2 Bft) 95,83 %
18.04.2018 06:03 6,6 C 11,7 C 94 % 1029,9 hPa 0,0 l/m 5,4 km/h (1 Bft) S-SW 206 0 min 0,000 mm 0,0 UV-I 6 W/m 5,7 C 6,6 C 6,4 km/h (2 Bft) 100,00 %
18.04.2018 06:04 6,6 C 11,7 C 94 % 1029,9 hPa 0,0 l/m 5,2 km/h (1 Bft) S-SW 206 0 min 0,000 mm 0,0 UV-I 7 W/m 5,7 C 6,6 C 6,4 km/h (2 Bft) 100,00 %
18.04.2018 06:05 6,5 C 11,7 C 94 % 1029,9 hPa 0,0 l/m 4,4 km/h (1 Bft) S-SW 206 0 min 0,000 mm 0,0 UV-I 7 W/m 5,6 C 6,5 C 4,8 km/h (1 Bft) 100,00 %
18.04.2018 06:06 6,6 C 11,7 C 94 % 1029,9 hPa 0,0 l/m 4,1 km/h (1 Bft) S-SW 206 0 min 0,000 mm 0,0 UV-I 7 W/m 5,7 C 6,6 C 6,4 km/h (2 Bft) 100,00 %
18.04.2018 06:07 6,6 C 11,7 C 95 % 1029,9 hPa 0,0 l/m 3,6 km/h (1 Bft) S-SW 206 0 min 0,000 mm 0,0 UV-I 7 W/m 5,9 C 6,6 C 4,8 km/h (1 Bft) 100,00 %
18.04.2018 06:08 6,7 C 11,7 C 95 % 1029,9 hPa 0,0 l/m 4,8 km/h (1 Bft) S-SW 206 0 min 0,000 mm 0,0 UV-I 7 W/m 6,0 C 6,7 C 4,8 km/h (1 Bft) 100,00 %
18.04.2018 06:09 6,7 C 11,7 C 95 % 1029,9 hPa 0,0 l/m 3,5 km/h (1 Bft) S-SW 206 0 min 0,000 mm 0,0 UV-I 8 W/m 6,0 C 6,7 C 4,8 km/h (1 Bft) 100,00 %
18.04.2018 06:10 6,7 C 11,7 C 94 % 1030,0 hPa 0,0 l/m 3,1 km/h (1 Bft) S-SW 206 0 min 0,000 mm 0,0 UV-I 9 W/m 5,8 C 6,7 C 4,8 km/h (1 Bft) 100,00 %
18.04.2018 06:11 6,7 C 11,7 C 94 % 1030,0 hPa 0,0 l/m 3,8 km/h (1 Bft) S-SW 206 0 min 0,000 mm 0,0 UV-I 9 W/m 5,8 C 6,7 C 6,4 km/h (2 Bft) 96,00 %
18.04.2018 06:12 6,7 C 11,7 C 94 % 1030,0 hPa 0,0 l/m 5,3 km/h (1 Bft) S-SW 206 0 min 0,000 mm 0,0 UV-I 9 W/m 5,8 C 6,7 C 6,4 km/h (2 Bft) 100,00 %
18.04.2018 06:13 6,8 C 11,7 C 95 % 1030,0 hPa 0,0 l/m 5,9 km/h (2 Bft) S-SW 205 0 min 0,000 mm 0,0 UV-I 9 W/m 6,1 C 6,8 C 6,4 km/h (2 Bft) 100,00 %
18.04.2018 06:14 6,8 C 11,7 C 95 % 1030,0 hPa 0,0 l/m 4,4 km/h (1 Bft) S-SW 205 0 min 0,000 mm 0,0 UV-I 11 W/m 6,1 C 6,8 C 4,8 km/h (1 Bft) 96,30 %
18.04.2018 06:15 6,8 C 11,7 C 95 % 1030,0 hPa 0,0 l/m 4,2 km/h (1 Bft) S-SW 205 0 min 0,000 mm 0,0 UV-I 11 W/m 6,1 C 6,8 C 4,8 km/h (1 Bft) 100,00 %
18.04.2018 06:16 6,7 C 11,7 C 94 % 1030,0 hPa 0,0 l/m 3,2 km/h (1 Bft) S-SW 205 0 min 0,000 mm 0,0 UV-I 11 W/m 5,8 C 6,7 C 3,2 km/h (1 Bft) 100,00 %
18.04.2018 06:17 6,7 C 11,7 C 94 % 1030,0 hPa 0,0 l/m 3,0 km/h (1 Bft) S-SW 205 0 min 0,000 mm 0,0 UV-I 12 W/m 5,8 C 6,7 C 4,8 km/h (1 Bft) 100,00 %
18.04.2018 06:18 6,7 C 11,7 C 94 % 1030,0 hPa 0,0 l/m 2,7 km/h (1 Bft) S-SW 205 0 min 0,000 mm 0,0 UV-I 12 W/m 5,8 C 6,7 C 3,2 km/h (1 Bft) 100,00 %
18.04.2018 06:19 6,8 C 11,7 C 94 % 1030,0 hPa 0,0 l/m 2,4 km/h (1 Bft) S-SW 205 0 min 0,000 mm 0,0 UV-I 12 W/m 5,9 C 6,8 C 3,2 km/h (1 Bft) 100,00 %
18.04.2018 06:20 6,8 C 11,7 C 94 % 1030,0 hPa 0,0 l/m 2,3 km/h (1 Bft) S-SW 205 1 min 0,000 mm 0,0 UV-I 14 W/m 5,9 C 6,8 C 3,2 km/h (1 Bft) 100,00 %
18.04.2018 06:21 6,7 C 11,7 C 94 % 1030,0 hPa 0,0 l/m 2,5 km/h (1 Bft) S-SW 205 1 min 0,000 mm 0,0 UV-I 14 W/m 5,8 C 6,7 C 4,8 km/h (1 Bft) 100,00 %
18.04.2018 06:22 6,8 C 11,7 C 94 % 1030,1 hPa 0,0 l/m 4,4 km/h (1 Bft) S-SW 205 1 min 0,000 mm 0,0 UV-I 15 W/m 5,9 C 6,8 C 4,8 km/h (1 Bft) 95,65 %
18.04.2018 06:23 6,8 C 11,7 C 95 % 1030,1 hPa 0,0 l/m 4,4 km/h (1 Bft) S-SW 205 1 min 0,000 mm 0,0 UV-I 16 W/m 6,1 C 6,8 C 6,4 km/h (2 Bft) 100,00 %
18.04.2018 06:24 6,8 C 11,7 C 94 % 1030,1 hPa 0,0 l/m 5,2 km/h (1 Bft) S-SW 205 1 min 0,000 mm 0,0 UV-I 16 W/m 5,9 C 6,8 C 6,4 km/h (2 Bft) 100,00 %
18.04.2018 06:25 6,8 C 11,7 C 94 % 1030,1 hPa 0,0 l/m 5,5 km/h (1 Bft) S-SW 205 1 min 0,000 mm 0,0 UV-I 18 W/m 5,9 C 6,8 C 6,4 km/h (2 Bft) 100,00 %
18.04.2018 06:26 6,9 C 11,7 C 95 % 1030,1 hPa 0,0 l/m 5,1 km/h (1 Bft) S-SW 205 0 min 0,000 mm 0,0 UV-I 18 W/m 6,2 C 6,9 C 6,4 km/h (2 Bft) 100,00 %
18.04.2018 06:27 6,9 C 11,7 C 95 % 1030,1 hPa 0,0 l/m 4,8 km/h (1 Bft) S-SW 205 0 min 0,000 mm 0,0 UV-I 19 W/m 6,2 C 6,9 C 6,4 km/h (2 Bft) 95,83 %
18.04.2018 06:28 6,9 C 11,7 C 95 % 1030,1 hPa 0,0 l/m 4,1 km/h (1 Bft) S-SW 205 0 min 0,000 mm 0,0 UV-I 20 W/m 6,2 C 6,9 C 4,8 km/h (1 Bft) 100,00 %
18.04.2018 06:29 6,8 C 11,7 C 94 % 1030,1 hPa 0,0 l/m 3,2 km/h (1 Bft) S-SW 205 0 min 0,000 mm 0,0 UV-I 21 W/m 5,9 C 6,8 C 3,2 km/h (1 Bft) 100,00 %
18.04.2018 06:30 6,8 C 11,7 C 94 % 1030,1 hPa 0,0 l/m 2,0 km/h (1 Bft) S-SW 205 0 min 0,000 mm 0,0 UV-I 21 W/m 5,9 C 6,8 C 3,2 km/h (1 Bft) 100,00 %
18.04.2018 06:31 6,8 C 11,7 C 94 % 1030,1 hPa 0,0 l/m 1,5 km/h (1 Bft) S-SW 205 0 min 0,000 mm 0,0 UV-I 21 W/m 5,9 C 6,8 C 1,6 km/h (1 Bft) 96,15 %
18.04.2018 06:32 6,9 C 11,7 C 94 % 1030,1 hPa 0,0 l/m 1,3 km/h (1 Bft) S-SW 205 0 min 0,000 mm 0,0 UV-I 21 W/m 6,0 C 6,9 C 1,6 km/h (1 Bft) 100,00 %
18.04.2018 06:33 7,0 C 11,7 C 95 % 1030,1 hPa 0,0 l/m 1,7 km/h (1 Bft) S-SW 205 0 min 0,000 mm 0,0 UV-I 20 W/m 6,3 C 7,0 C 3,2 km/h (1 Bft) 100,00 %
18.04.2018 06:34 7,1 C 11,7 C 95 % 1030,2 hPa 0,0 l/m 3,0 km/h (1 Bft) S-SW 205 0 min 0,000 mm 0,0 UV-I 19 W/m 6,4 C 7,1 C 4,8 km/h (1 Bft) 100,00 %
18.04.2018 06:35 7,2 C 11,7 C 95 % 1030,2 hPa 0,0 l/m 2,4 km/h (1 Bft) S-SW 205 0 min 0,000 mm 0,0 UV-I 19 W/m 6,5 C 7,2 C 3,2 km/h (1 Bft) 100,00 %
18.04.2018 06:36 7,3 C 11,7 C 95 % 1030,2 hPa 0,0 l/m 0,4 km/h (0 Bft) S-SW 205 0 min 0,000 mm 0,0 UV-I 21 W/m 6,6 C 7,3 C 1,6 km/h (1 Bft) 100,00 %
18.04.2018 06:37 7,2 C 11,7 C 95 % 1030,2 hPa 0,0 l/m 0,3 km/h (0 Bft) S-SW 205 0 min 0,000 mm 0,0 UV-I 21 W/m 6,5 C 7,2 C 1,6 km/h (1 Bft) 91,30 %
18.04.2018 06:38 7,2 C 11,7 C 94 % 1030,2 hPa 0,0 l/m 3,0 km/h (1 Bft) S-SW 205 0 min 0,000 mm 0,0 UV-I 24 W/m 6,3 C 7,2 C 4,8 km/h (1 Bft) 100,00 %
18.04.2018 06:39 7,2 C 11,7 C 94 % 1030,2 hPa 0,0 l/m 3,5 km/h (1 Bft) S-SW 205 0 min 0,000 mm 0,0 UV-I 26 W/m 6,3 C 7,2 C 4,8 km/h (1 Bft) 96,15 %
18.04.2018 06:40 7,1 C 11,7 C 94 % 1030,2 hPa 0,0 l/m 3,6 km/h (1 Bft) S-SW 205 0 min 0,000 mm 0,0 UV-I 27 W/m 6,2 C 7,1 C 4,8 km/h (1 Bft) 100,00 %
18.04.2018 06:41 7,1 C 11,7 C 94 % 1030,2 hPa 0,0 l/m 3,1 km/h (1 Bft) S-SW 205 0 min 0,000 mm 0,0 UV-I 30 W/m 6,2 C 7,1 C 4,8 km/h (1 Bft) 96,15 %
18.04.2018 06:42 7,0 C 11,7 C 94 % 1030,2 hPa 0,0 l/m 3,1 km/h (1 Bft) S-SW 205 0 min 0,000 mm 0,0 UV-I 33 W/m 6,1 C 7,0 C 4,8 km/h (1 Bft) 100,00 %
18.04.2018 06:43 7,0 C 11,7 C 94 % 1030,3 hPa 0,0 l/m 3,0 km/h (1 Bft) S-SW 205 0 min 0,000 mm 0,0 UV-I 40 W/m 6,1 C 7,0 C 3,2 km/h (1 Bft) 100,00 %
18.04.2018 06:44 7,0 C 11,7 C 94 % 1030,3 hPa 0,0 l/m 3,1 km/h (1 Bft) S-SW 205 1 min 0,000 mm 0,0 UV-I 47 W/m 6,1 C 7,0 C 4,8 km/h (1 Bft) 100,00 %
18.04.2018 06:45 7,0 C 11,7 C 94 % 1030,2 hPa 0,0 l/m 3,2 km/h (1 Bft) S-SW 205 1 min 0,000 mm 0,0 UV-I 50 W/m 6,1 C 7,0 C 4,8 km/h (1 Bft) 100,00 %
18.04.2018 06:46 7,1 C 11,7 C 94 % 1030,3 hPa 0,0 l/m 2,8 km/h (1 Bft) S-SW 205 1 min 0,000 mm 0,0 UV-I 53 W/m 6,2 C 7,1 C 4,8 km/h (1 Bft) 100,00 %
18.04.2018 06:47 7,0 C 11,7 C 94 % 1030,3 hPa 0,0 l/m 2,7 km/h (1 Bft) S-SW 205 1 min 0,000 mm 0,0 UV-I 56 W/m 6,1 C 7,0 C 3,2 km/h (1 Bft) 100,00 %
18.04.2018 06:48 6,9 C 11,7 C 94 % 1030,3 hPa 0,0 l/m 3,6 km/h (1 Bft) S-SW 205 1 min 0,000 mm 0,0 UV-I 58 W/m 6,0 C 6,9 C 4,8 km/h (1 Bft) 100,00 %
18.04.2018 06:49 6,9 C 11,7 C 94 % 1030,2 hPa 0,0 l/m 4,2 km/h (1 Bft) S-SW 205 1 min 0,000 mm 0,0 UV-I 60 W/m 6,0 C 6,9 C 4,8 km/h (1 Bft) 100,00 %
18.04.2018 06:50 6,9 C 11,7 C 94 % 1030,2 hPa 0,0 l/m 3,6 km/h (1 Bft) S-SW 205 1 min 0,000 mm 0,0 UV-I 62 W/m 6,0 C 6,9 C 4,8 km/h (1 Bft) 100,00 %
18.04.2018 06:51 6,9 C 11,7 C 94 % 1030,3 hPa 0,0 l/m 2,9 km/h (1 Bft) S-SW 205 1 min 0,000 mm 0,0 UV-I 64 W/m 6,0 C 6,9 C 3,2 km/h (1 Bft) 100,00 %
18.04.2018 06:52 7,0 C 11,7 C 94 % 1030,3 hPa 0,0 l/m 2,5 km/h (1 Bft) S-SW 205 1 min 0,000 mm 0,0 UV-I 65 W/m 6,1 C 7,0 C 3,2 km/h (1 Bft) 100,00 %
18.04.2018 06:53 7,0 C 11,7 C 94 % 1030,3 hPa 0,0 l/m 1,8 km/h (1 Bft) S-SW 205 1 min 0,000 mm 0,0 UV-I 65 W/m 6,1 C 7,0 C 3,2 km/h (1 Bft) 100,00 %
18.04.2018 06:54 7,1 C 11,7 C 94 % 1030,3 hPa 0,0 l/m 1,6 km/h (1 Bft) S-SW 205 1 min 0,000 mm 0,0 UV-I 69 W/m 6,2 C 7,1 C 3,2 km/h (1 Bft) 100,00 %
18.04.2018 06:55 7,1 C 11,7 C 94 % 1030,3 hPa 0,0 l/m 0,5 km/h (0 Bft) S-SW 205 1 min 0,000 mm 0,0 UV-I 73 W/m 6,2 C 7,1 C 1,6 km/h (1 Bft) 100,00 %
18.04.2018 06:56 7,1 C 11,7 C 94 % 1030,3 hPa 0,0 l/m 0,6 km/h (0 Bft) S-SW 205 1 min 0,000 mm 0,0 UV-I 75 W/m 6,2 C 7,1 C 1,6 km/h (1 Bft) 100,00 %
18.04.2018 06:57 7,1 C 11,7 C 94 % 1030,3 hPa 0,0 l/m 2,1 km/h (1 Bft) S-SW 205 1 min 0,000 mm 0,0 UV-I 77 W/m 6,2 C 7,1 C 3,2 km/h (1 Bft) 100,00 %
18.04.2018 06:58 7,2 C 11,7 C 94 % 1030,3 hPa 0,0 l/m 2,8 km/h (1 Bft) S-SW 205 1 min 0,000 mm 0,0 UV-I 79 W/m 6,3 C 7,2 C 3,2 km/h (1 Bft) 100,00 %
18.04.2018 06:59 7,3 C 11,7 C 95 % 1030,3 hPa 0,0 l/m 3,0 km/h (1 Bft) S-SW 205 1 min 0,000 mm 0,0 UV-I 81 W/m 6,6 C 7,3 C 4,8 km/h (1 Bft) 100,00 %
18.04.2018 07:00 7,3 C 11,7 C 95 % 1030,3 hPa 0,0 l/m 3,6 km/h (1 Bft) S-SW 205 1 min 0,000 mm 0,0 UV-I 83 W/m 6,6 C 7,3 C 4,8 km/h (1 Bft) 100,00 %
18.04.2018 07:01 7,4 C 11,7 C 95 % 1030,3 hPa 0,0 l/m 3,6 km/h (1 Bft) S-SW 205 1 min 0,025 mm 0,0 UV-I 84 W/m 6,7 C 7,4 C 4,8 km/h (1 Bft) 100,00 %
18.04.2018 07:02 7,4 C 11,7 C 94 % 1030,3 hPa 0,0 l/m 3,2 km/h (1 Bft) S-SW 205 1 min 0,000 mm 0,0 UV-I 85 W/m 6,5 C 7,4 C 4,8 km/h (1 Bft) 100,00 %
18.04.2018 07:03 7,4 C 11,7 C 94 % 1030,4 hPa 0,0 l/m 3,2 km/h (1 Bft) S-SW 205 1 min 0,000 mm 0,0 UV-I 88 W/m 6,5 C 7,4 C 3,2 km/h (1 Bft) 100,00 %
18.04.2018 07:04 7,4 C 11,7 C 94 % 1030,4 hPa 0,0 l/m 2,7 km/h (1 Bft) S-SW 205 1 min 0,000 mm 0,0 UV-I 91 W/m 6,5 C 7,4 C 3,2 km/h (1 Bft) 100,00 %
18.04.2018 07:05 7,5 C 11,7 C 94 % 1030,4 hPa 0,0 l/m 2,9 km/h (1 Bft) S-SW 205 1 min 0,000 mm 0,0 UV-I 93 W/m 6,6 C 7,5 C 3,2 km/h (1 Bft) 100,00 %
18.04.2018 07:06 7,6 C 11,7 C 94 % 1030,4 hPa 0,0 l/m 4,1 km/h (1 Bft) S-SW 205 1 min 0,000 mm 0,0 UV-I 93 W/m 6,7 C 7,6 C 4,8 km/h (1 Bft) 100,00 %
18.04.2018 07:07 7,6 C 11,7 C 94 % 1030,4 hPa 0,0 l/m 4,5 km/h (1 Bft) S-SW 205 1 min 0,000 mm 0,0 UV-I 96 W/m 6,7 C 7,6 C 4,8 km/h (1 Bft) 100,00 %
18.04.2018 07:08 7,6 C 11,7 C 94 % 1030,5 hPa 0,0 l/m 4,4 km/h (1 Bft) S-SW 205 1 min 0,000 mm 0,0 UV-I 99 W/m 6,7 C 7,6 C 4,8 km/h (1 Bft) 100,00 %
18.04.2018 07:09 7,7 C 11,7 C 94 % 1030,5 hPa 0,0 l/m 3,1 km/h (1 Bft) S-SW 205 1 min 0,000 mm 0,0 UV-I 101 W/m 6,8 C 7,7 C 3,2 km/h (1 Bft) 100,00 %
18.04.2018 07:10 7,7 C 11,7 C 94 % 1030,5 hPa 0,0 l/m 3,0 km/h (1 Bft) S-SW 205 1 min 0,000 mm 0,0 UV-I 104 W/m 6,8 C 7,7 C 3,2 km/h (1 Bft) 100,00 %
18.04.2018 07:11 7,7 C 11,7 C 94 % 1030,5 hPa 0,0 l/m 2,1 km/h (1 Bft) S-SW 205 1 min 0,000 mm 0,0 UV-I 105 W/m 6,8 C 7,7 C 3,2 km/h (1 Bft) 100,00 %
18.04.2018 07:12 7,7 C 11,7 C 94 % 1030,5 hPa 0,0 l/m 3,3 km/h (1 Bft) S-SW 205 1 min 0,000 mm 0,0 UV-I 108 W/m 6,8 C 7,7 C 4,8 km/h (1 Bft) 100,00 %
18.04.2018 07:13 7,8 C 11,7 C 94 % 1030,6 hPa 0,0 l/m 4,4 km/h (1 Bft) S-SW 205 1 min 0,000 mm 0,0 UV-I 112 W/m 6,9 C 7,8 C 4,8 km/h (1 Bft) 96,15 %
18.04.2018 07:14 7,8 C 11,7 C 94 % 1030,6 hPa 0,0 l/m 4,5 km/h (1 Bft) S-SW 205 1 min 0,000 mm 0,0 UV-I 113 W/m 6,9 C 7,8 C 4,8 km/h (1 Bft) 95,83 %
18.04.2018 07:15 7,8 C 11,7 C 94 % 1030,5 hPa 0,0 l/m 3,7 km/h (1 Bft) S-SW 205 1 min 0,000 mm 0,0 UV-I 115 W/m 6,9 C 7,8 C 4,8 km/h (1 Bft) 100,00 %
18.04.2018 07:16 7,8 C 11,7 C 94 % 1030,6 hPa 0,0 l/m 2,8 km/h (1 Bft) S-SW 205 1 min 0,000 mm 0,0 UV-I 118 W/m 6,9 C 7,8 C 3,2 km/h (1 Bft) 95,83 %
18.04.2018 07:17 7,8 C 11,7 C 94 % 1030,6 hPa 0,0 l/m 2,9 km/h (1 Bft) S-SW 205 1 min 0,000 mm 0,0 UV-I 121 W/m 6,9 C 7,8 C 3,2 km/h (1 Bft) 100,00 %
18.04.2018 07:18 7,9 C 11,7 C 94 % 1030,6 hPa 0,0 l/m 2,8 km/h (1 Bft) S-SW 205 1 min 0,000 mm 0,0 UV-I 123 W/m 7,0 C 7,9 C 4,8 km/h (1 Bft) 91,67 %
18.04.2018 07:19 7,9 C 11,7 C 94 % 1030,6 hPa 0,0 l/m 3,7 km/h (1 Bft) S-SW 205 1 min 0,000 mm 0,0 UV-I 126 W/m 7,0 C 7,9 C 4,8 km/h (1 Bft) 95,65 %
18.04.2018 07:20 8,1 C 11,7 C 94 % 1030,6 hPa 0,0 l/m 3,6 km/h (1 Bft) S-SW 205 1 min 0,000 mm 0,0 UV-I 128 W/m 7,2 C 8,1 C 4,8 km/h (1 Bft) 91,67 %
18.04.2018 07:21 8,2 C 11,7 C 94 % 1030,6 hPa 0,0 l/m 3,4 km/h (1 Bft) S-SW 205 1 min 0,000 mm 0,0 UV-I 131 W/m 7,3 C 8,2 C 4,8 km/h (1 Bft) 95,65 %
18.04.2018 07:22 8,3 C 11,7 C 94 % 1030,6 hPa 0,0 l/m 3,0 km/h (1 Bft) S-SW 205 1 min 0,000 mm 0,0 UV-I 134 W/m 7,4 C 8,3 C 4,8 km/h (1 Bft) 95,83 %
18.04.2018 07:23 8,3 C 11,7 C 94 % 1030,6 hPa 0,0 l/m 2,1 km/h (1 Bft) S-SW 205 1 min 0,000 mm 0,0 UV-I 135 W/m 7,4 C 8,3 C 3,2 km/h (1 Bft) 91,30 %
18.04.2018 07:24 8,4 C 11,7 C 93 % 1030,6 hPa 0,0 l/m 1,3 km/h (1 Bft) S-SW 205 1 min 0,000 mm 0,0 UV-I 138 W/m 7,3 C 8,4 C 1,6 km/h (1 Bft) 100,00 %
18.04.2018 07:25 8,4 C 11,7 C 93 % 1030,6 hPa 0,0 l/m 0,7 km/h (0 Bft) S-SW 205 1 min 0,000 mm 0,0 UV-I 140 W/m 7,3 C 8,4 C 3,2 km/h (1 Bft) 95,65 %
18.04.2018 07:26 8,6 C 11,7 C 93 % 1030,6 hPa 0,0 l/m 2,4 km/h (1 Bft) S-SW 205 1 min 0,000 mm 0,0 UV-I 144 W/m 7,5 C 8,6 C 3,2 km/h (1 Bft) 100,00 %
18.04.2018 07:27 8,6 C 11,7 C 93 % 1030,6 hPa 0,0 l/m 2,4 km/h (1 Bft) S-SW 205 1 min 0,000 mm 0,0 UV-I 148 W/m 7,5 C 8,6 C 3,2 km/h (1 Bft) 93,10 %
18.04.2018 07:28 8,7 C 11,7 C 93 % 1030,6 hPa 0,0 l/m 3,8 km/h (1 Bft) S-SW 205 1 min 0,000 mm 0,0 UV-I 150 W/m 7,6 C 8,7 C 4,8 km/h (1 Bft) 95,83 %
18.04.2018 07:29 8,7 C 11,7 C 93 % 1030,6 hPa 0,0 l/m 4,4 km/h (1 Bft) S-SW 205 1 min 0,000 mm 0,0 UV-I 153 W/m 7,6 C 8,7 C 4,8 km/h (1 Bft) 100,00 %
18.04.2018 07:30 8,8 C 11,7 C 93 % 1030,6 hPa 0,0 l/m 3,6 km/h (1 Bft) S-SW 205 1 min 0,000 mm 0,0 UV-I 155 W/m 7,7 C 8,8 C 4,8 km/h (1 Bft) 95,83 %
18.04.2018 07:31 8,8 C 11,7 C 92 % 1030,6 hPa 0,0 l/m 3,5 km/h (1 Bft) S-SW 205 1 min 0,000 mm 0,0 UV-I 157 W/m 7,6 C 8,8 C 4,8 km/h (1 Bft) 100,00 %
18.04.2018 07:32 8,9 C 11,7 C 92 % 1030,6 hPa 0,0 l/m 4,2 km/h (1 Bft) S-SW 205 1 min 0,000 mm 0,0 UV-I 158 W/m 7,7 C 8,9 C 4,8 km/h (1 Bft) 95,83 %
18.04.2018 07:33 8,9 C 11,7 C 92 % 1030,6 hPa 0,0 l/m 2,9 km/h (1 Bft) S-SW 205 1 min 0,000 mm 0,0 UV-I 162 W/m 7,7 C 8,9 C 4,8 km/h (1 Bft) 100,00 %
18.04.2018 07:34 9,1 C 11,7 C 92 % 1030,6 hPa 0,0 l/m 2,5 km/h (1 Bft) S-SW 205 1 min 0,000 mm 0,0 UV-I 166 W/m 7,9 C 9,1 C 3,2 km/h (1 Bft) 95,83 %
18.04.2018 07:35 9,1 C 11,7 C 92 % 1030,6 hPa 0,0 l/m 3,4 km/h (1 Bft) S-SW 205 1 min 0,000 mm 0,0 UV-I 171 W/m 7,9 C 9,1 C 4,8 km/h (1 Bft) 100,00 %
18.04.2018 07:36 9,2 C 11,7 C 92 % 1030,6 hPa 0,0 l/m 1,9 km/h (1 Bft) S-SW 205 1 min 0,000 mm 0,0 UV-I 172 W/m 8,0 C 9,2 C 3,2 km/h (1 Bft) 91,30 %
18.04.2018 07:37 9,3 C 11,7 C 92 % 1030,7 hPa 0,0 l/m 3,1 km/h (1 Bft) S-SW 205 1 min 0,000 mm 0,0 UV-I 175 W/m 8,1 C 9,3 C 3,2 km/h (1 Bft) 95,83 %
18.04.2018 07:38 9,4 C 11,7 C 92 % 1030,6 hPa 0,0 l/m 2,2 km/h (1 Bft) S-SW 205 1 min 0,000 mm 0,0 UV-I 178 W/m 8,2 C 9,4 C 3,2 km/h (1 Bft) 95,65 %
18.04.2018 07:39 9,4 C 11,7 C 91 % 1030,7 hPa 0,0 l/m 2,9 km/h (1 Bft) S-SW 205 1 min 0,000 mm 0,0 UV-I 180 W/m 8,0 C 9,4 C 4,8 km/h (1 Bft) 100,00 %
18.04.2018 07:40 9,5 C 11,7 C 91 % 1030,7 hPa 0,0 l/m 1,5 km/h (1 Bft) S-SW 205 1 min 0,000 mm 0,0 UV-I 183 W/m 8,1 C 9,5 C 3,2 km/h (1 Bft) 92,31 %
18.04.2018 07:41 9,5 C 11,7 C 91 % 1030,7 hPa 0,0 l/m 0,3 km/h (0 Bft) S-SW 205 1 min 0,000 mm 0,0 UV-I 185 W/m 8,1 C 9,5 C 1,6 km/h (1 Bft) 95,83 %
18.04.2018 07:42 9,6 C 11,7 C 91 % 1030,7 hPa 0,0 l/m 1,5 km/h (1 Bft) S-SW 205 1 min 0,000 mm 0,0 UV-I 187 W/m 8,2 C 9,6 C 3,2 km/h (1 Bft) 100,00 %
18.04.2018 07:43 9,6 C 11,7 C 91 % 1030,7 hPa 0,0 l/m 2,8 km/h (1 Bft) S-SW 205 1 min 0,000 mm 0,0 UV-I 189 W/m 8,2 C 9,6 C 4,8 km/h (1 Bft) 95,83 %
18.04.2018 07:44 9,7 C 11,7 C 91 % 1030,7 hPa 0,0 l/m 2,7 km/h (1 Bft) S-SW 205 1 min 0,000 mm 0,0 UV-I 192 W/m 8,3 C 9,7 C 3,2 km/h (1 Bft) 100,00 %
18.04.2018 07:45 9,7 C 11,7 C 90 % 1030,8 hPa 0,0 l/m 2,7 km/h (1 Bft) S-SW 205 1 min 0,000 mm 0,0 UV-I 194 W/m 8,1 C 9,7 C 3,2 km/h (1 Bft) 96,30 %
18.04.2018 07:46 9,7 C 11,7 C 90 % 1030,7 hPa 0,0 l/m 2,0 km/h (1 Bft) S-SW 205 1 min 0,000 mm 0,0 UV-I 197 W/m 8,1 C 9,7 C 3,2 km/h (1 Bft) 100,00 %
18.04.2018 07:47 9,8 C 11,7 C 90 % 1030,7 hPa 0,0 l/m 0,6 km/h (0 Bft) S-SW 205 1 min 0,000 mm 0,0 UV-I 200 W/m 8,2 C 9,8 C 1,6 km/h (1 Bft) 91,67 %
18.04.2018 07:48 9,8 C 11,7 C 90 % 1030,7 hPa 0,0 l/m 0,0 km/h (0 Bft) S-SW 205 1 min 0,000 mm 0,0 UV-I 203 W/m 8,2 C 9,8 C 0,0 km/h (0 Bft) 95,65 %
18.04.2018 07:49 9,9 C 11,7 C 90 % 1030,8 hPa 0,0 l/m 1,4 km/h (1 Bft) S-SW 205 1 min 0,000 mm 0,0 UV-I 205 W/m 8,3 C 9,9 C 3,2 km/h (1 Bft) 100,00 %
18.04.2018 07:50 10,0 C 11,7 C 89 % 1030,8 hPa 0,0 l/m 1,9 km/h (1 Bft) S-SW 205 1 min 0,000 mm 0,0 UV-I 206 W/m 8,3 C 10,0 C 3,2 km/h (1 Bft) 96,15 %
18.04.2018 07:51 10,0 C 11,7 C 89 % 1030,8 hPa 0,0 l/m 1,8 km/h (1 Bft) S-SW 205 1 min 0,000 mm 0,0 UV-I 208 W/m 8,3 C 10,0 C 3,2 km/h (1 Bft) 100,00 %
18.04.2018 07:52 10,1 C 11,7 C 90 % 1030,8 hPa 0,0 l/m 1,4 km/h (1 Bft) S-SW 205 1 min 0,000 mm 0,0 UV-I 211 W/m 8,5 C 10,1 C 1,6 km/h (1 Bft) 95,65 %
18.04.2018 07:53 10,3 C 11,7 C 89 % 1030,8 hPa 0,0 l/m 0,2 km/h (0 Bft) S-SW 205 1 min 0,000 mm 0,0 UV-I 214 W/m 8,6 C 10,3 C 1,6 km/h (1 Bft) 100,00 %
18.04.2018 07:54 10,4 C 11,7 C 89 % 1030,8 hPa 0,0 l/m 0,0 km/h (0 Bft) S-SW 205 1 min 0,000 mm 0,0 UV-I 217 W/m 8,7 C 10,4 C 0,0 km/h (0 Bft) 95,83 %
18.04.2018 07:55 10,5 C 11,7 C 88 % 1030,9 hPa 0,0 l/m 0,0 km/h (0 Bft) S-SW 205 1 min 0,000 mm 0,0 UV-I 220 W/m 8,6 C 10,5 C 0,0 km/h (0 Bft) 100,00 %
18.04.2018 07:56 10,5 C 11,7 C 87 % 1030,8 hPa 0,0 l/m 0,1 km/h (0 Bft) S-SW 205 1 min 0,000 mm 0,0 UV-I 224 W/m 8,4 C 10,5 C 1,6 km/h (1 Bft) 100,00 %
18.04.2018 07:57 10,5 C 11,7 C 88 % 1030,8 hPa 0,0 l/m 1,1 km/h (1 Bft) S-SW 205 1 min 0,000 mm 0,0 UV-I 226 W/m 8,6 C 10,5 C 1,6 km/h (1 Bft) 100,00 %
18.04.2018 07:58 10,6 C 11,7 C 88 % 1030,9 hPa 0,0 l/m 0,5 km/h (0 Bft) S-SW 205 1 min 0,000 mm 0,0 UV-I 229 W/m 8,7 C 10,6 C 1,6 km/h (1 Bft) 100,00 %
18.04.2018 07:59 10,6 C 11,7 C 88 % 1030,9 hPa 0,0 l/m 0,1 km/h (0 Bft) S-SW 205 1 min 0,000 mm 0,0 UV-I 230 W/m 8,7 C 10,6 C 1,6 km/h (1 Bft) 100,00 %
18.04.2018 08:00 10,7 C 11,7 C 87 % 1030,8 hPa 0,0 l/m 0,0 km/h (0 Bft) S-SW 205 1 min 0,000 mm 0,0 UV-I 233 W/m 8,6 C 10,7 C 0,0 km/h (0 Bft) 100,00 %
18.04.2018 08:01 10,7 C 11,7 C 87 % 1030,9 hPa 0,0 l/m 0,4 km/h (0 Bft) S-SW 205 1 min 0,077 mm 0,0 UV-I 236 W/m 8,6 C 10,7 C 1,6 km/h (1 Bft) 100,00 %
18.04.2018 08:02 10,8 C 11,7 C 87 % 1030,9 hPa 0,0 l/m 1,3 km/h (1 Bft) S-SW 205 1 min 0,000 mm 0,0 UV-I 240 W/m 8,7 C 10,8 C 3,2 km/h (1 Bft) 95,83 %
18.04.2018 08:03 10,8 C 11,7 C 87 % 1031,0 hPa 0,0 l/m 1,9 km/h (1 Bft) S-SW 205 1 min 0,000 mm 0,0 UV-I 243 W/m 8,7 C 10,8 C 3,2 km/h (1 Bft) 100,00 %
18.04.2018 08:04 10,9 C 11,7 C 86 % 1031,0 hPa 0,0 l/m 0,8 km/h (0 Bft) S-SW 205 1 min 0,000 mm 0,0 UV-I 244 W/m 8,7 C 10,9 C 1,6 km/h (1 Bft) 100,00 %
18.04.2018 08:05 10,9 C 11,7 C 86 % 1031,0 hPa 0,0 l/m 1,8 km/h (1 Bft) S-SW 205 1 min 0,000 mm 0,0 UV-I 248 W/m 8,7 C 10,9 C 3,2 km/h (1 Bft) 100,00 %
18.04.2018 08:06 11,1 C 11,7 C 86 % 1031,0 hPa 0,0 l/m 2,4 km/h (1 Bft) S-SW 205 1 min 0,000 mm 0,0 UV-I 250 W/m 8,8 C 11,1 C 3,2 km/h (1 Bft) 95,83 %
18.04.2018 08:07 11,2 C 11,7 C 86 % 1031,0 hPa 0,0 l/m 2,8 km/h (1 Bft) S-SW 206 1 min 0,000 mm 0,0 UV-I 251 W/m 8,9 C 11,2 C 4,8 km/h (1 Bft) 95,65 %
18.04.2018 08:08 11,2 C 11,7 C 86 % 1031,0 hPa 0,0 l/m 1,8 km/h (1 Bft) S-SW 206 1 min 0,000 mm 0,0 UV-I 255 W/m 8,9 C 11,2 C 3,2 km/h (1 Bft) 100,00 %
18.04.2018 08:09 11,2 C 11,7 C 86 % 1031,0 hPa 0,0 l/m 2,1 km/h (1 Bft) S-SW 206 1 min 0,000 mm 0,3 UV-I 260 W/m 8,9 C 11,2 C 3,2 km/h (1 Bft) 100,00 %
18.04.2018 08:10 11,3 C 11,7 C 86 % 1031,0 hPa 0,0 l/m 2,7 km/h (1 Bft) S-SW 206 1 min 0,000 mm 0,5 UV-I 262 W/m 9,0 C 11,3 C 3,2 km/h (1 Bft) 100,00 %
18.04.2018 08:11 11,3 C 11,7 C 86 % 1031,1 hPa 0,0 l/m 2,2 km/h (1 Bft) S-SW 206 1 min 0,000 mm 0,5 UV-I 264 W/m 9,0 C 11,3 C 3,2 km/h (1 Bft) 100,00 %
18.04.2018 08:12 11,3 C 11,7 C 86 % 1031,0 hPa 0,0 l/m 1,4 km/h (1 Bft) S-SW 206 1 min 0,000 mm 0,5 UV-I 266 W/m 9,0 C 11,3 C 3,2 km/h (1 Bft) 100,00 %
18.04.2018 08:13 11,4 C 11,7 C 86 % 1031,0 hPa 0,0 l/m 1,0 km/h (0 Bft) S-SW 206 1 min 0,000 mm 0,5 UV-I 271 W/m 9,1 C 11,4 C 3,2 km/h (1 Bft) 100,00 %
18.04.2018 08:14 11,4 C 11,7 C 86 % 1031,1 hPa 0,0 l/m 2,0 km/h (1 Bft) S-SW 206 1 min 0,000 mm 0,5 UV-I 273 W/m 9,1 C 11,4 C 3,2 km/h (1 Bft) 100,00 %
18.04.2018 08:15 11,6 C 11,7 C 86 % 1031,1 hPa 0,0 l/m 1,8 km/h (1 Bft) S-SW 206 1 min 0,000 mm 0,5 UV-I 276 W/m 9,3 C 11,6 C 3,2 km/h (1 Bft) 95,83 %
18.04.2018 08:16 11,6 C 11,7 C 86 % 1031,0 hPa 0,0 l/m 1,4 km/h (1 Bft) S-SW 206 1 min 0,000 mm 0,5 UV-I 279 W/m 9,3 C 11,6 C 1,6 km/h (1 Bft) 100,00 %
18.04.2018 08:17 11,7 C 11,7 C 86 % 1031,0 hPa 0,0 l/m 1,6 km/h (1 Bft) S-SW 206 1 min 0,000 mm 0,5 UV-I 282 W/m 9,4 C 11,7 C 3,2 km/h (1 Bft) 91,67 %
18.04.2018 08:18 11,8 C 11,7 C 85 % 1031,1 hPa 0,0 l/m 0,5 km/h (0 Bft) S-SW 206 1 min 0,000 mm 0,5 UV-I 286 W/m 9,4 C 11,8 C 1,6 km/h (1 Bft) 100,00 %
18.04.2018 08:19 11,9 C 11,7 C 83 % 1031,1 hPa 0,0 l/m 0,9 km/h (0 Bft) S-SW 206 1 min 0,000 mm 0,5 UV-I 288 W/m 9,1 C 11,9 C 3,2 km/h (1 Bft) 91,67 %
18.04.2018 08:20 11,8 C 11,7 C 84 % 1031,1 hPa 0,0 l/m 1,5 km/h (1 Bft) S-SW 206 1 min 0,000 mm 0,5 UV-I 291 W/m 9,2 C 11,8 C 3,2 km/h (1 Bft) 100,00 %
18.04.2018 08:21 11,8 C 11,7 C 83 % 1031,1 hPa 0,0 l/m 1,3 km/h (1 Bft) S-SW 206 1 min 0,000 mm 0,6 UV-I 290 W/m 9,0 C 11,8 C 3,2 km/h (1 Bft) 95,83 %
18.04.2018 08:22 11,9 C 11,7 C 83 % 1031,1 hPa 0,0 l/m 0,8 km/h (0 Bft) S-SW 206 1 min 0,000 mm 0,6 UV-I 294 W/m 9,1 C 11,9 C 1,6 km/h (1 Bft) 100,00 %
18.04.2018 08:23 11,9 C 11,7 C 83 % 1031,1 hPa 0,0 l/m 0,9 km/h (0 Bft) S-SW 206 1 min 0,000 mm 0,6 UV-I 296 W/m 9,1 C 11,9 C 1,6 km/h (1 Bft) 92,59 %
18.04.2018 08:24 12,0 C 11,7 C 83 % 1031,1 hPa 0,0 l/m 1,6 km/h (1 Bft) S-SW 206 1 min 0,000 mm 0,6 UV-I 297 W/m 9,2 C 12,0 C 3,2 km/h (1 Bft) 91,30 %
18.04.2018 08:25 12,1 C 11,7 C 83 % 1031,1 hPa 0,0 l/m 1,7 km/h (1 Bft) S-SW 205 1 min 0,000 mm 0,6 UV-I 299 W/m 9,3 C 12,1 C 3,2 km/h (1 Bft) 100,00 %
18.04.2018 08:26 12,2 C 11,7 C 81 % 1031,1 hPa 0,0 l/m 0,9 km/h (0 Bft) S-SW 205 1 min 0,000 mm 0,6 UV-I 303 W/m 9,0 C 12,2 C 1,6 km/h (1 Bft) 91,30 %
18.04.2018 08:27 12,2 C 11,7 C 81 % 1031,1 hPa 0,0 l/m 1,0 km/h (0 Bft) S-SW 205 1 min 0,000 mm 0,6 UV-I 308 W/m 9,0 C 12,2 C 3,2 km/h (1 Bft) 100,00 %
18.04.2018 08:28 12,2 C 11,7 C 80 % 1031,1 hPa 0,0 l/m 2,6 km/h (1 Bft) S-SW 196 1 min 0,000 mm 0,6 UV-I 310 W/m 8,9 C 12,2 C 3,2 km/h (1 Bft) 91,30 %
18.04.2018 08:29 12,2 C 11,7 C 82 % 1031,1 hPa 0,0 l/m 1,8 km/h (1 Bft) S-SW 196 1 min 0,000 mm 0,6 UV-I 309 W/m 9,2 C 12,2 C 3,2 km/h (1 Bft) 100,00 %
18.04.2018 08:30 12,3 C 11,7 C 82 % 1031,1 hPa 0,0 l/m 2,9 km/h (1 Bft) S-SW 196 1 min 0,000 mm 0,6 UV-I 313 W/m 9,3 C 12,3 C 4,8 km/h (1 Bft) 96,15 %
18.04.2018 08:31 12,3 C 11,7 C 81 % 1031,1 hPa 0,0 l/m 3,6 km/h (1 Bft) O-NO 65 1 min 0,000 mm 0,6 UV-I 315 W/m 9,1 C 12,3 C 4,8 km/h (1 Bft) 100,00 %
18.04.2018 08:32 12,4 C 11,7 C 81 % 1031,1 hPa 0,0 l/m 4,7 km/h (1 Bft) NO 55 1 min 0,000 mm 0,7 UV-I 315 W/m 9,2 C 12,4 C 6,4 km/h (2 Bft) 95,65 %
18.04.2018 08:33 12,5 C 11,7 C 81 % 1031,1 hPa 0,0 l/m 4,4 km/h (1 Bft) NO 55 1 min 0,000 mm 0,7 UV-I 316 W/m 9,3 C 12,5 C 4,8 km/h (1 Bft) 91,67 %
18.04.2018 08:34 12,6 C 11,7 C 81 % 1031,1 hPa 0,0 l/m 4,0 km/h (1 Bft) NO 55 1 min 0,000 mm 0,7 UV-I 322 W/m 9,4 C 12,6 C 4,8 km/h (1 Bft) 100,00 %
18.04.2018 08:35 12,6 C 11,7 C 80 % 1031,1 hPa 0,0 l/m 3,1 km/h (1 Bft) NO 55 1 min 0,000 mm 0,7 UV-I 325 W/m 9,2 C 12,6 C 4,8 km/h (1 Bft) 100,00 %
18.04.2018 08:36 12,7 C 11,7 C 80 % 1031,1 hPa 0,0 l/m 4,1 km/h (1 Bft) NO 55 1 min 0,000 mm 0,7 UV-I 328 W/m 9,3 C 12,7 C 4,8 km/h (1 Bft) 95,83 %
18.04.2018 08:37 12,7 C 11,7 C 81 % 1031,1 hPa 0,0 l/m 3,6 km/h (1 Bft) NO 53 1 min 0,000 mm 0,7 UV-I 329 W/m 9,5 C 12,7 C 6,4 km/h (2 Bft) 95,65 %
18.04.2018 08:38 12,7 C 11,7 C 80 % 1031,1 hPa 0,0 l/m 4,1 km/h (1 Bft) NO 53 1 min 0,000 mm 0,7 UV-I 334 W/m 9,3 C 12,7 C 4,8 km/h (1 Bft) 100,00 %
18.04.2018 08:39 12,7 C 11,7 C 80 % 1031,1 hPa 0,0 l/m 4,0 km/h (1 Bft) NO 53 1 min 0,000 mm 0,7 UV-I 336 W/m 9,3 C 12,7 C 4,8 km/h (1 Bft) 95,65 %
18.04.2018 08:40 12,7 C 11,7 C 80 % 1031,1 hPa 0,0 l/m 3,8 km/h (1 Bft) NO 53 1 min 0,000 mm 0,7 UV-I 338 W/m 9,3 C 12,7 C 4,8 km/h (1 Bft) 95,83 %
18.04.2018 08:41 12,7 C 11,7 C 80 % 1031,1 hPa 0,0 l/m 4,4 km/h (1 Bft) NO 56 1 min 0,000 mm 0,7 UV-I 341 W/m 9,3 C 12,7 C 6,4 km/h (2 Bft) 91,30 %
18.04.2018 08:42 12,7 C 11,7 C 80 % 1031,1 hPa 0,0 l/m 3,7 km/h (1 Bft) NO 56 1 min 0,000 mm 0,7 UV-I 345 W/m 9,3 C 12,7 C 4,8 km/h (1 Bft) 100,00 %
18.04.2018 08:43 12,6 C 11,7 C 78 % 1031,0 hPa 0,0 l/m 4,3 km/h (1 Bft) NO 56 1 min 0,000 mm 0,7 UV-I 347 W/m 8,9 C 12,6 C 6,4 km/h (2 Bft) 91,30 %
18.04.2018 08:44 12,5 C 11,7 C 80 % 1031,0 hPa 0,0 l/m 4,7 km/h (1 Bft) NO 56 1 min 0,000 mm 0,8 UV-I 350 W/m 9,1 C 12,5 C 6,4 km/h (2 Bft) 100,00 %
18.04.2018 08:45 12,6 C 11,7 C 81 % 1031,1 hPa 0,0 l/m 4,7 km/h (1 Bft) NO 56 1 min 0,000 mm 0,8 UV-I 348 W/m 9,4 C 12,6 C 6,4 km/h (2 Bft) 95,65 %
18.04.2018 08:46 12,6 C 11,7 C 80 % 1031,1 hPa 0,0 l/m 4,4 km/h (1 Bft) NO 56 1 min 0,000 mm 0,8 UV-I 350 W/m 9,2 C 12,6 C 6,4 km/h (2 Bft) 95,83 %
18.04.2018 08:47 12,6 C 11,7 C 80 % 1031,1 hPa 0,0 l/m 5,1 km/h (1 Bft) O-SO 110 1 min 0,000 mm 0,8 UV-I 351 W/m 9,2 C 12,6 C 6,4 km/h (2 Bft) 100,00 %
18.04.2018 08:48 12,5 C 11,7 C 79 % 1031,1 hPa 0,0 l/m 4,8 km/h (1 Bft) O-SO 106 1 min 0,000 mm 0,8 UV-I 354 W/m 9,0 C 12,5 C 6,4 km/h (2 Bft) 95,83 %
18.04.2018 08:49 12,5 C 11,7 C 80 % 1031,1 hPa 0,0 l/m 2,7 km/h (1 Bft) O-SO 106 1 min 0,000 mm 0,8 UV-I 358 W/m 9,1 C 12,5 C 4,8 km/h (1 Bft) 100,00 %
18.04.2018 08:50 12,5 C 11,7 C 80 % 1031,1 hPa 0,0 l/m 1,2 km/h (1 Bft) O-SO 106 1 min 0,000 mm 0,8 UV-I 366 W/m 9,1 C 12,5 C 1,6 km/h (1 Bft) 95,83 %
18.04.2018 08:51 12,5 C 11,7 C 79 % 1031,1 hPa 0,0 l/m 2,4 km/h (1 Bft) O-SO 106 1 min 0,000 mm 0,8 UV-I 373 W/m 9,0 C 12,5 C 3,2 km/h (1 Bft) 100,00 %
18.04.2018 08:52 12,6 C 11,7 C 81 % 1031,1 hPa 0,0 l/m 4,3 km/h (1 Bft) O-SO 106 1 min 0,000 mm 0,9 UV-I 373 W/m 9,4 C 12,6 C 6,4 km/h (2 Bft) 95,83 %
18.04.2018 08:53 12,7 C 11,7 C 81 % 1031,1 hPa 0,0 l/m 4,5 km/h (1 Bft) O 81 1 min 0,000 mm 0,9 UV-I 379 W/m 9,5 C 12,7 C 6,4 km/h (2 Bft) 100,00 %
18.04.2018 08:54 12,8 C 11,7 C 80 % 1031,1 hPa 0,0 l/m 7,2 km/h (2 Bft) O-NO 65 1 min 0,000 mm 0,9 UV-I 382 W/m 9,4 C 12,3 C 8,0 km/h (2 Bft) 95,65 %
18.04.2018 08:55 12,9 C 11,7 C 80 % 1031,1 hPa 0,0 l/m 6,3 km/h (2 Bft) NO 51 1 min 0,000 mm 0,9 UV-I 383 W/m 9,5 C 12,9 C 8,0 km/h (2 Bft) 100,00 %
18.04.2018 08:56 13,0 C 11,7 C 80 % 1031,1 hPa 0,0 l/m 4,6 km/h (1 Bft) NO 55 1 min 0,000 mm 0,9 UV-I 381 W/m 9,6 C 13,0 C 6,4 km/h (2 Bft) 95,65 %
18.04.2018 08:57 13,0 C 11,7 C 79 % 1031,1 hPa 0,0 l/m 4,8 km/h (1 Bft) NO 49 1 min 0,000 mm 0,9 UV-I 387 W/m 9,4 C 13,0 C 6,4 km/h (2 Bft) 95,83 %
18.04.2018 08:58 13,1 C 11,7 C 79 % 1031,1 hPa 0,0 l/m 4,6 km/h (1 Bft) NO 50 1 min 0,000 mm 0,9 UV-I 388 W/m 9,5 C 13,1 C 6,4 km/h (2 Bft) 95,65 %
18.04.2018 08:59 13,1 C 11,7 C 79 % 1031,1 hPa 0,0 l/m 4,9 km/h (1 Bft) O-NO 68 1 min 0,000 mm 0,9 UV-I 391 W/m 9,5 C 13,1 C 6,4 km/h (2 Bft) 100,00 %
18.04.2018 09:00 13,1 C 11,7 C 79 % 1031,1 hPa 0,0 l/m 5,4 km/h (1 Bft) O 86 1 min 0,152 mm 0,9 UV-I 392 W/m 9,5 C 13,1 C 6,4 km/h (2 Bft) 91,30 %
18.04.2018 09:01 13,1 C 11,7 C 80 % 1031,1 hPa 0,0 l/m 5,4 km/h (1 Bft) O 95 1 min 0,000 mm 0,9 UV-I 395 W/m 9,7 C 13,1 C 6,4 km/h (2 Bft) 95,83 %
18.04.2018 09:02 13,1 C 11,7 C 79 % 1031,1 hPa 0,0 l/m 4,8 km/h (1 Bft) O-SO 107 1 min 0,000 mm 1,0 UV-I 400 W/m 9,5 C 13,1 C 6,4 km/h (2 Bft) 100,00 %
18.04.2018 09:03 13,1 C 11,7 C 79 % 1031,1 hPa 0,0 l/m 5,7 km/h (1 Bft) O 93 1 min 0,000 mm 1,0 UV-I 406 W/m 9,5 C 13,1 C 9,7 km/h (2 Bft) 95,83 %
18.04.2018 09:04 13,1 C 11,7 C 79 % 1031,1 hPa 0,0 l/m 5,2 km/h (1 Bft) O 93 1 min 0,000 mm 1,0 UV-I 409 W/m 9,5 C 13,1 C 6,4 km/h (2 Bft) 100,00 %
18.04.2018 09:05 13,0 C 11,7 C 78 % 1031,1 hPa 0,0 l/m 5,7 km/h (1 Bft) O 88 1 min 0,000 mm 1,0 UV-I 410 W/m 9,3 C 13,0 C 9,7 km/h (2 Bft) 95,83 %
18.04.2018 09:06 13,0 C 11,7 C 77 % 1031,1 hPa 0,0 l/m 6,0 km/h (2 Bft) O 88 1 min 0,000 mm 1,0 UV-I 409 W/m 9,1 C 13,0 C 8,0 km/h (2 Bft) 100,00 %
18.04.2018 09:07 13,1 C 11,7 C 77 % 1031,1 hPa 0,0 l/m 4,5 km/h (1 Bft) O 81 1 min 0,000 mm 1,0 UV-I 410 W/m 9,2 C 13,1 C 6,4 km/h (2 Bft) 95,65 %
18.04.2018 09:08 13,1 C 11,7 C 77 % 1031,1 hPa 0,0 l/m 6,1 km/h (2 Bft) O 79 1 min 0,000 mm 1,0 UV-I 413 W/m 9,2 C 13,1 C 8,0 km/h (2 Bft) 100,00 %
18.04.2018 09:09 13,1 C 11,7 C 77 % 1031,1 hPa 0,0 l/m 6,4 km/h (2 Bft) O-NO 57 1 min 0,000 mm 1,1 UV-I 418 W/m 9,2 C 13,1 C 8,0 km/h (2 Bft) 95,65 %
18.04.2018 09:10 13,1 C 11,7 C 77 % 1031,1 hPa 0,0 l/m 2,3 km/h (1 Bft) O-NO 57 1 min 0,000 mm 1,1 UV-I 416 W/m 9,2 C 13,1 C 4,8 km/h (1 Bft) 96,30 %
18.04.2018 09:11 13,2 C 11,7 C 77 % 1031,1 hPa 0,0 l/m 3,0 km/h (1 Bft) O-NO 57 1 min 0,000 mm 1,1 UV-I 419 W/m 9,3 C 13,2 C 4,8 km/h (1 Bft) 95,65 %
18.04.2018 09:12 13,3 C 11,7 C 77 % 1031,1 hPa 0,0 l/m 4,2 km/h (1 Bft) O-NO 61 1 min 0,000 mm 1,1 UV-I 419 W/m 9,4 C 13,3 C 6,4 km/h (2 Bft) 100,00 %
18.04.2018 09:13 13,4 C 11,7 C 78 % 1031,1 hPa 0,0 l/m 4,6 km/h (1 Bft) O-NO 61 1 min 0,000 mm 1,1 UV-I 422 W/m 9,6 C 13,4 C 6,4 km/h (2 Bft) 95,65 %
18.04.2018 09:14 13,5 C 11,7 C 78 % 1031,0 hPa 0,0 l/m 5,7 km/h (1 Bft) O 93 1 min 0,000 mm 1,1 UV-I 425 W/m 9,7 C 13,5 C 9,7 km/h (2 Bft) 95,83 %
18.04.2018 09:15 13,5 C 11,7 C 77 % 1031,1 hPa 0,0 l/m 1,7 km/h (1 Bft) O 93 1 min 0,000 mm 1,1 UV-I 430 W/m 9,5 C 13,5 C 4,8 km/h (1 Bft) 100,00 %
18.04.2018 09:16 13,5 C 11,7 C 77 % 1031,1 hPa 0,0 l/m 4,0 km/h (1 Bft) O 91 1 min 0,000 mm 1,1 UV-I 435 W/m 9,5 C 13,5 C 9,7 km/h (2 Bft) 95,83 %
18.04.2018 09:17 13,5 C 11,7 C 77 % 1031,1 hPa 0,0 l/m 6,1 km/h (2 Bft) O 88 1 min 0,000 mm 1,2 UV-I 438 W/m 9,5 C 13,5 C 8,0 km/h (2 Bft) 100,00 %
18.04.2018 09:18 13,4 C 11,7 C 76 % 1031,1 hPa 0,0 l/m 7,2 km/h (2 Bft) O 96 1 min 0,000 mm 1,2 UV-I 438 W/m 9,3 C 12,9 C 11,3 km/h (2 Bft) 95,83 %
18.04.2018 09:19 13,4 C 11,7 C 76 % 1031,1 hPa 0,0 l/m 7,2 km/h (2 Bft) O-NO 74 1 min 0,000 mm 1,2 UV-I 438 W/m 9,3 C 12,9 C 11,3 km/h (2 Bft) 95,65 %
18.04.2018 09:20 13,4 C 11,7 C 76 % 1031,1 hPa 0,0 l/m 7,6 km/h (2 Bft) O-NO 74 1 min 0,000 mm 1,2 UV-I 439 W/m 9,3 C 12,7 C 8,0 km/h (2 Bft) 95,83 %
18.04.2018 09:21 13,4 C 11,7 C 78 % 1031,1 hPa 0,0 l/m 5,4 km/h (1 Bft) O-NO 73 1 min 0,000 mm 1,2 UV-I 447 W/m 9,6 C 13,4 C 6,4 km/h (2 Bft) 96,15 %
18.04.2018 09:22 13,5 C 11,7 C 78 % 1031,1 hPa 0,0 l/m 5,2 km/h (1 Bft) O-NO 73 1 min 0,000 mm 1,2 UV-I 449 W/m 9,7 C 13,5 C 6,4 km/h (2 Bft) 100,00 %
18.04.2018 09:23 13,6 C 11,7 C 77 % 1031,1 hPa 0,0 l/m 3,9 km/h (1 Bft) O-NO 69 1 min 0,000 mm 1,2 UV-I 447 W/m 9,6 C 13,6 C 6,4 km/h (2 Bft) 91,30 %
18.04.2018 09:24 13,7 C 11,7 C 79 % 1031,2 hPa 0,0 l/m 5,5 km/h (1 Bft) O-NO 63 1 min 0,000 mm 1,2 UV-I 448 W/m 10,1 C 13,7 C 8,0 km/h (2 Bft) 100,00 %
18.04.2018 09:25 13,8 C 11,7 C 79 % 1031,2 hPa 0,0 l/m 7,5 km/h (2 Bft) O-NO 70 1 min 0,000 mm 1,3 UV-I 453 W/m 10,2 C 13,1 C 12,9 km/h (3 Bft) 91,30 %
18.04.2018 09:26 13,9 C 11,7 C 77 % 1031,1 hPa 0,0 l/m 6,3 km/h (2 Bft) O-NO 72 1 min 0,000 mm 1,3 UV-I 457 W/m 9,9 C 13,9 C 8,0 km/h (2 Bft) 100,00 %
18.04.2018 09:27 13,9 C 11,7 C 76 % 1031,1 hPa 0,0 l/m 7,7 km/h (2 Bft) O 94 1 min 0,000 mm 1,3 UV-I 460 W/m 9,7 C 13,1 C 11,3 km/h (2 Bft) 95,65 %
18.04.2018 09:28 13,8 C 11,7 C 76 % 1031,2 hPa 0,0 l/m 7,0 km/h (2 Bft) O 80 1 min 0,000 mm 1,3 UV-I 465 W/m 9,6 C 13,4 C 9,7 km/h (2 Bft) 100,00 %
18.04.2018 09:29 13,8 C 11,7 C 76 % 1031,1 hPa 0,0 l/m 4,2 km/h (1 Bft) O 80 1 min 0,000 mm 1,3 UV-I 468 W/m 9,6 C 13,8 C 6,4 km/h (2 Bft) 100,00 %
18.04.2018 09:30 13,7 C 11,7 C 76 % 1031,1 hPa 0,0 l/m 6,6 km/h (2 Bft) O-NO 73 1 min 0,000 mm 1,3 UV-I 469 W/m 9,5 C 13,6 C 11,3 km/h (2 Bft) 95,83 %
18.04.2018 09:31 13,7 C 11,7 C 76 % 1031,1 hPa 0,0 l/m 6,2 km/h (2 Bft) O-NO 78 1 min 0,000 mm 1,3 UV-I 469 W/m 9,5 C 13,7 C 8,0 km/h (2 Bft) 100,00 %
18.04.2018 09:32 13,7 C 11,7 C 75 % 1031,2 hPa 0,0 l/m 4,6 km/h (1 Bft) O 81 1 min 0,000 mm 1,3 UV-I 469 W/m 9,3 C 13,7 C 6,4 km/h (2 Bft) 91,67 %
18.04.2018 09:33 13,8 C 11,7 C 75 % 1031,2 hPa 0,0 l/m 3,4 km/h (1 Bft) O 92 1 min 0,000 mm 1,3 UV-I 474 W/m 9,4 C 13,8 C 4,8 km/h (1 Bft) 100,00 %
18.04.2018 09:34 13,8 C 11,7 C 76 % 1031,2 hPa 0,0 l/m 3,5 km/h (1 Bft) O 84 1 min 0,000 mm 1,4 UV-I 475 W/m 9,6 C 13,8 C 4,8 km/h (1 Bft) 90,91 %
18.04.2018 09:35 13,9 C 11,7 C 77 % 1031,2 hPa 0,0 l/m 6,6 km/h (2 Bft) O 98 1 min 0,000 mm 1,4 UV-I 480 W/m 9,9 C 13,8 C 11,3 km/h (2 Bft) 100,00 %
18.04.2018 09:36 14,1 C 11,7 C 75 % 1031,2 hPa 0,0 l/m 7,9 km/h (2 Bft) O-SO 102 1 min 0,000 mm 1,4 UV-I 483 W/m 9,7 C 13,2 C 9,7 km/h (2 Bft) 95,65 %
18.04.2018 09:37 14,1 C 11,7 C 75 % 1031,1 hPa 0,0 l/m 5,2 km/h (1 Bft) O-NO 76 1 min 0,000 mm 1,4 UV-I 483 W/m 9,7 C 14,1 C 9,7 km/h (2 Bft) 100,00 %
18.04.2018 09:38 14,0 C 11,7 C 74 % 1031,2 hPa 0,0 l/m 2,5 km/h (1 Bft) O-NO 76 1 min 0,000 mm 1,4 UV-I 482 W/m 9,4 C 14,0 C 4,8 km/h (1 Bft) 95,65 %
18.04.2018 09:39 14,0 C 11,7 C 75 % 1031,2 hPa 0,0 l/m 4,2 km/h (1 Bft) O 89 1 min 0,000 mm 1,4 UV-I 486 W/m 9,6 C 14,0 C 6,4 km/h (2 Bft) 100,00 %
18.04.2018 09:40 14,0 C 11,7 C 75 % 1031,2 hPa 0,0 l/m 6,4 km/h (2 Bft) O 81 1 min 0,000 mm 1,5 UV-I 491 W/m 9,6 C 14,0 C 8,0 km/h (2 Bft) 95,65 %
18.04.2018 09:41 13,9 C 11,7 C 74 % 1031,2 hPa 0,0 l/m 3,8 km/h (1 Bft) O 81 1 min 0,000 mm 1,5 UV-I 494 W/m 9,3 C 13,9 C 6,4 km/h (2 Bft) 100,00 %
18.04.2018 09:42 13,9 C 11,7 C 74 % 1031,2 hPa 0,0 l/m 4,4 km/h (1 Bft) O 82 1 min 0,000 mm 1,5 UV-I 498 W/m 9,3 C 13,9 C 6,4 km/h (2 Bft) 95,65 %
18.04.2018 09:43 13,9 C 11,7 C 75 % 1031,2 hPa 0,0 l/m 4,6 km/h (1 Bft) O 81 1 min 0,000 mm 1,5 UV-I 501 W/m 9,5 C 13,9 C 6,4 km/h (2 Bft) 100,00 %
18.04.2018 09:44 14,0 C 11,7 C 74 % 1031,2 hPa 0,0 l/m 4,8 km/h (1 Bft) O-NO 74 1 min 0,000 mm 1,5 UV-I 501 W/m 9,4 C 14,0 C 6,4 km/h (2 Bft) 95,65 %
18.04.2018 09:45 14,1 C 11,7 C 74 % 1031,2 hPa 0,0 l/m 6,5 km/h (2 Bft) O 80 1 min 0,000 mm 1,5 UV-I 505 W/m 9,5 C 14,1 C 8,0 km/h (2 Bft) 100,00 %
18.04.2018 09:46 14,2 C 11,7 C 74 % 1031,2 hPa 0,0 l/m 6,7 km/h (2 Bft) O 79 1 min 0,000 mm 1,6 UV-I 509 W/m 9,6 C 14,0 C 8,0 km/h (2 Bft) 100,00 %
18.04.2018 09:47 14,3 C 11,7 C 74 % 1031,2 hPa 0,0 l/m 4,1 km/h (1 Bft) O-NO 78 1 min 0,000 mm 1,6 UV-I 509 W/m 9,7 C 14,3 C 6,4 km/h (2 Bft) 100,00 %
18.04.2018 09:48 14,3 C 11,7 C 73 % 1031,2 hPa 0,0 l/m 5,1 km/h (1 Bft) O-NO 78 1 min 0,000 mm 1,6 UV-I 510 W/m 9,5 C 14,3 C 6,4 km/h (2 Bft) 100,00 %
18.04.2018 09:49 14,4 C 11,7 C 74 % 1031,2 hPa 0,0 l/m 4,0 km/h (1 Bft) O 84 1 min 0,000 mm 1,6 UV-I 510 W/m 9,8 C 14,4 C 8,0 km/h (2 Bft) 100,00 %
18.04.2018 09:50 14,4 C 11,7 C 74 % 1031,2 hPa 0,0 l/m 4,4 km/h (1 Bft) O 86 1 min 0,000 mm 1,6 UV-I 519 W/m 9,8 C 14,4 C 8,0 km/h (2 Bft) 100,00 %
18.04.2018 09:51 14,4 C 11,7 C 74 % 1031,2 hPa 0,0 l/m 4,3 km/h (1 Bft) O-NO 60 1 min 0,000 mm 1,6 UV-I 517 W/m 9,8 C 14,4 C 6,4 km/h (2 Bft) 100,00 %
18.04.2018 09:52 14,6 C 11,7 C 75 % 1031,2 hPa 0,0 l/m 7,3 km/h (2 Bft) N-NO 30 1 min 0,000 mm 1,6 UV-I 517 W/m 10,2 C 14,1 C 9,7 km/h (2 Bft) 100,00 %
18.04.2018 09:53 14,7 C 11,7 C 74 % 1031,2 hPa 0,0 l/m 6,1 km/h (2 Bft) N-NO 30 1 min 0,000 mm 1,6 UV-I 517 W/m 10,1 C 14,7 C 8,0 km/h (2 Bft) 91,30 %
18.04.2018 09:54 14,8 C 11,7 C 74 % 1031,3 hPa 0,0 l/m 6,0 km/h (2 Bft) N-NO 30 1 min 0,000 mm 1,7 UV-I 519 W/m 10,2 C 14,8 C 8,0 km/h (2 Bft) 100,00 %
18.04.2018 09:55 14,8 C 11,7 C 74 % 1031,3 hPa 0,0 l/m 6,9 km/h (2 Bft) NO 40 1 min 0,000 mm 1,7 UV-I 516 W/m 10,2 C 14,5 C 9,7 km/h (2 Bft) 95,65 %
18.04.2018 09:56 14,9 C 11,7 C 73 % 1031,3 hPa 0,0 l/m 7,2 km/h (2 Bft) O 80 1 min 0,000 mm 1,7 UV-I 525 W/m 10,1 C 14,4 C 11,3 km/h (2 Bft) 100,00 %
18.04.2018 09:57 14,9 C 11,7 C 74 % 1031,3 hPa 0,0 l/m 5,8 km/h (2 Bft) O-NO 65 1 min 0,000 mm 1,7 UV-I 531 W/m 10,3 C 14,9 C 9,7 km/h (2 Bft) 100,00 %
18.04.2018 09:58 14,9 C 11,7 C 72 % 1031,3 hPa 0,0 l/m 4,5 km/h (1 Bft) O-NO 67 1 min 0,000 mm 1,7 UV-I 532 W/m 9,9 C 14,9 C 6,4 km/h (2 Bft) 100,00 %
18.04.2018 09:59 14,9 C 11,7 C 70 % 1031,4 hPa 0,0 l/m 5,0 km/h (1 Bft) NO 41 1 min 0,000 mm 1,7 UV-I 532 W/m 9,5 C 14,9 C 8,0 km/h (2 Bft) 100,00 %
18.04.2018 10:00 14,8 C 11,7 C 73 % 1031,3 hPa 0,0 l/m 6,9 km/h (2 Bft) N-NO 31 1 min 0,000 mm 1,8 UV-I 534 W/m 10,0 C 14,5 C 8,0 km/h (2 Bft) 100,00 %
18.04.2018 10:01 14,9 C 11,7 C 73 % 1031,3 hPa 0,0 l/m 5,6 km/h (1 Bft) N-NO 22 1 min 0,254 mm 1,8 UV-I 539 W/m 10,1 C 14,9 C 8,0 km/h (2 Bft) 100,00 %
18.04.2018 10:02 14,9 C 11,7 C 72 % 1031,3 hPa 0,0 l/m 4,4 km/h (1 Bft) N-NO 24 1 min 0,000 mm 1,8 UV-I 534 W/m 9,9 C 14,9 C 6,4 km/h (2 Bft) 95,83 %
18.04.2018 10:03 14,8 C 11,7 C 72 % 1031,3 hPa 0,0 l/m 6,4 km/h (2 Bft) N-NO 32 1 min 0,000 mm 1,8 UV-I 537 W/m 9,8 C 14,8 C 9,7 km/h (2 Bft) 100,00 %
18.04.2018 10:04 14,9 C 11,7 C 73 % 1031,3 hPa 0,0 l/m 9,0 km/h (2 Bft) NO 42 1 min 0,000 mm 1,8 UV-I 540 W/m 10,1 C 13,5 C 12,9 km/h (3 Bft) 100,00 %
18.04.2018 10:05 15,1 C 11,7 C 73 % 1031,4 hPa 0,0 l/m 7,0 km/h (2 Bft) NO 36 1 min 0,000 mm 1,8 UV-I 541 W/m 10,3 C 14,8 C 9,7 km/h (2 Bft) 95,83 %
18.04.2018 10:06 15,2 C 11,7 C 72 % 1031,3 hPa 0,0 l/m 9,5 km/h (2 Bft) NO 34 1 min 0,000 mm 1,8 UV-I 546 W/m 10,2 C 13,6 C 12,9 km/h (3 Bft) 100,00 %
18.04.2018 10:07 15,3 C 11,7 C 74 % 1031,3 hPa 0,0 l/m 8,2 km/h (2 Bft) NO 54 1 min 0,000 mm 1,9 UV-I 552 W/m 10,7 C 14,3 C 11,3 km/h (2 Bft) 100,00 %
18.04.2018 10:08 15,3 C 11,7 C 72 % 1031,3 hPa 0,0 l/m 6,6 km/h (2 Bft) N-NO 20 1 min 0,000 mm 1,9 UV-I 555 W/m 10,3 C 15,2 C 8,0 km/h (2 Bft) 100,00 %
18.04.2018 10:09 15,4 C 11,7 C 72 % 1031,3 hPa 0,0 l/m 8,4 km/h (2 Bft) NO 40 1 min 0,000 mm 1,9 UV-I 556 W/m 10,4 C 14,3 C 9,7 km/h (2 Bft) 100,00 %
18.04.2018 10:10 15,4 C 11,7 C 72 % 1031,3 hPa 0,0 l/m 7,5 km/h (2 Bft) N-NO 32 1 min 0,000 mm 1,9 UV-I 555 W/m 10,4 C 14,8 C 8,0 km/h (2 Bft) 100,00 %
18.04.2018 10:11 15,4 C 11,7 C 72 % 1031,4 hPa 0,0 l/m 9,0 km/h (2 Bft) N-NO 28 1 min 0,000 mm 1,9 UV-I 555 W/m 10,4 C 14,0 C 12,9 km/h (3 Bft) 100,00 %
18.04.2018 10:12 15,6 C 11,7 C 71 % 1031,4 hPa 0,0 l/m 10,3 km/h (2 Bft) N-NO 28 1 min 0,000 mm 1,9 UV-I 554 W/m 10,4 C 13,7 C 12,9 km/h (3 Bft) 100,00 %
18.04.2018 10:13 15,6 C 11,7 C 71 % 1031,4 hPa 0,0 l/m 8,7 km/h (2 Bft) NO 38 1 min 0,000 mm 1,9 UV-I 555 W/m 10,4 C 14,4 C 9,7 km/h (2 Bft) 95,83 %
18.04.2018 10:14 15,6 C 11,7 C 70 % 1031,4 hPa 0,0 l/m 7,6 km/h (2 Bft) N-NO 31 1 min 0,000 mm 1,9 UV-I 563 W/m 10,1 C 14,9 C 9,7 km/h (2 Bft) 100,00 %
18.04.2018 10:15 15,6 C 11,7 C 71 % 1031,4 hPa 0,0 l/m 6,1 km/h (2 Bft) N-NO 18 1 min 0,000 mm 2,0 UV-I 569 W/m 10,4 C 15,6 C 8,0 km/h (2 Bft) 100,00 %
18.04.2018 10:16 15,6 C 11,7 C 70 % 1031,4 hPa 0,0 l/m 5,7 km/h (1 Bft) O 84 1 min 0,000 mm 2,0 UV-I 572 W/m 10,1 C 15,6 C 8,0 km/h (2 Bft) 95,65 %
18.04.2018 10:17 15,6 C 11,7 C 71 % 1031,4 hPa 0,0 l/m 8,5 km/h (2 Bft) O-NO 67 1 min 0,000 mm 2,0 UV-I 571 W/m 10,4 C 14,5 C 12,9 km/h (3 Bft) 100,00 %
18.04.2018 10:18 15,6 C 11,7 C 71 % 1031,4 hPa 0,0 l/m 6,4 km/h (2 Bft) NO 34 1 min 0,000 mm 2,0 UV-I 568 W/m 10,4 C 15,6 C 8,0 km/h (2 Bft) 100,00 %
18.04.2018 10:19 15,6 C 11,7 C 73 % 1031,3 hPa 0,0 l/m 6,8 km/h (2 Bft) NO 44 1 min 0,000 mm 2,0 UV-I 571 W/m 10,8 C 15,4 C 9,7 km/h (2 Bft) 100,00 %
18.04.2018 10:20 15,7 C 11,7 C 73 % 1031,4 hPa 0,0 l/m 5,0 km/h (1 Bft) N-NO 29 1 min 0,000 mm 2,0 UV-I 576 W/m 10,9 C 15,7 C 6,4 km/h (2 Bft) 100,00 %
18.04.2018 10:21 15,7 C 11,7 C 72 % 1031,4 hPa 0,0 l/m 7,2 km/h (2 Bft) O 98 1 min 0,000 mm 2,0 UV-I 575 W/m 10,7 C 15,3 C 9,7 km/h (2 Bft) 100,00 %
18.04.2018 10:22 15,7 C 11,7 C 72 % 1031,4 hPa 0,0 l/m 9,4 km/h (2 Bft) NO 49 1 min 0,000 mm 2,1 UV-I 574 W/m 10,7 C 14,2 C 12,9 km/h (3 Bft) 95,65 %
18.04.2018 10:23 15,7 C 11,7 C 71 % 1031,4 hPa 0,0 l/m 8,0 km/h (2 Bft) NO 45 1 min 0,000 mm 2,1 UV-I 584 W/m 10,5 C 14,8 C 9,7 km/h (2 Bft) 100,00 %
18.04.2018 10:24 15,8 C 11,7 C 72 % 1031,4 hPa 0,0 l/m 7,0 km/h (2 Bft) N-NO 28 1 min 0,000 mm 2,1 UV-I 589 W/m 10,8 C 15,5 C 9,7 km/h (2 Bft) 100,00 %
18.04.2018 10:25 15,8 C 11,7 C 71 % 1031,4 hPa 0,0 l/m 6,4 km/h (2 Bft) N-NO 28 1 min 0,000 mm 2,1 UV-I 583 W/m 10,6 C 15,8 C 8,0 km/h (2 Bft) 95,65 %
18.04.2018 10:26 15,8 C 11,7 C 70 % 1031,4 hPa 0,0 l/m 6,6 km/h (2 Bft) NO 40 1 min 0,000 mm 2,1 UV-I 588 W/m 10,3 C 15,7 C 8,0 km/h (2 Bft) 100,00 %
18.04.2018 10:27 15,8 C 11,7 C 70 % 1031,4 hPa 0,0 l/m 7,1 km/h (2 Bft) N 5 1 min 0,000 mm 2,1 UV-I 587 W/m 10,3 C 15,4 C 9,7 km/h (2 Bft) 95,65 %
18.04.2018 10:28 15,9 C 11,7 C 72 % 1031,4 hPa 0,0 l/m 8,6 km/h (2 Bft) NO 37 1 min 0,000 mm 2,1 UV-I 589 W/m 10,9 C 14,8 C 9,7 km/h (2 Bft) 100,00 %
18.04.2018 10:29 16,1 C 11,7 C 71 % 1031,4 hPa 0,0 l/m 7,5 km/h (2 Bft) N-NO 24 1 min 0,000 mm 2,2 UV-I 596 W/m 10,8 C 15,5 C 9,7 km/h (2 Bft) 95,65 %
18.04.2018 10:30 16,2 C 11,7 C 72 % 1031,4 hPa 0,0 l/m 8,2 km/h (2 Bft) NO 45 1 min 0,000 mm 2,2 UV-I 596 W/m 11,1 C 15,3 C 11,3 km/h (2 Bft) 100,00 %
18.04.2018 10:31 16,3 C 11,7 C 70 % 1031,4 hPa 0,0 l/m 8,7 km/h (2 Bft) NO 38 1 min 0,000 mm 2,2 UV-I 594 W/m 10,8 C 15,1 C 11,3 km/h (2 Bft) 100,00 %
18.04.2018 10:32 16,3 C 11,7 C 69 % 1031,4 hPa 0,0 l/m 8,2 km/h (2 Bft) NO 43 1 min 0,000 mm 2,2 UV-I 595 W/m 10,6 C 15,4 C 12,9 km/h (3 Bft) 95,83 %
18.04.2018 10:33 16,3 C 11,7 C 69 % 1031,4 hPa 0,0 l/m 7,6 km/h (2 Bft) NO 36 1 min 0,000 mm 2,2 UV-I 598 W/m 10,6 C 15,7 C 11,3 km/h (2 Bft) 95,65 %
18.04.2018 10:34 16,3 C 11,7 C 68 % 1031,4 hPa 0,0 l/m 6,8 km/h (2 Bft) NO 38 1 min 0,000 mm 2,2 UV-I 605 W/m 10,4 C 16,1 C 9,7 km/h (2 Bft) 95,83 %
18.04.2018 10:35 16,2 C 11,7 C 68 % 1031,4 hPa 0,0 l/m 5,5 km/h (1 Bft) N-NO 29 1 min 0,000 mm 2,3 UV-I 612 W/m 10,3 C 16,2 C 8,0 km/h (2 Bft) 100,00 %
18.04.2018 10:36 16,3 C 11,7 C 69 % 1031,3 hPa 0,0 l/m 5,6 km/h (1 Bft) N-NO 28 1 min 0,000 mm 2,3 UV-I 610 W/m 10,6 C 16,3 C 8,0 km/h (2 Bft) 100,00 %
18.04.2018 10:37 16,2 C 11,7 C 68 % 1031,4 hPa 0,0 l/m 3,5 km/h (1 Bft) S-SO 148 1 min 0,000 mm 2,3 UV-I 606 W/m 10,3 C 16,2 C 8,0 km/h (2 Bft) 100,00 %
18.04.2018 10:38 16,1 C 11,7 C 69 % 1031,3 hPa 0,0 l/m 4,5 km/h (1 Bft) O 83 1 min 0,000 mm 2,3 UV-I 613 W/m 10,4 C 16,1 C 11,3 km/h (2 Bft) 100,00 %
18.04.2018 10:39 16,1 C 11,7 C 71 % 1031,3 hPa 0,0 l/m 7,7 km/h (2 Bft) O 88 1 min 0,000 mm 2,3 UV-I 615 W/m 10,8 C 15,4 C 12,9 km/h (3 Bft) 95,65 %
18.04.2018 10:40 16,1 C 11,7 C 69 % 1031,3 hPa 0,0 l/m 7,2 km/h (2 Bft) O 80 1 min 0,000 mm 2,4 UV-I 617 W/m 10,4 C 15,7 C 9,7 km/h (2 Bft) 95,83 %
18.04.2018 10:41 16,1 C 11,7 C 70 % 1031,3 hPa 0,0 l/m 4,4 km/h (1 Bft) O 82 1 min 0,000 mm 2,4 UV-I 621 W/m 10,6 C 16,1 C 6,4 km/h (2 Bft) 100,00 %
18.04.2018 10:42 16,1 C 11,7 C 70 % 1031,4 hPa 0,0 l/m 5,2 km/h (1 Bft) O-SO 103 1 min 0,000 mm 2,5 UV-I 630 W/m 10,6 C 16,1 C 12,9 km/h (3 Bft) 100,00 %
18.04.2018 10:43 16,1 C 11,7 C 68 % 1031,3 hPa 0,0 l/m 6,8 km/h (2 Bft) O 88 1 min 0,000 mm 2,4 UV-I 625 W/m 10,2 C 15,9 C 11,3 km/h (2 Bft) 100,00 %
18.04.2018 10:44 16,0 C 11,7 C 69 % 1031,3 hPa 0,0 l/m 4,6 km/h (1 Bft) O-SO 116 1 min 0,000 mm 2,4 UV-I 622 W/m 10,3 C 16,0 C 6,4 km/h (2 Bft) 100,00 %
18.04.2018 10:45 15,9 C 11,7 C 68 % 1031,3 hPa 0,0 l/m 7,4 km/h (2 Bft) O-NO 78 1 min 0,000 mm 2,5 UV-I 625 W/m 10,0 C 15,4 C 11,3 km/h (2 Bft) 100,00 %
18.04.2018 10:46 16,0 C 11,7 C 70 % 1031,3 hPa 0,0 l/m 7,6 km/h (2 Bft) O-NO 74 1 min 0,000 mm 2,5 UV-I 629 W/m 10,5 C 15,4 C 11,3 km/h (2 Bft) 100,00 %
18.04.2018 10:47 16,1 C 11,7 C 69 % 1031,4 hPa 0,0 l/m 7,2 km/h (2 Bft) NO 55 1 min 0,000 mm 2,5 UV-I 633 W/m 10,4 C 15,7 C 8,0 km/h (2 Bft) 100,00 %
18.04.2018 10:48 16,2 C 11,7 C 69 % 1031,3 hPa 0,0 l/m 5,3 km/h (1 Bft) O-NO 70 1 min 0,000 mm 2,5 UV-I 636 W/m 10,5 C 16,2 C 8,0 km/h (2 Bft) 100,00 %
18.04.2018 10:49 16,2 C 11,7 C 69 % 1031,3 hPa 0,0 l/m 7,3 km/h (2 Bft) NO 50 1 min 0,000 mm 2,6 UV-I 638 W/m 10,5 C 15,7 C 9,7 km/h (2 Bft) 100,00 %
18.04.2018 10:50 16,3 C 11,7 C 68 % 1031,4 hPa 0,0 l/m 8,2 km/h (2 Bft) O-NO 71 1 min 0,000 mm 2,6 UV-I 641 W/m 10,4 C 15,4 C 9,7 km/h (2 Bft) 92,31 %
18.04.2018 10:51 16,5 C 11,7 C 69 % 1031,4 hPa 0,0 l/m 7,2 km/h (2 Bft) O-NO 74 1 min 0,000 mm 2,6 UV-I 642 W/m 10,8 C 16,1 C 9,7 km/h (2 Bft) 95,83 %
18.04.2018 10:52 16,5 C 11,7 C 66 % 1031,4 hPa 0,0 l/m 4,7 km/h (1 Bft) O-NO 74 1 min 0,000 mm 2,6 UV-I 642 W/m 10,1 C 16,5 C 6,4 km/h (2 Bft) 100,00 %
18.04.2018 10:53 16,5 C 11,7 C 67 % 1031,3 hPa 0,0 l/m 5,4 km/h (1 Bft) NO 51 1 min 0,000 mm 2,6 UV-I 635 W/m 10,4 C 16,5 C 9,7 km/h (2 Bft) 95,83 %
18.04.2018 10:54 16,6 C 11,7 C 67 % 1031,4 hPa 0,0 l/m 8,7 km/h (2 Bft) O-NO 61 1 min 0,000 mm 2,6 UV-I 633 W/m 10,4 C 15,5 C 12,9 km/h (3 Bft) 100,00 %
18.04.2018 10:55 16,7 C 11,7 C 68 % 1031,3 hPa 0,0 l/m 6,3 km/h (2 Bft) O-NO 68 1 min 0,000 mm 2,6 UV-I 640 W/m 10,8 C 16,7 C 8,0 km/h (2 Bft) 95,83 %
18.04.2018 10:56 16,7 C 11,7 C 66 % 1031,3 hPa 0,0 l/m 4,3 km/h (1 Bft) O-NO 76 1 min 0,000 mm 2,7 UV-I 648 W/m 10,3 C 16,7 C 6,4 km/h (2 Bft) 91,30 %
18.04.2018 10:57 16,7 C 11,7 C 67 % 1031,4 hPa 0,0 l/m 6,4 km/h (2 Bft) O-SO 105 1 min 0,000 mm 2,7 UV-I 636 W/m 10,5 C 16,7 C 9,7 km/h (2 Bft) 96,30 %
18.04.2018 10:58 16,7 C 11,7 C 65 % 1031,4 hPa 0,0 l/m 7,6 km/h (2 Bft) O-NO 71 1 min 0,000 mm 2,7 UV-I 642 W/m 10,1 C 16,1 C 11,3 km/h (2 Bft) 95,65 %
18.04.2018 10:59 16,7 C 11,7 C 67 % 1031,4 hPa 0,0 l/m 6,9 km/h (2 Bft) O-NO 69 1 min 0,000 mm 2,7 UV-I 655 W/m 10,5 C 16,4 C 8,0 km/h (2 Bft) 100,00 %
18.04.2018 11:00 16,8 C 12,2 C 65 % 1031,4 hPa 0,0 l/m 5,8 km/h (2 Bft) O-NO 68 1 min 0,330 mm 2,7 UV-I 656 W/m 10,2 C 16,8 C 8,0 km/h (2 Bft) 93,33 %
18.04.2018 11:01 16,8 C 11,7 C 66 % 1031,3 hPa 0,0 l/m 5,2 km/h (1 Bft) O 90 1 min 0,000 mm 2,7 UV-I 655 W/m 10,4 C 16,8 C 11,3 km/h (2 Bft) 100,00 %
18.04.2018 11:02 16,7 C 11,7 C 65 % 1031,3 hPa 0,0 l/m 6,7 km/h (2 Bft) O-NO 70 1 min 0,000 mm 2,8 UV-I 655 W/m 10,1 C 16,6 C 9,7 km/h (2 Bft) 95,83 %
18.04.2018 11:03 16,8 C 11,7 C 67 % 1031,3 hPa 0,0 l/m 4,1 km/h (1 Bft) O-SO 117 1 min 0,000 mm 2,8 UV-I 656 W/m 10,6 C 16,8 C 4,8 km/h (1 Bft) 100,00 %
18.04.2018 11:04 16,8 C 11,7 C 67 % 1031,3 hPa 0,0 l/m 4,8 km/h (1 Bft) O-NO 74 1 min 0,000 mm 2,8 UV-I 656 W/m 10,6 C 16,8 C 4,8 km/h (1 Bft) 91,67 %
18.04.2018 11:07 16,8 C 11,7 C 68 % 1031,4 hPa 0,0 l/m 6,4 km/h (2 Bft) O-NO 76 3 min 0,000 mm 2,9 UV-I 667 W/m 10,9 C 16,8 C 8,0 km/h (2 Bft) 96,47 %
18.04.2018 11:08 16,8 C 12,2 C 66 % 1031,4 hPa 0,0 l/m 8,6 km/h (2 Bft) O-NO 57 1 min 0,000 mm 2,9 UV-I 664 W/m 10,4 C 15,7 C 12,9 km/h (3 Bft) 100,00 %
18.04.2018 11:09 16,9 C 11,7 C 69 % 1031,3 hPa 0,0 l/m 5,3 km/h (1 Bft) O-NO 58 1 min 0,000 mm 2,9 UV-I 659 W/m 11,2 C 16,9 C 8,0 km/h (2 Bft) 95,65 %
18.04.2018 11:10 17,0 C 11,7 C 69 % 1031,3 hPa 0,0 l/m 4,6 km/h (1 Bft) O-NO 63 1 min 0,000 mm 2,9 UV-I 670 W/m 11,3 C 17,0 C 6,4 km/h (2 Bft) 100,00 %
18.04.2018 11:11 17,1 C 11,7 C 66 % 1031,3 hPa 0,0 l/m 3,1 km/h (1 Bft) O-NO 73 1 min 0,000 mm 2,9 UV-I 673 W/m 10,7 C 17,1 C 4,8 km/h (1 Bft) 95,65 %
18.04.2018 11:12 17,2 C 11,7 C 67 % 1031,3 hPa 0,0 l/m 2,2 km/h (1 Bft) O-NO 76 1 min 0,000 mm 2,9 UV-I 678 W/m 11,0 C 17,2 C 4,8 km/h (1 Bft) 100,00 %
18.04.2018 11:13 17,1 C 11,7 C 64 % 1031,3 hPa 0,0 l/m 4,2 km/h (1 Bft) O 84 1 min 0,000 mm 2,9 UV-I 676 W/m 10,2 C 17,1 C 6,4 km/h (2 Bft) 96,15 %
18.04.2018 11:14 16,9 C 11,7 C 64 % 1031,2 hPa 0,0 l/m 3,9 km/h (1 Bft) O 96 1 min 0,000 mm 3,0 UV-I 675 W/m 10,0 C 16,9 C 6,4 km/h (2 Bft) 100,00 %
18.04.2018 11:15 16,8 C 11,7 C 65 % 1031,2 hPa 0,0 l/m 5,9 km/h (2 Bft) O 96 1 min 0,000 mm 3,0 UV-I 673 W/m 10,2 C 16,8 C 9,7 km/h (2 Bft) 96,15 %
18.04.2018 11:16 16,9 C 11,7 C 65 % 1031,2 hPa 0,0 l/m 6,4 km/h (2 Bft) O 88 1 min 0,000 mm 3,0 UV-I 670 W/m 10,3 C 16,9 C 9,7 km/h (2 Bft) 96,30 %
18.04.2018 11:17 17,0 C 11,7 C 65 % 1031,2 hPa 0,0 l/m 7,5 km/h (2 Bft) O 84 1 min 0,000 mm 3,0 UV-I 676 W/m 10,4 C 16,4 C 11,3 km/h (2 Bft) 100,00 %
18.04.2018 11:18 17,1 C 11,7 C 65 % 1031,2 hPa 0,0 l/m 6,6 km/h (2 Bft) O-NO 66 1 min 0,000 mm 3,0 UV-I 679 W/m 10,5 C 17,0 C 11,3 km/h (2 Bft) 100,00 %
18.04.2018 11:19 17,1 C 11,7 C 64 % 1031,2 hPa 0,0 l/m 9,2 km/h (2 Bft) O 96 1 min 0,000 mm 3,0 UV-I 679 W/m 10,2 C 15,8 C 12,9 km/h (3 Bft) 100,00 %
18.04.2018 11:20 17,1 C 11,7 C 65 % 1031,1 hPa 0,0 l/m 6,7 km/h (2 Bft) O-NO 57 1 min 0,000 mm 3,0 UV-I 683 W/m 10,5 C 17,0 C 11,3 km/h (2 Bft) 91,67 %
18.04.2018 11:21 17,2 C 11,7 C 66 % 1031,1 hPa 0,0 l/m 5,2 km/h (1 Bft) O-NO 58 1 min 0,000 mm 3,1 UV-I 686 W/m 10,8 C 17,2 C 6,4 km/h (2 Bft) 95,83 %
18.04.2018 11:22 17,3 C 11,7 C 67 % 1031,1 hPa 0,0 l/m 6,6 km/h (2 Bft) O 80 1 min 0,000 mm 3,1 UV-I 686 W/m 11,1 C 17,2 C 8,0 km/h (2 Bft) 100,00 %
18.04.2018 11:23 17,3 C 11,7 C 64 % 1031,2 hPa 0,0 l/m 4,2 km/h (1 Bft) NO 56 1 min 0,000 mm 3,1 UV-I 686 W/m 10,4 C 17,3 C 9,7 km/h (2 Bft) 100,00 %
18.04.2018 11:24 17,4 C 11,7 C 65 % 1031,2 hPa 0,0 l/m 8,2 km/h (2 Bft) NO 41 1 min 0,000 mm 3,1 UV-I 687 W/m 10,8 C 16,5 C 12,9 km/h (3 Bft) 100,00 %
18.04.2018 11:25 17,6 C 11,7 C 64 % 1031,2 hPa 0,0 l/m 9,3 km/h (2 Bft) O-SO 111 1 min 0,000 mm 3,1 UV-I 687 W/m 10,7 C 16,3 C 14,5 km/h (3 Bft) 100,00 %
18.04.2018 11:26 17,5 C 11,7 C 62 % 1031,2 hPa 0,0 l/m 7,8 km/h (2 Bft) O 84 1 min 0,000 mm 3,1 UV-I 689 W/m 10,1 C 16,8 C 12,9 km/h (3 Bft) 100,00 %
18.04.2018 11:27 17,4 C 11,7 C 63 % 1031,2 hPa 0,0 l/m 9,1 km/h (2 Bft) O 96 1 min 0,000 mm 3,1 UV-I 692 W/m 10,3 C 16,1 C 14,5 km/h (3 Bft) 100,00 %
18.04.2018 11:28 17,4 C 11,7 C 62 % 1031,2 hPa 0,0 l/m 8,7 km/h (2 Bft) O 88 1 min 0,000 mm 3,1 UV-I 693 W/m 10,0 C 16,3 C 12,9 km/h (3 Bft) 100,00 %
18.04.2018 11:29 17,5 C 11,7 C 65 % 1031,2 hPa 0,0 l/m 6,7 km/h (2 Bft) O-NO 68 1 min 0,000 mm 3,1 UV-I 686 W/m 10,8 C 17,4 C 9,7 km/h (2 Bft) 95,83 %
18.04.2018 11:30 17,5 C 11,7 C 62 % 1031,2 hPa 0,0 l/m 4,3 km/h (1 Bft) O-SO 110 1 min 0,000 mm 3,1 UV-I 675 W/m 10,1 C 17,5 C 9,7 km/h (2 Bft) 100,00 %
18.04.2018 11:31 17,4 C 11,7 C 62 % 1031,2 hPa 0,0 l/m 4,3 km/h (1 Bft) O-SO 121 1 min 0,000 mm 3,1 UV-I 687 W/m 10,0 C 17,4 C 6,4 km/h (2 Bft) 100,00 %
18.04.2018 11:32 17,4 C 11,7 C 63 % 1031,2 hPa 0,0 l/m 5,7 km/h (1 Bft) NO 54 1 min 0,000 mm 3,2 UV-I 696 W/m 10,3 C 17,4 C 9,7 km/h (2 Bft) 100,00 %
18.04.2018 11:33 17,6 C 12,2 C 64 % 1031,2 hPa 0,0 l/m 5,3 km/h (1 Bft) NO 53 1 min 0,000 mm 3,2 UV-I 697 W/m 10,7 C 17,6 C 8,0 km/h (2 Bft) 100,00 %
18.04.2018 11:34 17,6 C 12,2 C 63 % 1031,2 hPa 0,0 l/m 5,3 km/h (1 Bft) NO 34 1 min 0,000 mm 3,2 UV-I 696 W/m 10,5 C 17,6 C 8,0 km/h (2 Bft) 96,15 %
18.04.2018 11:35 17,7 C 11,7 C 66 % 1031,2 hPa 0,0 l/m 3,7 km/h (1 Bft) NO 42 1 min 0,000 mm 3,2 UV-I 698 W/m 11,3 C 17,7 C 8,0 km/h (2 Bft) 100,00 %
18.04.2018 11:36 17,7 C 11,7 C 62 % 1031,2 hPa 0,0 l/m 7,5 km/h (2 Bft) O 94 1 min 0,000 mm 3,2 UV-I 704 W/m 10,3 C 17,2 C 12,9 km/h (3 Bft) 100,00 %
18.04.2018 11:37 17,7 C 11,7 C 63 % 1031,2 hPa 0,0 l/m 10,8 km/h (2 Bft) O-SO 102 1 min 0,000 mm 3,2 UV-I 706 W/m 10,6 C 15,8 C 12,9 km/h (3 Bft) 95,65 %
18.04.2018 11:38 17,7 C 12,2 C 63 % 1031,2 hPa 0,0 l/m 7,6 km/h (2 Bft) O-SO 113 1 min 0,000 mm 3,3 UV-I 707 W/m 10,6 C 17,1 C 12,9 km/h (3 Bft) 100,00 %
18.04.2018 11:39 17,7 C 11,7 C 62 % 1031,2 hPa 0,0 l/m 6,8 km/h (2 Bft) O 84 1 min 0,000 mm 3,3 UV-I 708 W/m 10,3 C 17,5 C 14,5 km/h (3 Bft) 100,00 %
18.04.2018 11:40 17,6 C 11,7 C 61 % 1031,2 hPa 0,0 l/m 4,4 km/h (1 Bft) O 86 1 min 0,000 mm 3,3 UV-I 710 W/m 10,0 C 17,6 C 6,4 km/h (2 Bft) 100,00 %
18.04.2018 11:41 17,6 C 11,7 C 63 % 1031,2 hPa 0,0 l/m 4,2 km/h (1 Bft) O-NO 74 1 min 0,000 mm 3,3 UV-I 709 W/m 10,5 C 17,6 C 6,4 km/h (2 Bft) 100,00 %
18.04.2018 11:42 17,7 C 11,7 C 61 % 1031,2 hPa 0,0 l/m 1,5 km/h (1 Bft) O-NO 75 1 min 0,000 mm 3,3 UV-I 713 W/m 10,1 C 17,7 C 4,8 km/h (1 Bft) 100,00 %
18.04.2018 11:43 17,8 C 11,7 C 60 % 1031,2 hPa 0,0 l/m 9,9 km/h (2 Bft) O-NO 67 1 min 0,000 mm 3,2 UV-I 708 W/m 9,9 C 16,2 C 14,5 km/h (3 Bft) 100,00 %
18.04.2018 11:44 17,9 C 11,7 C 62 % 1031,2 hPa 0,0 l/m 7,9 km/h (2 Bft) O-NO 66 1 min 0,000 mm 3,1 UV-I 690 W/m 10,5 C 17,2 C 9,7 km/h (2 Bft) 100,00 %
18.04.2018 11:45 18,1 C 12,2 C 64 % 1031,2 hPa 0,0 l/m 6,4 km/h (2 Bft) N-NO 32 1 min 0,000 mm 3,3 UV-I 674 W/m 11,2 C 18,1 C 8,0 km/h (2 Bft) 100,00 %
18.04.2018 11:46 18,3 C 11,7 C 62 % 1031,2 hPa 0,0 l/m 6,5 km/h (2 Bft) NO 42 1 min 0,000 mm 3,3 UV-I 709 W/m 10,9 C 18,3 C 8,0 km/h (2 Bft) 100,00 %
18.04.2018 11:47 18,4 C 11,7 C 63 % 1031,2 hPa 0,0 l/m 6,6 km/h (2 Bft) O-NO 62 1 min 0,000 mm 3,3 UV-I 712 W/m 11,2 C 18,3 C 9,7 km/h (2 Bft) 100,00 %
18.04.2018 11:48 18,4 C 11,7 C 60 % 1031,2 hPa 0,0 l/m 6,8 km/h (2 Bft) O-NO 77 1 min 0,000 mm 3,2 UV-I 712 W/m 10,5 C 18,2 C 8,0 km/h (2 Bft) 100,00 %
18.04.2018 11:49 18,4 C 12,2 C 62 % 1031,2 hPa 0,0 l/m 5,4 km/h (1 Bft) O 80 1 min 0,000 mm 3,3 UV-I 713 W/m 11,0 C 18,4 C 8,0 km/h (2 Bft) 100,00 %
18.04.2018 11:50 18,5 C 11,7 C 62 % 1031,2 hPa 0,0 l/m 2,8 km/h (1 Bft) O-NO 70 1 min 0,000 mm 3,3 UV-I 714 W/m 11,1 C 18,5 C 6,4 km/h (2 Bft) 100,00 %
18.04.2018 11:51 18,5 C 11,7 C 60 % 1031,3 hPa 0,0 l/m 5,2 km/h (1 Bft) O-NO 73 1 min 0,000 mm 3,4 UV-I 714 W/m 10,6 C 18,5 C 9,7 km/h (2 Bft) 100,00 %
18.04.2018 11:52 18,6 C 11,7 C 63 % 1031,2 hPa 0,0 l/m 3,7 km/h (1 Bft) O-NO 66 1 min 0,000 mm 3,3 UV-I 710 W/m 11,4 C 18,6 C 6,4 km/h (2 Bft) 100,00 %
18.04.2018 11:53 18,6 C 12,2 C 60 % 1031,2 hPa 0,0 l/m 7,5 km/h (2 Bft) O-NO 65 1 min 0,000 mm 3,4 UV-I 710 W/m 10,7 C 18,1 C 9,7 km/h (2 Bft) 100,00 %
18.04.2018 11:54 18,6 C 11,7 C 59 % 1031,2 hPa 0,0 l/m 4,7 km/h (1 Bft) N-NO 21 1 min 0,000 mm 3,4 UV-I 711 W/m 10,4 C 18,6 C 6,4 km/h (2 Bft) 100,00 %
18.04.2018 11:55 18,5 C 11,7 C 58 % 1031,1 hPa 0,0 l/m 3,7 km/h (1 Bft) NO 47 1 min 0,000 mm 3,4 UV-I 716 W/m 10,1 C 18,5 C 6,4 km/h (2 Bft) 96,55 %
18.04.2018 11:56 18,5 C 11,7 C 61 % 1031,2 hPa 0,0 l/m 6,5 km/h (2 Bft) O 82 1 min 0,000 mm 3,4 UV-I 718 W/m 10,8 C 18,5 C 11,3 km/h (2 Bft) 100,00 %
18.04.2018 11:57 18,6 C 12,2 C 59 % 1031,2 hPa 0,0 l/m 5,8 km/h (2 Bft) O 98 1 min 0,000 mm 3,5 UV-I 724 W/m 10,4 C 18,6 C 11,3 km/h (2 Bft) 100,00 %
18.04.2018 11:58 18,6 C 11,7 C 58 % 1031,2 hPa 0,0 l/m 8,3 km/h (2 Bft) O 87 1 min 0,000 mm 3,5 UV-I 728 W/m 10,2 C 17,8 C 11,3 km/h (2 Bft) 100,00 %
18.04.2018 11:59 18,6 C 11,7 C 56 % 1031,2 hPa 0,0 l/m 6,0 km/h (2 Bft) O 101 1 min 0,000 mm 3,5 UV-I 727 W/m 9,6 C 18,6 C 9,7 km/h (2 Bft) 100,00 %
18.04.2018 12:00 18,4 C 11,7 C 56 % 1031,2 hPa 0,0 l/m 2,7 km/h (1 Bft) O 101 1 min 0,000 mm 3,5 UV-I 730 W/m 9,5 C 18,4 C 6,4 km/h (2 Bft) 100,00 %
18.04.2018 12:01 18,2 C 11,7 C 55 % 1031,2 hPa 0,0 l/m 0,8 km/h (0 Bft) O 101 1 min 0,407 mm 3,5 UV-I 733 W/m 9,0 C 18,2 C 3,2 km/h (1 Bft) 100,00 %
18.04.2018 12:02 18,1 C 12,2 C 57 % 1031,2 hPa 0,0 l/m 1,8 km/h (1 Bft) O 96 1 min 0,000 mm 3,5 UV-I 732 W/m 9,4 C 18,1 C 3,2 km/h (1 Bft) 100,00 %
18.04.2018 12:03 18,1 C 11,7 C 59 % 1031,2 hPa 0,0 l/m 2,2 km/h (1 Bft) O 96 1 min 0,000 mm 3,5 UV-I 733 W/m 10,0 C 18,1 C 4,8 km/h (1 Bft) 100,00 %
18.04.2018 12:04 18,1 C 11,7 C 60 % 1031,2 hPa 0,0 l/m 3,6 km/h (1 Bft) O 80 1 min 0,000 mm 3,5 UV-I 728 W/m 10,2 C 18,1 C 4,8 km/h (1 Bft) 100,00 %
18.04.2018 12:05 18,2 C 11,7 C 61 % 1031,1 hPa 0,0 l/m 5,6 km/h (1 Bft) O 85 1 min 0,000 mm 3,5 UV-I 732 W/m 10,6 C 18,2 C 9,7 km/h (2 Bft) 95,83 %
18.04.2018 12:06 18,5 C 11,7 C 62 % 1031,1 hPa 0,0 l/m 9,3 km/h (2 Bft) O 89 1 min 0,000 mm 3,6 UV-I 735 W/m 11,1 C 17,2 C 12,9 km/h (3 Bft) 100,00 %
18.04.2018 12:07 18,7 C 11,7 C 60 % 1031,1 hPa 0,0 l/m 8,8 km/h (2 Bft) NO 49 1 min 0,000 mm 3,5 UV-I 730 W/m 10,8 C 17,7 C 12,9 km/h (3 Bft) 97,89 %
18.04.2018 12:08 18,7 C 12,2 C 61 % 1031,1 hPa 0,0 l/m 4,7 km/h (1 Bft) SO 136 1 min 0,000 mm 3,6 UV-I 737 W/m 11,0 C 18,7 C 6,4 km/h (2 Bft) 100,00 %
18.04.2018 12:09 18,7 C 11,7 C 55 % 1031,1 hPa 0,0 l/m 6,6 km/h (2 Bft) SO 126 1 min 0,000 mm 3,6 UV-I 738 W/m 9,5 C 18,6 C 11,3 km/h (2 Bft) 100,00 %
18.04.2018 12:10 18,5 C 11,7 C 56 % 1031,1 hPa 0,0 l/m 8,9 km/h (2 Bft) O-SO 111 1 min 0,000 mm 3,6 UV-I 738 W/m 9,6 C 17,4 C 12,9 km/h (3 Bft) 100,00 %
18.04.2018 12:11 18,5 C 11,7 C 59 % 1031,1 hPa 0,0 l/m 4,2 km/h (1 Bft) O-SO 113 1 min 0,000 mm 3,6 UV-I 740 W/m 10,3 C 18,5 C 9,7 km/h (2 Bft) 100,00 %
18.04.2018 12:12 18,6 C 12,2 C 57 % 1031,1 hPa 0,0 l/m 6,4 km/h (2 Bft) O 99 1 min 0,000 mm 3,6 UV-I 743 W/m 9,9 C 18,6 C 11,3 km/h (2 Bft) 91,30 %
18.04.2018 12:13 18,6 C 11,7 C 56 % 1031,1 hPa 0,0 l/m 5,7 km/h (1 Bft) SO 130 1 min 0,000 mm 3,6 UV-I 746 W/m 9,6 C 18,6 C 9,7 km/h (2 Bft) 100,00 %
18.04.2018 12:14 18,5 C 12,2 C 52 % 1031,1 hPa 0,0 l/m 3,7 km/h (1 Bft) S-SO 163 1 min 0,000 mm 3,7 UV-I 748 W/m 8,5 C 18,5 C 9,7 km/h (2 Bft) 100,00 %
18.04.2018 12:15 18,6 C 11,7 C 53 % 1031,1 hPa 0,0 l/m 7,6 km/h (2 Bft) O 80 1 min 0,000 mm 3,7 UV-I 749 W/m 8,8 C 18,1 C 11,3 km/h (2 Bft) 100,00 %
18.04.2018 12:16 18,6 C 12,2 C 54 % 1031,1 hPa 0,0 l/m 5,7 km/h (1 Bft) O-NO 76 1 min 0,000 mm 3,7 UV-I 749 W/m 9,1 C 18,6 C 8,0 km/h (2 Bft) 95,83 %
18.04.2018 12:17 18,5 C 11,7 C 53 % 1031,1 hPa 0,0 l/m 5,9 km/h (2 Bft) O-NO 70 1 min 0,000 mm 3,7 UV-I 750 W/m 8,7 C 18,5 C 9,7 km/h (2 Bft) 100,00 %
18.04.2018 12:18 18,6 C 11,7 C 57 % 1031,1 hPa 0,0 l/m 5,8 km/h (2 Bft) O-NO 70 1 min 0,000 mm 3,7 UV-I 748 W/m 9,9 C 18,6 C 8,0 km/h (2 Bft) 100,00 %
18.04.2018 12:19 18,6 C 12,2 C 54 % 1031,2 hPa 0,0 l/m 2,4 km/h (1 Bft) O-NO 74 1 min 0,000 mm 3,7 UV-I 752 W/m 9,1 C 18,6 C 6,4 km/h (2 Bft) 100,00 %
18.04.2018 12:20 18,6 C 11,7 C 54 % 1031,2 hPa 0,0 l/m 0,2 km/h (0 Bft) O-NO 74 1 min 0,000 mm 3,6 UV-I 739 W/m 9,1 C 18,6 C 1,6 km/h (1 Bft) 100,00 %
18.04.2018 12:21 18,4 C 12,2 C 53 % 1031,2 hPa 0,0 l/m 2,6 km/h (1 Bft) O 90 1 min 0,000 mm 3,6 UV-I 734 W/m 8,6 C 18,4 C 4,8 km/h (1 Bft) 95,65 %
18.04.2018 12:22 18,3 C 12,2 C 53 % 1031,2 hPa 0,0 l/m 4,8 km/h (1 Bft) S-SO 150 1 min 0,000 mm 3,6 UV-I 732 W/m 8,6 C 18,3 C 6,4 km/h (2 Bft) 100,00 %
18.04.2018 12:23 18,4 C 11,7 C 54 % 1031,2 hPa 0,0 l/m 5,1 km/h (1 Bft) SO 126 1 min 0,000 mm 3,7 UV-I 746 W/m 8,9 C 18,4 C 8,0 km/h (2 Bft) 100,00 %
18.04.2018 12:24 18,3 C 12,2 C 53 % 1031,2 hPa 0,0 l/m 4,0 km/h (1 Bft) SO 135 1 min 0,000 mm 3,7 UV-I 751 W/m 8,6 C 18,3 C 6,4 km/h (2 Bft) 100,00 %
18.04.2018 12:25 18,4 C 12,2 C 54 % 1031,1 hPa 0,0 l/m 5,6 km/h (1 Bft) SO 143 1 min 0,000 mm 3,7 UV-I 746 W/m 8,9 C 18,4 C 8,0 km/h (2 Bft) 100,00 %
18.04.2018 12:26 18,4 C 11,7 C 54 % 1031,1 hPa 0,0 l/m 4,1 km/h (1 Bft) S 171 1 min 0,000 mm 3,7 UV-I 745 W/m 8,9 C 18,4 C 8,0 km/h (2 Bft) 100,00 %
18.04.2018 12:27 18,4 C 12,2 C 56 % 1031,1 hPa 0,0 l/m 4,3 km/h (1 Bft) S 186 1 min 0,000 mm 3,7 UV-I 742 W/m 9,5 C 18,4 C 6,4 km/h (2 Bft) 100,00 %
18.04.2018 12:28 18,4 C 12,2 C 57 % 1031,1 hPa 0,0 l/m 1,7 km/h (1 Bft) S 186 1 min 0,000 mm 3,7 UV-I 739 W/m 9,7 C 18,4 C 3,2 km/h (1 Bft) 100,00 %
18.04.2018 12:29 18,5 C 11,7 C 55 % 1031,1 hPa 0,0 l/m 1,3 km/h (1 Bft) S 186 1 min 0,000 mm 3,7 UV-I 750 W/m 9,3 C 18,5 C 1,6 km/h (1 Bft) 100,00 %
18.04.2018 12:30 18,5 C 12,2 C 55 % 1031,1 hPa 0,0 l/m 1,2 km/h (1 Bft) S 186 1 min 0,000 mm 3,7 UV-I 753 W/m 9,3 C 18,5 C 1,6 km/h (1 Bft) 100,00 %
18.04.2018 12:31 18,6 C 12,2 C 54 % 1031,1 hPa 0,0 l/m 2,3 km/h (1 Bft) S 186 1 min 0,000 mm 3,8 UV-I 756 W/m 9,1 C 18,6 C 3,2 km/h (1 Bft) 100,00 %
18.04.2018 12:32 18,6 C 11,7 C 54 % 1031,1 hPa 0,0 l/m 2,7 km/h (1 Bft) S 185 1 min 0,000 mm 3,8 UV-I 762 W/m 9,1 C 18,6 C 3,2 km/h (1 Bft) 100,00 %
18.04.2018 12:33 18,8 C 12,2 C 56 % 1031,1 hPa 0,0 l/m 4,6 km/h (1 Bft) NO 36 1 min 0,000 mm 3,8 UV-I 765 W/m 9,8 C 18,8 C 9,7 km/h (2 Bft) 100,00 %
18.04.2018 12:34 18,9 C 11,7 C 55 % 1031,1 hPa 0,0 l/m 6,9 km/h (2 Bft) O-SO 114 1 min 0,000 mm 3,8 UV-I 761 W/m 9,7 C 18,7 C 9,7 km/h (2 Bft) 97,97 %
18.04.2018 12:35 19,0 C 12,2 C 54 % 1031,1 hPa 0,0 l/m 6,2 km/h (2 Bft) NO 51 1 min 0,000 mm 3,8 UV-I 764 W/m 9,5 C 19,0 C 9,7 km/h (2 Bft) 97,73 %
18.04.2018 12:36 19,2 C 12,2 C 57 % 1031,2 hPa 0,0 l/m 8,2 km/h (2 Bft) O 96 1 min 0,000 mm 3,8 UV-I 762 W/m 10,5 C 18,4 C 11,3 km/h (2 Bft) 100,00 %
18.04.2018 12:37 19,2 C 12,2 C 53 % 1031,2 hPa 0,0 l/m 10,5 km/h (2 Bft) O-NO 60 1 min 0,000 mm 3,8 UV-I 764 W/m 9,4 C 17,6 C 14,5 km/h (3 Bft) 97,97 %
18.04.2018 12:38 19,3 C 12,2 C 54 % 1031,1 hPa 0,0 l/m 11,9 km/h (2 Bft) O-NO 74 1 min 0,000 mm 3,8 UV-I 766 W/m 9,8 C 17,3 C 16,1 km/h (3 Bft) 97,87 %
18.04.2018 12:39 19,3 C 12,2 C 54 % 1031,1 hPa 0,0 l/m 8,6 km/h (2 Bft) O 86 1 min 0,000 mm 3,9 UV-I 771 W/m 9,8 C 18,4 C 11,3 km/h (2 Bft) 93,33 %
18.04.2018 12:40 19,2 C 11,7 C 52 % 1031,1 hPa 0,0 l/m 12,1 km/h (2 Bft) O-NO 76 1 min 0,000 mm 3,8 UV-I 762 W/m 9,1 C 17,1 C 16,1 km/h (3 Bft) 100,00 %
18.04.2018 12:41 19,2 C 12,2 C 53 % 1031,1 hPa 0,0 l/m 8,7 km/h (2 Bft) O-NO 70 1 min 0,000 mm 3,8 UV-I 746 W/m 9,4 C 18,2 C 14,5 km/h (3 Bft) 96,30 %
18.04.2018 12:42 19,2 C 12,2 C 53 % 1031,1 hPa 0,0 l/m 7,2 km/h (2 Bft) S 179 1 min 0,000 mm 3,7 UV-I 732 W/m 9,4 C 18,9 C 11,3 km/h (2 Bft) 100,00 %
18.04.2018 12:43 18,9 C 11,7 C 53 % 1031,2 hPa 0,0 l/m 4,2 km/h (1 Bft) S-SW 200 1 min 0,000 mm 3,7 UV-I 734 W/m 9,1 C 18,9 C 6,4 km/h (2 Bft) 95,83 %
18.04.2018 12:44 18,8 C 12,2 C 52 % 1031,1 hPa 0,0 l/m 2,1 km/h (1 Bft) N-NW 343 1 min 0,000 mm 3,8 UV-I 745 W/m 8,7 C 18,8 C 4,8 km/h (1 Bft) 93,10 %
18.04.2018 12:45 18,9 C 12,2 C 53 % 1031,1 hPa 0,0 l/m 10,7 km/h (2 Bft) NO 51 1 min 0,000 mm 3,7 UV-I 732 W/m 9,1 C 17,2 C 16,1 km/h (3 Bft) 100,00 %
18.04.2018 12:46 18,9 C 12,2 C 54 % 1031,1 hPa 0,0 l/m 7,4 km/h (2 Bft) NW 319 1 min 0,000 mm 3,7 UV-I 731 W/m 9,4 C 18,5 C 12,9 km/h (3 Bft) 91,30 %
18.04.2018 12:47 18,9 C 12,2 C 53 % 1031,1 hPa 0,0 l/m 6,8 km/h (2 Bft) N 10 1 min 0,000 mm 3,7 UV-I 736 W/m 9,1 C 18,7 C 8,0 km/h (2 Bft) 100,00 %
18.04.2018 12:48 19,0 C 11,7 C 54 % 1031,1 hPa 0,0 l/m 2,9 km/h (1 Bft) N 9 1 min 0,000 mm 3,7 UV-I 738 W/m 9,5 C 19,0 C 4,8 km/h (1 Bft) 92,31 %
18.04.2018 12:49 19,1 C 12,2 C 52 % 1031,1 hPa 0,0 l/m 1,5 km/h (1 Bft) N-NO 21 1 min 0,000 mm 3,7 UV-I 736 W/m 9,0 C 19,1 C 3,2 km/h (1 Bft) 95,83 %
18.04.2018 12:50 19,1 C 12,2 C 54 % 1031,1 hPa 0,0 l/m 4,2 km/h (1 Bft) O 87 1 min 0,000 mm 3,7 UV-I 734 W/m 9,6 C 19,1 C 8,0 km/h (2 Bft) 91,30 %
18.04.2018 12:51 19,3 C 12,2 C 55 % 1031,0 hPa 0,0 l/m 7,3 km/h (2 Bft) O-NO 64 1 min 0,000 mm 3,6 UV-I 724 W/m 10,0 C 18,9 C 11,3 km/h (2 Bft) 96,30 %
18.04.2018 12:53 19,6 C 11,7 C 52 % 1031,1 hPa 0,0 l/m 12,2 km/h (2 Bft) O 97 2 min 0,000 mm 3,8 UV-I 759 W/m 9,5 C 17,5 C 19,3 km/h (3 Bft) 93,62 %
18.04.2018 12:54 19,5 C 12,2 C 51 % 1031,0 hPa 0,0 l/m 14,8 km/h (3 Bft) O-SO 115 1 min 0,000 mm 3,9 UV-I 763 W/m 9,1 C 16,7 C 19,3 km/h (3 Bft) 100,00 %
18.04.2018 12:55 19,4 C 12,2 C 51 % 1031,1 hPa 0,0 l/m 12,2 km/h (2 Bft) O-NO 78 1 min 0,000 mm 3,9 UV-I 770 W/m 9,0 C 17,3 C 16,1 km/h (3 Bft) 93,33 %
18.04.2018 12:56 19,3 C 11,7 C 50 % 1031,1 hPa 0,0 l/m 8,9 km/h (2 Bft) O 79 1 min 0,000 mm 3,9 UV-I 767 W/m 8,6 C 18,3 C 12,9 km/h (3 Bft) 96,30 %
18.04.2018 12:57 19,3 C 12,2 C 52 % 1031,1 hPa 0,0 l/m 6,8 km/h (2 Bft) NO 42 1 min 0,000 mm 3,9 UV-I 765 W/m 9,2 C 19,1 C 11,3 km/h (2 Bft) 91,30 %
18.04.2018 12:58 19,4 C 12,2 C 52 % 1031,1 hPa 0,0 l/m 9,1 km/h (2 Bft) O-NO 72 1 min 0,000 mm 3,8 UV-I 761 W/m 9,3 C 18,3 C 11,3 km/h (2 Bft) 96,30 %
18.04.2018 12:59 19,5 C 12,2 C 52 % 1031,1 hPa 0,0 l/m 3,7 km/h (1 Bft) N-NO 25 1 min 0,000 mm 3,8 UV-I 756 W/m 9,4 C 19,5 C 8,0 km/h (2 Bft) 85,71 %
18.04.2018 13:00 19,6 C 12,2 C 54 % 1031,1 hPa 0,0 l/m 7,4 km/h (2 Bft) NO 35 1 min 0,000 mm 3,8 UV-I 745 W/m 10,0 C 19,2 C 8,0 km/h (2 Bft) 97,22 %
18.04.2018 13:01 19,6 C 12,2 C 51 % 1031,1 hPa 0,0 l/m 4,3 km/h (1 Bft) N-NO 20 1 min 0,457 mm 3,8 UV-I 746 W/m 9,2 C 19,6 C 6,4 km/h (2 Bft) 92,86 %
18.04.2018 13:02 19,6 C 12,2 C 52 % 1031,1 hPa 0,0 l/m 4,4 km/h (1 Bft) N-NW 343 1 min 0,000 mm 3,7 UV-I 740 W/m 9,5 C 19,6 C 6,4 km/h (2 Bft) 95,83 %
18.04.2018 13:03 19,6 C 12,2 C 53 % 1031,0 hPa 0,0 l/m 4,4 km/h (1 Bft) N-NW 343 1 min 0,000 mm 3,7 UV-I 737 W/m 9,8 C 19,6 C 6,4 km/h (2 Bft) 91,30 %
18.04.2018 13:04 19,5 C 12,2 C 50 % 1031,0 hPa 0,0 l/m 2,1 km/h (1 Bft) N-NW 343 1 min 0,000 mm 3,7 UV-I 736 W/m 8,8 C 19,5 C 3,2 km/h (1 Bft) 95,83 %
18.04.2018 13:05 19,3 C 12,2 C 49 % 1031,0 hPa 0,0 l/m 1,9 km/h (1 Bft) N-NW 342 1 min 0,000 mm 3,7 UV-I 732 W/m 8,3 C 19,3 C 3,2 km/h (1 Bft) 92,31 %
18.04.2018 13:06 19,3 C 12,2 C 55 % 1031,0 hPa 0,0 l/m 2,3 km/h (1 Bft) N-NW 338 1 min 0,000 mm 3,7 UV-I 735 W/m 10,0 C 19,3 C 3,2 km/h (1 Bft) 91,67 %
18.04.2018 13:07 19,3 C 12,2 C 54 % 1031,0 hPa 0,0 l/m 2,7 km/h (1 Bft) SW 217 1 min 0,000 mm 3,8 UV-I 750 W/m 9,8 C 19,3 C 4,8 km/h (1 Bft) 100,00 %
18.04.2018 13:08 19,4 C 12,2 C 52 % 1031,1 hPa 0,0 l/m 1,9 km/h (1 Bft) SW 217 1 min 0,000 mm 3,8 UV-I 756 W/m 9,3 C 19,4 C 4,8 km/h (1 Bft) 91,67 %
18.04.2018 13:09 19,3 C 12,2 C 50 % 1031,0 hPa 0,0 l/m 0,5 km/h (0 Bft) SW 217 1 min 0,000 mm 3,8 UV-I 757 W/m 8,6 C 19,3 C 1,6 km/h (1 Bft) 100,00 %
18.04.2018 13:10 19,2 C 12,2 C 50 % 1031,0 hPa 0,0 l/m 2,3 km/h (1 Bft) O 84 1 min 0,000 mm 3,8 UV-I 751 W/m 8,5 C 19,2 C 6,4 km/h (2 Bft) 91,67 %
18.04.2018 13:11 19,3 C 12,2 C 53 % 1031,0 hPa 0,0 l/m 3,9 km/h (1 Bft) O 96 1 min 0,000 mm 3,8 UV-I 753 W/m 9,5 C 19,3 C 6,4 km/h (2 Bft) 100,00 %
18.04.2018 13:12 19,3 C 12,2 C 49 % 1031,0 hPa 0,0 l/m 1,8 km/h (1 Bft) O 96 1 min 0,000 mm 3,8 UV-I 756 W/m 8,3 C 19,3 C 3,2 km/h (1 Bft) 97,81 %
18.04.2018 13:13 19,2 C 12,2 C 48 % 1031,0 hPa 0,0 l/m 1,3 km/h (1 Bft) S 185 1 min 0,000 mm 3,9 UV-I 758 W/m 7,9 C 19,2 C 4,8 km/h (1 Bft) 97,44 %
18.04.2018 13:14 19,1 C 12,2 C 49 % 1031,0 hPa 0,0 l/m 7,3 km/h (2 Bft) O-SO 103 1 min 0,000 mm 3,9 UV-I 762 W/m 8,1 C 18,7 C 16,1 km/h (3 Bft) 96,15 %
18.04.2018 13:15 19,1 C 12,2 C 51 % 1030,9 hPa 0,0 l/m 9,9 km/h (2 Bft) O 96 1 min 0,000 mm 3,9 UV-I 763 W/m 8,7 C 17,7 C 16,1 km/h (3 Bft) 100,00 %
18.04.2018 13:16 19,3 C 12,2 C 50 % 1030,9 hPa 0,0 l/m 10,7 km/h (2 Bft) O-SO 105 1 min 0,000 mm 3,9 UV-I 764 W/m 8,6 C 17,6 C 12,9 km/h (3 Bft) 88,46 %
18.04.2018 13:17 19,3 C 11,7 C 49 % 1030,9 hPa 0,0 l/m 7,0 km/h (2 Bft) SO 139 1 min 0,000 mm 3,9 UV-I 766 W/m 8,3 C 19,0 C 11,3 km/h (2 Bft) 100,00 %
18.04.2018 13:18 19,2 C 12,2 C 48 % 1030,9 hPa 0,0 l/m 8,3 km/h (2 Bft) O 88 1 min 0,000 mm 3,9 UV-I 763 W/m 7,9 C 18,4 C 9,7 km/h (2 Bft) 96,15 %
18.04.2018 13:19 19,3 C 12,2 C 49 % 1030,9 hPa 0,0 l/m 8,8 km/h (2 Bft) O 98 1 min 0,000 mm 3,8 UV-I 759 W/m 8,3 C 18,3 C 11,3 km/h (2 Bft) 96,67 %
18.04.2018 13:20 19,2 C 12,2 C 48 % 1030,9 hPa 0,0 l/m 5,2 km/h (1 Bft) O-NO 69 1 min 0,000 mm 3,8 UV-I 761 W/m 7,9 C 19,2 C 9,7 km/h (2 Bft) 100,00 %
18.04.2018 13:21 19,3 C 12,2 C 50 % 1030,8 hPa 0,0 l/m 8,0 km/h (2 Bft) O-SO 109 1 min 0,000 mm 3,8 UV-I 759 W/m 8,6 C 18,6 C 11,3 km/h (2 Bft) 95,83 %
18.04.2018 13:22 19,4 C 12,2 C 49 % 1030,8 hPa 0,0 l/m 11,9 km/h (2 Bft) O 95 1 min 0,000 mm 3,8 UV-I 761 W/m 8,4 C 17,4 C 14,5 km/h (3 Bft) 95,65 %
18.04.2018 13:23 19,5 C 12,2 C 50 % 1030,8 hPa 0,0 l/m 7,9 km/h (2 Bft) O 91 1 min 0,000 mm 3,8 UV-I 762 W/m 8,8 C 18,9 C 11,3 km/h (2 Bft) 93,33 %
18.04.2018 13:24 19,5 C 12,2 C 50 % 1030,8 hPa 0,0 l/m 8,0 km/h (2 Bft) O-NO 71 1 min 0,000 mm 3,8 UV-I 758 W/m 8,8 C 18,8 C 12,9 km/h (3 Bft) 100,00 %
18.04.2018 13:25 19,7 C 12,2 C 52 % 1030,8 hPa 0,0 l/m 4,7 km/h (1 Bft) O-SO 107 1 min 0,000 mm 3,8 UV-I 758 W/m 9,6 C 19,7 C 6,4 km/h (2 Bft) 96,30 %
18.04.2018 13:26 19,7 C 12,2 C 49 % 1030,9 hPa 0,0 l/m 4,6 km/h (1 Bft) O-SO 102 1 min 0,000 mm 3,8 UV-I 759 W/m 8,7 C 19,7 C 9,7 km/h (2 Bft) 100,00 %
18.04.2018 13:27 19,7 C 12,2 C 52 % 1030,8 hPa 0,0 l/m 1,1 km/h (1 Bft) O-SO 102 1 min 0,000 mm 3,8 UV-I 757 W/m 9,6 C 19,7 C 3,2 km/h (1 Bft) 93,10 %
18.04.2018 13:28 19,6 C 12,2 C 51 % 1030,8 hPa 0,0 l/m 0,7 km/h (0 Bft) O-SO 102 1 min 0,000 mm 3,8 UV-I 762 W/m 9,2 C 19,6 C 3,2 km/h (1 Bft) 100,00 %
18.04.2018 13:29 19,6 C 12,2 C 49 % 1030,8 hPa 0,0 l/m 4,1 km/h (1 Bft) W 279 1 min 0,000 mm 3,9 UV-I 768 W/m 8,6 C 19,6 C 6,4 km/h (2 Bft) 91,67 %
18.04.2018 13:30 19,6 C 12,2 C 48 % 1030,8 hPa 0,0 l/m 3,8 km/h (1 Bft) W 279 1 min 0,000 mm 3,9 UV-I 768 W/m 8,3 C 19,6 C 6,4 km/h (2 Bft) 96,15 %
18.04.2018 13:31 19,5 C 12,2 C 50 % 1030,8 hPa 0,0 l/m 3,6 km/h (1 Bft) NO 40 1 min 0,000 mm 3,8 UV-I 753 W/m 8,8 C 19,5 C 4,8 km/h (1 Bft) 100,00 %
18.04.2018 13:32 19,6 C 12,2 C 49 % 1030,8 hPa 0,0 l/m 4,6 km/h (1 Bft) NW 321 1 min 0,000 mm 3,8 UV-I 741 W/m 8,6 C 19,6 C 6,4 km/h (2 Bft) 96,30 %
18.04.2018 13:33 19,7 C 12,2 C 49 % 1030,7 hPa 0,0 l/m 6,6 km/h (2 Bft) N-NO 13 1 min 0,000 mm 3,7 UV-I 742 W/m 8,7 C 19,6 C 11,3 km/h (2 Bft) 95,65 %
18.04.2018 13:34 19,7 C 12,2 C 49 % 1030,7 hPa 0,0 l/m 4,0 km/h (1 Bft) N 5 1 min 0,000 mm 3,6 UV-I 730 W/m 8,7 C 19,7 C 4,8 km/h (1 Bft) 95,83 %
18.04.2018 13:35 19,7 C 12,2 C 48 % 1030,7 hPa 0,0 l/m 2,5 km/h (1 Bft) S-SO 158 1 min 0,000 mm 3,7 UV-I 716 W/m 8,4 C 19,7 C 4,8 km/h (1 Bft) 100,00 %
18.04.2018 13:36 19,6 C 12,2 C 48 % 1030,7 hPa 0,0 l/m 2,7 km/h (1 Bft) S-SO 159 1 min 0,000 mm 3,7 UV-I 728 W/m 8,3 C 19,6 C 6,4 km/h (2 Bft) 95,83 %
18.04.2018 13:37 19,6 C 12,2 C 49 % 1030,7 hPa 0,0 l/m 2,0 km/h (1 Bft) S-SO 159 1 min 0,000 mm 3,7 UV-I 730 W/m 8,6 C 19,6 C 3,2 km/h (1 Bft) 100,00 %
18.04.2018 13:38 19,7 C 12,2 C 51 % 1030,7 hPa 0,0 l/m 2,3 km/h (1 Bft) S-SO 158 1 min 0,000 mm 3,7 UV-I 734 W/m 9,3 C 19,7 C 4,8 km/h (1 Bft) 96,67 %
18.04.2018 13:39 19,8 C 12,2 C 49 % 1030,7 hPa 0,0 l/m 3,2 km/h (1 Bft) SO 127 1 min 0,000 mm 3,7 UV-I 730 W/m 8,8 C 19,8 C 8,0 km/h (2 Bft) 92,86 %
18.04.2018 13:40 19,7 C 12,2 C 46 % 1030,7 hPa 0,0 l/m 4,8 km/h (1 Bft) O-SO 123 1 min 0,000 mm 3,7 UV-I 723 W/m 7,8 C 19,7 C 8,0 km/h (2 Bft) 96,30 %
18.04.2018 13:41 19,7 C 12,2 C 50 % 1030,7 hPa 0,0 l/m 5,2 km/h (1 Bft) O-NO 66 1 min 0,000 mm 3,7 UV-I 723 W/m 9,0 C 19,7 C 8,0 km/h (2 Bft) 95,65 %
18.04.2018 13:42 19,8 C 12,2 C 48 % 1030,7 hPa 0,0 l/m 8,9 km/h (2 Bft) O-NO 66 1 min 0,000 mm 3,7 UV-I 722 W/m 8,5 C 18,8 C 12,9 km/h (3 Bft) 100,00 %
18.04.2018 13:43 19,9 C 12,2 C 46 % 1030,7 hPa 0,0 l/m 3,9 km/h (1 Bft) O-NO 71 1 min 0,000 mm 3,6 UV-I 722 W/m 7,9 C 19,9 C 8,0 km/h (2 Bft) 95,65 %
18.04.2018 13:44 19,9 C 12,2 C 48 % 1030,7 hPa 0,0 l/m 2,3 km/h (1 Bft) N-NO 32 1 min 0,000 mm 3,6 UV-I 719 W/m 8,6 C 19,9 C 4,8 km/h (1 Bft) 100,00 %
18.04.2018 13:45 20,1 C 12,2 C 50 % 1030,7 hPa 0,0 l/m 2,3 km/h (1 Bft) N-NO 32 1 min 0,000 mm 3,6 UV-I 707 W/m 9,3 C 20,1 C 3,2 km/h (1 Bft) 96,55 %
18.04.2018 13:46 20,2 C 12,2 C 50 % 1030,7 hPa 0,0 l/m 4,4 km/h (1 Bft) O-NO 69 1 min 0,000 mm 3,6 UV-I 710 W/m 9,4 C 20,2 C 6,4 km/h (2 Bft) 100,00 %
18.04.2018 13:47 20,3 C 12,2 C 45 % 1030,7 hPa 0,0 l/m 4,7 km/h (1 Bft) O 92 1 min 0,000 mm 3,6 UV-I 706 W/m 8,0 C 20,3 C 6,4 km/h (2 Bft) 96,15 %
18.04.2018 13:48 20,3 C 12,2 C 48 % 1030,7 hPa 0,0 l/m 6,4 km/h (2 Bft) O 100 1 min 0,000 mm 3,6 UV-I 707 W/m 8,9 C 20,3 C 9,7 km/h (2 Bft) 95,83 %
18.04.2018 13:49 20,3 C 12,2 C 46 % 1030,7 hPa 0,0 l/m 6,7 km/h (2 Bft) NO 42 1 min 0,000 mm 3,6 UV-I 711 W/m 8,3 C 20,2 C 12,9 km/h (3 Bft) 100,00 %
18.04.2018 13:50 20,4 C 12,2 C 45 % 1030,7 hPa 0,0 l/m 12,0 km/h (2 Bft) O-SO 105 1 min 0,000 mm 3,6 UV-I 718 W/m 8,1 C 18,5 C 16,1 km/h (3 Bft) 100,00 %
18.04.2018 13:51 20,3 C 12,2 C 43 % 1030,7 hPa 0,0 l/m 9,4 km/h (2 Bft) O 88 1 min 0,000 mm 3,6 UV-I 721 W/m 7,3 C 19,2 C 11,3 km/h (2 Bft) 96,55 %
18.04.2018 13:53 20,2 C 12,2 C 48 % 1030,7 hPa 0,0 l/m 9,3 km/h (2 Bft) O 82 2 min 0,000 mm 3,6 UV-I 721 W/m 8,8 C 19,1 C 14,5 km/h (3 Bft) 97,62 %
18.04.2018 13:54 20,3 C 12,2 C 43 % 1030,7 hPa 0,0 l/m 5,5 km/h (1 Bft) O-SO 105 1 min 0,000 mm 3,5 UV-I 702 W/m 7,3 C 20,3 C 12,9 km/h (3 Bft) 92,31 %
18.04.2018 13:55 20,2 C 12,2 C 45 % 1030,7 hPa 0,0 l/m 10,2 km/h (2 Bft) O-SO 112 1 min 0,000 mm 3,5 UV-I 687 W/m 7,9 C 18,8 C 14,5 km/h (3 Bft) 100,00 %
18.04.2018 13:56 20,1 C 12,2 C 44 % 1030,7 hPa 0,0 l/m 9,3 km/h (2 Bft) O-SO 103 1 min 0,000 mm 3,5 UV-I 695 W/m 7,5 C 19,0 C 12,9 km/h (3 Bft) 96,88 %
18.04.2018 13:57 19,9 C 12,2 C 44 % 1030,7 hPa 0,0 l/m 5,2 km/h (1 Bft) O-NO 74 1 min 0,000 mm 3,6 UV-I 723 W/m 7,3 C 19,9 C 9,7 km/h (2 Bft) 95,83 %
18.04.2018 13:58 20,0 C 12,2 C 45 % 1030,7 hPa 0,0 l/m 7,2 km/h (2 Bft) NO 48 1 min 0,000 mm 3,4 UV-I 692 W/m 7,7 C 19,7 C 9,7 km/h (2 Bft) 92,86 %
18.04.2018 13:59 20,2 C 12,2 C 52 % 1030,7 hPa 0,0 l/m 6,8 km/h (2 Bft) NO 49 1 min 0,000 mm 3,5 UV-I 661 W/m 10,0 C 20,0 C 8,0 km/h (2 Bft) 96,55 %
18.04.2018 14:00 20,4 C 12,2 C 45 % 1030,7 hPa 0,0 l/m 7,5 km/h (2 Bft) O-SO 119 1 min 0,000 mm 3,4 UV-I 668 W/m 8,1 C 20,0 C 11,3 km/h (2 Bft) 78,57 %
18.04.2018 14:01 20,4 C 12,2 C 44 % 1030,8 hPa 0,0 l/m 10,4 km/h (2 Bft) O 101 1 min 0,457 mm 3,4 UV-I 679 W/m 7,7 C 19,0 C 12,9 km/h (3 Bft) 96,67 %
18.04.2018 14:02 20,3 C 12,2 C 42 % 1030,7 hPa 0,0 l/m 4,8 km/h (1 Bft) O 98 1 min 0,000 mm 3,5 UV-I 698 W/m 7,0 C 20,3 C 9,7 km/h (2 Bft) 92,31 %
18.04.2018 14:03 20,2 C 12,2 C 44 % 1030,8 hPa 0,0 l/m 4,8 km/h (1 Bft) O-NO 60 1 min 0,000 mm 3,5 UV-I 714 W/m 7,6 C 20,2 C 6,4 km/h (2 Bft) 95,83 %
18.04.2018 14:04 20,1 C 12,2 C 45 % 1030,7 hPa 0,0 l/m 2,3 km/h (1 Bft) O-NO 60 1 min 0,000 mm 3,6 UV-I 720 W/m 7,8 C 20,1 C 4,8 km/h (1 Bft) 95,65 %
18.04.2018 14:05 20,0 C 12,2 C 44 % 1030,7 hPa 0,0 l/m 2,5 km/h (1 Bft) O-NO 69 1 min 0,000 mm 3,5 UV-I 719 W/m 7,4 C 20,0 C 4,8 km/h (1 Bft) 95,83 %
18.04.2018 14:06 20,0 C 12,2 C 46 % 1030,7 hPa 0,0 l/m 4,4 km/h (1 Bft) SO 134 1 min 0,000 mm 3,5 UV-I 721 W/m 8,0 C 20,0 C 6,4 km/h (2 Bft) 100,00 %
18.04.2018 14:07 19,9 C 12,2 C 44 % 1030,7 hPa 0,0 l/m 4,1 km/h (1 Bft) SO 137 1 min 0,000 mm 3,5 UV-I 691 W/m 7,3 C 19,9 C 4,8 km/h (1 Bft) 95,83 %
18.04.2018 14:08 19,8 C 12,2 C 44 % 1030,7 hPa 0,0 l/m 3,6 km/h (1 Bft) SO 132 1 min 0,000 mm 3,3 UV-I 667 W/m 7,2 C 19,8 C 4,8 km/h (1 Bft) 100,00 %
18.04.2018 14:09 19,8 C 12,2 C 45 % 1030,6 hPa 0,0 l/m 4,5 km/h (1 Bft) NO 52 1 min 0,000 mm 3,3 UV-I 668 W/m 7,5 C 19,8 C 6,4 km/h (2 Bft) 90,91 %
18.04.2018 14:10 20,0 C 12,2 C 47 % 1030,6 hPa 0,0 l/m 9,4 km/h (2 Bft) NO 39 1 min 0,000 mm 3,3 UV-I 674 W/m 8,3 C 18,8 C 14,5 km/h (3 Bft) 100,00 %
18.04.2018 14:11 20,3 C 12,2 C 49 % 1030,6 hPa 0,0 l/m 11,2 km/h (2 Bft) N-NO 18 1 min 0,000 mm 3,4 UV-I 710 W/m 9,2 C 18,6 C 14,5 km/h (3 Bft) 96,88 %
18.04.2018 14:12 20,6 C 12,2 C 47 % 1030,6 hPa 0,0 l/m 11,0 km/h (2 Bft) O-NO 63 1 min 0,000 mm 3,5 UV-I 721 W/m 8,9 C 19,0 C 12,9 km/h (3 Bft) 96,30 %
18.04.2018 14:13 20,8 C 12,2 C 50 % 1030,6 hPa 0,0 l/m 9,2 km/h (2 Bft) NO 50 1 min 0,000 mm 3,4 UV-I 696 W/m 10,0 C 19,8 C 12,9 km/h (3 Bft) 100,00 %
18.04.2018 14:14 20,9 C 12,2 C 49 % 1030,6 hPa 0,0 l/m 9,6 km/h (2 Bft) N-NO 27 1 min 0,000 mm 3,4 UV-I 684 W/m 9,8 C 19,8 C 14,5 km/h (3 Bft) 88,89 %
18.04.2018 14:15 21,1 C 12,2 C 48 % 1030,6 hPa 0,0 l/m 8,9 km/h (2 Bft) O 90 1 min 0,000 mm 3,4 UV-I 679 W/m 9,7 C 20,2 C 11,3 km/h (2 Bft) 100,00 %
18.04.2018 14:16 21,1 C 12,2 C 47 % 1030,6 hPa 0,0 l/m 9,0 km/h (2 Bft) NO 40 1 min 0,000 mm 3,4 UV-I 676 W/m 9,3 C 20,2 C 11,3 km/h (2 Bft) 95,83 %
18.04.2018 14:17 21,1 C 12,2 C 47 % 1030,6 hPa 0,0 l/m 7,8 km/h (2 Bft) NO 44 1 min 0,000 mm 3,4 UV-I 669 W/m 9,3 C 20,6 C 9,7 km/h (2 Bft) 100,00 %
18.04.2018 14:18 21,0 C 12,2 C 47 % 1030,6 hPa 0,0 l/m 5,9 km/h (2 Bft) NO 46 1 min 0,000 mm 3,3 UV-I 673 W/m 9,3 C 21,0 C 8,0 km/h (2 Bft) 95,83 %
18.04.2018 14:19 21,0 C 12,2 C 49 % 1030,6 hPa 0,0 l/m 9,3 km/h (2 Bft) O-NO 70 1 min 0,000 mm 3,3 UV-I 679 W/m 9,9 C 20,0 C 14,5 km/h (3 Bft) 100,00 %
18.04.2018 14:20 21,1 C 12,2 C 46 % 1030,6 hPa 0,0 l/m 6,5 km/h (2 Bft) O-NO 71 1 min 0,000 mm 3,3 UV-I 686 W/m 9,0 C 21,1 C 9,7 km/h (2 Bft) 95,83 %
18.04.2018 14:21 21,0 C 12,2 C 46 % 1030,6 hPa 0,0 l/m 10,3 km/h (2 Bft) O 90 1 min 0,000 mm 3,3 UV-I 692 W/m 8,9 C 19,7 C 14,5 km/h (3 Bft) 100,00 %
18.04.2018 14:22 20,9 C 12,2 C 44 % 1030,6 hPa 0,0 l/m 10,2 km/h (2 Bft) NO 37 1 min 0,000 mm 3,3 UV-I 681 W/m 8,2 C 19,6 C 12,9 km/h (3 Bft) 100,00 %
18.04.2018 14:23 20,8 C 12,2 C 46 % 1030,6 hPa 0,0 l/m 9,1 km/h (2 Bft) N-NO 22 1 min 0,000 mm 3,3 UV-I 684 W/m 8,8 C 19,8 C 11,3 km/h (2 Bft) 100,00 %
18.04.2018 14:24 20,8 C 12,2 C 47 % 1030,5 hPa 0,0 l/m 9,9 km/h (2 Bft) NO 51 1 min 0,000 mm 3,3 UV-I 685 W/m 9,1 C 19,6 C 12,9 km/h (3 Bft) 100,00 %
18.04.2018 14:25 20,9 C 12,2 C 44 % 1030,6 hPa 0,0 l/m 9,0 km/h (2 Bft) NO 42 1 min 0,000 mm 3,3 UV-I 698 W/m 8,2 C 20,0 C 12,9 km/h (3 Bft) 100,00 %
18.04.2018 14:26 20,8 C 12,2 C 45 % 1030,6 hPa 0,0 l/m 8,0 km/h (2 Bft) NO 54 1 min 0,000 mm 3,3 UV-I 700 W/m 8,4 C 20,2 C 12,9 km/h (3 Bft) 100,00 %
18.04.2018 14:27 20,9 C 12,2 C 45 % 1030,6 hPa 0,0 l/m 12,4 km/h (3 Bft) NO 52 1 min 0,000 mm 3,3 UV-I 700 W/m 8,5 C 19,0 C 16,1 km/h (3 Bft) 96,30 %
18.04.2018 14:28 21,0 C 12,2 C 46 % 1030,5 hPa 0,0 l/m 10,9 km/h (2 Bft) NO 40 1 min 0,000 mm 3,3 UV-I 698 W/m 8,9 C 19,5 C 14,5 km/h (3 Bft) 92,31 %
18.04.2018 14:29 20,9 C 12,2 C 43 % 1030,6 hPa 0,0 l/m 5,0 km/h (1 Bft) N 355 1 min 0,000 mm 3,3 UV-I 700 W/m 7,8 C 20,9 C 6,4 km/h (2 Bft) 100,00 %
18.04.2018 14:30 20,9 C 12,2 C 47 % 1030,6 hPa 0,0 l/m 6,7 km/h (2 Bft) N-NO 33 1 min 0,000 mm 3,3 UV-I 700 W/m 9,2 C 20,8 C 9,7 km/h (2 Bft) 96,55 %
18.04.2018 14:31 20,9 C 12,2 C 46 % 1030,6 hPa 0,0 l/m 10,3 km/h (2 Bft) N 5 1 min 0,000 mm 3,3 UV-I 694 W/m 8,8 C 19,5 C 14,5 km/h (3 Bft) 100,00 %
18.04.2018 14:32 20,9 C 12,2 C 45 % 1030,5 hPa 0,0 l/m 7,6 km/h (2 Bft) N 9 1 min 0,000 mm 3,3 UV-I 692 W/m 8,5 C 20,4 C 9,7 km/h (2 Bft) 91,30 %
18.04.2018 14:33 20,9 C 12,2 C 44 % 1030,6 hPa 0,0 l/m 5,6 km/h (1 Bft) NO 40 1 min 0,000 mm 3,2 UV-I 689 W/m 8,2 C 20,9 C 6,4 km/h (2 Bft) 100,00 %
18.04.2018 14:34 21,0 C 12,2 C 48 % 1030,6 hPa 0,0 l/m 9,9 km/h (2 Bft) O 88 1 min 0,000 mm 3,2 UV-I 695 W/m 9,6 C 19,8 C 14,5 km/h (3 Bft) 96,15 %
18.04.2018 14:35 21,0 C 12,2 C 44 % 1030,6 hPa 0,0 l/m 6,4 km/h (2 Bft) O-SO 113 1 min 0,000 mm 3,2 UV-I 693 W/m 8,3 C 21,0 C 11,3 km/h (2 Bft) 95,83 %
18.04.2018 14:36 20,9 C 12,2 C 43 % 1030,5 hPa 0,0 l/m 9,9 km/h (2 Bft) O-SO 105 1 min 0,000 mm 3,2 UV-I 691 W/m 7,8 C 19,7 C 11,3 km/h (2 Bft) 100,00 %
18.04.2018 14:37 20,7 C 12,2 C 42 % 1030,6 hPa 0,0 l/m 3,5 km/h (1 Bft) O 97 1 min 0,000 mm 3,2 UV-I 685 W/m 7,3 C 20,7 C 4,8 km/h (1 Bft) 92,59 %
18.04.2018 14:38 20,4 C 12,2 C 44 % 1030,5 hPa 0,0 l/m 3,7 km/h (1 Bft) O-SO 115 1 min 0,000 mm 3,2 UV-I 665 W/m 7,7 C 20,4 C 11,3 km/h (2 Bft) 100,00 %
18.04.2018 14:39 20,3 C 12,2 C 43 % 1030,5 hPa 0,0 l/m 6,6 km/h (2 Bft) O-SO 119 1 min 0,000 mm 3,2 UV-I 688 W/m 7,3 C 20,2 C 11,3 km/h (2 Bft) 92,59 %
18.04.2018 14:40 20,2 C 12,2 C 45 % 1030,5 hPa 0,0 l/m 7,2 km/h (2 Bft) O 79 1 min 0,000 mm 3,2 UV-I 691 W/m 7,9 C 19,9 C 14,5 km/h (3 Bft) 100,00 %
18.04.2018 14:41 20,2 C 12,2 C 43 % 1030,5 hPa 0,0 l/m 2,0 km/h (1 Bft) O 80 1 min 0,000 mm 3,1 UV-I 678 W/m 7,2 C 20,2 C 4,8 km/h (1 Bft) 91,67 %
18.04.2018 14:42 20,1 C 12,2 C 45 % 1030,5 hPa 0,0 l/m 6,5 km/h (2 Bft) NO 56 1 min 0,000 mm 3,0 UV-I 621 W/m 7,8 C 20,1 C 8,0 km/h (2 Bft) 100,00 %
18.04.2018 14:43 20,2 C 12,2 C 45 % 1030,5 hPa 0,0 l/m 4,3 km/h (1 Bft) NO 54 1 min 0,000 mm 3,1 UV-I 653 W/m 7,9 C 20,2 C 6,4 km/h (2 Bft) 91,67 %
18.04.2018 14:44 20,3 C 12,2 C 44 % 1030,5 hPa 0,0 l/m 3,2 km/h (1 Bft) O-NO 65 1 min 0,000 mm 3,0 UV-I 638 W/m 7,6 C 20,3 C 6,4 km/h (2 Bft) 95,83 %
18.04.2018 14:45 20,2 C 12,2 C 43 % 1030,5 hPa 0,0 l/m 0,2 km/h (0 Bft) O-NO 65 1 min 0,000 mm 2,9 UV-I 624 W/m 7,2 C 20,2 C 1,6 km/h (1 Bft) 100,00 %
18.04.2018 14:46 20,2 C 12,2 C 44 % 1030,4 hPa 0,0 l/m 0,5 km/h (0 Bft) O-NO 65 1 min 0,000 mm 3,0 UV-I 649 W/m 7,6 C 20,2 C 1,6 km/h (1 Bft) 96,15 %
18.04.2018 14:47 20,1 C 12,2 C 43 % 1030,4 hPa 0,0 l/m 1,5 km/h (1 Bft) SO 140 1 min 0,000 mm 3,1 UV-I 663 W/m 7,1 C 20,1 C 3,2 km/h (1 Bft) 100,00 %
18.04.2018 14:48 20,1 C 12,2 C 44 % 1030,4 hPa 0,0 l/m 2,3 km/h (1 Bft) SO 135 1 min 0,000 mm 3,1 UV-I 677 W/m 7,5 C 20,1 C 4,8 km/h (1 Bft) 91,67 %
18.04.2018 14:49 20,1 C 12,2 C 45 % 1030,4 hPa 0,0 l/m 9,2 km/h (2 Bft) O 90 1 min 0,000 mm 3,1 UV-I 686 W/m 7,8 C 19,0 C 14,5 km/h (3 Bft) 100,00 %
18.04.2018 14:50 20,2 C 12,2 C 45 % 1030,4 hPa 0,0 l/m 8,8 km/h (2 Bft) O-SO 105 1 min 0,000 mm 3,1 UV-I 684 W/m 7,9 C 19,3 C 11,3 km/h (2 Bft) 96,67 %
18.04.2018 14:51 20,2 C 12,2 C 43 % 1030,5 hPa 0,0 l/m 5,5 km/h (1 Bft) O 98 1 min 0,000 mm 3,1 UV-I 681 W/m 7,2 C 20,2 C 9,7 km/h (2 Bft) 100,00 %
18.04.2018 14:52 20,3 C 12,2 C 45 % 1030,4 hPa 0,0 l/m 1,2 km/h (1 Bft) O 98 1 min 0,000 mm 3,1 UV-I 679 W/m 8,0 C 20,3 C 1,6 km/h (1 Bft) 92,59 %
18.04.2018 14:53 20,4 C 12,2 C 45 % 1030,4 hPa 0,0 l/m 2,4 km/h (1 Bft) O 90 1 min 0,000 mm 3,1 UV-I 677 W/m 8,1 C 20,4 C 4,8 km/h (1 Bft) 95,65 %
18.04.2018 14:54 20,5 C 12,2 C 44 % 1030,4 hPa 0,0 l/m 5,3 km/h (1 Bft) O-NO 59 1 min 0,000 mm 3,0 UV-I 673 W/m 7,8 C 20,5 C 8,0 km/h (2 Bft) 100,00 %
18.04.2018 14:55 20,6 C 12,2 C 43 % 1030,4 hPa 0,0 l/m 6,0 km/h (2 Bft) O 79 1 min 0,000 mm 3,0 UV-I 668 W/m 7,6 C 20,6 C 8,0 km/h (2 Bft) 96,15 %
18.04.2018 14:56 20,7 C 12,2 C 43 % 1030,4 hPa 0,0 l/m 3,4 km/h (1 Bft) O 79 1 min 0,000 mm 3,0 UV-I 666 W/m 7,7 C 20,7 C 6,4 km/h (2 Bft) 100,00 %
18.04.2018 14:57 20,6 C 12,2 C 43 % 1030,4 hPa 0,0 l/m 0,8 km/h (0 Bft) O 79 1 min 0,000 mm 3,0 UV-I 662 W/m 7,6 C 20,6 C 1,6 km/h (1 Bft) 94,12 %
18.04.2018 14:58 20,6 C 12,2 C 45 % 1030,4 hPa 0,0 l/m 5,5 km/h (1 Bft) O-NO 69 1 min 0,000 mm 3,0 UV-I 661 W/m 8,2 C 20,6 C 12,9 km/h (3 Bft) 95,83 %
18.04.2018 14:59 20,8 C 12,2 C 45 % 1030,4 hPa 0,0 l/m 7,6 km/h (2 Bft) O-NO 63 1 min 0,000 mm 2,9 UV-I 589 W/m 8,4 C 20,3 C 11,3 km/h (2 Bft) 96,15 %
18.04.2018 15:00 20,8 C 12,2 C 44 % 1030,4 hPa 0,0 l/m 3,9 km/h (1 Bft) NO 51 1 min 0,457 mm 2,9 UV-I 630 W/m 8,1 C 20,8 C 4,8 km/h (1 Bft) 95,83 %
18.04.2018 15:02 21,0 C 12,2 C 47 % 1030,4 hPa 0,0 l/m 7,3 km/h (2 Bft) NO 34 2 min 0,000 mm 2,9 UV-I 650 W/m 9,3 C 20,7 C 12,9 km/h (3 Bft) 100,00 %
18.04.2018 15:03 21,1 C 12,2 C 43 % 1030,3 hPa 0,0 l/m 12,4 km/h (3 Bft) N-NO 22 1 min 0,000 mm 2,9 UV-I 652 W/m 8,0 C 19,2 C 16,1 km/h (3 Bft) 100,00 %
18.04.2018 15:04 21,3 C 12,2 C 44 % 1030,3 hPa 0,0 l/m 13,2 km/h (3 Bft) NO 36 1 min 0,000 mm 2,8 UV-I 650 W/m 8,5 C 19,2 C 14,5 km/h (3 Bft) 97,56 %
18.04.2018 15:05 21,4 C 12,2 C 43 % 1030,3 hPa 0,0 l/m 9,4 km/h (2 Bft) NO 52 1 min 0,000 mm 2,8 UV-I 647 W/m 8,3 C 20,4 C 11,3 km/h (2 Bft) 100,00 %
18.04.2018 15:06 21,3 C 12,2 C 42 % 1030,3 hPa 0,0 l/m 9,0 km/h (2 Bft) NO 37 1 min 0,000 mm 2,8 UV-I 650 W/m 7,9 C 20,4 C 12,9 km/h (3 Bft) 100,00 %
18.04.2018 15:07 21,2 C 12,2 C 42 % 1030,3 hPa 0,0 l/m 7,8 km/h (2 Bft) O-NO 71 1 min 0,000 mm 2,8 UV-I 644 W/m 7,8 C 20,7 C 9,7 km/h (2 Bft) 100,00 %
18.04.2018 15:08 21,1 C 12,2 C 41 % 1030,3 hPa 0,0 l/m 5,3 km/h (1 Bft) O 97 1 min 0,000 mm 2,8 UV-I 654 W/m 7,3 C 21,1 C 8,0 km/h (2 Bft) 100,00 %
18.04.2018 15:09 21,0 C 12,2 C 42 % 1030,3 hPa 0,0 l/m 4,1 km/h (1 Bft) O 97 1 min 0,000 mm 2,9 UV-I 658 W/m 7,6 C 21,0 C 6,4 km/h (2 Bft) 100,00 %
18.04.2018 15:10 20,8 C 12,2 C 42 % 1030,3 hPa 0,0 l/m 3,3 km/h (1 Bft) N 5 1 min 0,000 mm 2,9 UV-I 657 W/m 7,4 C 20,8 C 4,8 km/h (1 Bft) 100,00 %
18.04.2018 15:11 20,7 C 12,2 C 45 % 1030,3 hPa 0,0 l/m 4,7 km/h (1 Bft) N-NO 29 1 min 0,000 mm 2,8 UV-I 653 W/m 8,3 C 20,7 C 6,4 km/h (2 Bft) 100,00 %
18.04.2018 15:12 20,7 C 12,2 C 44 % 1030,2 hPa 0,0 l/m 5,5 km/h (1 Bft) O-NO 68 1 min 0,000 mm 2,8 UV-I 642 W/m 8,0 C 20,7 C 6,4 km/h (2 Bft) 100,00 %
18.04.2018 15:13 20,8 C 12,2 C 43 % 1030,2 hPa 0,0 l/m 4,7 km/h (1 Bft) O-NO 57 1 min 0,000 mm 2,8 UV-I 636 W/m 7,8 C 20,8 C 6,4 km/h (2 Bft) 100,00 %
18.04.2018 15:14 20,9 C 12,2 C 45 % 1030,2 hPa 0,0 l/m 3,7 km/h (1 Bft) O-NO 58 1 min 0,000 mm 2,7 UV-I 623 W/m 8,5 C 20,9 C 4,8 km/h (1 Bft) 100,00 %
18.04.2018 15:15 21,0 C 12,2 C 47 % 1030,2 hPa 0,0 l/m 5,8 km/h (2 Bft) O-NO 59 1 min 0,000 mm 2,7 UV-I 624 W/m 9,3 C 21,0 C 12,9 km/h (3 Bft) 100,00 %
18.04.2018 15:16 21,1 C 12,2 C 45 % 1030,2 hPa 0,0 l/m 8,8 km/h (2 Bft) O 88 1 min 0,000 mm 2,7 UV-I 634 W/m 8,7 C 20,2 C 12,9 km/h (3 Bft) 95,65 %
18.04.2018 15:17 21,2 C 12,2 C 44 % 1030,2 hPa 0,0 l/m 5,9 km/h (2 Bft) NO 51 1 min 0,000 mm 2,7 UV-I 634 W/m 8,5 C 21,2 C 6,4 km/h (2 Bft) 97,69 %
18.04.2018 15:18 21,1 C 12,2 C 44 % 1030,2 hPa 0,0 l/m 7,6 km/h (2 Bft) O-NO 58 1 min 0,000 mm 2,7 UV-I 636 W/m 8,4 C 20,7 C 11,3 km/h (2 Bft) 100,00 %
18.04.2018 15:19 21,1 C 12,2 C 43 % 1030,2 hPa 0,0 l/m 8,7 km/h (2 Bft) O-NO 76 1 min 0,000 mm 2,7 UV-I 628 W/m 8,0 C 20,3 C 12,9 km/h (3 Bft) 100,00 %
18.04.2018 15:20 21,1 C 12,2 C 43 % 1030,2 hPa 0,0 l/m 6,2 km/h (2 Bft) O-NO 78 1 min 0,000 mm 2,7 UV-I 624 W/m 8,0 C 21,1 C 11,3 km/h (2 Bft) 100,00 %
18.04.2018 15:21 21,1 C 12,2 C 45 % 1030,2 hPa 0,0 l/m 5,3 km/h (1 Bft) O-NO 57 1 min 0,000 mm 2,6 UV-I 620 W/m 8,7 C 21,1 C 6,4 km/h (2 Bft) 100,00 %
18.04.2018 15:22 21,3 C 12,2 C 46 % 1030,1 hPa 0,0 l/m 9,4 km/h (2 Bft) O-NO 61 1 min 0,000 mm 2,6 UV-I 621 W/m 9,2 C 20,3 C 14,5 km/h (3 Bft) 100,00 %
18.04.2018 15:23 21,3 C 12,2 C 43 % 1030,2 hPa 0,0 l/m 9,5 km/h (2 Bft) N-NO 31 1 min 0,000 mm 2,6 UV-I 619 W/m 8,2 C 20,2 C 12,9 km/h (3 Bft) 100,00 %
18.04.2018 15:24 21,3 C 12,2 C 45 % 1030,1 hPa 0,0 l/m 6,2 km/h (2 Bft) O 86 1 min 0,000 mm 2,6 UV-I 612 W/m 8,9 C 21,3 C 8,0 km/h (2 Bft) 100,00 %
18.04.2018 15:25 21,3 C 12,2 C 42 % 1030,1 hPa 0,0 l/m 8,0 km/h (2 Bft) O-NO 58 1 min 0,000 mm 2,5 UV-I 585 W/m 7,9 C 20,7 C 11,3 km/h (2 Bft) 100,00 %
18.04.2018 15:26 21,2 C 12,2 C 42 % 1030,1 hPa 0,0 l/m 5,5 km/h (1 Bft) O 80 1 min 0,000 mm 2,5 UV-I 585 W/m 7,8 C 21,2 C 6,4 km/h (2 Bft) 100,00 %
18.04.2018 15:27 21,1 C 12,2 C 43 % 1030,2 hPa 0,0 l/m 4,7 km/h (1 Bft) O-NO 74 1 min 0,000 mm 2,5 UV-I 609 W/m 8,0 C 21,1 C 6,4 km/h (2 Bft) 100,00 %
18.04.2018 15:28 21,1 C 12,2 C 42 % 1030,1 hPa 0,0 l/m 3,0 km/h (1 Bft) NO 52 1 min 0,000 mm 2,5 UV-I 611 W/m 7,7 C 21,1 C 4,8 km/h (1 Bft) 100,00 %
18.04.2018 15:29 20,9 C 12,2 C 43 % 1030,1 hPa 0,0 l/m 1,4 km/h (1 Bft) NO 53 1 min 0,000 mm 2,5 UV-I 611 W/m 7,8 C 20,9 C 4,8 km/h (1 Bft) 96,15 %
18.04.2018 15:30 20,8 C 12,2 C 41 % 1030,1 hPa 0,0 l/m 6,0 km/h (2 Bft) S 172 1 min 0,000 mm 2,4 UV-I 592 W/m 7,1 C 20,8 C 9,7 km/h (2 Bft) 100,00 %
18.04.2018 15:31 20,7 C 12,2 C 42 % 1030,1 hPa 0,0 l/m 3,8 km/h (1 Bft) O-SO 118 1 min 0,000 mm 2,4 UV-I 565 W/m 7,3 C 20,7 C 9,7 km/h (2 Bft) 100,00 %
18.04.2018 15:32 20,7 C 12,2 C 43 % 1030,1 hPa 0,0 l/m 8,6 km/h (2 Bft) O 90 1 min 0,000 mm 2,3 UV-I 542 W/m 7,7 C 19,9 C 12,9 km/h (3 Bft) 100,00 %
18.04.2018 15:33 20,7 C 12,2 C 43 % 1030,1 hPa 0,0 l/m 4,5 km/h (1 Bft) O-SO 114 1 min 0,000 mm 2,3 UV-I 542 W/m 7,7 C 20,7 C 11,3 km/h (2 Bft) 100,00 %
18.04.2018 15:34 20,7 C 12,2 C 43 % 1030,1 hPa 0,0 l/m 10,5 km/h (2 Bft) SO 130 1 min 0,000 mm 2,3 UV-I 557 W/m 7,7 C 19,3 C 14,5 km/h (3 Bft) 100,00 %
18.04.2018 15:35 20,7 C 12,2 C 43 % 1030,1 hPa 0,0 l/m 7,1 km/h (2 Bft) O 97 1 min 0,000 mm 2,3 UV-I 563 W/m 7,7 C 20,4 C 11,3 km/h (2 Bft) 96,15 %
18.04.2018 15:36 20,8 C 12,2 C 44 % 1030,2 hPa 0,0 l/m 3,5 km/h (1 Bft) O-SO 109 1 min 0,000 mm 2,3 UV-I 577 W/m 8,1 C 20,8 C 8,0 km/h (2 Bft) 100,00 %
18.04.2018 15:37 20,8 C 12,2 C 42 % 1030,1 hPa 0,0 l/m 1,7 km/h (1 Bft) O-SO 109 1 min 0,000 mm 2,3 UV-I 575 W/m 7,4 C 20,8 C 3,2 km/h (1 Bft) 100,00 %
18.04.2018 15:38 20,8 C 12,2 C 42 % 1030,1 hPa 0,0 l/m 5,4 km/h (1 Bft) O-NO 64 1 min 0,000 mm 2,3 UV-I 561 W/m 7,4 C 20,8 C 11,3 km/h (2 Bft) 100,00 %
18.04.2018 15:39 20,9 C 12,2 C 45 % 1030,1 hPa 0,0 l/m 4,2 km/h (1 Bft) O-NO 64 1 min 0,000 mm 2,3 UV-I 575 W/m 8,5 C 20,9 C 6,4 km/h (2 Bft) 95,65 %
18.04.2018 15:40 20,9 C 12,2 C 42 % 1030,1 hPa 0,0 l/m 1,0 km/h (0 Bft) O-NO 64 1 min 0,000 mm 2,3 UV-I 589 W/m 7,5 C 20,9 C 3,2 km/h (1 Bft) 100,00 %
18.04.2018 15:41 20,9 C 12,2 C 43 % 1030,1 hPa 0,0 l/m 2,5 km/h (1 Bft) O 82 1 min 0,000 mm 2,3 UV-I 585 W/m 7,8 C 20,9 C 4,8 km/h (1 Bft) 100,00 %
18.04.2018 15:42 20,9 C 12,2 C 43 % 1030,1 hPa 0,0 l/m 1,5 km/h (1 Bft) O-SO 117 1 min 0,000 mm 2,3 UV-I 582 W/m 7,8 C 20,9 C 3,2 km/h (1 Bft) 100,00 %
18.04.2018 15:43 20,9 C 12,2 C 42 % 1030,1 hPa 0,0 l/m 1,7 km/h (1 Bft) O-SO 117 1 min 0,000 mm 2,3 UV-I 571 W/m 7,5 C 20,9 C 3,2 km/h (1 Bft) 100,00 %
18.04.2018 15:44 20,9 C 12,2 C 43 % 1030,1 hPa 0,0 l/m 5,1 km/h (1 Bft) O-NO 76 1 min 0,000 mm 2,3 UV-I 561 W/m 7,8 C 20,9 C 8,0 km/h (2 Bft) 100,00 %
18.04.2018 15:45 21,0 C 12,2 C 42 % 1030,0 hPa 0,0 l/m 8,0 km/h (2 Bft) O 79 1 min 0,000 mm 2,2 UV-I 546 W/m 7,6 C 20,4 C 12,9 km/h (3 Bft) 100,00 %
18.04.2018 15:46 21,0 C 12,2 C 44 % 1030,1 hPa 0,0 l/m 6,8 km/h (2 Bft) O 101 1 min 0,000 mm 2,2 UV-I 534 W/m 8,3 C 20,9 C 11,3 km/h (2 Bft) 100,00 %
18.04.2018 15:47 21,1 C 12,2 C 44 % 1030,0 hPa 0,0 l/m 1,5 km/h (1 Bft) O 101 1 min 0,000 mm 2,2 UV-I 541 W/m 8,4 C 21,1 C 3,2 km/h (1 Bft) 100,00 %
18.04.2018 15:48 21,1 C 12,2 C 47 % 1030,1 hPa 0,0 l/m 6,9 km/h (2 Bft) N-NO 26 1 min 0,000 mm 2,2 UV-I 546 W/m 9,3 C 20,9 C 8,0 km/h (2 Bft) 100,00 %
18.04.2018 15:49 21,2 C 12,2 C 44 % 1030,0 hPa 0,0 l/m 4,8 km/h (1 Bft) NO 45 1 min 0,000 mm 2,2 UV-I 556 W/m 8,5 C 21,2 C 6,4 km/h (2 Bft) 100,00 %
18.04.2018 15:50 21,2 C 12,2 C 40 % 1030,0 hPa 0,0 l/m 1,2 km/h (1 Bft) NO 45 1 min 0,000 mm 2,2 UV-I 556 W/m 7,1 C 21,2 C 3,2 km/h (1 Bft) 100,00 %
18.04.2018 15:51 21,0 C 12,2 C 41 % 1030,0 hPa 0,0 l/m 1,9 km/h (1 Bft) O-NO 75 1 min 0,000 mm 2,2 UV-I 547 W/m 7,2 C 21,0 C 3,2 km/h (1 Bft) 100,00 %
18.04.2018 15:52 20,8 C 12,2 C 43 % 1030,0 hPa 0,0 l/m 3,7 km/h (1 Bft) O 95 1 min 0,000 mm 2,2 UV-I 554 W/m 7,8 C 20,8 C 6,4 km/h (2 Bft) 95,65 %
18.04.2018 15:53 20,8 C 12,2 C 41 % 1030,0 hPa 0,0 l/m 7,4 km/h (2 Bft) O 94 1 min 0,000 mm 2,2 UV-I 568 W/m 7,1 C 20,4 C 9,7 km/h (2 Bft) 100,00 %
18.04.2018 15:54 20,9 C 12,2 C 43 % 1030,0 hPa 0,0 l/m 5,3 km/h (1 Bft) O-SO 115 1 min 0,000 mm 2,2 UV-I 565 W/m 7,8 C 20,9 C 6,4 km/h (2 Bft) 100,00 %
18.04.2018 15:55 20,9 C 12,2 C 42 % 1030,0 hPa 0,0 l/m 8,6 km/h (2 Bft) O 79 1 min 0,000 mm 2,1 UV-I 557 W/m 7,5 C 20,1 C 11,3 km/h (2 Bft) 100,00 %
18.04.2018 15:56 20,9 C 12,2 C 41 % 1030,0 hPa 0,0 l/m 7,9 km/h (2 Bft) O-SO 108 1 min 0,000 mm 2,1 UV-I 550 W/m 7,2 C 20,3 C 11,3 km/h (2 Bft) 100,00 %
18.04.2018 15:57 20,9 C 12,2 C 42 % 1030,0 hPa 0,0 l/m 7,2 km/h (2 Bft) O 101 1 min 0,000 mm 2,1 UV-I 550 W/m 7,5 C 20,6 C 11,3 km/h (2 Bft) 100,00 %
18.04.2018 15:58 20,9 C 12,2 C 42 % 1030,0 hPa 0,0 l/m 4,5 km/h (1 Bft) O 94 1 min 0,000 mm 2,1 UV-I 550 W/m 7,5 C 20,9 C 11,3 km/h (2 Bft) 100,00 %
18.04.2018 15:59 20,9 C 12,2 C 44 % 1029,9 hPa 0,0 l/m 3,7 km/h (1 Bft) O-NO 65 1 min 0,000 mm 2,1 UV-I 546 W/m 8,2 C 20,9 C 6,4 km/h (2 Bft) 100,00 %
18.04.2018 16:00 21,1 C 12,2 C 45 % 1029,9 hPa 0,0 l/m 7,4 km/h (2 Bft) NO 55 1 min 0,000 mm 2,0 UV-I 540 W/m 8,7 C 20,7 C 12,9 km/h (3 Bft) 100,00 %
18.04.2018 16:01 21,2 C 12,2 C 45 % 1029,9 hPa 0,0 l/m 7,8 km/h (2 Bft) NO 53 1 min 0,407 mm 2,0 UV-I 538 W/m 8,8 C 20,7 C 9,7 km/h (2 Bft) 100,00 %
18.04.2018 16:02 21,2 C 12,2 C 42 % 1029,9 hPa 0,0 l/m 5,5 km/h (1 Bft) NO 44 1 min 0,000 mm 2,0 UV-I 535 W/m 7,8 C 21,2 C 6,4 km/h (2 Bft) 95,65 %
18.04.2018 16:03 21,2 C 12,2 C 45 % 1029,9 hPa 0,0 l/m 6,4 km/h (2 Bft) O-NO 66 1 min 0,000 mm 2,0 UV-I 534 W/m 8,8 C 21,2 C 11,3 km/h (2 Bft) 100,00 %
18.04.2018 16:04 21,3 C 12,2 C 43 % 1029,9 hPa 0,0 l/m 10,9 km/h (2 Bft) O 88 1 min 0,000 mm 2,0 UV-I 533 W/m 8,2 C 19,8 C 12,9 km/h (3 Bft) 100,00 %
18.04.2018 16:05 21,3 C 12,2 C 41 % 1029,9 hPa 0,0 l/m 5,8 km/h (2 Bft) O 100 1 min 0,000 mm 1,9 UV-I 531 W/m 7,5 C 21,3 C 9,7 km/h (2 Bft) 100,00 %
18.04.2018 16:06 21,2 C 12,2 C 42 % 1029,9 hPa 0,0 l/m 5,0 km/h (1 Bft) O 97 1 min 0,000 mm 1,9 UV-I 528 W/m 7,8 C 21,2 C 9,7 km/h (2 Bft) 100,00 %
18.04.2018 16:07 21,1 C 12,2 C 41 % 1029,9 hPa 0,0 l/m 5,6 km/h (1 Bft) NO 50 1 min 0,000 mm 1,9 UV-I 526 W/m 7,3 C 21,1 C 9,7 km/h (2 Bft) 91,30 %
18.04.2018 16:08 21,1 C 12,2 C 43 % 1029,9 hPa 0,0 l/m 5,1 km/h (1 Bft) O-NO 71 1 min 0,000 mm 1,9 UV-I 524 W/m 8,0 C 21,1 C 6,4 km/h (2 Bft) 100,00 %
18.04.2018 16:09 21,1 C 12,2 C 41 % 1029,9 hPa 0,0 l/m 4,7 km/h (1 Bft) O-SO 103 1 min 0,000 mm 1,9 UV-I 522 W/m 7,3 C 21,1 C 6,4 km/h (2 Bft) 100,00 %
18.04.2018 16:10 21,1 C 12,2 C 42 % 1029,9 hPa 0,0 l/m 5,2 km/h (1 Bft) O 98 1 min 0,000 mm 1,9 UV-I 519 W/m 7,7 C 21,1 C 11,3 km/h (2 Bft) 100,00 %
18.04.2018 16:11 21,1 C 12,2 C 42 % 1029,9 hPa 0,0 l/m 2,8 km/h (1 Bft) O 98 1 min 0,000 mm 1,8 UV-I 513 W/m 7,7 C 21,1 C 4,8 km/h (1 Bft) 100,00 %
18.04.2018 16:13 21,2 C 12,2 C 43 % 1029,8 hPa 0,0 l/m 5,7 km/h (1 Bft) O-SO 102 2 min 0,000 mm 1,8 UV-I 489 W/m 8,1 C 21,2 C 9,7 km/h (2 Bft) 100,00 %
18.04.2018 16:14 21,2 C 12,2 C 42 % 1029,8 hPa 0,0 l/m 3,8 km/h (1 Bft) O 94 1 min 0,000 mm 1,8 UV-I 484 W/m 7,8 C 21,2 C 6,4 km/h (2 Bft) 100,00 %
18.04.2018 16:15 21,1 C 12,2 C 42 % 1029,8 hPa 0,0 l/m 3,5 km/h (1 Bft) SO 128 1 min 0,000 mm 1,8 UV-I 500 W/m 7,7 C 21,1 C 4,8 km/h (1 Bft) 100,00 %
18.04.2018 16:16 21,0 C 12,2 C 41 % 1029,8 hPa 0,0 l/m 1,7 km/h (1 Bft) SO 128 1 min 0,000 mm 1,7 UV-I 496 W/m 7,2 C 21,0 C 3,2 km/h (1 Bft) 100,00 %
18.04.2018 16:17 20,9 C 12,2 C 43 % 1029,8 hPa 0,0 l/m 4,6 km/h (1 Bft) N-NO 27 1 min 0,000 mm 1,7 UV-I 490 W/m 7,8 C 20,9 C 8,0 km/h (2 Bft) 100,00 %
18.04.2018 16:18 21,0 C 12,2 C 43 % 1029,8 hPa 0,0 l/m 6,0 km/h (2 Bft) N-NO 32 1 min 0,000 mm 1,7 UV-I 492 W/m 7,9 C 21,0 C 8,0 km/h (2 Bft) 96,30 %
18.04.2018 16:19 21,2 C 12,2 C 46 % 1029,7 hPa 0,0 l/m 8,5 km/h (2 Bft) O-SO 107 1 min 0,000 mm 1,7 UV-I 491 W/m 9,1 C 20,4 C 14,5 km/h (3 Bft) 100,00 %
18.04.2018 16:20 21,4 C 12,2 C 43 % 1029,8 hPa 0,0 l/m 11,7 km/h (2 Bft) O-SO 107 1 min 0,000 mm 1,7 UV-I 488 W/m 8,3 C 19,7 C 14,5 km/h (3 Bft) 96,77 %
18.04.2018 16:21 21,3 C 12,2 C 42 % 1029,8 hPa 0,0 l/m 9,3 km/h (2 Bft) O-SO 110 1 min 0,000 mm 1,7 UV-I 485 W/m 7,9 C 20,3 C 12,9 km/h (3 Bft) 100,00 %
18.04.2018 16:22 21,3 C 12,2 C 44 % 1029,8 hPa 0,0 l/m 7,1 km/h (2 Bft) O-NO 69 1 min 0,000 mm 1,7 UV-I 483 W/m 8,5 C 21,0 C 9,7 km/h (2 Bft) 100,00 %
18.04.2018 16:23 21,2 C 12,2 C 42 % 1029,8 hPa 0,0 l/m 6,4 km/h (2 Bft) O 80 1 min 0,000 mm 1,6 UV-I 481 W/m 7,8 C 21,2 C 9,7 km/h (2 Bft) 100,00 %
18.04.2018 16:24 21,2 C 12,2 C 43 % 1029,8 hPa 0,0 l/m 4,7 km/h (1 Bft) O 83 1 min 0,000 mm 1,6 UV-I 479 W/m 8,1 C 21,2 C 8,0 km/h (2 Bft) 100,00 %
18.04.2018 16:25 21,2 C 12,2 C 43 % 1029,8 hPa 0,0 l/m 7,5 km/h (2 Bft) O-SO 117 1 min 0,000 mm 1,6 UV-I 478 W/m 8,1 C 20,8 C 9,7 km/h (2 Bft) 96,30 %
18.04.2018 16:26 21,2 C 12,2 C 42 % 1029,8 hPa 0,0 l/m 7,5 km/h (2 Bft) O-SO 123 1 min 0,000 mm 1,6 UV-I 475 W/m 7,8 C 20,8 C 11,3 km/h (2 Bft) 100,00 %
18.04.2018 16:27 21,2 C 12,2 C 42 % 1029,8 hPa 0,0 l/m 4,6 km/h (1 Bft) O-SO 113 1 min 0,000 mm 1,6 UV-I 473 W/m 7,8 C 21,2 C 8,0 km/h (2 Bft) 95,83 %
18.04.2018 16:28 21,2 C 12,2 C 41 % 1029,8 hPa 0,0 l/m 4,9 km/h (1 Bft) S-SO 161 1 min 0,000 mm 1,6 UV-I 473 W/m 7,4 C 21,2 C 6,4 km/h (2 Bft) 96,15 %
18.04.2018 16:29 21,3 C 12,2 C 42 % 1029,8 hPa 0,0 l/m 5,4 km/h (1 Bft) O-SO 107 1 min 0,000 mm 1,6 UV-I 470 W/m 7,9 C 21,3 C 6,4 km/h (2 Bft) 100,00 %
18.04.2018 16:30 21,3 C 12,2 C 44 % 1029,7 hPa 0,0 l/m 5,4 km/h (1 Bft) O-SO 105 1 min 0,000 mm 1,6 UV-I 469 W/m 8,5 C 21,3 C 6,4 km/h (2 Bft) 95,65 %
18.04.2018 16:31 21,2 C 12,2 C 41 % 1029,8 hPa 0,0 l/m 1,4 km/h (1 Bft) O 80 1 min 0,000 mm 1,5 UV-I 465 W/m 7,4 C 21,2 C 3,2 km/h (1 Bft) 100,00 %
18.04.2018 16:32 21,2 C 12,2 C 43 % 1029,8 hPa 0,0 l/m 3,1 km/h (1 Bft) O-NO 60 1 min 0,000 mm 1,5 UV-I 463 W/m 8,1 C 21,2 C 4,8 km/h (1 Bft) 95,65 %
18.04.2018 16:33 21,2 C 12,2 C 43 % 1029,8 hPa 0,0 l/m 2,7 km/h (1 Bft) O-NO 60 1 min 0,000 mm 1,5 UV-I 461 W/m 8,1 C 21,2 C 3,2 km/h (1 Bft) 100,00 %
18.04.2018 16:34 21,3 C 12,2 C 43 % 1029,7 hPa 0,0 l/m 1,2 km/h (1 Bft) O-NO 60 1 min 0,000 mm 1,5 UV-I 457 W/m 8,2 C 21,3 C 3,2 km/h (1 Bft) 91,67 %
18.04.2018 16:35 21,4 C 12,2 C 45 % 1029,8 hPa 0,0 l/m 4,4 km/h (1 Bft) O-NO 62 1 min 0,000 mm 1,5 UV-I 453 W/m 9,0 C 21,4 C 4,8 km/h (1 Bft) 100,00 %
18.04.2018 16:36 21,4 C 12,2 C 43 % 1029,8 hPa 0,0 l/m 4,3 km/h (1 Bft) O-NO 63 1 min 0,000 mm 1,5 UV-I 451 W/m 8,3 C 21,4 C 6,4 km/h (2 Bft) 96,30 %
18.04.2018 16:37 21,4 C 12,2 C 44 % 1029,7 hPa 0,0 l/m 6,8 km/h (2 Bft) O-NO 60 1 min 0,000 mm 1,4 UV-I 449 W/m 8,6 C 21,3 C 9,7 km/h (2 Bft) 95,65 %
18.04.2018 16:38 21,4 C 12,2 C 40 % 1029,8 hPa 0,0 l/m 2,8 km/h (1 Bft) O-NO 60 1 min 0,000 mm 1,4 UV-I 446 W/m 7,2 C 21,4 C 6,4 km/h (2 Bft) 100,00 %
18.04.2018 16:39 21,4 C 12,2 C 42 % 1029,8 hPa 0,0 l/m 3,1 km/h (1 Bft) O-NO 57 1 min 0,000 mm 1,4 UV-I 443 W/m 8,0 C 21,4 C 4,8 km/h (1 Bft) 95,65 %
18.04.2018 16:40 21,3 C 12,2 C 41 % 1029,8 hPa 0,0 l/m 4,5 km/h (1 Bft) NO 38 1 min 0,000 mm 1,4 UV-I 441 W/m 7,5 C 21,3 C 8,0 km/h (2 Bft) 100,00 %
18.04.2018 16:41 21,4 C 12,2 C 42 % 1029,8 hPa 0,0 l/m 3,9 km/h (1 Bft) NO 38 1 min 0,000 mm 1,4 UV-I 438 W/m 8,0 C 21,4 C 6,4 km/h (2 Bft) 96,15 %
18.04.2018 16:42 21,3 C 12,2 C 40 % 1029,8 hPa 0,0 l/m 1,7 km/h (1 Bft) NO 38 1 min 0,000 mm 1,4 UV-I 436 W/m 7,1 C 21,3 C 3,2 km/h (1 Bft) 100,00 %
18.04.2018 16:43 21,3 C 12,2 C 42 % 1029,8 hPa 0,0 l/m 0,3 km/h (0 Bft) NO 38 1 min 0,000 mm 1,4 UV-I 433 W/m 7,9 C 21,3 C 1,6 km/h (1 Bft) 96,15 %
18.04.2018 16:44 21,3 C 12,2 C 42 % 1029,8 hPa 0,0 l/m 2,2 km/h (1 Bft) NO 38 1 min 0,000 mm 1,3 UV-I 430 W/m 7,9 C 21,3 C 3,2 km/h (1 Bft) 95,83 %
18.04.2018 16:45 21,3 C 12,2 C 41 % 1029,7 hPa 0,0 l/m 2,1 km/h (1 Bft) NO 37 1 min 0,000 mm 1,3 UV-I 425 W/m 7,5 C 21,3 C 3,2 km/h (1 Bft) 94,12 %
18.04.2018 16:46 21,3 C 12,2 C 43 % 1029,7 hPa 0,0 l/m 3,0 km/h (1 Bft) NO 37 1 min 0,000 mm 1,3 UV-I 422 W/m 8,2 C 21,3 C 4,8 km/h (1 Bft) 95,83 %
18.04.2018 16:47 21,3 C 12,2 C 43 % 1029,7 hPa 0,0 l/m 3,5 km/h (1 Bft) NO 38 1 min 0,000 mm 1,3 UV-I 419 W/m 8,2 C 21,3 C 4,8 km/h (1 Bft) 100,00 %
18.04.2018 16:48 21,3 C 12,2 C 41 % 1029,7 hPa 0,0 l/m 5,1 km/h (1 Bft) N-NO 30 1 min 0,000 mm 1,3 UV-I 417 W/m 7,5 C 21,3 C 8,0 km/h (2 Bft) 95,83 %
18.04.2018 16:49 21,3 C 12,2 C 41 % 1029,7 hPa 0,0 l/m 1,5 km/h (1 Bft) N-NO 30 1 min 0,000 mm 1,3 UV-I 414 W/m 7,5 C 21,3 C 3,2 km/h (1 Bft) 100,00 %
18.04.2018 16:50 21,3 C 12,2 C 42 % 1029,7 hPa 0,0 l/m 3,4 km/h (1 Bft) NO 47 1 min 0,000 mm 1,3 UV-I 411 W/m 7,9 C 21,3 C 4,8 km/h (1 Bft) 96,55 %
18.04.2018 16:51 21,3 C 12,2 C 46 % 1029,7 hPa 0,0 l/m 4,3 km/h (1 Bft) O-NO 71 1 min 0,000 mm 1,2 UV-I 406 W/m 9,2 C 21,3 C 6,4 km/h (2 Bft) 100,00 %
18.04.2018 16:52 21,4 C 12,2 C 44 % 1029,7 hPa 0,0 l/m 5,7 km/h (1 Bft) O 88 1 min 0,000 mm 1,2 UV-I 406 W/m 8,6 C 21,4 C 8,0 km/h (2 Bft) 93,33 %
18.04.2018 16:53 21,5 C 12,2 C 45 % 1029,7 hPa 0,0 l/m 4,3 km/h (1 Bft) O-NO 75 1 min 0,000 mm 1,2 UV-I 405 W/m 9,1 C 21,5 C 8,0 km/h (2 Bft) 97,37 %
18.04.2018 16:54 21,5 C 12,2 C 43 % 1029,6 hPa 0,0 l/m 5,2 km/h (1 Bft) O 98 1 min 0,000 mm 1,2 UV-I 404 W/m 8,4 C 21,5 C 8,0 km/h (2 Bft) 100,00 %
18.04.2018 16:55 21,4 C 12,2 C 41 % 1029,6 hPa 0,0 l/m 5,4 km/h (1 Bft) S-SO 151 1 min 0,000 mm 1,2 UV-I 402 W/m 7,6 C 21,4 C 6,4 km/h (2 Bft) 100,00 %
18.04.2018 16:56 21,2 C 12,2 C 40 % 1029,6 hPa 0,0 l/m 3,3 km/h (1 Bft) S-SO 155 1 min 0,000 mm 1,2 UV-I 399 W/m 7,1 C 21,2 C 4,8 km/h (1 Bft) 96,15 %
18.04.2018 16:57 21,2 C 12,2 C 43 % 1029,7 hPa 0,0 l/m 1,1 km/h (1 Bft) S-SO 154 1 min 0,000 mm 1,2 UV-I 397 W/m 8,1 C 21,2 C 3,2 km/h (1 Bft) 100,00 %
18.04.2018 16:58 21,1 C 12,2 C 42 % 1029,7 hPa 0,0 l/m 1,9 km/h (1 Bft) S-SO 154 1 min 0,000 mm 1,2 UV-I 393 W/m 7,7 C 21,1 C 3,2 km/h (1 Bft) 100,00 %
18.04.2018 16:59 21,2 C 12,2 C 42 % 1029,6 hPa 0,0 l/m 3,5 km/h (1 Bft) O-NO 66 1 min 0,000 mm 1,1 UV-I 389 W/m 7,8 C 21,2 C 4,8 km/h (1 Bft) 100,00 %
18.04.2018 17:00 21,3 C 12,2 C 42 % 1029,7 hPa 0,0 l/m 2,8 km/h (1 Bft) O-NO 66 1 min 0,000 mm 1,1 UV-I 387 W/m 7,9 C 21,3 C 4,8 km/h (1 Bft) 100,00 %
18.04.2018 17:02 21,4 C 12,2 C 43 % 1029,6 hPa 0,0 l/m 7,7 km/h (2 Bft) O 93 2 min 0,304 mm 1,1 UV-I 383 W/m 8,3 C 20,9 C 14,5 km/h (3 Bft) 97,56 %
18.04.2018 17:03 21,6 C 12,2 C 43 % 1029,7 hPa 0,0 l/m 6,8 km/h (2 Bft) O-NO 71 1 min 0,000 mm 1,1 UV-I 380 W/m 8,5 C 21,5 C 11,3 km/h (2 Bft) 96,30 %
18.04.2018 17:04 21,6 C 12,2 C 42 % 1029,7 hPa 0,0 l/m 6,7 km/h (2 Bft) O-SO 114 1 min 0,000 mm 1,1 UV-I 378 W/m 8,1 C 21,5 C 9,7 km/h (2 Bft) 100,00 %
18.04.2018 17:05 21,6 C 12,2 C 42 % 1029,7 hPa 0,0 l/m 8,0 km/h (2 Bft) O 101 1 min 0,000 mm 1,1 UV-I 376 W/m 8,1 C 21,0 C 11,3 km/h (2 Bft) 100,00 %
18.04.2018 17:06 21,5 C 12,2 C 41 % 1029,7 hPa 0,0 l/m 12,2 km/h (2 Bft) O-SO 105 1 min 0,000 mm 1,1 UV-I 374 W/m 7,7 C 19,7 C 14,5 km/h (3 Bft) 100,00 %
18.04.2018 17:08 21,6 C 12,2 C 43 % 1029,6 hPa 0,0 l/m 6,3 km/h (2 Bft) O-SO 104 2 min 0,000 mm 1,0 UV-I 372 W/m 8,5 C 21,6 C 12,9 km/h (3 Bft) 100,00 %
18.04.2018 17:09 21,5 C 12,2 C 41 % 1029,6 hPa 0,0 l/m 4,6 km/h (1 Bft) O-SO 107 1 min 0,000 mm 1,0 UV-I 369 W/m 7,7 C 21,5 C 9,7 km/h (2 Bft) 100,00 %
18.04.2018 17:10 21,5 C 12,2 C 41 % 1029,6 hPa 0,0 l/m 3,0 km/h (1 Bft) O-NO 59 1 min 0,000 mm 1,0 UV-I 366 W/m 7,7 C 21,5 C 4,8 km/h (1 Bft) 100,00 %
18.04.2018 17:11 21,4 C 12,2 C 43 % 1029,6 hPa 0,0 l/m 4,0 km/h (1 Bft) O-SO 119 1 min 0,000 mm 1,0 UV-I 362 W/m 8,3 C 21,4 C 6,4 km/h (2 Bft) 100,00 %
18.04.2018 17:12 21,4 C 12,2 C 40 % 1029,6 hPa 0,0 l/m 3,7 km/h (1 Bft) O-SO 118 1 min 0,000 mm 1,0 UV-I 360 W/m 7,2 C 21,4 C 6,4 km/h (2 Bft) 95,83 %
18.04.2018 17:13 21,3 C 12,2 C 42 % 1029,6 hPa 0,0 l/m 3,6 km/h (1 Bft) NO 53 1 min 0,000 mm 1,0 UV-I 358 W/m 7,9 C 21,3 C 6,4 km/h (2 Bft) 95,65 %
18.04.2018 17:14 21,4 C 12,2 C 43 % 1029,6 hPa 0,0 l/m 6,5 km/h (2 Bft) NO 46 1 min 0,000 mm 1,0 UV-I 355 W/m 8,3 C 21,4 C 8,0 km/h (2 Bft) 100,00 %
18.04.2018 17:15 21,5 C 12,2 C 45 % 1029,6 hPa 0,0 l/m 6,6 km/h (2 Bft) O-NO 76 1 min 0,000 mm 0,9 UV-I 353 W/m 9,1 C 21,4 C 8,0 km/h (2 Bft) 100,00 %
18.04.2018 17:16 21,6 C 12,2 C 44 % 1029,6 hPa 0,0 l/m 5,9 km/h (2 Bft) O-NO 64 1 min 0,000 mm 0,9 UV-I 351 W/m 8,8 C 21,6 C 8,0 km/h (2 Bft) 100,00 %
18.04.2018 17:18 21,7 C 12,2 C 42 % 1029,6 hPa 0,0 l/m 5,4 km/h (1 Bft) NO 40 2 min 0,000 mm 0,9 UV-I 346 W/m 8,2 C 21,7 C 8,0 km/h (2 Bft) 100,00 %
18.04.2018 17:19 21,7 C 12,2 C 43 % 1029,6 hPa 0,0 l/m 6,6 km/h (2 Bft) NO 47 1 min 0,000 mm 0,9 UV-I 343 W/m 8,6 C 21,6 C 8,0 km/h (2 Bft) 100,00 %
18.04.2018 17:20 21,8 C 12,2 C 44 % 1029,6 hPa 0,0 l/m 5,9 km/h (2 Bft) NO 46 1 min 0,000 mm 0,9 UV-I 340 W/m 9,0 C 21,8 C 8,0 km/h (2 Bft) 100,00 %
18.04.2018 17:21 21,8 C 12,2 C 43 % 1029,5 hPa 0,0 l/m 5,7 km/h (1 Bft) N-NO 32 1 min 0,000 mm 0,9 UV-I 338 W/m 8,7 C 21,8 C 6,4 km/h (2 Bft) 96,88 %
18.04.2018 17:22 21,9 C 12,2 C 44 % 1029,6 hPa 0,0 l/m 6,4 km/h (2 Bft) N-NO 32 1 min 0,000 mm 0,9 UV-I 335 W/m 9,1 C 21,9 C 8,0 km/h (2 Bft) 100,00 %
18.04.2018 17:23 21,9 C 12,2 C 43 % 1029,5 hPa 0,0 l/m 5,6 km/h (1 Bft) O-NO 59 1 min 0,000 mm 0,8 UV-I 331 W/m 8,7 C 21,9 C 6,4 km/h (2 Bft) 100,00 %
18.04.2018 17:24 21,8 C 12,2 C 40 % 1029,6 hPa 0,0 l/m 4,4 km/h (1 Bft) O 96 1 min 0,000 mm 0,8 UV-I 329 W/m 7,6 C 21,8 C 6,4 km/h (2 Bft) 100,00 %
18.04.2018 17:25 21,7 C 12,2 C 42 % 1029,5 hPa 0,0 l/m 3,6 km/h (1 Bft) O 96 1 min 0,000 mm 0,8 UV-I 328 W/m 8,2 C 21,7 C 4,8 km/h (1 Bft) 100,00 %
18.04.2018 17:26 21,7 C 12,2 C 42 % 1029,5 hPa 0,0 l/m 6,0 km/h (2 Bft) O 92 1 min 0,000 mm 0,8 UV-I 325 W/m 8,2 C 21,7 C 6,4 km/h (2 Bft) 96,30 %
18.04.2018 17:27 21,5 C 12,2 C 40 % 1029,5 hPa 0,0 l/m 1,8 km/h (1 Bft) O 92 1 min 0,000 mm 0,8 UV-I 320 W/m 7,3 C 21,5 C 4,8 km/h (1 Bft) 100,00 %
18.04.2018 17:28 21,4 C 12,2 C 41 % 1029,5 hPa 0,0 l/m 1,0 km/h (0 Bft) O 92 1 min 0,000 mm 0,8 UV-I 317 W/m 7,6 C 21,4 C 3,2 km/h (1 Bft) 95,83 %
18.04.2018 17:29 21,6 C 12,2 C 45 % 1029,5 hPa 0,0 l/m 2,6 km/h (1 Bft) O 93 1 min 0,000 mm 0,8 UV-I 316 W/m 9,2 C 21,6 C 4,8 km/h (1 Bft) 100,00 %
18.04.2018 17:30 21,7 C 12,2 C 42 % 1029,5 hPa 0,0 l/m 5,0 km/h (1 Bft) O-NO 59 1 min 0,000 mm 0,8 UV-I 312 W/m 8,2 C 21,7 C 6,4 km/h (2 Bft) 100,00 %
18.04.2018 17:31 21,7 C 12,2 C 43 % 1029,5 hPa 0,0 l/m 4,7 km/h (1 Bft) O-NO 63 1 min 0,000 mm 0,8 UV-I 309 W/m 8,6 C 21,7 C 6,4 km/h (2 Bft) 100,00 %
18.04.2018 17:32 21,7 C 12,2 C 41 % 1029,5 hPa 0,0 l/m 4,6 km/h (1 Bft) O-NO 64 1 min 0,000 mm 0,7 UV-I 308 W/m 7,9 C 21,7 C 4,8 km/h (1 Bft) 100,00 %
18.04.2018 17:33 21,6 C 12,2 C 43 % 1029,5 hPa 0,0 l/m 6,4 km/h (2 Bft) O-NO 57 1 min 0,000 mm 0,7 UV-I 305 W/m 8,5 C 21,6 C 8,0 km/h (2 Bft) 96,15 %
18.04.2018 17:34 21,6 C 12,2 C 42 % 1029,5 hPa 0,0 l/m 6,1 km/h (2 Bft) O-NO 71 1 min 0,000 mm 0,7 UV-I 302 W/m 8,1 C 21,6 C 8,0 km/h (2 Bft) 100,00 %
18.04.2018 17:35 21,6 C 12,2 C 43 % 1029,5 hPa 0,0 l/m 7,4 km/h (2 Bft) O-NO 70 1 min 0,000 mm 0,7 UV-I 298 W/m 8,5 C 21,2 C 8,0 km/h (2 Bft) 100,00 %
18.04.2018 17:36 21,6 C 12,2 C 44 % 1029,5 hPa 0,0 l/m 5,4 km/h (1 Bft) O-NO 68 1 min 0,000 mm 0,7 UV-I 295 W/m 8,8 C 21,6 C 8,0 km/h (2 Bft) 100,00 %
18.04.2018 17:37 21,6 C 12,2 C 42 % 1029,5 hPa 0,0 l/m 4,6 km/h (1 Bft) NO 46 1 min 0,000 mm 0,7 UV-I 294 W/m 8,1 C 21,6 C 6,4 km/h (2 Bft) 100,00 %
18.04.2018 17:38 21,5 C 12,2 C 42 % 1029,5 hPa 0,0 l/m 5,1 km/h (1 Bft) NO 53 1 min 0,000 mm 0,7 UV-I 290 W/m 8,0 C 21,5 C 8,0 km/h (2 Bft) 100,00 %
18.04.2018 17:39 21,5 C 12,2 C 41 % 1029,5 hPa 0,0 l/m 5,4 km/h (1 Bft) O 94 1 min 0,000 mm 0,7 UV-I 288 W/m 7,7 C 21,5 C 6,4 km/h (2 Bft) 100,00 %
18.04.2018 17:40 21,6 C 12,2 C 43 % 1029,5 hPa 0,0 l/m 4,4 km/h (1 Bft) O-NO 64 1 min 0,000 mm 0,7 UV-I 286 W/m 8,5 C 21,6 C 6,4 km/h (2 Bft) 100,00 %
18.04.2018 17:41 21,6 C 12,2 C 44 % 1029,4 hPa 0,0 l/m 3,0 km/h (1 Bft) NO 49 1 min 0,000 mm 0,7 UV-I 283 W/m 8,8 C 21,6 C 4,8 km/h (1 Bft) 100,00 %
18.04.2018 17:42 21,6 C 12,2 C 42 % 1029,4 hPa 0,0 l/m 4,8 km/h (1 Bft) O-NO 70 1 min 0,000 mm 0,6 UV-I 279 W/m 8,1 C 21,6 C 6,4 km/h (2 Bft) 100,00 %
18.04.2018 17:43 21,6 C 12,2 C 42 % 1029,5 hPa 0,0 l/m 3,2 km/h (1 Bft) O-NO 70 1 min 0,000 mm 0,6 UV-I 278 W/m 8,1 C 21,6 C 4,8 km/h (1 Bft) 100,00 %
18.04.2018 17:44 21,6 C 12,2 C 41 % 1029,4 hPa 0,0 l/m 3,5 km/h (1 Bft) NO 53 1 min 0,000 mm 0,6 UV-I 274 W/m 7,8 C 21,6 C 4,8 km/h (1 Bft) 100,00 %
18.04.2018 17:45 21,6 C 12,2 C 42 % 1029,5 hPa 0,0 l/m 1,0 km/h (0 Bft) NO 53 1 min 0,000 mm 0,6 UV-I 271 W/m 8,1 C 21,6 C 3,2 km/h (1 Bft) 91,67 %
18.04.2018 17:46 21,6 C 12,2 C 42 % 1029,4 hPa 0,0 l/m 4,4 km/h (1 Bft) NO 49 1 min 0,000 mm 0,6 UV-I 264 W/m 8,1 C 21,6 C 6,4 km/h (2 Bft) 100,00 %
18.04.2018 17:48 21,6 C 12,2 C 41 % 1029,4 hPa 0,0 l/m 5,5 km/h (1 Bft) O-NO 69 2 min 0,000 mm 0,6 UV-I 258 W/m 7,8 C 21,6 C 6,4 km/h (2 Bft) 100,00 %
18.04.2018 17:49 21,6 C 12,2 C 43 % 1029,4 hPa 0,0 l/m 3,8 km/h (1 Bft) O-NO 69 1 min 0,000 mm 0,6 UV-I 260 W/m 8,5 C 21,6 C 6,4 km/h (2 Bft) 100,00 %
18.04.2018 17:50 21,6 C 12,2 C 43 % 1029,4 hPa 0,0 l/m 2,8 km/h (1 Bft) O-NO 71 1 min 0,000 mm 0,6 UV-I 258 W/m 8,5 C 21,6 C 3,2 km/h (1 Bft) 100,00 %
18.04.2018 17:51 21,6 C 12,2 C 42 % 1029,4 hPa 0,0 l/m 4,0 km/h (1 Bft) O 89 1 min 0,000 mm 0,6 UV-I 257 W/m 8,1 C 21,6 C 6,4 km/h (2 Bft) 100,00 %
18.04.2018 17:52 21,6 C 12,2 C 41 % 1029,4 hPa 0,0 l/m 5,4 km/h (1 Bft) O 91 1 min 0,000 mm 0,5 UV-I 252 W/m 7,8 C 21,6 C 9,7 km/h (2 Bft) 100,00 %
18.04.2018 17:53 21,5 C 12,2 C 42 % 1029,4 hPa 0,0 l/m 4,2 km/h (1 Bft) O-NO 61 1 min 0,000 mm 0,5 UV-I 250 W/m 8,0 C 21,5 C 6,4 km/h (2 Bft) 100,00 %
18.04.2018 17:54 21,4 C 12,2 C 42 % 1029,4 hPa 0,0 l/m 5,2 km/h (1 Bft) O-NO 62 1 min 0,000 mm 0,5 UV-I 248 W/m 8,0 C 21,4 C 6,4 km/h (2 Bft) 100,00 %
18.04.2018 17:55 21,4 C 12,2 C 42 % 1029,4 hPa 0,0 l/m 2,8 km/h (1 Bft) NO 40 1 min 0,000 mm 0,5 UV-I 243 W/m 8,0 C 21,4 C 6,4 km/h (2 Bft) 100,00 %
18.04.2018 17:56 21,5 C 12,2 C 41 % 1029,4 hPa 0,0 l/m 4,4 km/h (1 Bft) N-NO 27 1 min 0,000 mm 0,5 UV-I 241 W/m 7,7 C 21,5 C 6,4 km/h (2 Bft) 100,00 %
18.04.2018 17:57 21,5 C 12,2 C 41 % 1029,4 hPa 0,0 l/m 5,1 km/h (1 Bft) NO 46 1 min 0,000 mm 0,5 UV-I 238 W/m 7,7 C 21,5 C 6,4 km/h (2 Bft) 100,00 %
18.04.2018 17:58 21,4 C 12,2 C 42 % 1029,4 hPa 0,0 l/m 5,0 km/h (1 Bft) NO 44 1 min 0,000 mm 0,5 UV-I 237 W/m 8,0 C 21,4 C 6,4 km/h (2 Bft) 100,00 %
18.04.2018 17:59 21,4 C 12,2 C 43 % 1029,4 hPa 0,0 l/m 6,3 km/h (2 Bft) O-NO 65 1 min 0,000 mm 0,5 UV-I 235 W/m 8,3 C 21,4 C 8,0 km/h (2 Bft) 95,65 %
18.04.2018 18:00 21,3 C 12,2 C 42 % 1029,4 hPa 0,0 l/m 5,0 km/h (1 Bft) O-NO 64 1 min 0,000 mm 0,5 UV-I 234 W/m 7,9 C 21,3 C 6,4 km/h (2 Bft) 100,00 %
18.04.2018 18:02 21,3 C 12,2 C 42 % 1029,4 hPa 0,0 l/m 4,4 km/h (1 Bft) O-NO 63 2 min 0,229 mm 0,5 UV-I 228 W/m 7,9 C 21,3 C 6,4 km/h (2 Bft) 95,12 %
18.04.2018 18:03 21,3 C 12,2 C 41 % 1029,4 hPa 0,0 l/m 2,5 km/h (1 Bft) O-NO 63 1 min 0,000 mm 0,4 UV-I 221 W/m 7,5 C 21,3 C 3,2 km/h (1 Bft) 93,10 %
18.04.2018 18:04 21,3 C 12,2 C 42 % 1029,5 hPa 0,0 l/m 2,1 km/h (1 Bft) O-NO 63 1 min 0,000 mm 0,0 UV-I 224 W/m 7,9 C 21,3 C 3,2 km/h (1 Bft) 100,00 %
18.04.2018 18:05 21,3 C 12,2 C 41 % 1029,5 hPa 0,0 l/m 3,7 km/h (1 Bft) NO 35 1 min 0,000 mm 0,0 UV-I 221 W/m 7,5 C 21,3 C 4,8 km/h (1 Bft) 96,15 %
18.04.2018 18:06 21,3 C 12,2 C 42 % 1029,5 hPa 0,0 l/m 4,0 km/h (1 Bft) NO 35 1 min 0,000 mm 0,0 UV-I 219 W/m 7,9 C 21,3 C 4,8 km/h (1 Bft) 96,30 %
18.04.2018 18:07 21,3 C 12,2 C 42 % 1029,4 hPa 0,0 l/m 2,4 km/h (1 Bft) NO 35 1 min 0,000 mm 0,0 UV-I 216 W/m 7,9 C 21,3 C 4,8 km/h (1 Bft) 100,00 %
18.04.2018 18:08 21,3 C 12,2 C 41 % 1029,4 hPa 0,0 l/m 0,8 km/h (0 Bft) NO 40 1 min 0,000 mm 0,0 UV-I 213 W/m 7,5 C 21,3 C 1,6 km/h (1 Bft) 96,88 %
18.04.2018 18:09 21,3 C 12,2 C 42 % 1029,4 hPa 0,0 l/m 1,7 km/h (1 Bft) O 79 1 min 0,000 mm 0,0 UV-I 210 W/m 7,9 C 21,3 C 4,8 km/h (1 Bft) 100,00 %
18.04.2018 18:10 21,3 C 12,2 C 44 % 1029,5 hPa 0,0 l/m 3,1 km/h (1 Bft) O 79 1 min 0,000 mm 0,0 UV-I 207 W/m 8,5 C 21,3 C 4,8 km/h (1 Bft) 100,00 %
18.04.2018 18:11 21,3 C 12,2 C 42 % 1029,4 hPa 0,0 l/m 3,5 km/h (1 Bft) O 80 1 min 0,000 mm 0,0 UV-I 205 W/m 7,9 C 21,3 C 4,8 km/h (1 Bft) 95,83 %
18.04.2018 18:12 21,3 C 12,2 C 41 % 1029,4 hPa 0,0 l/m 1,8 km/h (1 Bft) O 80 1 min 0,000 mm 0,0 UV-I 203 W/m 7,5 C 21,3 C 3,2 km/h (1 Bft) 96,55 %
18.04.2018 18:13 21,2 C 12,2 C 41 % 1029,5 hPa 0,0 l/m 0,6 km/h (0 Bft) O 80 1 min 0,000 mm 0,0 UV-I 200 W/m 7,4 C 21,2 C 1,6 km/h (1 Bft) 100,00 %
18.04.2018 18:14 21,2 C 12,2 C 43 % 1029,4 hPa 0,0 l/m 2,3 km/h (1 Bft) O 80 1 min 0,000 mm 0,0 UV-I 198 W/m 8,1 C 21,2 C 3,2 km/h (1 Bft) 96,55 %
18.04.2018 18:15 21,3 C 12,2 C 43 % 1029,5 hPa 0,0 l/m 3,5 km/h (1 Bft) O 80 1 min 0,000 mm 0,0 UV-I 196 W/m 8,2 C 21,3 C 4,8 km/h (1 Bft) 100,00 %
18.04.2018 18:16 21,3 C 12,2 C 43 % 1029,4 hPa 0,0 l/m 2,4 km/h (1 Bft) O 80 1 min 0,000 mm 0,0 UV-I 192 W/m 8,2 C 21,3 C 4,8 km/h (1 Bft) 95,65 %
18.04.2018 18:18 21,4 C 12,2 C 42 % 1029,4 hPa 0,0 l/m 2,5 km/h (1 Bft) O 80 2 min 0,000 mm 0,0 UV-I 189 W/m 8,0 C 21,4 C 6,4 km/h (2 Bft) 97,73 %
18.04.2018 18:19 21,3 C 12,2 C 42 % 1029,4 hPa 0,0 l/m 4,1 km/h (1 Bft) O 80 1 min 0,000 mm 0,0 UV-I 186 W/m 7,9 C 21,3 C 6,4 km/h (2 Bft) 100,00 %
18.04.2018 18:20 21,4 C 12,2 C 41 % 1029,5 hPa 0,0 l/m 2,3 km/h (1 Bft) O 80 1 min 0,000 mm 0,0 UV-I 183 W/m 7,6 C 21,4 C 3,2 km/h (1 Bft) 92,31 %
18.04.2018 18:21 21,4 C 12,2 C 41 % 1029,4 hPa 0,0 l/m 1,3 km/h (1 Bft) O 80 1 min 0,000 mm 0,0 UV-I 181 W/m 7,6 C 21,4 C 1,6 km/h (1 Bft) 91,67 %
18.04.2018 18:22 21,5 C 12,2 C 41 % 1029,4 hPa 0,0 l/m 1,5 km/h (1 Bft) O 80 1 min 0,000 mm 0,0 UV-I 181 W/m 7,7 C 21,5 C 3,2 km/h (1 Bft) 91,30 %
18.04.2018 18:23 21,5 C 12,2 C 41 % 1029,4 hPa 0,0 l/m 1,4 km/h (1 Bft) O 80 1 min 0,000 mm 0,0 UV-I 181 W/m 7,7 C 21,5 C 3,2 km/h (1 Bft) 100,00 %
18.04.2018 18:24 21,6 C 12,2 C 41 % 1029,4 hPa 0,0 l/m 0,6 km/h (0 Bft) O 80 1 min 0,000 mm 0,0 UV-I 175 W/m 7,8 C 21,6 C 1,6 km/h (1 Bft) 93,75 %
18.04.2018 18:25 21,6 C 12,2 C 41 % 1029,4 hPa 0,0 l/m 1,2 km/h (1 Bft) O 80 1 min 0,000 mm 0,0 UV-I 172 W/m 7,8 C 21,6 C 1,6 km/h (1 Bft) 91,67 %
18.04.2018 18:26 21,5 C 12,2 C 41 % 1029,4 hPa 0,0 l/m 1,5 km/h (1 Bft) O 82 1 min 0,000 mm 0,0 UV-I 170 W/m 7,7 C 21,5 C 3,2 km/h (1 Bft) 100,00 %
18.04.2018 18:27 21,4 C 12,2 C 43 % 1029,4 hPa 0,0 l/m 4,5 km/h (1 Bft) O-NO 77 1 min 0,000 mm 0,0 UV-I 167 W/m 8,3 C 21,4 C 8,0 km/h (2 Bft) 91,67 %
18.04.2018 18:28 21,3 C 12,2 C 45 % 1029,4 hPa 0,0 l/m 5,1 km/h (1 Bft) O-NO 78 1 min 0,000 mm 0,0 UV-I 164 W/m 8,9 C 21,3 C 8,0 km/h (2 Bft) 100,00 %
18.04.2018 18:29 21,2 C 12,2 C 43 % 1029,4 hPa 0,0 l/m 2,0 km/h (1 Bft) O-NO 78 1 min 0,000 mm 0,0 UV-I 163 W/m 8,1 C 21,2 C 3,2 km/h (1 Bft) 92,59 %
18.04.2018 18:30 21,2 C 12,2 C 45 % 1029,4 hPa 0,0 l/m 3,5 km/h (1 Bft) O-NO 78 1 min 0,000 mm 0,0 UV-I 161 W/m 8,8 C 21,2 C 4,8 km/h (1 Bft) 92,31 %
18.04.2018 18:31 21,1 C 12,2 C 44 % 1029,4 hPa 0,0 l/m 4,3 km/h (1 Bft) O-SO 105 1 min 0,000 mm 0,0 UV-I 159 W/m 8,4 C 21,1 C 6,4 km/h (2 Bft) 100,00 %
18.04.2018 18:33 21,0 C 12,2 C 43 % 1029,4 hPa 0,0 l/m 5,5 km/h (1 Bft) O-NO 76 2 min 0,000 mm 0,0 UV-I 155 W/m 7,9 C 21,0 C 9,7 km/h (2 Bft) 96,61 %
18.04.2018 18:34 21,0 C 12,2 C 44 % 1029,4 hPa 0,0 l/m 4,7 km/h (1 Bft) O 86 1 min 0,000 mm 0,0 UV-I 152 W/m 8,3 C 21,0 C 6,4 km/h (2 Bft) 91,67 %
18.04.2018 18:35 21,0 C 12,2 C 45 % 1029,3 hPa 0,0 l/m 5,3 km/h (1 Bft) O-NO 65 1 min 0,000 mm 0,0 UV-I 150 W/m 8,6 C 21,0 C 6,4 km/h (2 Bft) 95,65 %
18.04.2018 18:36 21,0 C 12,2 C 44 % 1029,4 hPa 0,0 l/m 4,4 km/h (1 Bft) O-SO 103 1 min 0,000 mm 0,0 UV-I 148 W/m 8,3 C 21,0 C 9,7 km/h (2 Bft) 95,83 %
18.04.2018 18:38 20,9 C 12,2 C 43 % 1029,4 hPa 0,0 l/m 3,2 km/h (1 Bft) O-SO 103 2 min 0,000 mm 0,0 UV-I 144 W/m 7,8 C 20,9 C 4,8 km/h (1 Bft) 95,12 %
18.04.2018 18:39 20,9 C 12,2 C 43 % 1029,4 hPa 0,0 l/m 1,4 km/h (1 Bft) O-SO 103 1 min 0,000 mm 0,0 UV-I 142 W/m 7,8 C 20,9 C 3,2 km/h (1 Bft) 95,65 %
18.04.2018 18:40 20,9 C 12,2 C 44 % 1029,4 hPa 0,0 l/m 1,5 km/h (1 Bft) O-SO 103 1 min 0,000 mm 0,0 UV-I 140 W/m 8,2 C 20,9 C 1,6 km/h (1 Bft) 95,83 %
18.04.2018 18:41 20,9 C 12,2 C 44 % 1029,4 hPa 0,0 l/m 2,3 km/h (1 Bft) O-SO 103 1 min 0,000 mm 0,0 UV-I 139 W/m 8,2 C 20,9 C 3,2 km/h (1 Bft) 91,30 %
18.04.2018 18:42 20,9 C 12,2 C 45 % 1029,4 hPa 0,0 l/m 3,2 km/h (1 Bft) O-SO 103 1 min 0,000 mm 0,0 UV-I 135 W/m 8,5 C 20,9 C 6,4 km/h (2 Bft) 91,67 %
18.04.2018 18:43 20,9 C 12,2 C 44 % 1029,4 hPa 0,0 l/m 5,2 km/h (1 Bft) O 100 1 min 0,000 mm 0,0 UV-I 132 W/m 8,2 C 20,9 C 9,7 km/h (2 Bft) 91,30 %
18.04.2018 18:44 20,9 C 12,2 C 45 % 1029,4 hPa 0,0 l/m 4,9 km/h (1 Bft) O 101 1 min 0,000 mm 0,0 UV-I 129 W/m 8,5 C 20,9 C 9,7 km/h (2 Bft) 100,00 %
18.04.2018 18:45 20,9 C 12,2 C 45 % 1029,4 hPa 0,0 l/m 9,1 km/h (2 Bft) O-SO 103 1 min 0,000 mm 0,0 UV-I 128 W/m 8,5 C 19,9 C 11,3 km/h (2 Bft) 88,46 %
18.04.2018 18:46 20,9 C 12,2 C 44 % 1029,4 hPa 0,0 l/m 6,1 km/h (2 Bft) O 89 1 min 0,000 mm 0,0 UV-I 126 W/m 8,2 C 20,9 C 11,3 km/h (2 Bft) 100,00 %
18.04.2018 18:48 20,8 C 12,2 C 44 % 1029,4 hPa 0,0 l/m 5,8 km/h (2 Bft) O 90 2 min 0,000 mm 0,0 UV-I 122 W/m 8,1 C 20,8 C 9,7 km/h (2 Bft) 94,00 %
18.04.2018 18:49 20,8 C 12,2 C 44 % 1029,4 hPa 0,0 l/m 5,1 km/h (1 Bft) O-SO 104 1 min 0,000 mm 0,0 UV-I 119 W/m 8,1 C 20,8 C 6,4 km/h (2 Bft) 88,46 %
18.04.2018 18:50 20,7 C 12,2 C 44 % 1029,4 hPa 0,0 l/m 5,3 km/h (1 Bft) O 96 1 min 0,000 mm 0,0 UV-I 117 W/m 8,0 C 20,7 C 6,4 km/h (2 Bft) 95,83 %
18.04.2018 18:51 20,7 C 12,2 C 44 % 1029,4 hPa 0,0 l/m 5,6 km/h (1 Bft) O 98 1 min 0,000 mm 0,0 UV-I 115 W/m 8,0 C 20,7 C 6,4 km/h (2 Bft) 93,33 %
18.04.2018 18:52 20,7 C 12,2 C 44 % 1029,4 hPa 0,0 l/m 5,0 km/h (1 Bft) O 98 1 min 0,000 mm 0,0 UV-I 113 W/m 8,0 C 20,7 C 6,4 km/h (2 Bft) 100,00 %
18.04.2018 18:53 20,7 C 12,2 C 45 % 1029,4 hPa 0,0 l/m 5,3 km/h (1 Bft) O 90 1 min 0,000 mm 0,0 UV-I 111 W/m 8,3 C 20,7 C 6,4 km/h (2 Bft) 95,83 %
18.04.2018 18:54 20,6 C 12,2 C 45 % 1029,4 hPa 0,0 l/m 5,4 km/h (1 Bft) O-NO 76 1 min 0,000 mm 0,0 UV-I 111 W/m 8,2 C 20,6 C 8,0 km/h (2 Bft) 100,00 %
18.04.2018 18:55 20,6 C 12,2 C 45 % 1029,4 hPa 0,0 l/m 5,7 km/h (1 Bft) O-NO 72 1 min 0,000 mm 0,0 UV-I 107 W/m 8,2 C 20,6 C 8,0 km/h (2 Bft) 95,83 %
18.04.2018 18:56 20,6 C 12,2 C 46 % 1029,4 hPa 0,0 l/m 5,4 km/h (1 Bft) O-NO 74 1 min 0,000 mm 0,0 UV-I 105 W/m 8,6 C 20,6 C 8,0 km/h (2 Bft) 96,15 %
18.04.2018 18:57 20,6 C 12,2 C 45 % 1029,4 hPa 0,0 l/m 4,9 km/h (1 Bft) O-NO 74 1 min 0,000 mm 0,0 UV-I 103 W/m 8,2 C 20,6 C 6,4 km/h (2 Bft) 95,83 %
18.04.2018 18:58 20,5 C 12,2 C 46 % 1029,4 hPa 0,0 l/m 3,1 km/h (1 Bft) O-NO 74 1 min 0,000 mm 0,0 UV-I 102 W/m 8,5 C 20,5 C 3,2 km/h (1 Bft) 96,55 %
18.04.2018 18:59 20,4 C 12,2 C 46 % 1029,4 hPa 0,0 l/m 4,3 km/h (1 Bft) O-SO 117 1 min 0,000 mm 0,0 UV-I 99 W/m 8,4 C 20,4 C 6,4 km/h (2 Bft) 100,00 %
18.04.2018 19:00 20,4 C 12,2 C 45 % 1029,4 hPa 0,0 l/m 5,9 km/h (2 Bft) O 98 1 min 0,000 mm 0,0 UV-I 95 W/m 8,1 C 20,4 C 9,7 km/h (2 Bft) 96,15 %
18.04.2018 19:01 20,4 C 12,2 C 46 % 1029,4 hPa 0,0 l/m 5,3 km/h (1 Bft) O-SO 103 1 min 0,127 mm 0,0 UV-I 90 W/m 8,4 C 20,4 C 9,7 km/h (2 Bft) 100,00 %
18.04.2018 19:02 20,4 C 12,2 C 45 % 1029,4 hPa 0,0 l/m 6,0 km/h (2 Bft) O 100 1 min 0,000 mm 0,0 UV-I 85 W/m 8,1 C 20,4 C 6,4 km/h (2 Bft) 95,65 %
18.04.2018 19:03 20,4 C 12,2 C 45 % 1029,4 hPa 0,0 l/m 5,4 km/h (1 Bft) O 100 1 min 0,000 mm 0,0 UV-I 83 W/m 8,1 C 20,4 C 6,4 km/h (2 Bft) 96,30 %
18.04.2018 19:04 20,4 C 12,2 C 46 % 1029,4 hPa 0,0 l/m 4,7 km/h (1 Bft) O 100 1 min 0,000 mm 0,0 UV-I 82 W/m 8,4 C 20,4 C 6,4 km/h (2 Bft) 100,00 %
18.04.2018 19:05 20,3 C 12,2 C 46 % 1029,4 hPa 0,0 l/m 3,6 km/h (1 Bft) O 101 1 min 0,000 mm 0,0 UV-I 81 W/m 8,3 C 20,3 C 6,4 km/h (2 Bft) 100,00 %
18.04.2018 19:06 20,3 C 12,2 C 47 % 1029,4 hPa 0,0 l/m 3,3 km/h (1 Bft) O 101 1 min 0,000 mm 0,0 UV-I 81 W/m 8,6 C 20,3 C 4,8 km/h (1 Bft) 96,30 %
18.04.2018 19:07 20,3 C 12,2 C 49 % 1029,3 hPa 0,0 l/m 3,0 km/h (1 Bft) O 101 1 min 0,000 mm 0,0 UV-I 79 W/m 9,2 C 20,3 C 4,8 km/h (1 Bft) 96,88 %
18.04.2018 19:08 20,2 C 12,2 C 49 % 1029,3 hPa 0,0 l/m 2,7 km/h (1 Bft) O 101 1 min 0,000 mm 0,0 UV-I 79 W/m 9,1 C 20,2 C 4,8 km/h (1 Bft) 100,00 %
18.04.2018 19:09 20,2 C 12,2 C 50 % 1029,4 hPa 0,0 l/m 2,7 km/h (1 Bft) O 101 1 min 0,000 mm 0,0 UV-I 78 W/m 9,4 C 20,2 C 4,8 km/h (1 Bft) 96,55 %
18.04.2018 19:10 20,1 C 12,2 C 51 % 1029,3 hPa 0,0 l/m 3,2 km/h (1 Bft) O 101 1 min 0,000 mm 0,0 UV-I 76 W/m 9,6 C 20,1 C 4,8 km/h (1 Bft) 100,00 %
18.04.2018 19:11 20,1 C 12,2 C 49 % 1029,3 hPa 0,0 l/m 2,8 km/h (1 Bft) O 101 1 min 0,000 mm 0,0 UV-I 74 W/m 9,0 C 20,1 C 4,8 km/h (1 Bft) 95,65 %
18.04.2018 19:12 20,0 C 12,2 C 50 % 1029,3 hPa 0,0 l/m 2,3 km/h (1 Bft) O 101 1 min 0,000 mm 0,0 UV-I 72 W/m 9,3 C 20,0 C 3,2 km/h (1 Bft) 100,00 %
18.04.2018 19:13 20,0 C 12,2 C 50 % 1029,3 hPa 0,0 l/m 3,2 km/h (1 Bft) O 101 1 min 0,000 mm 0,0 UV-I 71 W/m 9,3 C 20,0 C 4,8 km/h (1 Bft) 95,65 %
18.04.2018 19:14 19,9 C 12,2 C 51 % 1029,3 hPa 0,0 l/m 3,9 km/h (1 Bft) O-SO 105 1 min 0,000 mm 0,0 UV-I 70 W/m 9,5 C 19,9 C 6,4 km/h (2 Bft) 100,00 %
18.04.2018 19:15 19,8 C 12,2 C 49 % 1029,4 hPa 0,0 l/m 2,5 km/h (1 Bft) O-SO 105 1 min 0,000 mm 0,0 UV-I 68 W/m 8,8 C 19,8 C 4,8 km/h (1 Bft) 95,65 %
18.04.2018 19:16 19,8 C 12,2 C 50 % 1029,4 hPa 0,0 l/m 1,5 km/h (1 Bft) O-SO 105 1 min 0,000 mm 0,0 UV-I 63 W/m 9,1 C 19,8 C 4,8 km/h (1 Bft) 96,30 %
18.04.2018 19:17 19,8 C 12,2 C 51 % 1029,4 hPa 0,0 l/m 4,8 km/h (1 Bft) O-SO 106 1 min 0,000 mm 0,0 UV-I 58 W/m 9,4 C 19,8 C 6,4 km/h (2 Bft) 100,00 %
18.04.2018 19:18 19,8 C 12,2 C 49 % 1029,4 hPa 0,0 l/m 2,9 km/h (1 Bft) O-SO 106 0 min 0,000 mm 0,0 UV-I 54 W/m 8,8 C 19,8 C 4,8 km/h (1 Bft) 95,83 %
18.04.2018 19:19 19,8 C 12,2 C 50 % 1029,4 hPa 0,0 l/m 2,9 km/h (1 Bft) O-SO 106 1 min 0,000 mm 0,0 UV-I 54 W/m 9,1 C 19,8 C 4,8 km/h (1 Bft) 100,00 %
18.04.2018 19:20 19,8 C 12,2 C 50 % 1029,4 hPa 0,0 l/m 3,0 km/h (1 Bft) O-SO 106 1 min 0,000 mm 0,0 UV-I 52 W/m 9,1 C 19,8 C 4,8 km/h (1 Bft) 95,83 %
18.04.2018 19:21 19,7 C 12,2 C 51 % 1029,4 hPa 0,0 l/m 3,7 km/h (1 Bft) O-SO 106 1 min 0,000 mm 0,0 UV-I 50 W/m 9,3 C 19,7 C 4,8 km/h (1 Bft) 100,00 %
18.04.2018 19:22 19,6 C 12,2 C 49 % 1029,4 hPa 0,0 l/m 2,8 km/h (1 Bft) O-SO 106 1 min 0,000 mm 0,0 UV-I 48 W/m 8,6 C 19,6 C 3,2 km/h (1 Bft) 100,00 %
18.04.2018 19:23 19,6 C 12,2 C 51 % 1029,4 hPa 0,0 l/m 2,8 km/h (1 Bft) O-SO 106 1 min 0,000 mm 0,0 UV-I 47 W/m 9,2 C 19,6 C 3,2 km/h (1 Bft) 100,00 %
18.04.2018 19:24 19,5 C 12,2 C 50 % 1029,4 hPa 0,0 l/m 2,6 km/h (1 Bft) O-SO 106 1 min 0,000 mm 0,0 UV-I 47 W/m 8,8 C 19,5 C 4,8 km/h (1 Bft) 100,00 %
18.04.2018 19:25 19,5 C 12,2 C 50 % 1029,4 hPa 0,0 l/m 3,1 km/h (1 Bft) O-SO 106 1 min 0,000 mm 0,0 UV-I 46 W/m 8,8 C 19,5 C 4,8 km/h (1 Bft) 100,00 %
18.04.2018 19:26 19,4 C 12,2 C 51 % 1029,4 hPa 0,0 l/m 3,2 km/h (1 Bft) O-SO 106 1 min 0,000 mm 0,0 UV-I 45 W/m 9,0 C 19,4 C 3,2 km/h (1 Bft) 100,00 %
18.04.2018 19:27 19,4 C 12,2 C 53 % 1029,4 hPa 0,0 l/m 2,2 km/h (1 Bft) O-SO 106 1 min 0,000 mm 0,0 UV-I 46 W/m 9,6 C 19,4 C 3,2 km/h (1 Bft) 100,00 %
18.04.2018 19:28 19,3 C 12,2 C 52 % 1029,4 hPa 0,0 l/m 3,0 km/h (1 Bft) O-SO 106 1 min 0,000 mm 0,0 UV-I 46 W/m 9,2 C 19,3 C 3,2 km/h (1 Bft) 100,00 %
18.04.2018 19:29 19,2 C 12,2 C 53 % 1029,4 hPa 0,0 l/m 3,6 km/h (1 Bft) O-SO 107 1 min 0,000 mm 0,0 UV-I 44 W/m 9,4 C 19,2 C 4,8 km/h (1 Bft) 100,00 %
18.04.2018 19:30 19,1 C 12,2 C 55 % 1029,4 hPa 0,0 l/m 3,0 km/h (1 Bft) O-SO 107 1 min 0,000 mm 0,0 UV-I 44 W/m 9,8 C 19,1 C 4,8 km/h (1 Bft) 100,00 %
18.04.2018 19:31 18,9 C 12,2 C 55 % 1029,4 hPa 0,0 l/m 3,2 km/h (1 Bft) O-SO 107 1 min 0,000 mm 0,0 UV-I 41 W/m 9,7 C 18,9 C 4,8 km/h (1 Bft) 100,00 %
18.04.2018 19:33 18,6 C 12,2 C 57 % 1029,4 hPa 0,0 l/m 3,0 km/h (1 Bft) O-SO 107 2 min 0,000 mm 0,0 UV-I 40 W/m 9,9 C 18,6 C 4,8 km/h (1 Bft) 100,00 %
18.04.2018 19:34 18,6 C 12,2 C 57 % 1029,4 hPa 0,0 l/m 2,3 km/h (1 Bft) O-SO 107 1 min 0,000 mm 0,0 UV-I 37 W/m 9,9 C 18,6 C 3,2 km/h (1 Bft) 100,00 %
18.04.2018 19:35 18,5 C 12,2 C 57 % 1029,4 hPa 0,0 l/m 2,0 km/h (1 Bft) O-SO 107 1 min 0,000 mm 0,0 UV-I 35 W/m 9,8 C 18,5 C 3,2 km/h (1 Bft) 100,00 %
18.04.2018 19:36 18,5 C 12,2 C 57 % 1029,4 hPa 0,0 l/m 2,5 km/h (1 Bft) O-SO 107 1 min 0,000 mm 0,0 UV-I 35 W/m 9,8 C 18,5 C 4,8 km/h (1 Bft) 100,00 %
18.04.2018 19:37 18,5 C 12,2 C 56 % 1029,4 hPa 0,0 l/m 1,9 km/h (1 Bft) O-SO 107 1 min 0,000 mm 0,0 UV-I 33 W/m 9,6 C 18,5 C 3,2 km/h (1 Bft) 100,00 %
18.04.2018 19:38 18,4 C 12,2 C 56 % 1029,4 hPa 0,0 l/m 2,8 km/h (1 Bft) O-SO 107 1 min 0,000 mm 0,0 UV-I 31 W/m 9,5 C 18,4 C 4,8 km/h (1 Bft) 100,00 %
18.04.2018 19:39 18,3 C 12,2 C 57 % 1029,4 hPa 0,0 l/m 3,7 km/h (1 Bft) O-SO 107 1 min 0,000 mm 0,0 UV-I 29 W/m 9,6 C 18,3 C 4,8 km/h (1 Bft) 100,00 %
18.04.2018 19:40 18,3 C 12,2 C 57 % 1029,4 hPa 0,0 l/m 3,0 km/h (1 Bft) O-SO 107 1 min 0,000 mm 0,0 UV-I 26 W/m 9,6 C 18,3 C 4,8 km/h (1 Bft) 95,65 %
18.04.2018 19:41 18,2 C 12,2 C 57 % 1029,4 hPa 0,0 l/m 3,1 km/h (1 Bft) O-SO 107 1 min 0,000 mm 0,0 UV-I 25 W/m 9,5 C 18,2 C 3,2 km/h (1 Bft) 100,00 %
18.04.2018 19:42 18,1 C 12,2 C 58 % 1029,4 hPa 0,0 l/m 2,6 km/h (1 Bft) O-SO 107 1 min 0,000 mm 0,0 UV-I 23 W/m 9,7 C 18,1 C 3,2 km/h (1 Bft) 100,00 %
18.04.2018 19:43 18,0 C 12,2 C 58 % 1029,4 hPa 0,0 l/m 2,9 km/h (1 Bft) O-SO 107 1 min 0,000 mm 0,0 UV-I 22 W/m 9,6 C 18,0 C 3,2 km/h (1 Bft) 95,65 %
18.04.2018 19:44 17,9 C 12,2 C 59 % 1029,4 hPa 0,0 l/m 2,9 km/h (1 Bft) O-SO 107 1 min 0,000 mm 0,0 UV-I 21 W/m 9,8 C 17,9 C 3,2 km/h (1 Bft) 100,00 %
18.04.2018 19:45 17,9 C 12,2 C 57 % 1029,4 hPa 0,0 l/m 2,5 km/h (1 Bft) O-SO 107 1 min 0,000 mm 0,0 UV-I 20 W/m 9,3 C 17,9 C 3,2 km/h (1 Bft) 95,65 %
18.04.2018 19:46 18,0 C 12,2 C 57 % 1029,4 hPa 0,0 l/m 2,5 km/h (1 Bft) O-SO 107 1 min 0,000 mm 0,0 UV-I 19 W/m 9,4 C 18,0 C 4,8 km/h (1 Bft) 100,00 %
18.04.2018 19:47 17,9 C 12,2 C 58 % 1029,4 hPa 0,0 l/m 2,1 km/h (1 Bft) O-SO 107 1 min 0,000 mm 0,0 UV-I 18 W/m 9,5 C 17,9 C 3,2 km/h (1 Bft) 100,00 %
18.04.2018 19:48 17,9 C 12,2 C 57 % 1029,4 hPa 0,0 l/m 3,0 km/h (1 Bft) O-SO 107 0 min 0,000 mm 0,0 UV-I 16 W/m 9,3 C 17,9 C 4,8 km/h (1 Bft) 100,00 %
18.04.2018 19:49 17,8 C 12,2 C 58 % 1029,4 hPa 0,0 l/m 3,2 km/h (1 Bft) O-SO 107 0 min 0,000 mm 0,0 UV-I 15 W/m 9,4 C 17,8 C 4,8 km/h (1 Bft) 100,00 %
18.04.2018 19:50 17,6 C 12,2 C 60 % 1029,4 hPa 0,0 l/m 3,5 km/h (1 Bft) O-SO 107 0 min 0,000 mm 0,0 UV-I 14 W/m 9,7 C 17,6 C 4,8 km/h (1 Bft) 95,83 %
18.04.2018 19:51 17,5 C 12,2 C 60 % 1029,4 hPa 0,0 l/m 3,1 km/h (1 Bft) O-SO 107 0 min 0,000 mm 0,0 UV-I 14 W/m 9,6 C 17,5 C 3,2 km/h (1 Bft) 100,00 %
18.04.2018 19:52 17,4 C 12,2 C 60 % 1029,4 hPa 0,0 l/m 2,6 km/h (1 Bft) O-SO 107 0 min 0,000 mm 0,0 UV-I 12 W/m 9,6 C 17,4 C 3,2 km/h (1 Bft) 100,00 %
18.04.2018 19:53 17,3 C 12,2 C 60 % 1029,4 hPa 0,0 l/m 2,7 km/h (1 Bft) O-SO 107 0 min 0,000 mm 0,0 UV-I 12 W/m 9,5 C 17,3 C 4,8 km/h (1 Bft) 100,00 %
18.04.2018 19:54 17,2 C 12,2 C 59 % 1029,4 hPa 0,0 l/m 2,5 km/h (1 Bft) O-SO 107 0 min 0,000 mm 0,0 UV-I 12 W/m 9,1 C 17,2 C 3,2 km/h (1 Bft) 100,00 %
18.04.2018 19:55 17,1 C 12,2 C 59 % 1029,4 hPa 0,0 l/m 2,7 km/h (1 Bft) O-SO 107 0 min 0,000 mm 0,0 UV-I 11 W/m 9,0 C 17,1 C 3,2 km/h (1 Bft) 100,00 %
18.04.2018 19:56 17,1 C 12,2 C 60 % 1029,5 hPa 0,0 l/m 2,8 km/h (1 Bft) O-SO 107 0 min 0,000 mm 0,0 UV-I 11 W/m 9,3 C 17,1 C 3,2 km/h (1 Bft) 100,00 %
18.04.2018 19:58 17,1 C 12,2 C 60 % 1029,4 hPa 0,0 l/m 1,6 km/h (1 Bft) O-SO 107 0 min 0,000 mm 0,0 UV-I 10 W/m 9,3 C 17,1 C 3,2 km/h (1 Bft) 100,00 %
18.04.2018 19:59 17,1 C 12,2 C 59 % 1029,5 hPa 0,0 l/m 1,6 km/h (1 Bft) O-SO 107 0 min 0,000 mm 0,0 UV-I 9 W/m 9,0 C 17,1 C 1,6 km/h (1 Bft) 100,00 %
18.04.2018 20:00 16,8 C 12,2 C 61 % 1029,5 hPa 0,0 l/m 2,1 km/h (1 Bft) O-SO 107 0 min 0,000 mm 0,0 UV-I 9 W/m 9,2 C 16,8 C 3,2 km/h (1 Bft) 100,00 %
18.04.2018 20:02 16,4 C 12,2 C 64 % 1029,5 hPa 0,0 l/m 2,3 km/h (1 Bft) O-SO 107 0 min 0,051 mm 0,0 UV-I 8 W/m 9,6 C 16,4 C 3,2 km/h (1 Bft) 97,56 %
18.04.2018 20:03 16,2 C 12,2 C 65 % 1029,5 hPa 0,0 l/m 2,3 km/h (1 Bft) O-SO 107 0 min 0,000 mm 0,0 UV-I 7 W/m 9,6 C 16,2 C 3,2 km/h (1 Bft) 100,00 %
18.04.2018 20:04 16,1 C 12,2 C 65 % 1029,4 hPa 0,0 l/m 1,5 km/h (1 Bft) O-SO 107 0 min 0,000 mm 0,0 UV-I 7 W/m 9,5 C 16,1 C 1,6 km/h (1 Bft) 100,00 %
18.04.2018 20:05 15,9 C 12,2 C 65 % 1029,5 hPa 0,0 l/m 1,2 km/h (1 Bft) O-SO 107 0 min 0,000 mm 0,0 UV-I 7 W/m 9,3 C 15,9 C 1,6 km/h (1 Bft) 100,00 %
18.04.2018 20:06 15,8 C 12,2 C 66 % 1029,5 hPa 0,0 l/m 1,0 km/h (0 Bft) O-SO 107 0 min 0,000 mm 0,0 UV-I 6 W/m 9,5 C 15,8 C 1,6 km/h (1 Bft) 96,15 %
18.04.2018 20:07 15,8 C 12,2 C 66 % 1029,5 hPa 0,0 l/m 0,5 km/h (0 Bft) O-SO 107 0 min 0,000 mm 0,0 UV-I 5 W/m 9,5 C 15,8 C 1,6 km/h (1 Bft) 100,00 %
18.04.2018 20:08 15,8 C 12,2 C 66 % 1029,5 hPa 0,0 l/m 0,7 km/h (0 Bft) O-SO 107 0 min 0,000 mm 0,0 UV-I 5 W/m 9,5 C 15,8 C 1,6 km/h (1 Bft) 92,31 %
18.04.2018 20:09 15,8 C 12,2 C 66 % 1029,5 hPa 0,0 l/m 0,6 km/h (0 Bft) O-SO 107 0 min 0,000 mm 0,0 UV-I 5 W/m 9,5 C 15,8 C 1,6 km/h (1 Bft) 100,00 %
18.04.2018 20:10 15,7 C 12,2 C 66 % 1029,5 hPa 0,0 l/m 0,7 km/h (0 Bft) O-SO 107 0 min 0,000 mm 0,0 UV-I 5 W/m 9,4 C 15,7 C 1,6 km/h (1 Bft) 100,00 %
18.04.2018 20:11 15,8 C 12,2 C 65 % 1029,5 hPa 0,0 l/m 0,3 km/h (0 Bft) O-SO 107 0 min 0,000 mm 0,0 UV-I 5 W/m 9,2 C 15,8 C 1,6 km/h (1 Bft) 100,00 %
18.04.2018 20:12 15,8 C 12,2 C 65 % 1029,5 hPa 0,0 l/m 0,0 km/h (0 Bft) O-SO 107 0 min 0,000 mm 0,0 UV-I 5 W/m 9,2 C 15,8 C 0,0 km/h (0 Bft) 100,00 %
18.04.2018 20:13 15,8 C 12,2 C 66 % 1029,5 hPa 0,0 l/m 0,0 km/h (0 Bft) O-SO 107 0 min 0,000 mm 0,0 UV-I 5 W/m 9,5 C 15,8 C 0,0 km/h (0 Bft) 100,00 %
18.04.2018 20:14 15,6 C 12,2 C 67 % 1029,5 hPa 0,0 l/m 0,0 km/h (0 Bft) O-SO 107 0 min 0,000 mm 0,0 UV-I 2 W/m 9,5 C 15,6 C 0,0 km/h (0 Bft) 100,00 %
18.04.2018 20:15 15,4 C 12,2 C 66 % 1029,5 hPa 0,0 l/m 0,0 km/h (0 Bft) O-SO 107 0 min 0,000 mm 0,0 UV-I 0 W/m 9,1 C 15,4 C 0,0 km/h (0 Bft) 100,00 %
18.04.2018 20:16 15,4 C 12,2 C 65 % 1029,5 hPa 0,0 l/m 0,0 km/h (0 Bft) O-SO 107 0 min 0,000 mm 0,0 UV-I 0 W/m 8,9 C 15,4 C 0,0 km/h (0 Bft) 100,00 %
18.04.2018 20:17 15,5 C 12,2 C 66 % 1029,5 hPa 0,0 l/m 0,0 km/h (0 Bft) O-SO 107 0 min 0,000 mm 0,0 UV-I 0 W/m 9,2 C 15,5 C 0,0 km/h (0 Bft) 100,00 %
18.04.2018 20:18 15,6 C 12,2 C 65 % 1029,5 hPa 0,0 l/m 0,0 km/h (0 Bft) O-SO 107 0 min 0,000 mm 0,0 UV-I 0 W/m 9,0 C 15,6 C 0,0 km/h (0 Bft) 100,00 %
18.04.2018 20:19 15,4 C 12,2 C 67 % 1029,5 hPa 0,0 l/m 0,0 km/h (0 Bft) O-SO 107 0 min 0,000 mm 0,0 UV-I 0 W/m 9,3 C 15,4 C 0,0 km/h (0 Bft) 100,00 %
18.04.2018 20:20 15,3 C 12,2 C 67 % 1029,6 hPa 0,0 l/m 0,0 km/h (0 Bft) O-SO 107 0 min 0,000 mm 0,0 UV-I 0 W/m 9,2 C 15,3 C 0,0 km/h (0 Bft) 100,00 %
18.04.2018 20:21 15,3 C 12,2 C 66 % 1029,6 hPa 0,0 l/m 0,0 km/h (0 Bft) O-SO 107 0 min 0,000 mm 0,0 UV-I 0 W/m 9,0 C 15,3 C 0,0 km/h (0 Bft) 96,15 %
18.04.2018 20:22 15,4 C 12,2 C 66 % 1029,6 hPa 0,0 l/m 0,0 km/h (0 Bft) O-SO 107 0 min 0,000 mm 0,0 UV-I 0 W/m 9,1 C 15,4 C 0,0 km/h (0 Bft) 100,00 %
18.04.2018 20:23 15,4 C 12,2 C 67 % 1029,6 hPa 0,0 l/m 0,0 km/h (0 Bft) O-SO 107 0 min 0,000 mm 0,0 UV-I 0 W/m 9,3 C 15,4 C 0,0 km/h (0 Bft) 95,83 %
18.04.2018 20:24 15,3 C 12,2 C 67 % 1029,6 hPa 0,0 l/m 0,0 km/h (0 Bft) O-SO 107 0 min 0,000 mm 0,0 UV-I 0 W/m 9,2 C 15,3 C 0,0 km/h (0 Bft) 100,00 %
18.04.2018 20:25 15,2 C 12,2 C 68 % 1029,6 hPa 0,0 l/m 0,0 km/h (0 Bft) O-SO 107 0 min 0,000 mm 0,0 UV-I 0 W/m 9,3 C 15,2 C 0,0 km/h (0 Bft) 91,67 %
18.04.2018 20:26 15,1 C 12,2 C 68 % 1029,6 hPa 0,0 l/m 0,0 km/h (0 Bft) O-SO 107 0 min 0,000 mm 0,0 UV-I 0 W/m 9,2 C 15,1 C 0,0 km/h (0 Bft) 100,00 %
18.04.2018 20:27 14,9 C 12,2 C 68 % 1029,6 hPa 0,0 l/m 0,0 km/h (0 Bft) O-SO 107 0 min 0,000 mm 0,0 UV-I 0 W/m 9,0 C 14,9 C 0,0 km/h (0 Bft) 95,65 %
18.04.2018 20:28 14,9 C 12,2 C 67 % 1029,6 hPa 0,0 l/m 0,9 km/h (0 Bft) O-SO 107 0 min 0,000 mm 0,0 UV-I 0 W/m 8,8 C 14,9 C 3,2 km/h (1 Bft) 95,83 %
18.04.2018 20:29 14,9 C 12,2 C 67 % 1029,6 hPa 0,0 l/m 1,2 km/h (1 Bft) O-SO 107 0 min 0,000 mm 0,0 UV-I 0 W/m 8,8 C 14,9 C 1,6 km/h (1 Bft) 100,00 %
18.04.2018 20:30 14,8 C 12,2 C 66 % 1029,6 hPa 0,0 l/m 1,5 km/h (1 Bft) O-SO 107 0 min 0,000 mm 0,0 UV-I 0 W/m 8,5 C 14,8 C 1,6 km/h (1 Bft) 100,00 %
18.04.2018 20:31 14,7 C 12,2 C 69 % 1029,6 hPa 0,0 l/m 1,7 km/h (1 Bft) O-SO 107 0 min 0,000 mm 0,0 UV-I 0 W/m 9,1 C 14,7 C 3,2 km/h (1 Bft) 95,65 %
18.04.2018 20:32 14,6 C 12,2 C 69 % 1029,7 hPa 0,0 l/m 0,5 km/h (0 Bft) O-SO 107 0 min 0,000 mm 0,0 UV-I 0 W/m 9,0 C 14,6 C 1,6 km/h (1 Bft) 95,83 %
18.04.2018 20:33 14,6 C 12,2 C 69 % 1029,7 hPa 0,0 l/m 0,0 km/h (0 Bft) O-SO 107 0 min 0,000 mm 0,0 UV-I 0 W/m 9,0 C 14,6 C 0,0 km/h (0 Bft) 95,65 %
18.04.2018 20:34 14,5 C 12,2 C 70 % 1029,7 hPa 0,0 l/m 0,0 km/h (0 Bft) O-SO 107 0 min 0,000 mm 0,0 UV-I 0 W/m 9,1 C 14,5 C 0,0 km/h (0 Bft) 93,33 %
18.04.2018 20:35 14,4 C 12,2 C 70 % 1029,7 hPa 0,0 l/m 0,0 km/h (0 Bft) O-SO 107 0 min 0,000 mm 0,0 UV-I 0 W/m 9,0 C 14,4 C 0,0 km/h (0 Bft) 97,37 %
18.04.2018 20:36 14,4 C 12,2 C 70 % 1029,6 hPa 0,0 l/m 0,0 km/h (0 Bft) O-SO 107 0 min 0,000 mm 0,0 UV-I 0 W/m 9,0 C 14,4 C 0,0 km/h (0 Bft) 95,83 %
18.04.2018 20:37 14,4 C 12,2 C 69 % 1029,7 hPa 0,0 l/m 0,0 km/h (0 Bft) O-SO 107 0 min 0,000 mm 0,0 UV-I 0 W/m 8,8 C 14,4 C 0,0 km/h (0 Bft) 95,65 %
18.04.2018 20:38 14,4 C 12,2 C 68 % 1029,7 hPa 0,0 l/m 0,0 km/h (0 Bft) O-SO 107 0 min 0,000 mm 0,0 UV-I 0 W/m 8,6 C 14,4 C 0,0 km/h (0 Bft) 100,00 %
18.04.2018 20:39 14,6 C 12,2 C 67 % 1029,7 hPa 0,0 l/m 0,0 km/h (0 Bft) O-SO 107 0 min 0,000 mm 0,0 UV-I 0 W/m 8,5 C 14,6 C 0,0 km/h (0 Bft) 100,00 %
18.04.2018 20:40 14,7 C 12,2 C 67 % 1029,7 hPa 0,0 l/m 0,0 km/h (0 Bft) O-SO 107 0 min 0,000 mm 0,0 UV-I 0 W/m 8,6 C 14,7 C 0,0 km/h (0 Bft) 95,65 %
18.04.2018 20:41 14,8 C 12,2 C 66 % 1029,7 hPa 0,0 l/m 0,0 km/h (0 Bft) O-SO 107 0 min 0,000 mm 0,0 UV-I 0 W/m 8,5 C 14,8 C 0,0 km/h (0 Bft) 95,83 %
18.04.2018 20:42 14,9 C 12,2 C 65 % 1029,7 hPa 0,0 l/m 0,0 km/h (0 Bft) O-SO 107 0 min 0,000 mm 0,0 UV-I 0 W/m 8,4 C 14,9 C 0,0 km/h (0 Bft) 100,00 %
18.04.2018 20:43 15,1 C 12,2 C 64 % 1029,7 hPa 0,0 l/m 0,0 km/h (0 Bft) O-SO 107 0 min 0,000 mm 0,0 UV-I 0 W/m 8,3 C 15,1 C 0,0 km/h (0 Bft) 95,83 %
18.04.2018 20:44 15,2 C 12,2 C 62 % 1029,8 hPa 0,0 l/m 0,0 km/h (0 Bft) O-SO 107 0 min 0,000 mm 0,0 UV-I 0 W/m 8,0 C 15,2 C 0,0 km/h (0 Bft) 100,00 %
18.04.2018 20:45 15,3 C 12,2 C 62 % 1029,7 hPa 0,0 l/m 0,0 km/h (0 Bft) O-SO 107 0 min 0,000 mm 0,0 UV-I 0 W/m 8,1 C 15,3 C 0,0 km/h (0 Bft) 96,30 %
18.04.2018 20:46 15,3 C 12,2 C 62 % 1029,8 hPa 0,0 l/m 0,0 km/h (0 Bft) O-SO 107 0 min 0,000 mm 0,0 UV-I 0 W/m 8,1 C 15,3 C 0,0 km/h (0 Bft) 96,15 %
18.04.2018 20:47 15,3 C 12,2 C 62 % 1029,8 hPa 0,0 l/m 0,0 km/h (0 Bft) O-SO 107 0 min 0,000 mm 0,0 UV-I 0 W/m 8,1 C 15,3 C 0,0 km/h (0 Bft) 100,00 %
18.04.2018 20:48 15,3 C 12,2 C 62 % 1029,8 hPa 0,0 l/m 0,0 km/h (0 Bft) O-SO 107 0 min 0,000 mm 0,0 UV-I 0 W/m 8,1 C 15,3 C 0,0 km/h (0 Bft) 96,55 %
18.04.2018 20:49 15,3 C 12,2 C 63 % 1029,8 hPa 0,0 l/m 0,0 km/h (0 Bft) O-SO 107 0 min 0,000 mm 0,0 UV-I 0 W/m 8,3 C 15,3 C 0,0 km/h (0 Bft) 100,00 %
18.04.2018 20:50 15,2 C 12,2 C 64 % 1029,8 hPa 0,0 l/m 0,0 km/h (0 Bft) O-SO 107 0 min 0,000 mm 0,0 UV-I 0 W/m 8,4 C 15,2 C 0,0 km/h (0 Bft) 92,31 %
18.04.2018 20:51 15,1 C 12,2 C 64 % 1029,8 hPa 0,0 l/m 0,0 km/h (0 Bft) O-SO 107 0 min 0,000 mm 0,0 UV-I 0 W/m 8,3 C 15,1 C 0,0 km/h (0 Bft) 100,00 %
18.04.2018 20:52 15,0 C 12,2 C 64 % 1029,8 hPa 0,0 l/m 0,0 km/h (0 Bft) O-SO 107 0 min 0,000 mm 0,0 UV-I 0 W/m 8,2 C 15,0 C 0,0 km/h (0 Bft) 96,15 %
18.04.2018 20:53 15,0 C 12,2 C 65 % 1029,8 hPa 0,0 l/m 0,0 km/h (0 Bft) O-SO 107 0 min 0,000 mm 0,0 UV-I 0 W/m 8,5 C 15,0 C 0,0 km/h (0 Bft) 100,00 %
18.04.2018 20:54 15,0 C 12,2 C 64 % 1029,8 hPa 0,0 l/m 0,0 km/h (0 Bft) O-SO 107 0 min 0,000 mm 0,0 UV-I 0 W/m 8,2 C 15,0 C 0,0 km/h (0 Bft) 91,30 %
18.04.2018 20:55 14,9 C 12,2 C 64 % 1029,9 hPa 0,0 l/m 0,0 km/h (0 Bft) O-SO 107 0 min 0,000 mm 0,0 UV-I 0 W/m 8,2 C 14,9 C 0,0 km/h (0 Bft) 100,00 %
18.04.2018 20:56 14,9 C 12,2 C 64 % 1029,9 hPa 0,0 l/m 0,0 km/h (0 Bft) O-SO 107 0 min 0,000 mm 0,0 UV-I 0 W/m 8,2 C 14,9 C 0,0 km/h (0 Bft) 95,65 %
18.04.2018 20:57 14,9 C 12,2 C 64 % 1029,8 hPa 0,0 l/m 0,0 km/h (0 Bft) O-SO 107 0 min 0,000 mm 0,0 UV-I 0 W/m 8,2 C 14,9 C 0,0 km/h (0 Bft) 96,30 %
18.04.2018 20:58 14,9 C 12,2 C 65 % 1029,8 hPa 0,0 l/m 0,0 km/h (0 Bft) O-SO 107 0 min 0,000 mm 0,0 UV-I 0 W/m 8,4 C 14,9 C 0,0 km/h (0 Bft) 100,00 %
18.04.2018 20:59 14,9 C 12,2 C 65 % 1029,8 hPa 0,0 l/m 0,0 km/h (0 Bft) O-SO 107 0 min 0,000 mm 0,0 UV-I 0 W/m 8,4 C 14,9 C 0,0 km/h (0 Bft) 95,83 %
18.04.2018 21:00 14,8 C 12,2 C 64 % 1029,9 hPa 0,0 l/m 0,0 km/h (0 Bft) O-SO 107 0 min 0,000 mm 0,0 UV-I 0 W/m 8,1 C 14,8 C 0,0 km/h (0 Bft) 100,00 %
18.04.2018 21:02 14,6 C 12,2 C 66 % 1029,9 hPa 0,0 l/m 1,7 km/h (1 Bft) O-SO 107 0 min 0,000 mm 0,0 UV-I 0 W/m 8,3 C 14,6 C 3,2 km/h (1 Bft) 97,56 %
18.04.2018 21:03 14,3 C 12,2 C 68 % 1029,9 hPa 0,0 l/m 1,9 km/h (1 Bft) O-SO 107 0 min 0,000 mm 0,0 UV-I 0 W/m 8,5 C 14,3 C 3,2 km/h (1 Bft) 95,65 %
18.04.2018 21:04 14,1 C 12,2 C 69 % 1029,9 hPa 0,0 l/m 2,7 km/h (1 Bft) O-SO 107 0 min 0,000 mm 0,0 UV-I 0 W/m 8,5 C 14,1 C 3,2 km/h (1 Bft) 100,00 %
18.04.2018 21:05 13,9 C 12,2 C 70 % 1029,9 hPa 0,0 l/m 2,1 km/h (1 Bft) O-SO 107 0 min 0,000 mm 0,0 UV-I 0 W/m 8,5 C 13,9 C 3,2 km/h (1 Bft) 100,00 %
18.04.2018 21:06 13,8 C 12,2 C 70 % 1030,0 hPa 0,0 l/m 1,0 km/h (0 Bft) O-SO 107 0 min 0,000 mm 0,0 UV-I 0 W/m 8,4 C 13,8 C 1,6 km/h (1 Bft) 100,00 %
18.04.2018 21:07 13,8 C 12,2 C 69 % 1030,0 hPa 0,0 l/m 0,1 km/h (0 Bft) O-SO 107 0 min 0,000 mm 0,0 UV-I 0 W/m 8,2 C 13,8 C 1,6 km/h (1 Bft) 96,15 %
18.04.2018 21:08 13,9 C 12,2 C 70 % 1030,0 hPa 0,0 l/m 0,0 km/h (0 Bft) O-SO 107 0 min 0,000 mm 0,0 UV-I 0 W/m 8,5 C 13,9 C 0,0 km/h (0 Bft) 95,83 %
18.04.2018 21:09 13,9 C 12,2 C 70 % 1030,0 hPa 0,0 l/m 0,7 km/h (0 Bft) O-SO 107 0 min 0,000 mm 0,0 UV-I 0 W/m 8,5 C 13,9 C 1,6 km/h (1 Bft) 100,00 %
18.04.2018 21:10 13,9 C 12,2 C 70 % 1030,0 hPa 0,0 l/m 1,1 km/h (1 Bft) O-SO 107 0 min 0,000 mm 0,0 UV-I 0 W/m 8,5 C 13,9 C 1,6 km/h (1 Bft) 100,00 %
18.04.2018 21:11 13,9 C 12,2 C 70 % 1030,0 hPa 0,0 l/m 0,0 km/h (0 Bft) O-SO 107 0 min 0,000 mm 0,0 UV-I 0 W/m 8,5 C 13,9 C 0,0 km/h (0 Bft) 95,65 %
18.04.2018 21:12 13,9 C 12,2 C 70 % 1030,0 hPa 0,0 l/m 0,0 km/h (0 Bft) O-SO 107 0 min 0,000 mm 0,0 UV-I 0 W/m 8,5 C 13,9 C 0,0 km/h (0 Bft) 100,00 %
18.04.2018 21:13 13,9 C 12,2 C 70 % 1030,0 hPa 0,0 l/m 0,0 km/h (0 Bft) O-SO 107 0 min 0,000 mm 0,0 UV-I 0 W/m 8,5 C 13,9 C 0,0 km/h (0 Bft) 95,65 %
18.04.2018 21:14 13,8 C 12,2 C 70 % 1030,0 hPa 0,0 l/m 0,0 km/h (0 Bft) O-SO 107 0 min 0,000 mm 0,0 UV-I 0 W/m 8,4 C 13,8 C 0,0 km/h (0 Bft) 100,00 %
18.04.2018 21:15 13,7 C 12,2 C 71 % 1030,0 hPa 0,0 l/m 0,0 km/h (0 Bft) O-SO 107 0 min 0,000 mm 0,0 UV-I 0 W/m 8,5 C 13,7 C 0,0 km/h (0 Bft) 100,00 %
18.04.2018 21:16 13,6 C 12,2 C 71 % 1030,0 hPa 0,0 l/m 0,0 km/h (0 Bft) O-SO 107 0 min 0,000 mm 0,0 UV-I 0 W/m 8,4 C 13,6 C 0,0 km/h (0 Bft) 100,00 %
18.04.2018 21:17 13,6 C 12,2 C 71 % 1030,0 hPa 0,0 l/m 0,0 km/h (0 Bft) O-SO 107 0 min 0,000 mm 0,0 UV-I 0 W/m 8,4 C 13,6 C 0,0 km/h (0 Bft) 100,00 %
18.04.2018 21:18 13,4 C 12,2 C 72 % 1030,0 hPa 0,0 l/m 0,1 km/h (0 Bft) O-SO 107 0 min 0,000 mm 0,0 UV-I 0 W/m 8,5 C 13,4 C 1,6 km/h (1 Bft) 100,00 %
18.04.2018 21:19 13,3 C 12,2 C 73 % 1030,0 hPa 0,0 l/m 1,6 km/h (1 Bft) O-SO 107 0 min 0,000 mm 0,0 UV-I 0 W/m 8,6 C 13,3 C 3,2 km/h (1 Bft) 100,00 %
18.04.2018 21:20 13,2 C 12,2 C 73 % 1030,0 hPa 0,0 l/m 2,2 km/h (1 Bft) O-SO 107 0 min 0,000 mm 0,0 UV-I 0 W/m 8,5 C 13,2 C 3,2 km/h (1 Bft) 100,00 %
18.04.2018 21:21 13,2 C 12,2 C 73 % 1030,0 hPa 0,0 l/m 2,3 km/h (1 Bft) O-SO 107 0 min 0,000 mm 0,0 UV-I 0 W/m 8,5 C 13,2 C 3,2 km/h (1 Bft) 100,00 %
18.04.2018 21:22 13,1 C 12,2 C 73 % 1030,0 hPa 0,0 l/m 3,4 km/h (1 Bft) O-SO 107 0 min 0,000 mm 0,0 UV-I 0 W/m 8,4 C 13,1 C 4,8 km/h (1 Bft) 95,83 %
18.04.2018 21:23 13,1 C 12,2 C 73 % 1030,0 hPa 0,0 l/m 3,6 km/h (1 Bft) O-SO 107 0 min 0,000 mm 0,0 UV-I 0 W/m 8,4 C 13,1 C 4,8 km/h (1 Bft) 100,00 %
18.04.2018 21:24 13,0 C 12,2 C 74 % 1030,0 hPa 0,0 l/m 2,8 km/h (1 Bft) O-SO 107 0 min 0,000 mm 0,0 UV-I 0 W/m 8,5 C 13,0 C 4,8 km/h (1 Bft) 100,00 %
18.04.2018 21:25 13,0 C 12,2 C 73 % 1030,0 hPa 0,0 l/m 2,3 km/h (1 Bft) O-SO 107 0 min 0,000 mm 0,0 UV-I 0 W/m 8,3 C 13,0 C 3,2 km/h (1 Bft) 95,83 %
18.04.2018 21:26 13,1 C 12,2 C 72 % 1030,0 hPa 0,0 l/m 2,3 km/h (1 Bft) O-SO 107 0 min 0,000 mm 0,0 UV-I 0 W/m 8,2 C 13,1 C 3,2 km/h (1 Bft) 100,00 %
18.04.2018 21:28 13,4 C 12,2 C 70 % 1030,0 hPa 0,0 l/m 1,9 km/h (1 Bft) O-SO 107 0 min 0,000 mm 0,0 UV-I 0 W/m 8,0 C 13,4 C 3,2 km/h (1 Bft) 98,11 %
18.04.2018 21:29 13,4 C 12,2 C 70 % 1030,0 hPa 0,0 l/m 0,1 km/h (0 Bft) O-SO 107 0 min 0,000 mm 0,0 UV-I 0 W/m 8,0 C 13,4 C 1,6 km/h (1 Bft) 100,00 %
18.04.2018 21:30 13,5 C 12,2 C 69 % 1030,0 hPa 0,0 l/m 0,0 km/h (0 Bft) O-SO 107 0 min 0,000 mm 0,0 UV-I 0 W/m 7,9 C 13,5 C 0,0 km/h (0 Bft) 100,00 %
18.04.2018 21:31 13,7 C 12,2 C 68 % 1030,1 hPa 0,0 l/m 0,0 km/h (0 Bft) O-SO 107 0 min 0,000 mm 0,0 UV-I 0 W/m 7,9 C 13,7 C 0,0 km/h (0 Bft) 100,00 %
18.04.2018 21:33 13,9 C 12,2 C 68 % 1030,0 hPa 0,0 l/m 0,0 km/h (0 Bft) O-SO 107 0 min 0,000 mm 0,0 UV-I 0 W/m 8,1 C 13,9 C 0,0 km/h (0 Bft) 100,00 %
18.04.2018 21:34 13,9 C 12,2 C 68 % 1030,0 hPa 0,0 l/m 0,0 km/h (0 Bft) O-SO 107 0 min 0,000 mm 0,0 UV-I 0 W/m 8,1 C 13,9 C 0,0 km/h (0 Bft) 93,33 %
18.04.2018 21:35 14,0 C 12,2 C 68 % 1030,0 hPa 0,0 l/m 0,0 km/h (0 Bft) O-SO 107 0 min 0,000 mm 0,0 UV-I 0 W/m 8,2 C 14,0 C 0,0 km/h (0 Bft) 100,00 %
18.04.2018 21:36 13,9 C 12,2 C 68 % 1030,1 hPa 0,0 l/m 0,0 km/h (0 Bft) O-SO 107 0 min 0,000 mm 0,0 UV-I 0 W/m 8,1 C 13,9 C 0,0 km/h (0 Bft) 100,00 %
18.04.2018 21:37 13,8 C 12,2 C 68 % 1030,1 hPa 0,0 l/m 1,3 km/h (1 Bft) O-SO 107 0 min 0,000 mm 0,0 UV-I 0 W/m 8,0 C 13,8 C 3,2 km/h (1 Bft) 91,67 %
18.04.2018 21:38 13,9 C 12,2 C 68 % 1030,1 hPa 0,0 l/m 1,9 km/h (1 Bft) O-SO 107 0 min 0,000 mm 0,0 UV-I 0 W/m 8,1 C 13,9 C 3,2 km/h (1 Bft) 100,00 %
18.04.2018 21:39 13,9 C 12,2 C 68 % 1030,0 hPa 0,0 l/m 2,4 km/h (1 Bft) O-SO 107 0 min 0,000 mm 0,0 UV-I 0 W/m 8,1 C 13,9 C 3,2 km/h (1 Bft) 100,00 %
18.04.2018 21:40 13,8 C 12,2 C 68 % 1030,1 hPa 0,0 l/m 3,2 km/h (1 Bft) O-SO 107 0 min 0,000 mm 0,0 UV-I 0 W/m 8,0 C 13,8 C 3,2 km/h (1 Bft) 100,00 %
18.04.2018 21:41 13,8 C 12,2 C 68 % 1030,1 hPa 0,0 l/m 3,2 km/h (1 Bft) O-SO 107 0 min 0,000 mm 0,0 UV-I 0 W/m 8,0 C 13,8 C 3,2 km/h (1 Bft) 100,00 %
18.04.2018 21:43 13,6 C 12,2 C 70 % 1030,1 hPa 0,0 l/m 3,1 km/h (1 Bft) O-SO 107 0 min 0,000 mm 0,0 UV-I 0 W/m 8,2 C 13,6 C 3,2 km/h (1 Bft) 96,00 %
18.04.2018 21:44 13,5 C 12,2 C 70 % 1030,1 hPa 0,0 l/m 3,1 km/h (1 Bft) O-SO 107 0 min 0,000 mm 0,0 UV-I 0 W/m 8,1 C 13,5 C 3,2 km/h (1 Bft) 100,00 %
18.04.2018 21:45 13,4 C 12,2 C 70 % 1030,1 hPa 0,0 l/m 2,3 km/h (1 Bft) O-SO 107 0 min 0,000 mm 0,0 UV-I 0 W/m 8,0 C 13,4 C 3,2 km/h (1 Bft) 100,00 %
18.04.2018 21:46 13,3 C 12,2 C 71 % 1030,1 hPa 0,0 l/m 2,7 km/h (1 Bft) O-SO 107 0 min 0,000 mm 0,0 UV-I 0 W/m 8,2 C 13,3 C 3,2 km/h (1 Bft) 100,00 %
18.04.2018 21:48 12,9 C 12,2 C 72 % 1030,1 hPa 0,0 l/m 1,0 km/h (0 Bft) O-SO 107 0 min 0,000 mm 0,0 UV-I 0 W/m 8,0 C 12,9 C 3,2 km/h (1 Bft) 100,00 %
18.04.2018 21:49 12,9 C 12,2 C 72 % 1030,1 hPa 0,0 l/m 0,0 km/h (0 Bft) O-SO 107 0 min 0,000 mm 0,0 UV-I 0 W/m 8,0 C 12,9 C 0,0 km/h (0 Bft) 100,00 %
18.04.2018 21:50 12,9 C 12,2 C 72 % 1030,1 hPa 0,0 l/m 1,4 km/h (1 Bft) O-SO 107 0 min 0,000 mm 0,0 UV-I 0 W/m 8,0 C 12,9 C 1,6 km/h (1 Bft) 100,00 %
18.04.2018 21:51 13,1 C 12,2 C 72 % 1030,1 hPa 0,0 l/m 1,5 km/h (1 Bft) O-SO 107 0 min 0,000 mm 0,0 UV-I 0 W/m 8,2 C 13,1 C 1,6 km/h (1 Bft) 95,65 %
18.04.2018 21:52 13,2 C 12,2 C 71 % 1030,1 hPa 0,0 l/m 1,2 km/h (1 Bft) O-SO 107 0 min 0,000 mm 0,0 UV-I 0 W/m 8,1 C 13,2 C 1,6 km/h (1 Bft) 100,00 %
18.04.2018 21:53 13,3 C 12,2 C 71 % 1030,0 hPa 0,0 l/m 0,9 km/h (0 Bft) O-SO 107 0 min 0,000 mm 0,0 UV-I 0 W/m 8,2 C 13,3 C 1,6 km/h (1 Bft) 100,00 %
18.04.2018 21:54 13,4 C 12,2 C 70 % 1030,1 hPa 0,0 l/m 0,1 km/h (0 Bft) O-SO 107 0 min 0,000 mm 0,0 UV-I 0 W/m 8,0 C 13,4 C 1,6 km/h (1 Bft) 100,00 %
18.04.2018 21:55 13,6 C 12,2 C 69 % 1030,0 hPa 0,0 l/m 0,1 km/h (0 Bft) O-SO 107 0 min 0,000 mm 0,0 UV-I 0 W/m 8,0 C 13,6 C 1,6 km/h (1 Bft) 100,00 %
18.04.2018 21:56 13,6 C 12,2 C 69 % 1030,0 hPa 0,0 l/m 0,0 km/h (0 Bft) O-SO 107 0 min 0,000 mm 0,0 UV-I 0 W/m 8,0 C 13,6 C 0,0 km/h (0 Bft) 100,00 %
18.04.2018 21:57 13,7 C 12,2 C 68 % 1030,0 hPa 0,0 l/m 0,0 km/h (0 Bft) O-SO 107 0 min 0,000 mm 0,0 UV-I 0 W/m 7,9 C 13,7 C 0,0 km/h (0 Bft) 100,00 %
18.04.2018 21:58 13,8 C 12,2 C 68 % 1030,0 hPa 0,0 l/m 0,0 km/h (0 Bft) O-SO 107 0 min 0,000 mm 0,0 UV-I 0 W/m 8,0 C 13,8 C 0,0 km/h (0 Bft) 100,00 %
18.04.2018 21:59 13,8 C 12,2 C 68 % 1030,0 hPa 0,0 l/m 0,0 km/h (0 Bft) O-SO 107 0 min 0,000 mm 0,0 UV-I 0 W/m 8,0 C 13,8 C 0,0 km/h (0 Bft) 100,00 %
18.04.2018 22:00 13,8 C 12,2 C 69 % 1030,0 hPa 0,0 l/m 0,0 km/h (0 Bft) O-SO 107 0 min 0,000 mm 0,0 UV-I 0 W/m 8,2 C 13,8 C 0,0 km/h (0 Bft) 100,00 %
18.04.2018 22:01 13,8 C 12,2 C 69 % 1030,0 hPa 0,0 l/m 0,0 km/h (0 Bft) O-SO 107 0 min 0,000 mm 0,0 UV-I 0 W/m 8,2 C 13,8 C 0,0 km/h (0 Bft) 95,83 %
18.04.2018 22:03 13,6 C 12,2 C 69 % 1030,0 hPa 0,0 l/m 0,0 km/h (0 Bft) O-SO 107 0 min 0,000 mm 0,0 UV-I 0 W/m 8,0 C 13,6 C 0,0 km/h (0 Bft) 100,00 %
18.04.2018 22:04 13,6 C 12,2 C 69 % 1030,0 hPa 0,0 l/m 0,0 km/h (0 Bft) O-SO 107 0 min 0,000 mm 0,0 UV-I 0 W/m 8,0 C 13,6 C 0,0 km/h (0 Bft) 92,86 %
18.04.2018 22:05 13,5 C 12,2 C 71 % 1030,0 hPa 0,0 l/m 0,9 km/h (0 Bft) O-SO 107 0 min 0,000 mm 0,0 UV-I 0 W/m 8,3 C 13,5 C 1,6 km/h (1 Bft) 97,93 %
18.04.2018 22:06 13,4 C 12,2 C 71 % 1030,0 hPa 0,0 l/m 2,0 km/h (1 Bft) O-SO 107 0 min 0,000 mm 0,0 UV-I 0 W/m 8,3 C 13,4 C 3,2 km/h (1 Bft) 100,00 %
18.04.2018 22:08 13,3 C 12,2 C 71 % 1029,9 hPa 0,0 l/m 1,6 km/h (1 Bft) O-SO 107 0 min 0,000 mm 0,0 UV-I 0 W/m 8,2 C 13,3 C 3,2 km/h (1 Bft) 98,11 %
18.04.2018 22:09 13,3 C 12,2 C 71 % 1029,9 hPa 0,0 l/m 2,1 km/h (1 Bft) O-SO 107 0 min 0,000 mm 0,0 UV-I 0 W/m 8,2 C 13,3 C 3,2 km/h (1 Bft) 100,00 %
18.04.2018 22:10 13,2 C 12,2 C 71 % 1029,9 hPa 0,0 l/m 2,6 km/h (1 Bft) O-SO 107 0 min 0,000 mm 0,0 UV-I 0 W/m 8,1 C 13,2 C 3,2 km/h (1 Bft) 100,00 %
18.04.2018 22:11 13,1 C 12,2 C 71 % 1030,0 hPa 0,0 l/m 2,4 km/h (1 Bft) O-SO 107 0 min 0,000 mm 0,0 UV-I 0 W/m 8,0 C 13,1 C 3,2 km/h (1 Bft) 100,00 %
18.04.2018 22:12 12,9 C 12,2 C 72 % 1030,0 hPa 0,0 l/m 3,1 km/h (1 Bft) O-SO 107 0 min 0,000 mm 0,0 UV-I 0 W/m 8,0 C 12,9 C 4,8 km/h (1 Bft) 100,00 %
18.04.2018 22:13 12,8 C 12,2 C 73 % 1029,9 hPa 0,0 l/m 3,1 km/h (1 Bft) O-SO 107 0 min 0,000 mm 0,0 UV-I 0 W/m 8,1 C 12,8 C 4,8 km/h (1 Bft) 100,00 %
18.04.2018 22:14 12,8 C 12,2 C 73 % 1030,0 hPa 0,0 l/m 3,5 km/h (1 Bft) O-SO 107 0 min 0,000 mm 0,0 UV-I 0 W/m 8,1 C 12,8 C 4,8 km/h (1 Bft) 100,00 %
18.04.2018 22:15 12,8 C 12,2 C 73 % 1030,0 hPa 0,0 l/m 3,5 km/h (1 Bft) O-SO 107 0 min 0,000 mm 0,0 UV-I 0 W/m 8,1 C 12,8 C 4,8 km/h (1 Bft) 100,00 %
18.04.2018 22:16 12,8 C 12,2 C 73 % 1029,9 hPa 0,0 l/m 3,2 km/h (1 Bft) O-SO 107 0 min 0,000 mm 0,0 UV-I 0 W/m 8,1 C 12,8 C 3,2 km/h (1 Bft) 95,83 %
18.04.2018 22:17 12,9 C 12,2 C 73 % 1029,9 hPa 0,0 l/m 3,2 km/h (1 Bft) O-SO 107 0 min 0,000 mm 0,0 UV-I 0 W/m 8,2 C 12,9 C 3,2 km/h (1 Bft) 96,15 %
18.04.2018 22:18 12,9 C 12,2 C 72 % 1029,9 hPa 0,0 l/m 2,0 km/h (1 Bft) O-SO 107 0 min 0,000 mm 0,0 UV-I 0 W/m 8,0 C 12,9 C 3,2 km/h (1 Bft) 96,15 %
18.04.2018 22:19 13,1 C 12,2 C 71 % 1030,0 hPa 0,0 l/m 1,9 km/h (1 Bft) O-SO 107 0 min 0,000 mm 0,0 UV-I 0 W/m 8,0 C 13,1 C 3,2 km/h (1 Bft) 95,83 %
18.04.2018 22:20 13,2 C 12,2 C 71 % 1030,0 hPa 0,0 l/m 0,6 km/h (0 Bft) O-SO 107 0 min 0,000 mm 0,0 UV-I 0 W/m 8,1 C 13,2 C 1,6 km/h (1 Bft) 100,00 %
18.04.2018 22:21 13,1 C 12,2 C 70 % 1030,0 hPa 0,0 l/m 0,0 km/h (0 Bft) O-SO 107 0 min 0,000 mm 0,0 UV-I 0 W/m 7,8 C 13,1 C 0,0 km/h (0 Bft) 96,15 %
18.04.2018 22:22 13,1 C 12,2 C 71 % 1029,9 hPa 0,0 l/m 0,0 km/h (0 Bft) O-SO 107 0 min 0,000 mm 0,0 UV-I 0 W/m 8,0 C 13,1 C 0,0 km/h (0 Bft) 100,00 %
18.04.2018 22:23 13,2 C 12,2 C 70 % 1030,0 hPa 0,0 l/m 0,0 km/h (0 Bft) O-SO 107 0 min 0,000 mm 0,0 UV-I 0 W/m 7,9 C 13,2 C 0,0 km/h (0 Bft) 92,31 %
18.04.2018 22:24 13,2 C 12,2 C 70 % 1030,0 hPa 0,0 l/m 1,4 km/h (1 Bft) O-SO 107 0 min 0,000 mm 0,0 UV-I 0 W/m 7,9 C 13,2 C 3,2 km/h (1 Bft) 100,00 %
18.04.2018 22:25 13,3 C 12,2 C 70 % 1030,0 hPa 0,0 l/m 2,5 km/h (1 Bft) O-SO 107 0 min 0,000 mm 0,0 UV-I 0 W/m 7,9 C 13,3 C 3,2 km/h (1 Bft) 94,12 %
18.04.2018 22:26 13,3 C 12,2 C 70 % 1030,0 hPa 0,0 l/m 1,9 km/h (1 Bft) O-SO 107 0 min 0,000 mm 0,0 UV-I 0 W/m 7,9 C 13,3 C 3,2 km/h (1 Bft) 100,00 %
18.04.2018 22:28 13,2 C 12,2 C 70 % 1030,0 hPa 0,0 l/m 1,7 km/h (1 Bft) O-SO 107 0 min 0,000 mm 0,0 UV-I 0 W/m 7,9 C 13,2 C 3,2 km/h (1 Bft) 95,74 %
18.04.2018 22:29 13,3 C 12,2 C 70 % 1030,0 hPa 0,0 l/m 1,5 km/h (1 Bft) O-SO 107 0 min 0,000 mm 0,0 UV-I 0 W/m 7,9 C 13,3 C 1,6 km/h (1 Bft) 100,00 %
18.04.2018 22:30 13,3 C 12,2 C 70 % 1030,0 hPa 0,0 l/m 0,5 km/h (0 Bft) O-SO 107 0 min 0,000 mm 0,0 UV-I 0 W/m 7,9 C 13,3 C 1,6 km/h (1 Bft) 91,67 %
18.04.2018 22:31 13,3 C 12,2 C 70 % 1030,0 hPa 0,0 l/m 0,0 km/h (0 Bft) O-SO 107 0 min 0,000 mm 0,0 UV-I 0 W/m 7,9 C 13,3 C 0,0 km/h (0 Bft) 100,00 %
18.04.2018 22:32 13,1 C 12,2 C 71 % 1030,0 hPa 0,0 l/m 1,9 km/h (1 Bft) O-SO 107 0 min 0,000 mm 0,0 UV-I 0 W/m 8,0 C 13,1 C 3,2 km/h (1 Bft) 95,83 %
18.04.2018 22:33 12,7 C 12,2 C 72 % 1030,0 hPa 0,0 l/m 4,0 km/h (1 Bft) O-SO 107 0 min 0,000 mm 0,0 UV-I 0 W/m 7,8 C 12,7 C 4,8 km/h (1 Bft) 100,00 %
18.04.2018 22:34 12,4 C 12,2 C 74 % 1030,0 hPa 0,0 l/m 3,6 km/h (1 Bft) O-SO 107 0 min 0,000 mm 0,0 UV-I 0 W/m 7,9 C 12,4 C 4,8 km/h (1 Bft) 86,96 %
18.04.2018 22:35 12,2 C 12,2 C 74 % 1030,0 hPa 0,0 l/m 3,9 km/h (1 Bft) O-SO 107 0 min 0,000 mm 0,0 UV-I 0 W/m 7,7 C 12,2 C 4,8 km/h (1 Bft) 100,00 %
18.04.2018 22:36 12,1 C 12,2 C 74 % 1030,0 hPa 0,0 l/m 4,8 km/h (1 Bft) O-SO 107 0 min 0,000 mm 0,0 UV-I 0 W/m 7,6 C 12,1 C 4,8 km/h (1 Bft) 90,91 %
18.04.2018 22:37 12,1 C 12,2 C 74 % 1030,0 hPa 0,0 l/m 4,8 km/h (1 Bft) O-SO 107 0 min 0,000 mm 0,0 UV-I 0 W/m 7,6 C 12,1 C 4,8 km/h (1 Bft) 97,44 %
18.04.2018 22:38 12,2 C 12,2 C 74 % 1030,0 hPa 0,0 l/m 5,1 km/h (1 Bft) O-SO 121 0 min 0,000 mm 0,0 UV-I 0 W/m 7,7 C 12,2 C 6,4 km/h (2 Bft) 95,65 %
18.04.2018 22:39 12,3 C 12,2 C 73 % 1030,0 hPa 0,0 l/m 5,2 km/h (1 Bft) O-SO 121 0 min 0,000 mm 0,0 UV-I 0 W/m 7,6 C 12,3 C 6,4 km/h (2 Bft) 91,67 %
18.04.2018 22:40 12,3 C 12,2 C 73 % 1030,0 hPa 0,0 l/m 5,6 km/h (1 Bft) O-SO 121 0 min 0,000 mm 0,0 UV-I 0 W/m 7,6 C 12,3 C 6,4 km/h (2 Bft) 100,00 %
18.04.2018 22:41 12,3 C 12,2 C 73 % 1030,0 hPa 0,0 l/m 5,8 km/h (2 Bft) O-SO 121 0 min 0,000 mm 0,0 UV-I 0 W/m 7,6 C 12,3 C 6,4 km/h (2 Bft) 96,30 %
18.04.2018 22:43 12,3 C 12,2 C 73 % 1029,9 hPa 0,0 l/m 5,3 km/h (1 Bft) O-SO 121 0 min 0,000 mm 0,0 UV-I 0 W/m 7,6 C 12,3 C 6,4 km/h (2 Bft) 100,00 %
18.04.2018 22:44 12,4 C 12,2 C 73 % 1029,9 hPa 0,0 l/m 5,3 km/h (1 Bft) O-SO 121 0 min 0,000 mm 0,0 UV-I 0 W/m 7,7 C 12,4 C 6,4 km/h (2 Bft) 100,00 %
18.04.2018 22:45 12,6 C 12,2 C 72 % 1029,9 hPa 0,0 l/m 5,2 km/h (1 Bft) O-SO 121 0 min 0,000 mm 0,0 UV-I 0 W/m 7,7 C 12,6 C 6,4 km/h (2 Bft) 95,83 %
18.04.2018 22:46 12,6 C 12,2 C 72 % 1029,9 hPa 0,0 l/m 5,3 km/h (1 Bft) O-SO 121 0 min 0,000 mm 0,0 UV-I 0 W/m 7,7 C 12,6 C 6,4 km/h (2 Bft) 100,00 %
18.04.2018 22:47 12,4 C 12,2 C 72 % 1029,9 hPa 0,0 l/m 5,1 km/h (1 Bft) O-SO 121 0 min 0,000 mm 0,0 UV-I 0 W/m 7,5 C 12,4 C 6,4 km/h (2 Bft) 96,67 %
18.04.2018 22:48 12,4 C 12,2 C 72 % 1029,9 hPa 0,0 l/m 4,5 km/h (1 Bft) O-SO 121 0 min 0,000 mm 0,0 UV-I 0 W/m 7,5 C 12,4 C 6,4 km/h (2 Bft) 92,31 %
18.04.2018 22:49 12,4 C 12,2 C 73 % 1029,9 hPa 0,0 l/m 3,5 km/h (1 Bft) O-SO 121 0 min 0,000 mm 0,0 UV-I 0 W/m 7,7 C 12,4 C 4,8 km/h (1 Bft) 100,00 %
18.04.2018 22:50 12,5 C 12,2 C 73 % 1029,9 hPa 0,0 l/m 2,6 km/h (1 Bft) O-SO 121 0 min 0,000 mm 0,0 UV-I 0 W/m 7,8 C 12,5 C 3,2 km/h (1 Bft) 100,00 %
18.04.2018 22:51 12,6 C 12,2 C 72 % 1029,9 hPa 0,0 l/m 2,3 km/h (1 Bft) O-SO 121 0 min 0,000 mm 0,0 UV-I 0 W/m 7,7 C 12,6 C 3,2 km/h (1 Bft) 96,55 %
18.04.2018 22:52 12,6 C 12,2 C 72 % 1029,9 hPa 0,0 l/m 2,3 km/h (1 Bft) O-SO 121 0 min 0,000 mm 0,0 UV-I 0 W/m 7,7 C 12,6 C 3,2 km/h (1 Bft) 96,15 %
18.04.2018 22:53 12,6 C 12,2 C 73 % 1029,9 hPa 0,0 l/m 1,8 km/h (1 Bft) O-SO 121 0 min 0,000 mm 0,0 UV-I 0 W/m 7,9 C 12,6 C 3,2 km/h (1 Bft) 100,00 %
18.04.2018 22:54 12,6 C 12,2 C 72 % 1030,0 hPa 0,0 l/m 2,0 km/h (1 Bft) O-SO 121 0 min 0,000 mm 0,0 UV-I 0 W/m 7,7 C 12,6 C 3,2 km/h (1 Bft) 91,67 %
18.04.2018 22:55 12,6 C 12,2 C 72 % 1029,9 hPa 0,0 l/m 2,2 km/h (1 Bft) O-SO 121 0 min 0,000 mm 0,0 UV-I 0 W/m 7,7 C 12,6 C 3,2 km/h (1 Bft) 100,00 %
18.04.2018 22:56 12,6 C 12,2 C 72 % 1029,9 hPa 0,0 l/m 2,2 km/h (1 Bft) O-SO 121 0 min 0,000 mm 0,0 UV-I 0 W/m 7,7 C 12,6 C 3,2 km/h (1 Bft) 92,59 %
18.04.2018 22:58 12,4 C 12,2 C 73 % 1029,9 hPa 0,0 l/m 2,9 km/h (1 Bft) O-SO 121 0 min 0,000 mm 0,0 UV-I 0 W/m 7,7 C 12,4 C 3,2 km/h (1 Bft) 93,62 %
18.04.2018 22:59 12,4 C 12,2 C 74 % 1029,9 hPa 0,0 l/m 3,2 km/h (1 Bft) O-SO 121 0 min 0,000 mm 0,0 UV-I 0 W/m 7,9 C 12,4 C 3,2 km/h (1 Bft) 92,31 %
18.04.2018 23:00 12,3 C 12,2 C 74 % 1029,9 hPa 0,0 l/m 3,6 km/h (1 Bft) O-SO 121 0 min 0,000 mm 0,0 UV-I 0 W/m 7,8 C 12,3 C 4,8 km/h (1 Bft) 91,67 %
18.04.2018 23:02 12,1 C 12,2 C 75 % 1029,9 hPa 0,0 l/m 3,3 km/h (1 Bft) O-SO 121 0 min 0,025 mm 0,0 UV-I 0 W/m 7,8 C 12,1 C 4,8 km/h (1 Bft) 96,00 %
18.04.2018 23:03 11,9 C 12,2 C 75 % 1029,9 hPa 0,0 l/m 3,2 km/h (1 Bft) O-SO 121 0 min 0,000 mm 0,0 UV-I 0 W/m 7,6 C 11,9 C 4,8 km/h (1 Bft) 78,57 %
18.04.2018 23:04 11,8 C 12,2 C 76 % 1029,9 hPa 0,0 l/m 4,2 km/h (1 Bft) O-SO 121 0 min 0,000 mm 0,0 UV-I 0 W/m 7,7 C 11,8 C 4,8 km/h (1 Bft) 100,00 %
18.04.2018 23:05 11,7 C 12,2 C 76 % 1029,9 hPa 0,0 l/m 4,2 km/h (1 Bft) O-SO 121 0 min 0,000 mm 0,0 UV-I 0 W/m 7,6 C 11,7 C 4,8 km/h (1 Bft) 92,31 %
18.04.2018 23:06 11,7 C 12,2 C 77 % 1029,8 hPa 0,0 l/m 4,3 km/h (1 Bft) O-SO 121 0 min 0,000 mm 0,0 UV-I 0 W/m 7,8 C 11,7 C 4,8 km/h (1 Bft) 96,30 %
18.04.2018 23:08 11,7 C 12,2 C 77 % 1029,9 hPa 0,0 l/m 4,0 km/h (1 Bft) O-SO 121 0 min 0,000 mm 0,0 UV-I 0 W/m 7,8 C 11,7 C 4,8 km/h (1 Bft) 91,43 %
18.04.2018 23:09 11,8 C 12,2 C 77 % 1029,8 hPa 0,0 l/m 3,8 km/h (1 Bft) O-SO 121 0 min 0,000 mm 0,0 UV-I 0 W/m 7,9 C 11,8 C 4,8 km/h (1 Bft) 96,55 %
18.04.2018 23:10 11,8 C 12,2 C 76 % 1029,9 hPa 0,0 l/m 3,8 km/h (1 Bft) O-SO 121 0 min 0,000 mm 0,0 UV-I 0 W/m 7,7 C 11,8 C 4,8 km/h (1 Bft) 95,83 %
18.04.2018 23:11 12,0 C 12,2 C 75 % 1029,9 hPa 0,0 l/m 3,9 km/h (1 Bft) O-SO 121 0 min 0,000 mm 0,0 UV-I 0 W/m 7,7 C 12,0 C 4,8 km/h (1 Bft) 96,15 %
18.04.2018 23:12 12,1 C 12,2 C 74 % 1029,8 hPa 0,0 l/m 5,9 km/h (2 Bft) S-SO 167 0 min 0,000 mm 0,0 UV-I 0 W/m 7,6 C 12,1 C 6,4 km/h (2 Bft) 92,59 %
18.04.2018 23:13 12,1 C 12,2 C 74 % 1029,8 hPa 0,0 l/m 6,0 km/h (2 Bft) S-SO 168 0 min 0,000 mm 0,0 UV-I 0 W/m 7,6 C 12,1 C 6,4 km/h (2 Bft) 100,00 %
18.04.2018 23:14 12,1 C 12,2 C 74 % 1029,9 hPa 0,0 l/m 6,4 km/h (2 Bft) S-SO 168 0 min 0,000 mm 0,0 UV-I 0 W/m 7,6 C 12,1 C 6,4 km/h (2 Bft) 92,31 %
18.04.2018 23:15 12,1 C 12,2 C 74 % 1029,9 hPa 0,0 l/m 4,4 km/h (1 Bft) S-SO 168 0 min 0,000 mm 0,0 UV-I 0 W/m 7,6 C 12,1 C 6,4 km/h (2 Bft) 95,83 %
18.04.2018 23:16 12,1 C 12,2 C 74 % 1029,9 hPa 0,0 l/m 5,8 km/h (2 Bft) S-SO 168 0 min 0,000 mm 0,0 UV-I 0 W/m 7,6 C 12,1 C 6,4 km/h (2 Bft) 95,65 %
18.04.2018 23:17 12,1 C 12,2 C 74 % 1029,9 hPa 0,0 l/m 5,1 km/h (1 Bft) S 181 0 min 0,000 mm 0,0 UV-I 0 W/m 7,6 C 12,1 C 6,4 km/h (2 Bft) 100,00 %
18.04.2018 23:18 12,1 C 12,2 C 75 % 1029,9 hPa 0,0 l/m 5,0 km/h (1 Bft) S 189 0 min 0,000 mm 0,0 UV-I 0 W/m 7,8 C 12,1 C 6,4 km/h (2 Bft) 84,62 %
18.04.2018 23:19 12,0 C 12,2 C 75 % 1029,9 hPa 0,0 l/m 5,4 km/h (1 Bft) S 190 0 min 0,000 mm 0,0 UV-I 0 W/m 7,7 C 12,0 C 6,4 km/h (2 Bft) 100,00 %
18.04.2018 23:20 12,0 C 12,2 C 75 % 1029,9 hPa 0,0 l/m 6,0 km/h (2 Bft) S-SW 193 0 min 0,000 mm 0,0 UV-I 0 W/m 7,7 C 12,0 C 6,4 km/h (2 Bft) 90,24 %
18.04.2018 23:21 12,0 C 12,2 C 75 % 1029,8 hPa 0,0 l/m 5,8 km/h (2 Bft) S-SW 196 0 min 0,000 mm 0,0 UV-I 0 W/m 7,7 C 12,0 C 6,4 km/h (2 Bft) 91,67 %
18.04.2018 23:22 12,1 C 12,2 C 75 % 1029,9 hPa 0,0 l/m 6,1 km/h (2 Bft) S-SW 200 0 min 0,000 mm 0,0 UV-I 0 W/m 7,8 C 12,1 C 6,4 km/h (2 Bft) 96,88 %
18.04.2018 23:23 12,1 C 12,2 C 75 % 1029,9 hPa 0,0 l/m 5,3 km/h (1 Bft) S-SW 200 0 min 0,000 mm 0,0 UV-I 0 W/m 7,8 C 12,1 C 6,4 km/h (2 Bft) 95,83 %
18.04.2018 23:24 11,9 C 12,2 C 75 % 1029,8 hPa 0,0 l/m 5,2 km/h (1 Bft) S-SW 200 0 min 0,000 mm 0,0 UV-I 0 W/m 7,6 C 11,9 C 6,4 km/h (2 Bft) 96,15 %
18.04.2018 23:25 11,8 C 12,2 C 76 % 1029,8 hPa 0,0 l/m 5,1 km/h (1 Bft) S-SW 200 0 min 0,000 mm 0,0 UV-I 0 W/m 7,7 C 11,8 C 6,4 km/h (2 Bft) 100,00 %
18.04.2018 23:26 11,7 C 12,2 C 77 % 1029,8 hPa 0,0 l/m 5,4 km/h (1 Bft) S-SW 200 0 min 0,000 mm 0,0 UV-I 0 W/m 7,8 C 11,7 C 6,4 km/h (2 Bft) 95,65 %
18.04.2018 23:27 11,7 C 12,2 C 77 % 1029,8 hPa 0,0 l/m 5,8 km/h (2 Bft) S-SW 200 0 min 0,000 mm 0,0 UV-I 0 W/m 7,8 C 11,7 C 6,4 km/h (2 Bft) 100,00 %
18.04.2018 23:28 11,7 C 12,2 C 77 % 1029,9 hPa 0,0 l/m 5,7 km/h (1 Bft) S-SW 200 0 min 0,000 mm 0,0 UV-I 0 W/m 7,8 C 11,7 C 6,4 km/h (2 Bft) 91,30 %
18.04.2018 23:29 11,8 C 12,2 C 77 % 1029,9 hPa 0,0 l/m 5,2 km/h (1 Bft) S-SW 200 0 min 0,000 mm 0,0 UV-I 0 W/m 7,9 C 11,8 C 6,4 km/h (2 Bft) 100,00 %
18.04.2018 23:30 11,8 C 12,2 C 77 % 1029,8 hPa 0,0 l/m 4,6 km/h (1 Bft) S-SW 200 0 min 0,000 mm 0,0 UV-I 0 W/m 7,9 C 11,8 C 6,4 km/h (2 Bft) 93,33 %
18.04.2018 23:31 11,7 C 12,2 C 76 % 1029,9 hPa 0,0 l/m 4,9 km/h (1 Bft) S-SW 200 0 min 0,000 mm 0,0 UV-I 0 W/m 7,6 C 11,7 C 6,4 km/h (2 Bft) 100,00 %
18.04.2018 23:32 11,6 C 12,2 C 77 % 1029,9 hPa 0,0 l/m 4,9 km/h (1 Bft) S-SW 200 0 min 0,000 mm 0,0 UV-I 0 W/m 7,7 C 11,6 C 6,4 km/h (2 Bft) 91,67 %
18.04.2018 23:33 11,5 C 12,2 C 77 % 1029,9 hPa 0,0 l/m 4,8 km/h (1 Bft) S-SW 200 0 min 0,000 mm 0,0 UV-I 0 W/m 7,6 C 11,5 C 6,4 km/h (2 Bft) 95,65 %
18.04.2018 23:34 11,3 C 12,2 C 78 % 1029,9 hPa 0,0 l/m 4,9 km/h (1 Bft) S-SW 200 0 min 0,000 mm 0,0 UV-I 0 W/m 7,6 C 11,3 C 6,4 km/h (2 Bft) 100,00 %
18.04.2018 23:35 11,2 C 12,2 C 78 % 1029,9 hPa 0,0 l/m 5,2 km/h (1 Bft) S-SW 200 0 min 0,000 mm 0,0 UV-I 0 W/m 7,5 C 11,2 C 6,4 km/h (2 Bft) 92,31 %
18.04.2018 23:36 11,2 C 12,2 C 78 % 1029,8 hPa 0,0 l/m 4,9 km/h (1 Bft) S-SW 200 0 min 0,000 mm 0,0 UV-I 0 W/m 7,5 C 11,2 C 6,4 km/h (2 Bft) 100,00 %
18.04.2018 23:38 11,3 C 12,2 C 78 % 1029,8 hPa 0,0 l/m 4,0 km/h (1 Bft) S-SW 200 0 min 0,000 mm 0,0 UV-I 0 W/m 7,6 C 11,3 C 4,8 km/h (1 Bft) 97,56 %
18.04.2018 23:39 11,3 C 12,2 C 78 % 1029,8 hPa 0,0 l/m 2,4 km/h (1 Bft) S-SW 200 0 min 0,000 mm 0,0 UV-I 0 W/m 7,6 C 11,3 C 3,2 km/h (1 Bft) 100,00 %
18.04.2018 23:40 11,2 C 12,2 C 78 % 1029,8 hPa 0,0 l/m 1,2 km/h (1 Bft) S-SW 200 0 min 0,000 mm 0,0 UV-I 0 W/m 7,5 C 11,2 C 1,6 km/h (1 Bft) 100,00 %
18.04.2018 23:41 11,2 C 12,2 C 78 % 1029,8 hPa 0,0 l/m 0,5 km/h (0 Bft) S-SW 200 0 min 0,000 mm 0,0 UV-I 0 W/m 7,5 C 11,2 C 1,6 km/h (1 Bft) 100,00 %
18.04.2018 23:42 11,2 C 12,2 C 78 % 1029,8 hPa 0,0 l/m 0,7 km/h (0 Bft) S-SW 200 0 min 0,000 mm 0,0 UV-I 0 W/m 7,5 C 11,2 C 1,6 km/h (1 Bft) 100,00 %
18.04.2018 23:43 11,2 C 12,2 C 78 % 1029,8 hPa 0,0 l/m 0,0 km/h (0 Bft) S-SW 200 0 min 0,000 mm 0,0 UV-I 0 W/m 7,5 C 11,2 C 0,0 km/h (0 Bft) 100,00 %
18.04.2018 23:44 11,3 C 12,2 C 78 % 1029,8 hPa 0,0 l/m 0,0 km/h (0 Bft) S-SW 200 0 min 0,000 mm 0,0 UV-I 0 W/m 7,6 C 11,3 C 0,0 km/h (0 Bft) 95,83 %
18.04.2018 23:45 11,4 C 12,2 C 78 % 1029,8 hPa 0,0 l/m 0,1 km/h (0 Bft) S-SW 200 0 min 0,000 mm 0,0 UV-I 0 W/m 7,7 C 11,4 C 1,6 km/h (1 Bft) 100,00 %
18.04.2018 23:46 11,4 C 12,2 C 78 % 1029,9 hPa 0,0 l/m 2,5 km/h (1 Bft) S-SW 200 0 min 0,000 mm 0,0 UV-I 0 W/m 7,7 C 11,4 C 3,2 km/h (1 Bft) 100,00 %
18.04.2018 23:47 11,5 C 12,2 C 77 % 1029,8 hPa 0,0 l/m 2,8 km/h (1 Bft) S-SW 200 0 min 0,000 mm 0,0 UV-I 0 W/m 7,6 C 11,5 C 3,2 km/h (1 Bft) 100,00 %
18.04.2018 23:48 11,6 C 12,2 C 77 % 1029,9 hPa 0,0 l/m 3,3 km/h (1 Bft) S-SW 200 0 min 0,000 mm 0,0 UV-I 0 W/m 7,7 C 11,6 C 4,8 km/h (1 Bft) 100,00 %
18.04.2018 23:49 11,6 C 12,2 C 77 % 1029,9 hPa 0,0 l/m 3,9 km/h (1 Bft) S-SW 200 0 min 0,000 mm 0,0 UV-I 0 W/m 7,7 C 11,6 C 4,8 km/h (1 Bft) 100,00 %
18.04.2018 23:50 11,5 C 12,2 C 77 % 1029,8 hPa 0,0 l/m 4,5 km/h (1 Bft) S-SW 200 0 min 0,000 mm 0,0 UV-I 0 W/m 7,6 C 11,5 C 4,8 km/h (1 Bft) 100,00 %
18.04.2018 23:51 11,3 C 12,2 C 78 % 1029,9 hPa 0,0 l/m 4,5 km/h (1 Bft) S-SW 200 0 min 0,000 mm 0,0 UV-I 0 W/m 7,6 C 11,3 C 4,8 km/h (1 Bft) 100,00 %
18.04.2018 23:52 11,3 C 12,2 C 78 % 1029,8 hPa 0,0 l/m 4,7 km/h (1 Bft) S-SW 200 0 min 0,000 mm 0,0 UV-I 0 W/m 7,6 C 11,3 C 4,8 km/h (1 Bft) 100,00 %
18.04.2018 23:53 11,2 C 12,2 C 78 % 1029,9 hPa 0,0 l/m 4,7 km/h (1 Bft) S-SW 200 0 min 0,000 mm 0,0 UV-I 0 W/m 7,5 C 11,2 C 4,8 km/h (1 Bft) 95,83 %
18.04.2018 23:54 11,2 C 12,2 C 78 % 1029,9 hPa 0,0 l/m 4,6 km/h (1 Bft) S-SW 200 0 min 0,000 mm 0,0 UV-I 0 W/m 7,5 C 11,2 C 4,8 km/h (1 Bft) 100,00 %
18.04.2018 23:55 11,2 C 12,2 C 78 % 1029,9 hPa 0,0 l/m 3,7 km/h (1 Bft) S-SW 200 0 min 0,000 mm 0,0 UV-I 0 W/m 7,5 C 11,2 C 4,8 km/h (1 Bft) 100,00 %
18.04.2018 23:56 11,1 C 12,2 C 79 % 1029,9 hPa 0,0 l/m 4,0 km/h (1 Bft) S-SW 200 0 min 0,000 mm 0,0 UV-I 0 W/m 7,6 C 11,1 C 4,8 km/h (1 Bft) 100,00 %
18.04.2018 23:57 11,0 C 12,2 C 79 % 1029,9 hPa 0,0 l/m 3,4 km/h (1 Bft) S-SW 200 0 min 0,000 mm 0,0 UV-I 0 W/m 7,5 C 11,0 C 4,8 km/h (1 Bft) 100,00 %
18.04.2018 23:58 11,1 C 12,2 C 79 % 1029,8 hPa 0,0 l/m 2,7 km/h (1 Bft) S-SW 200 0 min 0,000 mm 0,0 UV-I 0 W/m 7,6 C 11,1 C 3,2 km/h (1 Bft) 100,00 %
18.04.2018 23:59 11,2 C 12,2 C 79 % 1029,9 hPa 0,0 l/m 3,2 km/h (1 Bft) S-SW 200 0 min 0,000 mm 0,0 UV-I 0 W/m 7,7 C 11,2 C 3,2 km/h (1 Bft) 100,00 %
_ Min-Zeit 06:05 00:00 15:50 00:00 - 00:10 - - - - - - 06:01 06:05 00:10 14:00
Minimum _ 6,5 C 11,7 C 40 % 1027,8 hPa - 0,0 km/h (0 Bft) - - - - - - 5,6 C 6,5 C 0,0 km/h (0 Bft) 78,57 %
_ Max-Zeit 17:22 11:00 06:07 09:59 00:00 12:54 - - 11:07 13:01 12:39 12:39 11:52 17:22 12:53 00:03
Maximum _ 21,9 C 12,2 C 95 % 1031,4 hPa 0,0 l/m 14,8 km/h
O-SO (3 Bft)
- - 3 min 0,457 mm 3,9 UV-I 771 W/m 11,4 C 21,9 C 19,3 km/h
O (3 Bft)
100,00 %
Durchschnitt _ 14,4 C 11,9 C 70 % 1030,0 hPa #0,0 l/m 3,7 km/h (1 Bft) S-SW - #13:09 h #3,759 mm 2,3 UV-I 418 W/m 8,3 C 14,3 C 5,3 km/h (1 Bft) 97,85 %